<?xml version="1.0" encoding="UTF-8" standalone="no" ?>
<gpx xmlns="http://www.topografix.com/GPX/1/1" xmlns:xsi="http://www.w3.org/2001/XMLSchema-instance" xsi:schemaLocation="http://www.topografix.com/GPX/1/1 http://www.topografix.com/GPX/1/1/gpx.xsd" version="1.1" creator="VisuGPX - https://www.visugpx.com">
  <metadata>
    <name>De Rambouillet à Dourdan</name>
    <desc><![CDATA[Rando menée par Brigitte du RCY.
Courte visite du parc de Rambouillet avant de partir
Superbe.]]></desc>
  </metadata>
  <trk>
    <name><![CDATA[SityTrail - De Rambouillet à Dourdan ]]></name>
    <desc><![CDATA[Rando menée par Brigitte du RCY.
Courte visite du parc de Rambouillet avant de partir
Superbe.]]></desc>
    <trkseg>
      <trkpt lat="48.64391" lon="1.83247">
        <ele>161</ele>
        <time>2025-06-16T06:48:39.747Z</time>
      </trkpt>
      <trkpt lat="48.64391" lon="1.8325">
        <ele>161</ele>
        <time>2025-06-16T06:49:07.612Z</time>
      </trkpt>
      <trkpt lat="48.64389" lon="1.83241">
        <ele>161</ele>
        <time>2025-06-16T06:49:11.750Z</time>
      </trkpt>
      <trkpt lat="48.64385" lon="1.83234">
        <ele>160</ele>
        <time>2025-06-16T06:49:16.066Z</time>
      </trkpt>
      <trkpt lat="48.64382" lon="1.83227">
        <ele>160</ele>
        <time>2025-06-16T06:49:20.528Z</time>
      </trkpt>
      <trkpt lat="48.64377" lon="1.83223">
        <ele>160</ele>
        <time>2025-06-16T06:49:24.747Z</time>
      </trkpt>
      <trkpt lat="48.64374" lon="1.83217">
        <ele>160</ele>
        <time>2025-06-16T06:49:29.290Z</time>
      </trkpt>
      <trkpt lat="48.64371" lon="1.8321">
        <ele>160</ele>
        <time>2025-06-16T06:49:33.746Z</time>
      </trkpt>
      <trkpt lat="48.64367" lon="1.83206">
        <ele>161</ele>
        <time>2025-06-16T06:49:38.188Z</time>
      </trkpt>
      <trkpt lat="48.64367" lon="1.83198">
        <ele>161</ele>
        <time>2025-06-16T06:49:42.745Z</time>
      </trkpt>
      <trkpt lat="48.64368" lon="1.83183">
        <ele>161</ele>
        <time>2025-06-16T06:49:56.746Z</time>
      </trkpt>
      <trkpt lat="48.64368" lon="1.83181">
        <ele>161</ele>
        <time>2025-06-16T06:50:01.745Z</time>
      </trkpt>
      <trkpt lat="48.64368" lon="1.8318">
        <ele>161</ele>
        <time>2025-06-16T06:50:06.745Z</time>
      </trkpt>
      <trkpt lat="48.64368" lon="1.83179">
        <ele>161</ele>
        <time>2025-06-16T06:50:10.746Z</time>
      </trkpt>
      <trkpt lat="48.64369" lon="1.83177">
        <ele>161</ele>
        <time>2025-06-16T06:50:15.746Z</time>
      </trkpt>
      <trkpt lat="48.64369" lon="1.83177">
        <ele>161</ele>
        <time>2025-06-16T06:50:25.653Z</time>
      </trkpt>
      <trkpt lat="48.64369" lon="1.83177">
        <ele>161</ele>
        <time>2025-06-16T06:50:31.190Z</time>
      </trkpt>
      <trkpt lat="48.64369" lon="1.83177">
        <ele>161</ele>
        <time>2025-06-16T06:50:36.147Z</time>
      </trkpt>
      <trkpt lat="48.64374" lon="1.83183">
        <ele>161</ele>
        <time>2025-06-16T06:50:40.687Z</time>
      </trkpt>
      <trkpt lat="48.64379" lon="1.83185">
        <ele>160</ele>
        <time>2025-06-16T06:50:45.253Z</time>
      </trkpt>
      <trkpt lat="48.64384" lon="1.83185">
        <ele>160</ele>
        <time>2025-06-16T06:50:49.509Z</time>
      </trkpt>
      <trkpt lat="48.6439" lon="1.83186">
        <ele>160</ele>
        <time>2025-06-16T06:50:53.886Z</time>
      </trkpt>
      <trkpt lat="48.64396" lon="1.83188">
        <ele>160</ele>
        <time>2025-06-16T06:50:58.213Z</time>
      </trkpt>
      <trkpt lat="48.64407" lon="1.83181">
        <ele>161</ele>
        <time>2025-06-16T06:51:02.746Z</time>
      </trkpt>
      <trkpt lat="48.6441" lon="1.83175">
        <ele>160</ele>
        <time>2025-06-16T06:51:07.512Z</time>
      </trkpt>
      <trkpt lat="48.64411" lon="1.83169">
        <ele>160</ele>
        <time>2025-06-16T06:51:12.024Z</time>
      </trkpt>
      <trkpt lat="48.64411" lon="1.83166">
        <ele>160</ele>
        <time>2025-06-16T06:51:16.232Z</time>
      </trkpt>
      <trkpt lat="48.64411" lon="1.83164">
        <ele>160</ele>
        <time>2025-06-16T06:51:20.566Z</time>
      </trkpt>
      <trkpt lat="48.6441" lon="1.83156">
        <ele>160</ele>
        <time>2025-06-16T06:51:24.893Z</time>
      </trkpt>
      <trkpt lat="48.64408" lon="1.83149">
        <ele>160</ele>
        <time>2025-06-16T06:51:29.583Z</time>
      </trkpt>
      <trkpt lat="48.6441" lon="1.83143">
        <ele>160</ele>
        <time>2025-06-16T06:51:34.328Z</time>
      </trkpt>
      <trkpt lat="48.64412" lon="1.83138">
        <ele>160</ele>
        <time>2025-06-16T06:51:38.746Z</time>
      </trkpt>
      <trkpt lat="48.64414" lon="1.83132">
        <ele>160</ele>
        <time>2025-06-16T06:51:43.209Z</time>
      </trkpt>
      <trkpt lat="48.64416" lon="1.83126">
        <ele>160</ele>
        <time>2025-06-16T06:51:47.629Z</time>
      </trkpt>
      <trkpt lat="48.64419" lon="1.8312">
        <ele>160</ele>
        <time>2025-06-16T06:51:51.745Z</time>
      </trkpt>
      <trkpt lat="48.6442" lon="1.83115">
        <ele>160</ele>
        <time>2025-06-16T06:51:56.050Z</time>
      </trkpt>
      <trkpt lat="48.6442" lon="1.8311">
        <ele>160</ele>
        <time>2025-06-16T06:52:00.546Z</time>
      </trkpt>
      <trkpt lat="48.64418" lon="1.83106">
        <ele>160</ele>
        <time>2025-06-16T06:52:04.659Z</time>
      </trkpt>
      <trkpt lat="48.64414" lon="1.83104">
        <ele>160</ele>
        <time>2025-06-16T06:52:09.368Z</time>
      </trkpt>
      <trkpt lat="48.64411" lon="1.83103">
        <ele>160</ele>
        <time>2025-06-16T06:52:13.626Z</time>
      </trkpt>
      <trkpt lat="48.64406" lon="1.83097">
        <ele>160</ele>
        <time>2025-06-16T06:52:18.150Z</time>
      </trkpt>
      <trkpt lat="48.64396" lon="1.83091">
        <ele>160</ele>
        <time>2025-06-16T06:52:35.745Z</time>
      </trkpt>
      <trkpt lat="48.64396" lon="1.83091">
        <ele>160</ele>
        <time>2025-06-16T06:52:39.746Z</time>
      </trkpt>
      <trkpt lat="48.64396" lon="1.8309">
        <ele>160</ele>
        <time>2025-06-16T06:52:44.292Z</time>
      </trkpt>
      <trkpt lat="48.64397" lon="1.83087">
        <ele>160</ele>
        <time>2025-06-16T06:52:48.505Z</time>
      </trkpt>
      <trkpt lat="48.64394" lon="1.83083">
        <ele>160</ele>
        <time>2025-06-16T06:52:52.567Z</time>
      </trkpt>
      <trkpt lat="48.64391" lon="1.83079">
        <ele>160</ele>
        <time>2025-06-16T06:52:56.954Z</time>
      </trkpt>
      <trkpt lat="48.64388" lon="1.83078">
        <ele>160</ele>
        <time>2025-06-16T06:53:01.731Z</time>
      </trkpt>
      <trkpt lat="48.64386" lon="1.83076">
        <ele>160</ele>
        <time>2025-06-16T06:53:05.746Z</time>
      </trkpt>
      <trkpt lat="48.64385" lon="1.83068">
        <ele>160</ele>
        <time>2025-06-16T06:53:10.746Z</time>
      </trkpt>
      <trkpt lat="48.64387" lon="1.83061">
        <ele>160</ele>
        <time>2025-06-16T06:53:14.993Z</time>
      </trkpt>
      <trkpt lat="48.64385" lon="1.83052">
        <ele>160</ele>
        <time>2025-06-16T06:53:19.186Z</time>
      </trkpt>
      <trkpt lat="48.64384" lon="1.83043">
        <ele>160</ele>
        <time>2025-06-16T06:53:23.649Z</time>
      </trkpt>
      <trkpt lat="48.64383" lon="1.83037">
        <ele>161</ele>
        <time>2025-06-16T06:53:27.949Z</time>
      </trkpt>
      <trkpt lat="48.64377" lon="1.83033">
        <ele>161</ele>
        <time>2025-06-16T06:53:32.310Z</time>
      </trkpt>
      <trkpt lat="48.6437" lon="1.83031">
        <ele>161</ele>
        <time>2025-06-16T06:53:36.746Z</time>
      </trkpt>
      <trkpt lat="48.64363" lon="1.83029">
        <ele>161</ele>
        <time>2025-06-16T06:53:40.746Z</time>
      </trkpt>
      <trkpt lat="48.64358" lon="1.83028">
        <ele>161</ele>
        <time>2025-06-16T06:53:45.002Z</time>
      </trkpt>
      <trkpt lat="48.64353" lon="1.83026">
        <ele>161</ele>
        <time>2025-06-16T06:53:49.408Z</time>
      </trkpt>
      <trkpt lat="48.64349" lon="1.83026">
        <ele>161</ele>
        <time>2025-06-16T06:53:54.036Z</time>
      </trkpt>
      <trkpt lat="48.64345" lon="1.83024">
        <ele>159</ele>
        <time>2025-06-16T06:53:58.186Z</time>
      </trkpt>
      <trkpt lat="48.64345" lon="1.83014">
        <ele>159</ele>
        <time>2025-06-16T06:54:02.444Z</time>
      </trkpt>
      <trkpt lat="48.64345" lon="1.83004">
        <ele>159</ele>
        <time>2025-06-16T06:54:06.667Z</time>
      </trkpt>
      <trkpt lat="48.64346" lon="1.82997">
        <ele>159</ele>
        <time>2025-06-16T06:54:11.044Z</time>
      </trkpt>
      <trkpt lat="48.64345" lon="1.82991">
        <ele>159</ele>
        <time>2025-06-16T06:54:15.310Z</time>
      </trkpt>
      <trkpt lat="48.64344" lon="1.82984">
        <ele>158</ele>
        <time>2025-06-16T06:54:19.746Z</time>
      </trkpt>
      <trkpt lat="48.64343" lon="1.82977">
        <ele>158</ele>
        <time>2025-06-16T06:54:24.253Z</time>
      </trkpt>
      <trkpt lat="48.64343" lon="1.8297">
        <ele>158</ele>
        <time>2025-06-16T06:54:28.746Z</time>
      </trkpt>
      <trkpt lat="48.64344" lon="1.82963">
        <ele>158</ele>
        <time>2025-06-16T06:54:33.033Z</time>
      </trkpt>
      <trkpt lat="48.64342" lon="1.82955">
        <ele>158</ele>
        <time>2025-06-16T06:54:37.546Z</time>
      </trkpt>
      <trkpt lat="48.6434" lon="1.82949">
        <ele>158</ele>
        <time>2025-06-16T06:54:41.606Z</time>
      </trkpt>
      <trkpt lat="48.6434" lon="1.8294">
        <ele>158</ele>
        <time>2025-06-16T06:54:45.712Z</time>
      </trkpt>
      <trkpt lat="48.64339" lon="1.82929">
        <ele>158</ele>
        <time>2025-06-16T06:54:50.130Z</time>
      </trkpt>
      <trkpt lat="48.64338" lon="1.82919">
        <ele>158</ele>
        <time>2025-06-16T06:54:54.429Z</time>
      </trkpt>
      <trkpt lat="48.64338" lon="1.82915">
        <ele>158</ele>
        <time>2025-06-16T06:54:58.894Z</time>
      </trkpt>
      <trkpt lat="48.64337" lon="1.82909">
        <ele>158</ele>
        <time>2025-06-16T06:55:03.388Z</time>
      </trkpt>
      <trkpt lat="48.64335" lon="1.829">
        <ele>160</ele>
        <time>2025-06-16T06:55:07.766Z</time>
      </trkpt>
      <trkpt lat="48.64333" lon="1.82894">
        <ele>160</ele>
        <time>2025-06-16T06:55:12.289Z</time>
      </trkpt>
      <trkpt lat="48.64331" lon="1.82887">
        <ele>160</ele>
        <time>2025-06-16T06:55:16.746Z</time>
      </trkpt>
      <trkpt lat="48.6433" lon="1.82876">
        <ele>160</ele>
        <time>2025-06-16T06:55:21.527Z</time>
      </trkpt>
      <trkpt lat="48.6433" lon="1.82867">
        <ele>163</ele>
        <time>2025-06-16T06:55:25.772Z</time>
      </trkpt>
      <trkpt lat="48.64329" lon="1.82859">
        <ele>163</ele>
        <time>2025-06-16T06:55:30.367Z</time>
      </trkpt>
      <trkpt lat="48.64329" lon="1.82851">
        <ele>163</ele>
        <time>2025-06-16T06:55:34.711Z</time>
      </trkpt>
      <trkpt lat="48.64328" lon="1.82846">
        <ele>165</ele>
        <time>2025-06-16T06:55:38.745Z</time>
      </trkpt>
      <trkpt lat="48.64329" lon="1.82838">
        <ele>165</ele>
        <time>2025-06-16T06:55:43.072Z</time>
      </trkpt>
      <trkpt lat="48.64331" lon="1.82833">
        <ele>165</ele>
        <time>2025-06-16T06:55:47.337Z</time>
      </trkpt>
      <trkpt lat="48.6433" lon="1.82826">
        <ele>165</ele>
        <time>2025-06-16T06:55:51.747Z</time>
      </trkpt>
      <trkpt lat="48.64332" lon="1.8282">
        <ele>165</ele>
        <time>2025-06-16T06:55:55.746Z</time>
      </trkpt>
      <trkpt lat="48.64333" lon="1.82812">
        <ele>164</ele>
        <time>2025-06-16T06:56:00.109Z</time>
      </trkpt>
      <trkpt lat="48.64336" lon="1.82805">
        <ele>164</ele>
        <time>2025-06-16T06:56:04.513Z</time>
      </trkpt>
      <trkpt lat="48.64338" lon="1.82799">
        <ele>164</ele>
        <time>2025-06-16T06:56:08.889Z</time>
      </trkpt>
      <trkpt lat="48.6434" lon="1.82791">
        <ele>162</ele>
        <time>2025-06-16T06:56:13.428Z</time>
      </trkpt>
      <trkpt lat="48.64342" lon="1.82784">
        <ele>162</ele>
        <time>2025-06-16T06:56:17.830Z</time>
      </trkpt>
      <trkpt lat="48.64346" lon="1.82776">
        <ele>162</ele>
        <time>2025-06-16T06:56:22.165Z</time>
      </trkpt>
      <trkpt lat="48.64349" lon="1.82769">
        <ele>166</ele>
        <time>2025-06-16T06:56:26.627Z</time>
      </trkpt>
      <trkpt lat="48.64352" lon="1.82762">
        <ele>164</ele>
        <time>2025-06-16T06:56:30.850Z</time>
      </trkpt>
      <trkpt lat="48.64355" lon="1.82754">
        <ele>164</ele>
        <time>2025-06-16T06:56:35.226Z</time>
      </trkpt>
      <trkpt lat="48.64358" lon="1.82747">
        <ele>164</ele>
        <time>2025-06-16T06:56:39.485Z</time>
      </trkpt>
      <trkpt lat="48.6436" lon="1.82739">
        <ele>164</ele>
        <time>2025-06-16T06:56:43.964Z</time>
      </trkpt>
      <trkpt lat="48.64363" lon="1.82732">
        <ele>163</ele>
        <time>2025-06-16T06:56:48.468Z</time>
      </trkpt>
      <trkpt lat="48.64365" lon="1.82726">
        <ele>163</ele>
        <time>2025-06-16T06:56:52.745Z</time>
      </trkpt>
      <trkpt lat="48.64369" lon="1.82718">
        <ele>163</ele>
        <time>2025-06-16T06:56:57.233Z</time>
      </trkpt>
      <trkpt lat="48.64372" lon="1.82708">
        <ele>162</ele>
        <time>2025-06-16T06:57:01.534Z</time>
      </trkpt>
      <trkpt lat="48.64375" lon="1.82699">
        <ele>162</ele>
        <time>2025-06-16T06:57:05.713Z</time>
      </trkpt>
      <trkpt lat="48.64378" lon="1.82692">
        <ele>164</ele>
        <time>2025-06-16T06:57:10.029Z</time>
      </trkpt>
      <trkpt lat="48.64382" lon="1.82686">
        <ele>164</ele>
        <time>2025-06-16T06:57:14.167Z</time>
      </trkpt>
      <trkpt lat="48.64384" lon="1.82682">
        <ele>164</ele>
        <time>2025-06-16T06:57:18.746Z</time>
      </trkpt>
      <trkpt lat="48.64388" lon="1.8268">
        <ele>161</ele>
        <time>2025-06-16T06:57:23.093Z</time>
      </trkpt>
      <trkpt lat="48.64389" lon="1.82674">
        <ele>161</ele>
        <time>2025-06-16T06:57:27.306Z</time>
      </trkpt>
      <trkpt lat="48.64388" lon="1.82665">
        <ele>161</ele>
        <time>2025-06-16T06:57:31.564Z</time>
      </trkpt>
      <trkpt lat="48.64388" lon="1.82654">
        <ele>161</ele>
        <time>2025-06-16T06:57:35.746Z</time>
      </trkpt>
      <trkpt lat="48.64391" lon="1.82646">
        <ele>158</ele>
        <time>2025-06-16T06:57:40.250Z</time>
      </trkpt>
      <trkpt lat="48.64394" lon="1.82639">
        <ele>158</ele>
        <time>2025-06-16T06:57:44.669Z</time>
      </trkpt>
      <trkpt lat="48.64395" lon="1.82633">
        <ele>158</ele>
        <time>2025-06-16T06:57:49.147Z</time>
      </trkpt>
      <trkpt lat="48.64399" lon="1.82624">
        <ele>156</ele>
        <time>2025-06-16T06:57:53.464Z</time>
      </trkpt>
      <trkpt lat="48.64402" lon="1.82616">
        <ele>156</ele>
        <time>2025-06-16T06:57:57.688Z</time>
      </trkpt>
      <trkpt lat="48.64405" lon="1.82609">
        <ele>158</ele>
        <time>2025-06-16T06:58:01.913Z</time>
      </trkpt>
      <trkpt lat="48.64407" lon="1.82601">
        <ele>158</ele>
        <time>2025-06-16T06:58:06.229Z</time>
      </trkpt>
      <trkpt lat="48.6441" lon="1.82594">
        <ele>156</ele>
        <time>2025-06-16T06:58:10.709Z</time>
      </trkpt>
      <trkpt lat="48.64413" lon="1.82587">
        <ele>156</ele>
        <time>2025-06-16T06:58:14.993Z</time>
      </trkpt>
      <trkpt lat="48.64417" lon="1.82579">
        <ele>156</ele>
        <time>2025-06-16T06:58:19.353Z</time>
      </trkpt>
      <trkpt lat="48.6442" lon="1.82572">
        <ele>156</ele>
        <time>2025-06-16T06:58:23.746Z</time>
      </trkpt>
      <trkpt lat="48.64424" lon="1.82564">
        <ele>156</ele>
        <time>2025-06-16T06:58:28.105Z</time>
      </trkpt>
      <trkpt lat="48.64427" lon="1.82555">
        <ele>156</ele>
        <time>2025-06-16T06:58:32.328Z</time>
      </trkpt>
      <trkpt lat="48.6443" lon="1.82547">
        <ele>156</ele>
        <time>2025-06-16T06:58:36.688Z</time>
      </trkpt>
      <trkpt lat="48.64434" lon="1.82544">
        <ele>156</ele>
        <time>2025-06-16T06:58:40.746Z</time>
      </trkpt>
      <trkpt lat="48.64436" lon="1.82533">
        <ele>155</ele>
        <time>2025-06-16T06:58:44.861Z</time>
      </trkpt>
      <trkpt lat="48.64439" lon="1.82524">
        <ele>155</ele>
        <time>2025-06-16T06:58:49.230Z</time>
      </trkpt>
      <trkpt lat="48.64441" lon="1.82518">
        <ele>155</ele>
        <time>2025-06-16T06:58:53.746Z</time>
      </trkpt>
      <trkpt lat="48.64444" lon="1.82517">
        <ele>155</ele>
        <time>2025-06-16T06:58:58.265Z</time>
      </trkpt>
      <trkpt lat="48.64446" lon="1.82509">
        <ele>155</ele>
        <time>2025-06-16T06:59:02.745Z</time>
      </trkpt>
      <trkpt lat="48.64445" lon="1.82511">
        <ele>155</ele>
        <time>2025-06-16T06:59:07.267Z</time>
      </trkpt>
      <trkpt lat="48.64444" lon="1.82511">
        <ele>155</ele>
        <time>2025-06-16T06:59:11.626Z</time>
      </trkpt>
      <trkpt lat="48.64443" lon="1.82511">
        <ele>155</ele>
        <time>2025-06-16T06:59:15.867Z</time>
      </trkpt>
      <trkpt lat="48.64432" lon="1.82509">
        <ele>155</ele>
        <time>2025-06-16T06:59:20.406Z</time>
      </trkpt>
      <trkpt lat="48.64427" lon="1.82509">
        <ele>154</ele>
        <time>2025-06-16T06:59:24.553Z</time>
      </trkpt>
      <trkpt lat="48.64425" lon="1.825">
        <ele>154</ele>
        <time>2025-06-16T06:59:29.050Z</time>
      </trkpt>
      <trkpt lat="48.64422" lon="1.8249">
        <ele>154</ele>
        <time>2025-06-16T06:59:33.273Z</time>
      </trkpt>
      <trkpt lat="48.64417" lon="1.82483">
        <ele>153</ele>
        <time>2025-06-16T06:59:37.513Z</time>
      </trkpt>
      <trkpt lat="48.64413" lon="1.82478">
        <ele>153</ele>
        <time>2025-06-16T06:59:41.872Z</time>
      </trkpt>
      <trkpt lat="48.64408" lon="1.82472">
        <ele>153</ele>
        <time>2025-06-16T06:59:46.727Z</time>
      </trkpt>
      <trkpt lat="48.64403" lon="1.82466">
        <ele>153</ele>
        <time>2025-06-16T06:59:51.012Z</time>
      </trkpt>
      <trkpt lat="48.64397" lon="1.82461">
        <ele>152</ele>
        <time>2025-06-16T06:59:55.174Z</time>
      </trkpt>
      <trkpt lat="48.64392" lon="1.8246">
        <ele>152</ele>
        <time>2025-06-16T06:59:59.610Z</time>
      </trkpt>
      <trkpt lat="48.64389" lon="1.82455">
        <ele>152</ele>
        <time>2025-06-16T07:00:03.614Z</time>
      </trkpt>
      <trkpt lat="48.64385" lon="1.8245">
        <ele>152</ele>
        <time>2025-06-16T07:00:08.006Z</time>
      </trkpt>
      <trkpt lat="48.6438" lon="1.82445">
        <ele>152</ele>
        <time>2025-06-16T07:00:12.213Z</time>
      </trkpt>
      <trkpt lat="48.64375" lon="1.8244">
        <ele>152</ele>
        <time>2025-06-16T07:00:16.606Z</time>
      </trkpt>
      <trkpt lat="48.64369" lon="1.82434">
        <ele>152</ele>
        <time>2025-06-16T07:00:21.169Z</time>
      </trkpt>
      <trkpt lat="48.64368" lon="1.82431">
        <ele>153</ele>
        <time>2025-06-16T07:00:25.326Z</time>
      </trkpt>
      <trkpt lat="48.64372" lon="1.82425">
        <ele>153</ele>
        <time>2025-06-16T07:00:29.745Z</time>
      </trkpt>
      <trkpt lat="48.64376" lon="1.82419">
        <ele>152</ele>
        <time>2025-06-16T07:00:33.745Z</time>
      </trkpt>
      <trkpt lat="48.64379" lon="1.82415">
        <ele>152</ele>
        <time>2025-06-16T07:00:38.225Z</time>
      </trkpt>
      <trkpt lat="48.6438" lon="1.82414">
        <ele>152</ele>
        <time>2025-06-16T07:00:38.745Z</time>
      </trkpt>
      <trkpt lat="48.6439" lon="1.82401">
        <ele>152</ele>
        <time>2025-06-16T07:00:46.932Z</time>
      </trkpt>
      <trkpt lat="48.64395" lon="1.82391">
        <ele>152</ele>
        <time>2025-06-16T07:00:56.394Z</time>
      </trkpt>
      <trkpt lat="48.644" lon="1.82383">
        <ele>152</ele>
        <time>2025-06-16T07:01:00.745Z</time>
      </trkpt>
      <trkpt lat="48.64404" lon="1.82378">
        <ele>152</ele>
        <time>2025-06-16T07:01:05.007Z</time>
      </trkpt>
      <trkpt lat="48.6441" lon="1.82371">
        <ele>152</ele>
        <time>2025-06-16T07:01:09.305Z</time>
      </trkpt>
      <trkpt lat="48.64415" lon="1.82363">
        <ele>152</ele>
        <time>2025-06-16T07:01:13.649Z</time>
      </trkpt>
      <trkpt lat="48.64419" lon="1.82358">
        <ele>152</ele>
        <time>2025-06-16T07:01:18.129Z</time>
      </trkpt>
      <trkpt lat="48.64422" lon="1.82354">
        <ele>152</ele>
        <time>2025-06-16T07:01:22.386Z</time>
      </trkpt>
      <trkpt lat="48.64426" lon="1.82349">
        <ele>152</ele>
        <time>2025-06-16T07:01:27.012Z</time>
      </trkpt>
      <trkpt lat="48.6443" lon="1.82344">
        <ele>152</ele>
        <time>2025-06-16T07:01:31.508Z</time>
      </trkpt>
      <trkpt lat="48.64433" lon="1.82339">
        <ele>152</ele>
        <time>2025-06-16T07:01:35.673Z</time>
      </trkpt>
      <trkpt lat="48.64438" lon="1.82333">
        <ele>152</ele>
        <time>2025-06-16T07:01:40.049Z</time>
      </trkpt>
      <trkpt lat="48.64445" lon="1.82324">
        <ele>152</ele>
        <time>2025-06-16T07:01:44.307Z</time>
      </trkpt>
      <trkpt lat="48.6445" lon="1.82316">
        <ele>152</ele>
        <time>2025-06-16T07:01:48.667Z</time>
      </trkpt>
      <trkpt lat="48.64453" lon="1.82311">
        <ele>152</ele>
        <time>2025-06-16T07:01:53.147Z</time>
      </trkpt>
      <trkpt lat="48.64458" lon="1.82305">
        <ele>152</ele>
        <time>2025-06-16T07:01:57.567Z</time>
      </trkpt>
      <trkpt lat="48.6446" lon="1.82298">
        <ele>153</ele>
        <time>2025-06-16T07:02:01.748Z</time>
      </trkpt>
      <trkpt lat="48.64464" lon="1.82292">
        <ele>153</ele>
        <time>2025-06-16T07:02:06.314Z</time>
      </trkpt>
      <trkpt lat="48.64468" lon="1.82285">
        <ele>153</ele>
        <time>2025-06-16T07:02:10.691Z</time>
      </trkpt>
      <trkpt lat="48.64472" lon="1.82278">
        <ele>153</ele>
        <time>2025-06-16T07:02:15.008Z</time>
      </trkpt>
      <trkpt lat="48.64474" lon="1.82271">
        <ele>153</ele>
        <time>2025-06-16T07:02:19.410Z</time>
      </trkpt>
      <trkpt lat="48.64476" lon="1.82267">
        <ele>153</ele>
        <time>2025-06-16T07:02:23.745Z</time>
      </trkpt>
      <trkpt lat="48.64479" lon="1.82263">
        <ele>153</ele>
        <time>2025-06-16T07:02:28.593Z</time>
      </trkpt>
      <trkpt lat="48.64472" lon="1.82255">
        <ele>153</ele>
        <time>2025-06-16T07:02:37.744Z</time>
      </trkpt>
      <trkpt lat="48.64475" lon="1.82249">
        <ele>153</ele>
        <time>2025-06-16T07:02:42.619Z</time>
      </trkpt>
      <trkpt lat="48.6448" lon="1.82246">
        <ele>153</ele>
        <time>2025-06-16T07:02:46.745Z</time>
      </trkpt>
      <trkpt lat="48.64483" lon="1.8224">
        <ele>153</ele>
        <time>2025-06-16T07:02:50.745Z</time>
      </trkpt>
      <trkpt lat="48.64486" lon="1.82233">
        <ele>152</ele>
        <time>2025-06-16T07:02:55.273Z</time>
      </trkpt>
      <trkpt lat="48.64487" lon="1.82225">
        <ele>154</ele>
        <time>2025-06-16T07:02:59.301Z</time>
      </trkpt>
      <trkpt lat="48.6449" lon="1.82218">
        <ele>154</ele>
        <time>2025-06-16T07:03:03.720Z</time>
      </trkpt>
      <trkpt lat="48.6449" lon="1.82212">
        <ele>154</ele>
        <time>2025-06-16T07:03:07.745Z</time>
      </trkpt>
      <trkpt lat="48.64492" lon="1.82206">
        <ele>153</ele>
        <time>2025-06-16T07:03:12.302Z</time>
      </trkpt>
      <trkpt lat="48.64493" lon="1.82199">
        <ele>153</ele>
        <time>2025-06-16T07:03:16.460Z</time>
      </trkpt>
      <trkpt lat="48.64494" lon="1.82193">
        <ele>153</ele>
        <time>2025-06-16T07:03:20.538Z</time>
      </trkpt>
      <trkpt lat="48.64495" lon="1.82187">
        <ele>153</ele>
        <time>2025-06-16T07:03:24.693Z</time>
      </trkpt>
      <trkpt lat="48.64496" lon="1.82181">
        <ele>153</ele>
        <time>2025-06-16T07:03:28.744Z</time>
      </trkpt>
      <trkpt lat="48.64498" lon="1.82175">
        <ele>153</ele>
        <time>2025-06-16T07:03:32.745Z</time>
      </trkpt>
      <trkpt lat="48.64499" lon="1.82168">
        <ele>153</ele>
        <time>2025-06-16T07:03:36.878Z</time>
      </trkpt>
      <trkpt lat="48.64502" lon="1.82161">
        <ele>153</ele>
        <time>2025-06-16T07:03:41.401Z</time>
      </trkpt>
      <trkpt lat="48.64504" lon="1.82154">
        <ele>153</ele>
        <time>2025-06-16T07:03:45.897Z</time>
      </trkpt>
      <trkpt lat="48.64506" lon="1.82147">
        <ele>153</ele>
        <time>2025-06-16T07:03:49.959Z</time>
      </trkpt>
      <trkpt lat="48.64509" lon="1.82139">
        <ele>153</ele>
        <time>2025-06-16T07:03:54.327Z</time>
      </trkpt>
      <trkpt lat="48.64511" lon="1.8213">
        <ele>153</ele>
        <time>2025-06-16T07:03:58.627Z</time>
      </trkpt>
      <trkpt lat="48.64514" lon="1.82122">
        <ele>152</ele>
        <time>2025-06-16T07:04:02.953Z</time>
      </trkpt>
      <trkpt lat="48.64516" lon="1.82114">
        <ele>152</ele>
        <time>2025-06-16T07:04:07.213Z</time>
      </trkpt>
      <trkpt lat="48.64518" lon="1.82106">
        <ele>152</ele>
        <time>2025-06-16T07:04:11.528Z</time>
      </trkpt>
      <trkpt lat="48.6452" lon="1.82099">
        <ele>152</ele>
        <time>2025-06-16T07:04:15.735Z</time>
      </trkpt>
      <trkpt lat="48.64522" lon="1.8209">
        <ele>152</ele>
        <time>2025-06-16T07:04:19.967Z</time>
      </trkpt>
      <trkpt lat="48.64523" lon="1.82081">
        <ele>152</ele>
        <time>2025-06-16T07:04:24.266Z</time>
      </trkpt>
      <trkpt lat="48.64525" lon="1.82073">
        <ele>152</ele>
        <time>2025-06-16T07:04:28.567Z</time>
      </trkpt>
      <trkpt lat="48.64527" lon="1.82065">
        <ele>153</ele>
        <time>2025-06-16T07:04:32.850Z</time>
      </trkpt>
      <trkpt lat="48.64529" lon="1.82056">
        <ele>153</ele>
        <time>2025-06-16T07:04:37.253Z</time>
      </trkpt>
      <trkpt lat="48.64531" lon="1.82047">
        <ele>153</ele>
        <time>2025-06-16T07:04:41.630Z</time>
      </trkpt>
      <trkpt lat="48.64532" lon="1.82039">
        <ele>153</ele>
        <time>2025-06-16T07:04:45.973Z</time>
      </trkpt>
      <trkpt lat="48.64533" lon="1.82029">
        <ele>153</ele>
        <time>2025-06-16T07:04:50.351Z</time>
      </trkpt>
      <trkpt lat="48.64534" lon="1.8202">
        <ele>153</ele>
        <time>2025-06-16T07:04:54.514Z</time>
      </trkpt>
      <trkpt lat="48.64534" lon="1.82012">
        <ele>153</ele>
        <time>2025-06-16T07:04:58.744Z</time>
      </trkpt>
      <trkpt lat="48.64533" lon="1.82004">
        <ele>153</ele>
        <time>2025-06-16T07:05:03.353Z</time>
      </trkpt>
      <trkpt lat="48.64531" lon="1.82">
        <ele>153</ele>
        <time>2025-06-16T07:05:07.594Z</time>
      </trkpt>
      <trkpt lat="48.64524" lon="1.81997">
        <ele>153</ele>
        <time>2025-06-16T07:05:12.048Z</time>
      </trkpt>
      <trkpt lat="48.64518" lon="1.81995">
        <ele>153</ele>
        <time>2025-06-16T07:05:16.292Z</time>
      </trkpt>
      <trkpt lat="48.64513" lon="1.81993">
        <ele>152</ele>
        <time>2025-06-16T07:05:20.633Z</time>
      </trkpt>
      <trkpt lat="48.64507" lon="1.81989">
        <ele>152</ele>
        <time>2025-06-16T07:05:24.933Z</time>
      </trkpt>
      <trkpt lat="48.64501" lon="1.81988">
        <ele>152</ele>
        <time>2025-06-16T07:05:29.232Z</time>
      </trkpt>
      <trkpt lat="48.64494" lon="1.81986">
        <ele>151</ele>
        <time>2025-06-16T07:05:33.567Z</time>
      </trkpt>
      <trkpt lat="48.6449" lon="1.81982">
        <ele>151</ele>
        <time>2025-06-16T07:05:37.655Z</time>
      </trkpt>
      <trkpt lat="48.64487" lon="1.81972">
        <ele>151</ele>
        <time>2025-06-16T07:05:41.751Z</time>
      </trkpt>
      <trkpt lat="48.64487" lon="1.81965">
        <ele>151</ele>
        <time>2025-06-16T07:05:45.745Z</time>
      </trkpt>
      <trkpt lat="48.64489" lon="1.81963">
        <ele>151</ele>
        <time>2025-06-16T07:05:50.745Z</time>
      </trkpt>
      <trkpt lat="48.64494" lon="1.81966">
        <ele>151</ele>
        <time>2025-06-16T07:05:59.745Z</time>
      </trkpt>
      <trkpt lat="48.64496" lon="1.81969">
        <ele>151</ele>
        <time>2025-06-16T07:06:03.744Z</time>
      </trkpt>
      <trkpt lat="48.64497" lon="1.8197">
        <ele>151</ele>
        <time>2025-06-16T07:06:08.745Z</time>
      </trkpt>
      <trkpt lat="48.64498" lon="1.81971">
        <ele>151</ele>
        <time>2025-06-16T07:06:13.745Z</time>
      </trkpt>
      <trkpt lat="48.64499" lon="1.81971">
        <ele>151</ele>
        <time>2025-06-16T07:06:18.745Z</time>
      </trkpt>
      <trkpt lat="48.64498" lon="1.81972">
        <ele>151</ele>
        <time>2025-06-16T07:06:23.260Z</time>
      </trkpt>
      <trkpt lat="48.64499" lon="1.81981">
        <ele>151</ele>
        <time>2025-06-16T07:06:27.745Z</time>
      </trkpt>
      <trkpt lat="48.64496" lon="1.81987">
        <ele>152</ele>
        <time>2025-06-16T07:06:32.745Z</time>
      </trkpt>
      <trkpt lat="48.64495" lon="1.81987">
        <ele>152</ele>
        <time>2025-06-16T07:06:37.745Z</time>
      </trkpt>
      <trkpt lat="48.64493" lon="1.81988">
        <ele>152</ele>
        <time>2025-06-16T07:06:42.744Z</time>
      </trkpt>
      <trkpt lat="48.64487" lon="1.81981">
        <ele>151</ele>
        <time>2025-06-16T07:06:47.745Z</time>
      </trkpt>
      <trkpt lat="48.64487" lon="1.81979">
        <ele>151</ele>
        <time>2025-06-16T07:06:52.745Z</time>
      </trkpt>
      <trkpt lat="48.64488" lon="1.81973">
        <ele>151</ele>
        <time>2025-06-16T07:06:57.745Z</time>
      </trkpt>
      <trkpt lat="48.64485" lon="1.81974">
        <ele>150</ele>
        <time>2025-06-16T07:08:21.743Z</time>
      </trkpt>
      <trkpt lat="48.6448" lon="1.8197">
        <ele>150</ele>
        <time>2025-06-16T07:08:26.743Z</time>
      </trkpt>
      <trkpt lat="48.64474" lon="1.8197">
        <ele>150</ele>
        <time>2025-06-16T07:08:31.348Z</time>
      </trkpt>
      <trkpt lat="48.64469" lon="1.81969">
        <ele>150</ele>
        <time>2025-06-16T07:08:35.696Z</time>
      </trkpt>
      <trkpt lat="48.64465" lon="1.81977">
        <ele>150</ele>
        <time>2025-06-16T07:08:40.128Z</time>
      </trkpt>
      <trkpt lat="48.64463" lon="1.81983">
        <ele>150</ele>
        <time>2025-06-16T07:08:44.413Z</time>
      </trkpt>
      <trkpt lat="48.64458" lon="1.81983">
        <ele>150</ele>
        <time>2025-06-16T07:08:48.567Z</time>
      </trkpt>
      <trkpt lat="48.64456" lon="1.81976">
        <ele>150</ele>
        <time>2025-06-16T07:08:52.744Z</time>
      </trkpt>
      <trkpt lat="48.64458" lon="1.81972">
        <ele>150</ele>
        <time>2025-06-16T07:08:57.369Z</time>
      </trkpt>
      <trkpt lat="48.6446" lon="1.81973">
        <ele>150</ele>
        <time>2025-06-16T07:11:20.288Z</time>
      </trkpt>
      <trkpt lat="48.64462" lon="1.81968">
        <ele>150</ele>
        <time>2025-06-16T07:11:24.733Z</time>
      </trkpt>
      <trkpt lat="48.64466" lon="1.81962">
        <ele>150</ele>
        <time>2025-06-16T07:11:28.744Z</time>
      </trkpt>
      <trkpt lat="48.64469" lon="1.81954">
        <ele>150</ele>
        <time>2025-06-16T07:11:33.666Z</time>
      </trkpt>
      <trkpt lat="48.64471" lon="1.81947">
        <ele>150</ele>
        <time>2025-06-16T07:11:37.744Z</time>
      </trkpt>
      <trkpt lat="48.64474" lon="1.81943">
        <ele>150</ele>
        <time>2025-06-16T07:11:42.135Z</time>
      </trkpt>
      <trkpt lat="48.64477" lon="1.81937">
        <ele>150</ele>
        <time>2025-06-16T07:11:46.733Z</time>
      </trkpt>
      <trkpt lat="48.64479" lon="1.81931">
        <ele>150</ele>
        <time>2025-06-16T07:11:51.333Z</time>
      </trkpt>
      <trkpt lat="48.64482" lon="1.81924">
        <ele>150</ele>
        <time>2025-06-16T07:11:55.743Z</time>
      </trkpt>
      <trkpt lat="48.64486" lon="1.81917">
        <ele>150</ele>
        <time>2025-06-16T07:12:00.334Z</time>
      </trkpt>
      <trkpt lat="48.6449" lon="1.81914">
        <ele>151</ele>
        <time>2025-06-16T07:12:04.352Z</time>
      </trkpt>
      <trkpt lat="48.64493" lon="1.81907">
        <ele>151</ele>
        <time>2025-06-16T07:12:08.743Z</time>
      </trkpt>
      <trkpt lat="48.64496" lon="1.819">
        <ele>151</ele>
        <time>2025-06-16T07:12:12.744Z</time>
      </trkpt>
      <trkpt lat="48.64499" lon="1.81892">
        <ele>151</ele>
        <time>2025-06-16T07:12:17.747Z</time>
      </trkpt>
      <trkpt lat="48.64501" lon="1.81883">
        <ele>151</ele>
        <time>2025-06-16T07:12:22.073Z</time>
      </trkpt>
      <trkpt lat="48.64503" lon="1.81877">
        <ele>151</ele>
        <time>2025-06-16T07:12:26.270Z</time>
      </trkpt>
      <trkpt lat="48.64508" lon="1.8187">
        <ele>151</ele>
        <time>2025-06-16T07:12:30.673Z</time>
      </trkpt>
      <trkpt lat="48.64512" lon="1.81865">
        <ele>151</ele>
        <time>2025-06-16T07:12:34.744Z</time>
      </trkpt>
      <trkpt lat="48.64516" lon="1.81857">
        <ele>153</ele>
        <time>2025-06-16T07:12:39.453Z</time>
      </trkpt>
      <trkpt lat="48.64519" lon="1.8185">
        <ele>153</ele>
        <time>2025-06-16T07:12:43.973Z</time>
      </trkpt>
      <trkpt lat="48.64522" lon="1.81842">
        <ele>152</ele>
        <time>2025-06-16T07:12:48.744Z</time>
      </trkpt>
      <trkpt lat="48.64523" lon="1.81841">
        <ele>152</ele>
        <time>2025-06-16T07:12:49.519Z</time>
      </trkpt>
      <trkpt lat="48.64523" lon="1.81824">
        <ele>152</ele>
        <time>2025-06-16T07:12:58.743Z</time>
      </trkpt>
      <trkpt lat="48.64519" lon="1.81818">
        <ele>153</ele>
        <time>2025-06-16T07:13:03.032Z</time>
      </trkpt>
      <trkpt lat="48.64517" lon="1.81812">
        <ele>153</ele>
        <time>2025-06-16T07:13:07.335Z</time>
      </trkpt>
      <trkpt lat="48.64513" lon="1.81806">
        <ele>151</ele>
        <time>2025-06-16T07:13:11.744Z</time>
      </trkpt>
      <trkpt lat="48.64508" lon="1.81803">
        <ele>151</ele>
        <time>2025-06-16T07:13:16.434Z</time>
      </trkpt>
      <trkpt lat="48.64504" lon="1.81801">
        <ele>151</ele>
        <time>2025-06-16T07:13:20.574Z</time>
      </trkpt>
      <trkpt lat="48.64502" lon="1.81793">
        <ele>151</ele>
        <time>2025-06-16T07:13:24.673Z</time>
      </trkpt>
      <trkpt lat="48.64504" lon="1.81782">
        <ele>150</ele>
        <time>2025-06-16T07:13:29.318Z</time>
      </trkpt>
      <trkpt lat="48.64505" lon="1.81774">
        <ele>150</ele>
        <time>2025-06-16T07:13:33.744Z</time>
      </trkpt>
      <trkpt lat="48.64508" lon="1.81764">
        <ele>150</ele>
        <time>2025-06-16T07:13:38.434Z</time>
      </trkpt>
      <trkpt lat="48.64508" lon="1.81756">
        <ele>150</ele>
        <time>2025-06-16T07:13:42.528Z</time>
      </trkpt>
      <trkpt lat="48.64511" lon="1.8175">
        <ele>150</ele>
        <time>2025-06-16T07:13:46.743Z</time>
      </trkpt>
      <trkpt lat="48.64513" lon="1.81743">
        <ele>150</ele>
        <time>2025-06-16T07:13:51.613Z</time>
      </trkpt>
      <trkpt lat="48.64516" lon="1.81738">
        <ele>153</ele>
        <time>2025-06-16T07:13:55.743Z</time>
      </trkpt>
      <trkpt lat="48.6452" lon="1.8173">
        <ele>152</ele>
        <time>2025-06-16T07:14:00.749Z</time>
      </trkpt>
      <trkpt lat="48.64522" lon="1.81723">
        <ele>152</ele>
        <time>2025-06-16T07:14:05.135Z</time>
      </trkpt>
      <trkpt lat="48.64524" lon="1.81717">
        <ele>152</ele>
        <time>2025-06-16T07:14:09.235Z</time>
      </trkpt>
      <trkpt lat="48.64528" lon="1.81712">
        <ele>152</ele>
        <time>2025-06-16T07:14:13.312Z</time>
      </trkpt>
      <trkpt lat="48.64533" lon="1.81708">
        <ele>150</ele>
        <time>2025-06-16T07:14:17.744Z</time>
      </trkpt>
      <trkpt lat="48.64536" lon="1.81707">
        <ele>150</ele>
        <time>2025-06-16T07:14:21.744Z</time>
      </trkpt>
      <trkpt lat="48.64539" lon="1.81706">
        <ele>150</ele>
        <time>2025-06-16T07:14:26.057Z</time>
      </trkpt>
      <trkpt lat="48.64545" lon="1.81703">
        <ele>151</ele>
        <time>2025-06-16T07:14:30.749Z</time>
      </trkpt>
      <trkpt lat="48.64546" lon="1.81701">
        <ele>151</ele>
        <time>2025-06-16T07:14:34.744Z</time>
      </trkpt>
      <trkpt lat="48.64544" lon="1.81691">
        <ele>151</ele>
        <time>2025-06-16T07:14:52.568Z</time>
      </trkpt>
      <trkpt lat="48.64544" lon="1.81688">
        <ele>151</ele>
        <time>2025-06-16T07:14:56.613Z</time>
      </trkpt>
      <trkpt lat="48.64549" lon="1.81678">
        <ele>149</ele>
        <time>2025-06-16T07:15:01.109Z</time>
      </trkpt>
      <trkpt lat="48.64548" lon="1.81667">
        <ele>149</ele>
        <time>2025-06-16T07:15:05.649Z</time>
      </trkpt>
      <trkpt lat="48.64549" lon="1.8166">
        <ele>149</ele>
        <time>2025-06-16T07:15:09.954Z</time>
      </trkpt>
      <trkpt lat="48.64549" lon="1.81654">
        <ele>149</ele>
        <time>2025-06-16T07:15:14.088Z</time>
      </trkpt>
      <trkpt lat="48.64552" lon="1.81647">
        <ele>147</ele>
        <time>2025-06-16T07:15:18.742Z</time>
      </trkpt>
      <trkpt lat="48.64555" lon="1.81641">
        <ele>147</ele>
        <time>2025-06-16T07:15:22.743Z</time>
      </trkpt>
      <trkpt lat="48.64559" lon="1.81635">
        <ele>147</ele>
        <time>2025-06-16T07:15:27.333Z</time>
      </trkpt>
      <trkpt lat="48.64563" lon="1.81627">
        <ele>147</ele>
        <time>2025-06-16T07:15:31.633Z</time>
      </trkpt>
      <trkpt lat="48.64567" lon="1.81619">
        <ele>146</ele>
        <time>2025-06-16T07:15:36.393Z</time>
      </trkpt>
      <trkpt lat="48.6457" lon="1.81613">
        <ele>148</ele>
        <time>2025-06-16T07:15:40.473Z</time>
      </trkpt>
      <trkpt lat="48.64574" lon="1.81605">
        <ele>148</ele>
        <time>2025-06-16T07:15:45.309Z</time>
      </trkpt>
      <trkpt lat="48.64577" lon="1.81598">
        <ele>148</ele>
        <time>2025-06-16T07:15:49.743Z</time>
      </trkpt>
      <trkpt lat="48.64578" lon="1.81596">
        <ele>146</ele>
        <time>2025-06-16T07:15:51.555Z</time>
      </trkpt>
      <trkpt lat="48.64582" lon="1.81586">
        <ele>146</ele>
        <time>2025-06-16T07:16:00.750Z</time>
      </trkpt>
      <trkpt lat="48.64586" lon="1.81586">
        <ele>146</ele>
        <time>2025-06-16T07:16:05.578Z</time>
      </trkpt>
      <trkpt lat="48.6459" lon="1.81585">
        <ele>146</ele>
        <time>2025-06-16T07:16:17.743Z</time>
      </trkpt>
      <trkpt lat="48.64589" lon="1.81582">
        <ele>146</ele>
        <time>2025-06-16T07:16:22.500Z</time>
      </trkpt>
      <trkpt lat="48.64593" lon="1.81575">
        <ele>146</ele>
        <time>2025-06-16T07:16:26.742Z</time>
      </trkpt>
      <trkpt lat="48.64595" lon="1.8157">
        <ele>146</ele>
        <time>2025-06-16T07:16:31.429Z</time>
      </trkpt>
      <trkpt lat="48.64597" lon="1.81564">
        <ele>146</ele>
        <time>2025-06-16T07:16:35.613Z</time>
      </trkpt>
      <trkpt lat="48.64599" lon="1.81557">
        <ele>146</ele>
        <time>2025-06-16T07:16:40.107Z</time>
      </trkpt>
      <trkpt lat="48.64601" lon="1.81552">
        <ele>146</ele>
        <time>2025-06-16T07:16:44.187Z</time>
      </trkpt>
      <trkpt lat="48.64605" lon="1.81545">
        <ele>146</ele>
        <time>2025-06-16T07:16:48.368Z</time>
      </trkpt>
      <trkpt lat="48.64609" lon="1.81539">
        <ele>146</ele>
        <time>2025-06-16T07:16:52.490Z</time>
      </trkpt>
      <trkpt lat="48.64613" lon="1.81533">
        <ele>146</ele>
        <time>2025-06-16T07:16:56.743Z</time>
      </trkpt>
      <trkpt lat="48.64616" lon="1.81525">
        <ele>146</ele>
        <time>2025-06-16T07:17:01.269Z</time>
      </trkpt>
      <trkpt lat="48.6462" lon="1.81518">
        <ele>146</ele>
        <time>2025-06-16T07:17:05.706Z</time>
      </trkpt>
      <trkpt lat="48.64623" lon="1.81511">
        <ele>147</ele>
        <time>2025-06-16T07:17:10.334Z</time>
      </trkpt>
      <trkpt lat="48.64626" lon="1.81505">
        <ele>148</ele>
        <time>2025-06-16T07:17:14.367Z</time>
      </trkpt>
      <trkpt lat="48.6463" lon="1.815">
        <ele>148</ele>
        <time>2025-06-16T07:17:18.743Z</time>
      </trkpt>
      <trkpt lat="48.64633" lon="1.81498">
        <ele>148</ele>
        <time>2025-06-16T07:17:23.327Z</time>
      </trkpt>
      <trkpt lat="48.64637" lon="1.81501">
        <ele>148</ele>
        <time>2025-06-16T07:17:27.632Z</time>
      </trkpt>
      <trkpt lat="48.64642" lon="1.81507">
        <ele>148</ele>
        <time>2025-06-16T07:17:31.742Z</time>
      </trkpt>
      <trkpt lat="48.64647" lon="1.81512">
        <ele>148</ele>
        <time>2025-06-16T07:17:36.743Z</time>
      </trkpt>
      <trkpt lat="48.64651" lon="1.81515">
        <ele>147</ele>
        <time>2025-06-16T07:17:40.809Z</time>
      </trkpt>
      <trkpt lat="48.64654" lon="1.81523">
        <ele>150</ele>
        <time>2025-06-16T07:17:45.613Z</time>
      </trkpt>
      <trkpt lat="48.64658" lon="1.8153">
        <ele>150</ele>
        <time>2025-06-16T07:17:50.093Z</time>
      </trkpt>
      <trkpt lat="48.64659" lon="1.81538">
        <ele>150</ele>
        <time>2025-06-16T07:17:54.743Z</time>
      </trkpt>
      <trkpt lat="48.6466" lon="1.81544">
        <ele>150</ele>
        <time>2025-06-16T07:17:58.830Z</time>
      </trkpt>
      <trkpt lat="48.64662" lon="1.81551">
        <ele>150</ele>
        <time>2025-06-16T07:18:02.934Z</time>
      </trkpt>
      <trkpt lat="48.64667" lon="1.81556">
        <ele>150</ele>
        <time>2025-06-16T07:18:07.743Z</time>
      </trkpt>
      <trkpt lat="48.64673" lon="1.81561">
        <ele>150</ele>
        <time>2025-06-16T07:18:12.742Z</time>
      </trkpt>
      <trkpt lat="48.64676" lon="1.81565">
        <ele>150</ele>
        <time>2025-06-16T07:18:17.013Z</time>
      </trkpt>
      <trkpt lat="48.6468" lon="1.81572">
        <ele>150</ele>
        <time>2025-06-16T07:18:21.610Z</time>
      </trkpt>
      <trkpt lat="48.64681" lon="1.81579">
        <ele>152</ele>
        <time>2025-06-16T07:18:26.253Z</time>
      </trkpt>
      <trkpt lat="48.64682" lon="1.81587">
        <ele>152</ele>
        <time>2025-06-16T07:18:30.389Z</time>
      </trkpt>
      <trkpt lat="48.64683" lon="1.81594">
        <ele>152</ele>
        <time>2025-06-16T07:18:34.570Z</time>
      </trkpt>
      <trkpt lat="48.64687" lon="1.81602">
        <ele>151</ele>
        <time>2025-06-16T07:18:38.708Z</time>
      </trkpt>
      <trkpt lat="48.64692" lon="1.81605">
        <ele>151</ele>
        <time>2025-06-16T07:18:42.743Z</time>
      </trkpt>
      <trkpt lat="48.64697" lon="1.81602">
        <ele>151</ele>
        <time>2025-06-16T07:18:47.027Z</time>
      </trkpt>
      <trkpt lat="48.64704" lon="1.81602">
        <ele>151</ele>
        <time>2025-06-16T07:18:51.743Z</time>
      </trkpt>
      <trkpt lat="48.6471" lon="1.81604">
        <ele>148</ele>
        <time>2025-06-16T07:18:56.266Z</time>
      </trkpt>
      <trkpt lat="48.64717" lon="1.81605">
        <ele>148</ele>
        <time>2025-06-16T07:19:00.743Z</time>
      </trkpt>
      <trkpt lat="48.64722" lon="1.81608">
        <ele>148</ele>
        <time>2025-06-16T07:19:04.911Z</time>
      </trkpt>
      <trkpt lat="48.64727" lon="1.81612">
        <ele>148</ele>
        <time>2025-06-16T07:19:09.743Z</time>
      </trkpt>
      <trkpt lat="48.64733" lon="1.81615">
        <ele>148</ele>
        <time>2025-06-16T07:19:14.329Z</time>
      </trkpt>
      <trkpt lat="48.64739" lon="1.8162">
        <ele>146</ele>
        <time>2025-06-16T07:19:18.743Z</time>
      </trkpt>
      <trkpt lat="48.64743" lon="1.81626">
        <ele>147</ele>
        <time>2025-06-16T07:19:23.646Z</time>
      </trkpt>
      <trkpt lat="48.64747" lon="1.81633">
        <ele>147</ele>
        <time>2025-06-16T07:19:27.742Z</time>
      </trkpt>
      <trkpt lat="48.64752" lon="1.81638">
        <ele>147</ele>
        <time>2025-06-16T07:19:32.369Z</time>
      </trkpt>
      <trkpt lat="48.64755" lon="1.81645">
        <ele>147</ele>
        <time>2025-06-16T07:19:36.743Z</time>
      </trkpt>
      <trkpt lat="48.64759" lon="1.81652">
        <ele>147</ele>
        <time>2025-06-16T07:19:41.229Z</time>
      </trkpt>
      <trkpt lat="48.64764" lon="1.81657">
        <ele>148</ele>
        <time>2025-06-16T07:19:45.743Z</time>
      </trkpt>
      <trkpt lat="48.64769" lon="1.81661">
        <ele>148</ele>
        <time>2025-06-16T07:19:50.743Z</time>
      </trkpt>
      <trkpt lat="48.6477" lon="1.81662">
        <ele>148</ele>
        <time>2025-06-16T07:19:55.743Z</time>
      </trkpt>
      <trkpt lat="48.6477" lon="1.8166">
        <ele>148</ele>
        <time>2025-06-16T07:20:00.154Z</time>
      </trkpt>
      <trkpt lat="48.64773" lon="1.81658">
        <ele>148</ele>
        <time>2025-06-16T07:20:04.293Z</time>
      </trkpt>
      <trkpt lat="48.64776" lon="1.81659">
        <ele>148</ele>
        <time>2025-06-16T07:20:08.593Z</time>
      </trkpt>
      <trkpt lat="48.64779" lon="1.81658">
        <ele>148</ele>
        <time>2025-06-16T07:20:12.743Z</time>
      </trkpt>
      <trkpt lat="48.64778" lon="1.81657">
        <ele>148</ele>
        <time>2025-06-16T07:21:10.269Z</time>
      </trkpt>
      <trkpt lat="48.64777" lon="1.81657">
        <ele>148</ele>
        <time>2025-06-16T07:21:14.708Z</time>
      </trkpt>
      <trkpt lat="48.64773" lon="1.81662">
        <ele>148</ele>
        <time>2025-06-16T07:21:18.731Z</time>
      </trkpt>
      <trkpt lat="48.64769" lon="1.81669">
        <ele>148</ele>
        <time>2025-06-16T07:21:22.743Z</time>
      </trkpt>
      <trkpt lat="48.64764" lon="1.81672">
        <ele>148</ele>
        <time>2025-06-16T07:21:26.743Z</time>
      </trkpt>
      <trkpt lat="48.6476" lon="1.81679">
        <ele>149</ele>
        <time>2025-06-16T07:21:30.796Z</time>
      </trkpt>
      <trkpt lat="48.64755" lon="1.81685">
        <ele>150</ele>
        <time>2025-06-16T07:21:35.742Z</time>
      </trkpt>
      <trkpt lat="48.6475" lon="1.81687">
        <ele>150</ele>
        <time>2025-06-16T07:21:39.743Z</time>
      </trkpt>
      <trkpt lat="48.64743" lon="1.81688">
        <ele>150</ele>
        <time>2025-06-16T07:21:44.409Z</time>
      </trkpt>
      <trkpt lat="48.64737" lon="1.81688">
        <ele>150</ele>
        <time>2025-06-16T07:21:48.470Z</time>
      </trkpt>
      <trkpt lat="48.64731" lon="1.81688">
        <ele>149</ele>
        <time>2025-06-16T07:21:52.743Z</time>
      </trkpt>
      <trkpt lat="48.64726" lon="1.81689">
        <ele>149</ele>
        <time>2025-06-16T07:21:56.742Z</time>
      </trkpt>
      <trkpt lat="48.6472" lon="1.81687">
        <ele>149</ele>
        <time>2025-06-16T07:22:01.196Z</time>
      </trkpt>
      <trkpt lat="48.64714" lon="1.81683">
        <ele>149</ele>
        <time>2025-06-16T07:22:05.294Z</time>
      </trkpt>
      <trkpt lat="48.64708" lon="1.81681">
        <ele>150</ele>
        <time>2025-06-16T07:22:09.743Z</time>
      </trkpt>
      <trkpt lat="48.64701" lon="1.8168">
        <ele>151</ele>
        <time>2025-06-16T07:22:14.691Z</time>
      </trkpt>
      <trkpt lat="48.64694" lon="1.8168">
        <ele>151</ele>
        <time>2025-06-16T07:22:19.230Z</time>
      </trkpt>
      <trkpt lat="48.64688" lon="1.81683">
        <ele>150</ele>
        <time>2025-06-16T07:22:23.313Z</time>
      </trkpt>
      <trkpt lat="48.64682" lon="1.81687">
        <ele>150</ele>
        <time>2025-06-16T07:22:27.742Z</time>
      </trkpt>
      <trkpt lat="48.64676" lon="1.8169">
        <ele>152</ele>
        <time>2025-06-16T07:22:32.072Z</time>
      </trkpt>
      <trkpt lat="48.64668" lon="1.8169">
        <ele>152</ele>
        <time>2025-06-16T07:22:36.431Z</time>
      </trkpt>
      <trkpt lat="48.64662" lon="1.81689">
        <ele>152</ele>
        <time>2025-06-16T07:22:40.742Z</time>
      </trkpt>
      <trkpt lat="48.64656" lon="1.81688">
        <ele>152</ele>
        <time>2025-06-16T07:22:45.034Z</time>
      </trkpt>
      <trkpt lat="48.6465" lon="1.81686">
        <ele>153</ele>
        <time>2025-06-16T07:22:49.494Z</time>
      </trkpt>
      <trkpt lat="48.64645" lon="1.81682">
        <ele>153</ele>
        <time>2025-06-16T07:22:53.743Z</time>
      </trkpt>
      <trkpt lat="48.64639" lon="1.81681">
        <ele>153</ele>
        <time>2025-06-16T07:22:58.112Z</time>
      </trkpt>
      <trkpt lat="48.64633" lon="1.81681">
        <ele>153</ele>
        <time>2025-06-16T07:23:02.472Z</time>
      </trkpt>
      <trkpt lat="48.64627" lon="1.81683">
        <ele>153</ele>
        <time>2025-06-16T07:23:06.533Z</time>
      </trkpt>
      <trkpt lat="48.64621" lon="1.81682">
        <ele>151</ele>
        <time>2025-06-16T07:23:10.743Z</time>
      </trkpt>
      <trkpt lat="48.64616" lon="1.81677">
        <ele>151</ele>
        <time>2025-06-16T07:23:15.029Z</time>
      </trkpt>
      <trkpt lat="48.64611" lon="1.81672">
        <ele>151</ele>
        <time>2025-06-16T07:23:19.211Z</time>
      </trkpt>
      <trkpt lat="48.64605" lon="1.81667">
        <ele>151</ele>
        <time>2025-06-16T07:23:23.410Z</time>
      </trkpt>
      <trkpt lat="48.64599" lon="1.81665">
        <ele>151</ele>
        <time>2025-06-16T07:23:27.742Z</time>
      </trkpt>
      <trkpt lat="48.64594" lon="1.81661">
        <ele>149</ele>
        <time>2025-06-16T07:23:32.069Z</time>
      </trkpt>
      <trkpt lat="48.64588" lon="1.81657">
        <ele>149</ele>
        <time>2025-06-16T07:23:36.395Z</time>
      </trkpt>
      <trkpt lat="48.64583" lon="1.81657">
        <ele>149</ele>
        <time>2025-06-16T07:23:40.414Z</time>
      </trkpt>
      <trkpt lat="48.64579" lon="1.81664">
        <ele>149</ele>
        <time>2025-06-16T07:23:44.742Z</time>
      </trkpt>
      <trkpt lat="48.64574" lon="1.81671">
        <ele>149</ele>
        <time>2025-06-16T07:23:49.634Z</time>
      </trkpt>
      <trkpt lat="48.6457" lon="1.81677">
        <ele>149</ele>
        <time>2025-06-16T07:23:54.053Z</time>
      </trkpt>
      <trkpt lat="48.64565" lon="1.81683">
        <ele>151</ele>
        <time>2025-06-16T07:23:58.267Z</time>
      </trkpt>
      <trkpt lat="48.64563" lon="1.81691">
        <ele>151</ele>
        <time>2025-06-16T07:24:02.741Z</time>
      </trkpt>
      <trkpt lat="48.64564" lon="1.81702">
        <ele>151</ele>
        <time>2025-06-16T07:24:07.372Z</time>
      </trkpt>
      <trkpt lat="48.6457" lon="1.81706">
        <ele>150</ele>
        <time>2025-06-16T07:24:11.741Z</time>
      </trkpt>
      <trkpt lat="48.64576" lon="1.8171">
        <ele>150</ele>
        <time>2025-06-16T07:24:16.313Z</time>
      </trkpt>
      <trkpt lat="48.64581" lon="1.81714">
        <ele>150</ele>
        <time>2025-06-16T07:24:20.450Z</time>
      </trkpt>
      <trkpt lat="48.64585" lon="1.81718">
        <ele>150</ele>
        <time>2025-06-16T07:24:24.742Z</time>
      </trkpt>
      <trkpt lat="48.64587" lon="1.8172">
        <ele>150</ele>
        <time>2025-06-16T07:24:29.433Z</time>
      </trkpt>
      <trkpt lat="48.64592" lon="1.81725">
        <ele>150</ele>
        <time>2025-06-16T07:24:34.152Z</time>
      </trkpt>
      <trkpt lat="48.64596" lon="1.8173">
        <ele>150</ele>
        <time>2025-06-16T07:24:38.453Z</time>
      </trkpt>
      <trkpt lat="48.64596" lon="1.8173">
        <ele>150</ele>
        <time>2025-06-16T07:24:39.172Z</time>
      </trkpt>
      <trkpt lat="48.64599" lon="1.81729">
        <ele>151</ele>
        <time>2025-06-16T07:24:48.693Z</time>
      </trkpt>
      <trkpt lat="48.64601" lon="1.81728">
        <ele>151</ele>
        <time>2025-06-16T07:24:53.096Z</time>
      </trkpt>
      <trkpt lat="48.64609" lon="1.81728">
        <ele>151</ele>
        <time>2025-06-16T07:24:57.593Z</time>
      </trkpt>
      <trkpt lat="48.64616" lon="1.81725">
        <ele>151</ele>
        <time>2025-06-16T07:25:02.132Z</time>
      </trkpt>
      <trkpt lat="48.64622" lon="1.81723">
        <ele>151</ele>
        <time>2025-06-16T07:25:06.746Z</time>
      </trkpt>
      <trkpt lat="48.64626" lon="1.81722">
        <ele>152</ele>
        <time>2025-06-16T07:25:10.742Z</time>
      </trkpt>
      <trkpt lat="48.64631" lon="1.81721">
        <ele>152</ele>
        <time>2025-06-16T07:25:15.509Z</time>
      </trkpt>
      <trkpt lat="48.64636" lon="1.8172">
        <ele>152</ele>
        <time>2025-06-16T07:25:19.742Z</time>
      </trkpt>
      <trkpt lat="48.64642" lon="1.8172">
        <ele>152</ele>
        <time>2025-06-16T07:25:24.314Z</time>
      </trkpt>
      <trkpt lat="48.64648" lon="1.8172">
        <ele>152</ele>
        <time>2025-06-16T07:25:28.742Z</time>
      </trkpt>
      <trkpt lat="48.64655" lon="1.81719">
        <ele>152</ele>
        <time>2025-06-16T07:25:33.785Z</time>
      </trkpt>
      <trkpt lat="48.64663" lon="1.8172">
        <ele>152</ele>
        <time>2025-06-16T07:25:38.741Z</time>
      </trkpt>
      <trkpt lat="48.64669" lon="1.8172">
        <ele>152</ele>
        <time>2025-06-16T07:25:43.058Z</time>
      </trkpt>
      <trkpt lat="48.64677" lon="1.81719">
        <ele>152</ele>
        <time>2025-06-16T07:25:47.647Z</time>
      </trkpt>
      <trkpt lat="48.64683" lon="1.81719">
        <ele>150</ele>
        <time>2025-06-16T07:25:51.742Z</time>
      </trkpt>
      <trkpt lat="48.64689" lon="1.81717">
        <ele>150</ele>
        <time>2025-06-16T07:25:56.274Z</time>
      </trkpt>
      <trkpt lat="48.64695" lon="1.81717">
        <ele>150</ele>
        <time>2025-06-16T07:26:00.709Z</time>
      </trkpt>
      <trkpt lat="48.64702" lon="1.81716">
        <ele>150</ele>
        <time>2025-06-16T07:26:04.742Z</time>
      </trkpt>
      <trkpt lat="48.64707" lon="1.81715">
        <ele>150</ele>
        <time>2025-06-16T07:26:08.890Z</time>
      </trkpt>
      <trkpt lat="48.64714" lon="1.81713">
        <ele>150</ele>
        <time>2025-06-16T07:26:13.653Z</time>
      </trkpt>
      <trkpt lat="48.6472" lon="1.81712">
        <ele>150</ele>
        <time>2025-06-16T07:26:17.992Z</time>
      </trkpt>
      <trkpt lat="48.64726" lon="1.81713">
        <ele>150</ele>
        <time>2025-06-16T07:26:22.742Z</time>
      </trkpt>
      <trkpt lat="48.64733" lon="1.81713">
        <ele>150</ele>
        <time>2025-06-16T07:26:27.742Z</time>
      </trkpt>
      <trkpt lat="48.64739" lon="1.81711">
        <ele>150</ele>
        <time>2025-06-16T07:26:32.215Z</time>
      </trkpt>
      <trkpt lat="48.64745" lon="1.81709">
        <ele>150</ele>
        <time>2025-06-16T07:26:36.742Z</time>
      </trkpt>
      <trkpt lat="48.64752" lon="1.81708">
        <ele>150</ele>
        <time>2025-06-16T07:26:41.480Z</time>
      </trkpt>
      <trkpt lat="48.64758" lon="1.81708">
        <ele>150</ele>
        <time>2025-06-16T07:26:45.618Z</time>
      </trkpt>
      <trkpt lat="48.64764" lon="1.81708">
        <ele>148</ele>
        <time>2025-06-16T07:26:49.695Z</time>
      </trkpt>
      <trkpt lat="48.6477" lon="1.81708">
        <ele>148</ele>
        <time>2025-06-16T07:26:53.742Z</time>
      </trkpt>
      <trkpt lat="48.64775" lon="1.81707">
        <ele>148</ele>
        <time>2025-06-16T07:26:58.398Z</time>
      </trkpt>
      <trkpt lat="48.64781" lon="1.81705">
        <ele>148</ele>
        <time>2025-06-16T07:27:02.742Z</time>
      </trkpt>
      <trkpt lat="48.64788" lon="1.81704">
        <ele>148</ele>
        <time>2025-06-16T07:27:07.321Z</time>
      </trkpt>
      <trkpt lat="48.64794" lon="1.81703">
        <ele>147</ele>
        <time>2025-06-16T07:27:11.741Z</time>
      </trkpt>
      <trkpt lat="48.64801" lon="1.81702">
        <ele>147</ele>
        <time>2025-06-16T07:27:16.742Z</time>
      </trkpt>
      <trkpt lat="48.64807" lon="1.81701">
        <ele>147</ele>
        <time>2025-06-16T07:27:21.354Z</time>
      </trkpt>
      <trkpt lat="48.64815" lon="1.81696">
        <ele>147</ele>
        <time>2025-06-16T07:27:35.742Z</time>
      </trkpt>
      <trkpt lat="48.64817" lon="1.81695">
        <ele>147</ele>
        <time>2025-06-16T07:27:39.742Z</time>
      </trkpt>
      <trkpt lat="48.64818" lon="1.81693">
        <ele>147</ele>
        <time>2025-06-16T07:27:44.742Z</time>
      </trkpt>
      <trkpt lat="48.6482" lon="1.81692">
        <ele>147</ele>
        <time>2025-06-16T07:27:49.742Z</time>
      </trkpt>
      <trkpt lat="48.64824" lon="1.81686">
        <ele>147</ele>
        <time>2025-06-16T07:27:54.394Z</time>
      </trkpt>
      <trkpt lat="48.64827" lon="1.81679">
        <ele>147</ele>
        <time>2025-06-16T07:27:58.659Z</time>
      </trkpt>
      <trkpt lat="48.6483" lon="1.81674">
        <ele>147</ele>
        <time>2025-06-16T07:28:03.156Z</time>
      </trkpt>
      <trkpt lat="48.64832" lon="1.81667">
        <ele>147</ele>
        <time>2025-06-16T07:28:07.457Z</time>
      </trkpt>
      <trkpt lat="48.64834" lon="1.81656">
        <ele>147</ele>
        <time>2025-06-16T07:28:11.516Z</time>
      </trkpt>
      <trkpt lat="48.6483" lon="1.81645">
        <ele>147</ele>
        <time>2025-06-16T07:28:15.680Z</time>
      </trkpt>
      <trkpt lat="48.64824" lon="1.81635">
        <ele>147</ele>
        <time>2025-06-16T07:28:19.742Z</time>
      </trkpt>
      <trkpt lat="48.6482" lon="1.81627">
        <ele>147</ele>
        <time>2025-06-16T07:28:24.219Z</time>
      </trkpt>
      <trkpt lat="48.64816" lon="1.81618">
        <ele>147</ele>
        <time>2025-06-16T07:28:28.562Z</time>
      </trkpt>
      <trkpt lat="48.64809" lon="1.81613">
        <ele>147</ele>
        <time>2025-06-16T07:28:32.937Z</time>
      </trkpt>
      <trkpt lat="48.64803" lon="1.81607">
        <ele>147</ele>
        <time>2025-06-16T07:28:37.443Z</time>
      </trkpt>
      <trkpt lat="48.64797" lon="1.816">
        <ele>147</ele>
        <time>2025-06-16T07:28:42.015Z</time>
      </trkpt>
      <trkpt lat="48.64792" lon="1.81594">
        <ele>148</ele>
        <time>2025-06-16T07:28:46.459Z</time>
      </trkpt>
      <trkpt lat="48.64788" lon="1.81587">
        <ele>146</ele>
        <time>2025-06-16T07:28:50.698Z</time>
      </trkpt>
      <trkpt lat="48.64782" lon="1.81584">
        <ele>146</ele>
        <time>2025-06-16T07:28:55.219Z</time>
      </trkpt>
      <trkpt lat="48.64776" lon="1.8158">
        <ele>146</ele>
        <time>2025-06-16T07:28:59.640Z</time>
      </trkpt>
      <trkpt lat="48.64772" lon="1.81574">
        <ele>146</ele>
        <time>2025-06-16T07:29:03.717Z</time>
      </trkpt>
      <trkpt lat="48.64769" lon="1.81568">
        <ele>146</ele>
        <time>2025-06-16T07:29:07.742Z</time>
      </trkpt>
      <trkpt lat="48.64764" lon="1.81562">
        <ele>146</ele>
        <time>2025-06-16T07:29:12.436Z</time>
      </trkpt>
      <trkpt lat="48.64758" lon="1.81558">
        <ele>145</ele>
        <time>2025-06-16T07:29:16.741Z</time>
      </trkpt>
      <trkpt lat="48.64753" lon="1.81552">
        <ele>145</ele>
        <time>2025-06-16T07:29:21.197Z</time>
      </trkpt>
      <trkpt lat="48.64749" lon="1.81547">
        <ele>145</ele>
        <time>2025-06-16T07:29:25.539Z</time>
      </trkpt>
      <trkpt lat="48.64744" lon="1.81542">
        <ele>145</ele>
        <time>2025-06-16T07:29:30.017Z</time>
      </trkpt>
      <trkpt lat="48.6474" lon="1.81536">
        <ele>145</ele>
        <time>2025-06-16T07:29:34.420Z</time>
      </trkpt>
      <trkpt lat="48.64736" lon="1.8153">
        <ele>148</ele>
        <time>2025-06-16T07:29:38.839Z</time>
      </trkpt>
      <trkpt lat="48.64731" lon="1.81525">
        <ele>148</ele>
        <time>2025-06-16T07:29:43.241Z</time>
      </trkpt>
      <trkpt lat="48.64727" lon="1.8152">
        <ele>148</ele>
        <time>2025-06-16T07:29:47.676Z</time>
      </trkpt>
      <trkpt lat="48.64722" lon="1.81515">
        <ele>148</ele>
        <time>2025-06-16T07:29:51.742Z</time>
      </trkpt>
      <trkpt lat="48.64717" lon="1.81509">
        <ele>149</ele>
        <time>2025-06-16T07:29:55.918Z</time>
      </trkpt>
      <trkpt lat="48.64715" lon="1.815">
        <ele>149</ele>
        <time>2025-06-16T07:30:00.396Z</time>
      </trkpt>
      <trkpt lat="48.64714" lon="1.81491">
        <ele>149</ele>
        <time>2025-06-16T07:30:04.985Z</time>
      </trkpt>
      <trkpt lat="48.64717" lon="1.81483">
        <ele>149</ele>
        <time>2025-06-16T07:30:09.498Z</time>
      </trkpt>
      <trkpt lat="48.64719" lon="1.81474">
        <ele>149</ele>
        <time>2025-06-16T07:30:14.021Z</time>
      </trkpt>
      <trkpt lat="48.64723" lon="1.81465">
        <ele>149</ele>
        <time>2025-06-16T07:30:18.541Z</time>
      </trkpt>
      <trkpt lat="48.64727" lon="1.81459">
        <ele>149</ele>
        <time>2025-06-16T07:30:23.080Z</time>
      </trkpt>
      <trkpt lat="48.64731" lon="1.81453">
        <ele>150</ele>
        <time>2025-06-16T07:30:27.541Z</time>
      </trkpt>
      <trkpt lat="48.64735" lon="1.81446">
        <ele>150</ele>
        <time>2025-06-16T07:30:31.994Z</time>
      </trkpt>
      <trkpt lat="48.64739" lon="1.81439">
        <ele>149</ele>
        <time>2025-06-16T07:30:36.499Z</time>
      </trkpt>
      <trkpt lat="48.64744" lon="1.81433">
        <ele>149</ele>
        <time>2025-06-16T07:30:40.960Z</time>
      </trkpt>
      <trkpt lat="48.64747" lon="1.81426">
        <ele>149</ele>
        <time>2025-06-16T07:30:45.380Z</time>
      </trkpt>
      <trkpt lat="48.6475" lon="1.81418">
        <ele>149</ele>
        <time>2025-06-16T07:30:49.722Z</time>
      </trkpt>
      <trkpt lat="48.64754" lon="1.81411">
        <ele>149</ele>
        <time>2025-06-16T07:30:54.055Z</time>
      </trkpt>
      <trkpt lat="48.64758" lon="1.81406">
        <ele>149</ele>
        <time>2025-06-16T07:30:58.270Z</time>
      </trkpt>
      <trkpt lat="48.64762" lon="1.81398">
        <ele>149</ele>
        <time>2025-06-16T07:31:02.742Z</time>
      </trkpt>
      <trkpt lat="48.64766" lon="1.81392">
        <ele>148</ele>
        <time>2025-06-16T07:31:07.175Z</time>
      </trkpt>
      <trkpt lat="48.64769" lon="1.81385">
        <ele>148</ele>
        <time>2025-06-16T07:31:11.501Z</time>
      </trkpt>
      <trkpt lat="48.64772" lon="1.81378">
        <ele>148</ele>
        <time>2025-06-16T07:31:15.894Z</time>
      </trkpt>
      <trkpt lat="48.64775" lon="1.81371">
        <ele>148</ele>
        <time>2025-06-16T07:31:20.356Z</time>
      </trkpt>
      <trkpt lat="48.64779" lon="1.81364">
        <ele>148</ele>
        <time>2025-06-16T07:31:24.698Z</time>
      </trkpt>
      <trkpt lat="48.64782" lon="1.81356">
        <ele>148</ele>
        <time>2025-06-16T07:31:38.458Z</time>
      </trkpt>
      <trkpt lat="48.6478" lon="1.81357">
        <ele>148</ele>
        <time>2025-06-16T07:31:42.742Z</time>
      </trkpt>
      <trkpt lat="48.6478" lon="1.81356">
        <ele>148</ele>
        <time>2025-06-16T07:31:47.639Z</time>
      </trkpt>
      <trkpt lat="48.64784" lon="1.81349">
        <ele>148</ele>
        <time>2025-06-16T07:31:52.041Z</time>
      </trkpt>
      <trkpt lat="48.64789" lon="1.81342">
        <ele>148</ele>
        <time>2025-06-16T07:31:56.458Z</time>
      </trkpt>
      <trkpt lat="48.64792" lon="1.81335">
        <ele>150</ele>
        <time>2025-06-16T07:32:00.760Z</time>
      </trkpt>
      <trkpt lat="48.64794" lon="1.81326">
        <ele>150</ele>
        <time>2025-06-16T07:32:04.920Z</time>
      </trkpt>
      <trkpt lat="48.64793" lon="1.81317">
        <ele>151</ele>
        <time>2025-06-16T07:32:09.015Z</time>
      </trkpt>
      <trkpt lat="48.6479" lon="1.81309">
        <ele>149</ele>
        <time>2025-06-16T07:32:13.041Z</time>
      </trkpt>
      <trkpt lat="48.64787" lon="1.81301">
        <ele>149</ele>
        <time>2025-06-16T07:32:17.240Z</time>
      </trkpt>
      <trkpt lat="48.64783" lon="1.81295">
        <ele>149</ele>
        <time>2025-06-16T07:32:21.674Z</time>
      </trkpt>
      <trkpt lat="48.64777" lon="1.81291">
        <ele>151</ele>
        <time>2025-06-16T07:32:25.939Z</time>
      </trkpt>
      <trkpt lat="48.64772" lon="1.81286">
        <ele>151</ele>
        <time>2025-06-16T07:32:30.243Z</time>
      </trkpt>
      <trkpt lat="48.64767" lon="1.81279">
        <ele>151</ele>
        <time>2025-06-16T07:32:34.538Z</time>
      </trkpt>
      <trkpt lat="48.64763" lon="1.81274">
        <ele>152</ele>
        <time>2025-06-16T07:32:39.003Z</time>
      </trkpt>
      <trkpt lat="48.64759" lon="1.81269">
        <ele>152</ele>
        <time>2025-06-16T07:32:43.376Z</time>
      </trkpt>
      <trkpt lat="48.64754" lon="1.81263">
        <ele>154</ele>
        <time>2025-06-16T07:32:47.734Z</time>
      </trkpt>
      <trkpt lat="48.6475" lon="1.81257">
        <ele>154</ele>
        <time>2025-06-16T07:32:52.018Z</time>
      </trkpt>
      <trkpt lat="48.64746" lon="1.81251">
        <ele>154</ele>
        <time>2025-06-16T07:32:56.402Z</time>
      </trkpt>
      <trkpt lat="48.64742" lon="1.81244">
        <ele>154</ele>
        <time>2025-06-16T07:33:00.742Z</time>
      </trkpt>
      <trkpt lat="48.64737" lon="1.81239">
        <ele>154</ele>
        <time>2025-06-16T07:33:05.341Z</time>
      </trkpt>
      <trkpt lat="48.64732" lon="1.81233">
        <ele>157</ele>
        <time>2025-06-16T07:33:09.658Z</time>
      </trkpt>
      <trkpt lat="48.64728" lon="1.81227">
        <ele>157</ele>
        <time>2025-06-16T07:33:13.940Z</time>
      </trkpt>
      <trkpt lat="48.64725" lon="1.8122">
        <ele>157</ele>
        <time>2025-06-16T07:33:18.214Z</time>
      </trkpt>
      <trkpt lat="48.64721" lon="1.81213">
        <ele>157</ele>
        <time>2025-06-16T07:33:22.675Z</time>
      </trkpt>
      <trkpt lat="48.64717" lon="1.81208">
        <ele>156</ele>
        <time>2025-06-16T07:33:26.742Z</time>
      </trkpt>
      <trkpt lat="48.64712" lon="1.81201">
        <ele>156</ele>
        <time>2025-06-16T07:33:31.541Z</time>
      </trkpt>
      <trkpt lat="48.64709" lon="1.81194">
        <ele>156</ele>
        <time>2025-06-16T07:33:35.941Z</time>
      </trkpt>
      <trkpt lat="48.64704" lon="1.81188">
        <ele>157</ele>
        <time>2025-06-16T07:33:40.419Z</time>
      </trkpt>
      <trkpt lat="48.64701" lon="1.81182">
        <ele>157</ele>
        <time>2025-06-16T07:33:44.742Z</time>
      </trkpt>
      <trkpt lat="48.64696" lon="1.81177">
        <ele>157</ele>
        <time>2025-06-16T07:33:49.154Z</time>
      </trkpt>
      <trkpt lat="48.6469" lon="1.81173">
        <ele>157</ele>
        <time>2025-06-16T07:33:53.180Z</time>
      </trkpt>
      <trkpt lat="48.64685" lon="1.8117">
        <ele>157</ele>
        <time>2025-06-16T07:33:57.557Z</time>
      </trkpt>
      <trkpt lat="48.64681" lon="1.81165">
        <ele>157</ele>
        <time>2025-06-16T07:34:01.796Z</time>
      </trkpt>
      <trkpt lat="48.64677" lon="1.81159">
        <ele>155</ele>
        <time>2025-06-16T07:34:06.006Z</time>
      </trkpt>
      <trkpt lat="48.64673" lon="1.81153">
        <ele>155</ele>
        <time>2025-06-16T07:34:10.242Z</time>
      </trkpt>
      <trkpt lat="48.64669" lon="1.81146">
        <ele>155</ele>
        <time>2025-06-16T07:34:14.742Z</time>
      </trkpt>
      <trkpt lat="48.64665" lon="1.81139">
        <ele>155</ele>
        <time>2025-06-16T07:34:19.243Z</time>
      </trkpt>
      <trkpt lat="48.6466" lon="1.81133">
        <ele>155</ele>
        <time>2025-06-16T07:34:23.660Z</time>
      </trkpt>
      <trkpt lat="48.64658" lon="1.81124">
        <ele>155</ele>
        <time>2025-06-16T07:34:28.661Z</time>
      </trkpt>
      <trkpt lat="48.64656" lon="1.81116">
        <ele>155</ele>
        <time>2025-06-16T07:34:33.079Z</time>
      </trkpt>
      <trkpt lat="48.64654" lon="1.81109">
        <ele>155</ele>
        <time>2025-06-16T07:34:37.438Z</time>
      </trkpt>
      <trkpt lat="48.6465" lon="1.81101">
        <ele>152</ele>
        <time>2025-06-16T07:34:41.742Z</time>
      </trkpt>
      <trkpt lat="48.64644" lon="1.81098">
        <ele>152</ele>
        <time>2025-06-16T07:34:45.918Z</time>
      </trkpt>
      <trkpt lat="48.64637" lon="1.81095">
        <ele>154</ele>
        <time>2025-06-16T07:34:50.242Z</time>
      </trkpt>
      <trkpt lat="48.64632" lon="1.81089">
        <ele>154</ele>
        <time>2025-06-16T07:34:54.277Z</time>
      </trkpt>
      <trkpt lat="48.64627" lon="1.81083">
        <ele>154</ele>
        <time>2025-06-16T07:34:58.303Z</time>
      </trkpt>
      <trkpt lat="48.64622" lon="1.81077">
        <ele>152</ele>
        <time>2025-06-16T07:35:02.423Z</time>
      </trkpt>
      <trkpt lat="48.64617" lon="1.81071">
        <ele>152</ele>
        <time>2025-06-16T07:35:06.443Z</time>
      </trkpt>
      <trkpt lat="48.64612" lon="1.81064">
        <ele>154</ele>
        <time>2025-06-16T07:35:10.502Z</time>
      </trkpt>
      <trkpt lat="48.64608" lon="1.81057">
        <ele>154</ele>
        <time>2025-06-16T07:35:14.742Z</time>
      </trkpt>
      <trkpt lat="48.64605" lon="1.81048">
        <ele>154</ele>
        <time>2025-06-16T07:35:18.957Z</time>
      </trkpt>
      <trkpt lat="48.64602" lon="1.81041">
        <ele>156</ele>
        <time>2025-06-16T07:35:23.223Z</time>
      </trkpt>
      <trkpt lat="48.64597" lon="1.81035">
        <ele>156</ele>
        <time>2025-06-16T07:35:27.444Z</time>
      </trkpt>
      <trkpt lat="48.64593" lon="1.81031">
        <ele>154</ele>
        <time>2025-06-16T07:35:31.742Z</time>
      </trkpt>
      <trkpt lat="48.64587" lon="1.81025">
        <ele>154</ele>
        <time>2025-06-16T07:35:36.742Z</time>
      </trkpt>
      <trkpt lat="48.64583" lon="1.8102">
        <ele>154</ele>
        <time>2025-06-16T07:35:41.120Z</time>
      </trkpt>
      <trkpt lat="48.64579" lon="1.81013">
        <ele>155</ele>
        <time>2025-06-16T07:35:45.563Z</time>
      </trkpt>
      <trkpt lat="48.64574" lon="1.81007">
        <ele>155</ele>
        <time>2025-06-16T07:35:50.400Z</time>
      </trkpt>
      <trkpt lat="48.6457" lon="1.81001">
        <ele>155</ele>
        <time>2025-06-16T07:35:54.563Z</time>
      </trkpt>
      <trkpt lat="48.64566" lon="1.80994">
        <ele>150</ele>
        <time>2025-06-16T07:35:58.741Z</time>
      </trkpt>
      <trkpt lat="48.64561" lon="1.80988">
        <ele>150</ele>
        <time>2025-06-16T07:36:03.383Z</time>
      </trkpt>
      <trkpt lat="48.64557" lon="1.80981">
        <ele>150</ele>
        <time>2025-06-16T07:36:07.699Z</time>
      </trkpt>
      <trkpt lat="48.64553" lon="1.80974">
        <ele>150</ele>
        <time>2025-06-16T07:36:12.041Z</time>
      </trkpt>
      <trkpt lat="48.6455" lon="1.80967">
        <ele>150</ele>
        <time>2025-06-16T07:36:16.461Z</time>
      </trkpt>
      <trkpt lat="48.64546" lon="1.80961">
        <ele>150</ele>
        <time>2025-06-16T07:36:20.895Z</time>
      </trkpt>
      <trkpt lat="48.64542" lon="1.80955">
        <ele>150</ele>
        <time>2025-06-16T07:36:25.076Z</time>
      </trkpt>
      <trkpt lat="48.64537" lon="1.8095">
        <ele>147</ele>
        <time>2025-06-16T07:36:29.383Z</time>
      </trkpt>
      <trkpt lat="48.64532" lon="1.80945">
        <ele>147</ele>
        <time>2025-06-16T07:36:33.742Z</time>
      </trkpt>
      <trkpt lat="48.64529" lon="1.80936">
        <ele>147</ele>
        <time>2025-06-16T07:36:38.162Z</time>
      </trkpt>
      <trkpt lat="48.64527" lon="1.80928">
        <ele>148</ele>
        <time>2025-06-16T07:36:42.563Z</time>
      </trkpt>
      <trkpt lat="48.64525" lon="1.80921">
        <ele>148</ele>
        <time>2025-06-16T07:36:47.042Z</time>
      </trkpt>
      <trkpt lat="48.64523" lon="1.80913">
        <ele>148</ele>
        <time>2025-06-16T07:36:51.537Z</time>
      </trkpt>
      <trkpt lat="48.6452" lon="1.80905">
        <ele>148</ele>
        <time>2025-06-16T07:36:55.938Z</time>
      </trkpt>
      <trkpt lat="48.64518" lon="1.80897">
        <ele>150</ele>
        <time>2025-06-16T07:37:00.358Z</time>
      </trkpt>
      <trkpt lat="48.64516" lon="1.80888">
        <ele>150</ele>
        <time>2025-06-16T07:37:04.780Z</time>
      </trkpt>
      <trkpt lat="48.64514" lon="1.8088">
        <ele>150</ele>
        <time>2025-06-16T07:37:09.123Z</time>
      </trkpt>
      <trkpt lat="48.64512" lon="1.80872">
        <ele>148</ele>
        <time>2025-06-16T07:37:13.502Z</time>
      </trkpt>
      <trkpt lat="48.6451" lon="1.80864">
        <ele>148</ele>
        <time>2025-06-16T07:37:17.923Z</time>
      </trkpt>
      <trkpt lat="48.64508" lon="1.80856">
        <ele>148</ele>
        <time>2025-06-16T07:37:22.403Z</time>
      </trkpt>
      <trkpt lat="48.64507" lon="1.80848">
        <ele>148</ele>
        <time>2025-06-16T07:37:26.742Z</time>
      </trkpt>
      <trkpt lat="48.64505" lon="1.8084">
        <ele>149</ele>
        <time>2025-06-16T07:37:31.196Z</time>
      </trkpt>
      <trkpt lat="48.64503" lon="1.80831">
        <ele>149</ele>
        <time>2025-06-16T07:37:35.640Z</time>
      </trkpt>
      <trkpt lat="48.64501" lon="1.80822">
        <ele>149</ele>
        <time>2025-06-16T07:37:39.923Z</time>
      </trkpt>
      <trkpt lat="48.64499" lon="1.80812">
        <ele>150</ele>
        <time>2025-06-16T07:37:44.282Z</time>
      </trkpt>
      <trkpt lat="48.64499" lon="1.80803">
        <ele>150</ele>
        <time>2025-06-16T07:37:48.583Z</time>
      </trkpt>
      <trkpt lat="48.64497" lon="1.80795">
        <ele>150</ele>
        <time>2025-06-16T07:37:52.923Z</time>
      </trkpt>
      <trkpt lat="48.64495" lon="1.80787">
        <ele>151</ele>
        <time>2025-06-16T07:37:57.240Z</time>
      </trkpt>
      <trkpt lat="48.64494" lon="1.80778">
        <ele>151</ele>
        <time>2025-06-16T07:38:01.539Z</time>
      </trkpt>
      <trkpt lat="48.64492" lon="1.8077">
        <ele>151</ele>
        <time>2025-06-16T07:38:05.741Z</time>
      </trkpt>
      <trkpt lat="48.64492" lon="1.80761">
        <ele>152</ele>
        <time>2025-06-16T07:38:10.139Z</time>
      </trkpt>
      <trkpt lat="48.6449" lon="1.80753">
        <ele>152</ele>
        <time>2025-06-16T07:38:14.523Z</time>
      </trkpt>
      <trkpt lat="48.64487" lon="1.80745">
        <ele>152</ele>
        <time>2025-06-16T07:38:18.741Z</time>
      </trkpt>
      <trkpt lat="48.64484" lon="1.80739">
        <ele>149</ele>
        <time>2025-06-16T07:38:23.420Z</time>
      </trkpt>
      <trkpt lat="48.64484" lon="1.80732">
        <ele>150</ele>
        <time>2025-06-16T07:38:27.659Z</time>
      </trkpt>
      <trkpt lat="48.64482" lon="1.80725">
        <ele>150</ele>
        <time>2025-06-16T07:38:32.602Z</time>
      </trkpt>
      <trkpt lat="48.64478" lon="1.80719">
        <ele>150</ele>
        <time>2025-06-16T07:38:36.718Z</time>
      </trkpt>
      <trkpt lat="48.64475" lon="1.80713">
        <ele>150</ele>
        <time>2025-06-16T07:38:41.006Z</time>
      </trkpt>
      <trkpt lat="48.64473" lon="1.80706">
        <ele>150</ele>
        <time>2025-06-16T07:38:45.300Z</time>
      </trkpt>
      <trkpt lat="48.64471" lon="1.80698">
        <ele>150</ele>
        <time>2025-06-16T07:38:49.481Z</time>
      </trkpt>
      <trkpt lat="48.64471" lon="1.80691">
        <ele>150</ele>
        <time>2025-06-16T07:38:53.558Z</time>
      </trkpt>
      <trkpt lat="48.64471" lon="1.80666">
        <ele>150</ele>
        <time>2025-06-16T07:39:57.742Z</time>
      </trkpt>
      <trkpt lat="48.64475" lon="1.80667">
        <ele>150</ele>
        <time>2025-06-16T07:40:02.181Z</time>
      </trkpt>
      <trkpt lat="48.64479" lon="1.80667">
        <ele>150</ele>
        <time>2025-06-16T07:40:06.742Z</time>
      </trkpt>
      <trkpt lat="48.6448" lon="1.80665">
        <ele>150</ele>
        <time>2025-06-16T07:40:08.741Z</time>
      </trkpt>
      <trkpt lat="48.64483" lon="1.80661">
        <ele>150</ele>
        <time>2025-06-16T07:40:16.742Z</time>
      </trkpt>
      <trkpt lat="48.64488" lon="1.80665">
        <ele>152</ele>
        <time>2025-06-16T07:40:20.741Z</time>
      </trkpt>
      <trkpt lat="48.64494" lon="1.80664">
        <ele>152</ele>
        <time>2025-06-16T07:40:25.541Z</time>
      </trkpt>
      <trkpt lat="48.64498" lon="1.80666">
        <ele>152</ele>
        <time>2025-06-16T07:40:29.742Z</time>
      </trkpt>
      <trkpt lat="48.64504" lon="1.80663">
        <ele>152</ele>
        <time>2025-06-16T07:40:34.742Z</time>
      </trkpt>
      <trkpt lat="48.64507" lon="1.80656">
        <ele>152</ele>
        <time>2025-06-16T07:40:39.004Z</time>
      </trkpt>
      <trkpt lat="48.64511" lon="1.80647">
        <ele>152</ele>
        <time>2025-06-16T07:40:43.680Z</time>
      </trkpt>
      <trkpt lat="48.64514" lon="1.8064">
        <ele>153</ele>
        <time>2025-06-16T07:40:47.742Z</time>
      </trkpt>
      <trkpt lat="48.64519" lon="1.80634">
        <ele>153</ele>
        <time>2025-06-16T07:40:52.518Z</time>
      </trkpt>
      <trkpt lat="48.64523" lon="1.80627">
        <ele>153</ele>
        <time>2025-06-16T07:40:56.742Z</time>
      </trkpt>
      <trkpt lat="48.64526" lon="1.8062">
        <ele>153</ele>
        <time>2025-06-16T07:41:01.476Z</time>
      </trkpt>
      <trkpt lat="48.64529" lon="1.80612">
        <ele>153</ele>
        <time>2025-06-16T07:41:05.716Z</time>
      </trkpt>
      <trkpt lat="48.64533" lon="1.80604">
        <ele>153</ele>
        <time>2025-06-16T07:41:10.742Z</time>
      </trkpt>
      <trkpt lat="48.64535" lon="1.80598">
        <ele>153</ele>
        <time>2025-06-16T07:41:14.741Z</time>
      </trkpt>
      <trkpt lat="48.64539" lon="1.80593">
        <ele>154</ele>
        <time>2025-06-16T07:41:19.280Z</time>
      </trkpt>
      <trkpt lat="48.64542" lon="1.80586">
        <ele>155</ele>
        <time>2025-06-16T07:41:23.383Z</time>
      </trkpt>
      <trkpt lat="48.64543" lon="1.80578">
        <ele>155</ele>
        <time>2025-06-16T07:41:27.900Z</time>
      </trkpt>
      <trkpt lat="48.64549" lon="1.80571">
        <ele>155</ele>
        <time>2025-06-16T07:41:32.299Z</time>
      </trkpt>
      <trkpt lat="48.64553" lon="1.80563">
        <ele>155</ele>
        <time>2025-06-16T07:41:36.700Z</time>
      </trkpt>
      <trkpt lat="48.64556" lon="1.80557">
        <ele>155</ele>
        <time>2025-06-16T07:41:40.703Z</time>
      </trkpt>
      <trkpt lat="48.6456" lon="1.80551">
        <ele>155</ele>
        <time>2025-06-16T07:41:44.741Z</time>
      </trkpt>
      <trkpt lat="48.64563" lon="1.80544">
        <ele>155</ele>
        <time>2025-06-16T07:41:49.242Z</time>
      </trkpt>
      <trkpt lat="48.64566" lon="1.80537">
        <ele>154</ele>
        <time>2025-06-16T07:41:53.741Z</time>
      </trkpt>
      <trkpt lat="48.6457" lon="1.80529">
        <ele>156</ele>
        <time>2025-06-16T07:41:58.301Z</time>
      </trkpt>
      <trkpt lat="48.64573" lon="1.80522">
        <ele>156</ele>
        <time>2025-06-16T07:42:02.841Z</time>
      </trkpt>
      <trkpt lat="48.64576" lon="1.80515">
        <ele>156</ele>
        <time>2025-06-16T07:42:07.396Z</time>
      </trkpt>
      <trkpt lat="48.6458" lon="1.80508">
        <ele>156</ele>
        <time>2025-06-16T07:42:11.960Z</time>
      </trkpt>
      <trkpt lat="48.64584" lon="1.80501">
        <ele>156</ele>
        <time>2025-06-16T07:42:16.363Z</time>
      </trkpt>
      <trkpt lat="48.64587" lon="1.80493">
        <ele>156</ele>
        <time>2025-06-16T07:42:20.900Z</time>
      </trkpt>
      <trkpt lat="48.64591" lon="1.80486">
        <ele>155</ele>
        <time>2025-06-16T07:42:25.379Z</time>
      </trkpt>
      <trkpt lat="48.64593" lon="1.80479">
        <ele>155</ele>
        <time>2025-06-16T07:42:29.741Z</time>
      </trkpt>
      <trkpt lat="48.64597" lon="1.80471">
        <ele>155</ele>
        <time>2025-06-16T07:42:34.261Z</time>
      </trkpt>
      <trkpt lat="48.646" lon="1.80463">
        <ele>155</ele>
        <time>2025-06-16T07:42:38.741Z</time>
      </trkpt>
      <trkpt lat="48.64603" lon="1.80456">
        <ele>155</ele>
        <time>2025-06-16T07:42:43.081Z</time>
      </trkpt>
      <trkpt lat="48.64606" lon="1.80449">
        <ele>155</ele>
        <time>2025-06-16T07:42:47.629Z</time>
      </trkpt>
      <trkpt lat="48.64609" lon="1.80441">
        <ele>155</ele>
        <time>2025-06-16T07:42:52.160Z</time>
      </trkpt>
      <trkpt lat="48.64613" lon="1.80433">
        <ele>155</ele>
        <time>2025-06-16T07:42:56.741Z</time>
      </trkpt>
      <trkpt lat="48.64616" lon="1.80425">
        <ele>156</ele>
        <time>2025-06-16T07:43:01.244Z</time>
      </trkpt>
      <trkpt lat="48.64619" lon="1.80418">
        <ele>156</ele>
        <time>2025-06-16T07:43:05.723Z</time>
      </trkpt>
      <trkpt lat="48.64623" lon="1.80411">
        <ele>156</ele>
        <time>2025-06-16T07:43:10.260Z</time>
      </trkpt>
      <trkpt lat="48.64627" lon="1.80404">
        <ele>157</ele>
        <time>2025-06-16T07:43:14.740Z</time>
      </trkpt>
      <trkpt lat="48.6463" lon="1.80397">
        <ele>159</ele>
        <time>2025-06-16T07:43:19.423Z</time>
      </trkpt>
      <trkpt lat="48.64634" lon="1.8039">
        <ele>159</ele>
        <time>2025-06-16T07:43:23.962Z</time>
      </trkpt>
      <trkpt lat="48.64638" lon="1.80386">
        <ele>159</ele>
        <time>2025-06-16T07:43:28.202Z</time>
      </trkpt>
      <trkpt lat="48.64639" lon="1.80378">
        <ele>159</ele>
        <time>2025-06-16T07:43:32.297Z</time>
      </trkpt>
      <trkpt lat="48.64644" lon="1.80366">
        <ele>161</ele>
        <time>2025-06-16T07:43:45.741Z</time>
      </trkpt>
      <trkpt lat="48.64644" lon="1.80366">
        <ele>161</ele>
        <time>2025-06-16T07:43:50.144Z</time>
      </trkpt>
      <trkpt lat="48.64648" lon="1.80359">
        <ele>161</ele>
        <time>2025-06-16T07:43:54.563Z</time>
      </trkpt>
      <trkpt lat="48.64652" lon="1.80351">
        <ele>161</ele>
        <time>2025-06-16T07:43:58.598Z</time>
      </trkpt>
      <trkpt lat="48.64655" lon="1.80344">
        <ele>163</ele>
        <time>2025-06-16T07:44:02.974Z</time>
      </trkpt>
      <trkpt lat="48.64658" lon="1.80335">
        <ele>163</ele>
        <time>2025-06-16T07:44:07.741Z</time>
      </trkpt>
      <trkpt lat="48.64662" lon="1.80329">
        <ele>163</ele>
        <time>2025-06-16T07:44:12.043Z</time>
      </trkpt>
      <trkpt lat="48.64665" lon="1.8032">
        <ele>163</ele>
        <time>2025-06-16T07:44:16.538Z</time>
      </trkpt>
      <trkpt lat="48.64667" lon="1.80315">
        <ele>164</ele>
        <time>2025-06-16T07:44:20.741Z</time>
      </trkpt>
      <trkpt lat="48.64672" lon="1.8031">
        <ele>164</ele>
        <time>2025-06-16T07:44:25.360Z</time>
      </trkpt>
      <trkpt lat="48.64675" lon="1.80302">
        <ele>164</ele>
        <time>2025-06-16T07:44:29.741Z</time>
      </trkpt>
      <trkpt lat="48.64678" lon="1.80294">
        <ele>164</ele>
        <time>2025-06-16T07:44:34.318Z</time>
      </trkpt>
      <trkpt lat="48.64682" lon="1.80286">
        <ele>165</ele>
        <time>2025-06-16T07:44:38.741Z</time>
      </trkpt>
      <trkpt lat="48.64684" lon="1.80289">
        <ele>165</ele>
        <time>2025-06-16T07:44:43.300Z</time>
      </trkpt>
      <trkpt lat="48.6469" lon="1.80286">
        <ele>165</ele>
        <time>2025-06-16T07:44:47.395Z</time>
      </trkpt>
      <trkpt lat="48.64693" lon="1.80271">
        <ele>165</ele>
        <time>2025-06-16T07:44:51.918Z</time>
      </trkpt>
      <trkpt lat="48.64696" lon="1.80262">
        <ele>166</ele>
        <time>2025-06-16T07:44:56.741Z</time>
      </trkpt>
      <trkpt lat="48.64699" lon="1.80254">
        <ele>166</ele>
        <time>2025-06-16T07:45:01.157Z</time>
      </trkpt>
      <trkpt lat="48.64702" lon="1.80249">
        <ele>166</ele>
        <time>2025-06-16T07:45:05.618Z</time>
      </trkpt>
      <trkpt lat="48.64705" lon="1.80241">
        <ele>166</ele>
        <time>2025-06-16T07:45:10.080Z</time>
      </trkpt>
      <trkpt lat="48.64708" lon="1.80233">
        <ele>167</ele>
        <time>2025-06-16T07:45:14.679Z</time>
      </trkpt>
      <trkpt lat="48.64712" lon="1.80225">
        <ele>167</ele>
        <time>2025-06-16T07:45:18.900Z</time>
      </trkpt>
      <trkpt lat="48.64715" lon="1.80217">
        <ele>167</ele>
        <time>2025-06-16T07:45:23.439Z</time>
      </trkpt>
      <trkpt lat="48.64718" lon="1.8021">
        <ele>167</ele>
        <time>2025-06-16T07:45:27.815Z</time>
      </trkpt>
      <trkpt lat="48.64722" lon="1.80203">
        <ele>168</ele>
        <time>2025-06-16T07:45:32.516Z</time>
      </trkpt>
      <trkpt lat="48.64725" lon="1.80195">
        <ele>168</ele>
        <time>2025-06-16T07:45:36.722Z</time>
      </trkpt>
      <trkpt lat="48.64729" lon="1.80188">
        <ele>168</ele>
        <time>2025-06-16T07:45:41.158Z</time>
      </trkpt>
      <trkpt lat="48.64731" lon="1.80181">
        <ele>168</ele>
        <time>2025-06-16T07:45:45.202Z</time>
      </trkpt>
      <trkpt lat="48.64735" lon="1.80173">
        <ele>168</ele>
        <time>2025-06-16T07:45:49.381Z</time>
      </trkpt>
      <trkpt lat="48.64738" lon="1.80166">
        <ele>169</ele>
        <time>2025-06-16T07:45:53.903Z</time>
      </trkpt>
      <trkpt lat="48.64742" lon="1.80159">
        <ele>169</ele>
        <time>2025-06-16T07:45:58.339Z</time>
      </trkpt>
      <trkpt lat="48.64745" lon="1.80152">
        <ele>168</ele>
        <time>2025-06-16T07:46:02.724Z</time>
      </trkpt>
      <trkpt lat="48.64748" lon="1.80144">
        <ele>168</ele>
        <time>2025-06-16T07:46:07.099Z</time>
      </trkpt>
      <trkpt lat="48.64752" lon="1.80136">
        <ele>168</ele>
        <time>2025-06-16T07:46:11.596Z</time>
      </trkpt>
      <trkpt lat="48.64756" lon="1.80129">
        <ele>168</ele>
        <time>2025-06-16T07:46:15.964Z</time>
      </trkpt>
      <trkpt lat="48.6476" lon="1.80123">
        <ele>165</ele>
        <time>2025-06-16T07:46:20.502Z</time>
      </trkpt>
      <trkpt lat="48.64763" lon="1.80117">
        <ele>165</ele>
        <time>2025-06-16T07:46:24.938Z</time>
      </trkpt>
      <trkpt lat="48.64763" lon="1.80109">
        <ele>165</ele>
        <time>2025-06-16T07:46:29.357Z</time>
      </trkpt>
      <trkpt lat="48.64757" lon="1.80107">
        <ele>165</ele>
        <time>2025-06-16T07:46:33.443Z</time>
      </trkpt>
      <trkpt lat="48.64752" lon="1.80103">
        <ele>165</ele>
        <time>2025-06-16T07:46:38.060Z</time>
      </trkpt>
      <trkpt lat="48.64748" lon="1.80097">
        <ele>162</ele>
        <time>2025-06-16T07:46:42.221Z</time>
      </trkpt>
      <trkpt lat="48.64746" lon="1.80084">
        <ele>162</ele>
        <time>2025-06-16T07:46:57.759Z</time>
      </trkpt>
      <trkpt lat="48.64747" lon="1.80083">
        <ele>162</ele>
        <time>2025-06-16T07:47:03.741Z</time>
      </trkpt>
      <trkpt lat="48.64745" lon="1.80084">
        <ele>162</ele>
        <time>2025-06-16T07:47:08.741Z</time>
      </trkpt>
      <trkpt lat="48.64738" lon="1.8008">
        <ele>162</ele>
        <time>2025-06-16T07:47:13.362Z</time>
      </trkpt>
      <trkpt lat="48.64733" lon="1.80079">
        <ele>166</ele>
        <time>2025-06-16T07:47:17.741Z</time>
      </trkpt>
      <trkpt lat="48.64726" lon="1.80075">
        <ele>166</ele>
        <time>2025-06-16T07:47:22.741Z</time>
      </trkpt>
      <trkpt lat="48.64719" lon="1.80069">
        <ele>166</ele>
        <time>2025-06-16T07:47:27.742Z</time>
      </trkpt>
      <trkpt lat="48.64712" lon="1.80063">
        <ele>166</ele>
        <time>2025-06-16T07:47:32.501Z</time>
      </trkpt>
      <trkpt lat="48.64706" lon="1.80058">
        <ele>166</ele>
        <time>2025-06-16T07:47:36.740Z</time>
      </trkpt>
      <trkpt lat="48.64705" lon="1.80058">
        <ele>166</ele>
        <time>2025-06-16T07:47:37.564Z</time>
      </trkpt>
      <trkpt lat="48.64702" lon="1.80061">
        <ele>166</ele>
        <time>2025-06-16T07:47:46.741Z</time>
      </trkpt>
      <trkpt lat="48.64696" lon="1.80055">
        <ele>166</ele>
        <time>2025-06-16T07:47:51.740Z</time>
      </trkpt>
      <trkpt lat="48.64689" lon="1.80045">
        <ele>166</ele>
        <time>2025-06-16T07:47:56.619Z</time>
      </trkpt>
      <trkpt lat="48.64684" lon="1.8003">
        <ele>167</ele>
        <time>2025-06-16T07:48:01.482Z</time>
      </trkpt>
      <trkpt lat="48.6468" lon="1.80021">
        <ele>168</ele>
        <time>2025-06-16T07:48:05.662Z</time>
      </trkpt>
      <trkpt lat="48.64677" lon="1.80013">
        <ele>169</ele>
        <time>2025-06-16T07:48:10.219Z</time>
      </trkpt>
      <trkpt lat="48.64675" lon="1.80006">
        <ele>169</ele>
        <time>2025-06-16T07:48:14.402Z</time>
      </trkpt>
      <trkpt lat="48.64672" lon="1.8">
        <ele>169</ele>
        <time>2025-06-16T07:48:29.724Z</time>
      </trkpt>
      <trkpt lat="48.64678" lon="1.79994">
        <ele>169</ele>
        <time>2025-06-16T07:48:33.741Z</time>
      </trkpt>
      <trkpt lat="48.64682" lon="1.79983">
        <ele>170</ele>
        <time>2025-06-16T07:48:38.263Z</time>
      </trkpt>
      <trkpt lat="48.64682" lon="1.79972">
        <ele>170</ele>
        <time>2025-06-16T07:48:42.496Z</time>
      </trkpt>
      <trkpt lat="48.64683" lon="1.79961">
        <ele>170</ele>
        <time>2025-06-16T07:48:46.736Z</time>
      </trkpt>
      <trkpt lat="48.64688" lon="1.79951">
        <ele>171</ele>
        <time>2025-06-16T07:48:51.741Z</time>
      </trkpt>
      <trkpt lat="48.64692" lon="1.79938">
        <ele>171</ele>
        <time>2025-06-16T07:48:56.741Z</time>
      </trkpt>
      <trkpt lat="48.64695" lon="1.79931">
        <ele>171</ele>
        <time>2025-06-16T07:49:01.104Z</time>
      </trkpt>
      <trkpt lat="48.64698" lon="1.79923">
        <ele>171</ele>
        <time>2025-06-16T07:49:05.618Z</time>
      </trkpt>
      <trkpt lat="48.64701" lon="1.79916">
        <ele>171</ele>
        <time>2025-06-16T07:49:09.740Z</time>
      </trkpt>
      <trkpt lat="48.64705" lon="1.79908">
        <ele>171</ele>
        <time>2025-06-16T07:49:14.741Z</time>
      </trkpt>
      <trkpt lat="48.64707" lon="1.79899">
        <ele>171</ele>
        <time>2025-06-16T07:49:19.741Z</time>
      </trkpt>
      <trkpt lat="48.6471" lon="1.7989">
        <ele>171</ele>
        <time>2025-06-16T07:49:24.302Z</time>
      </trkpt>
      <trkpt lat="48.6471" lon="1.79886">
        <ele>171</ele>
        <time>2025-06-16T07:50:05.717Z</time>
      </trkpt>
      <trkpt lat="48.64707" lon="1.79894">
        <ele>171</ele>
        <time>2025-06-16T07:50:10.521Z</time>
      </trkpt>
      <trkpt lat="48.64704" lon="1.79902">
        <ele>171</ele>
        <time>2025-06-16T07:50:14.923Z</time>
      </trkpt>
      <trkpt lat="48.64702" lon="1.7991">
        <ele>171</ele>
        <time>2025-06-16T07:50:19.360Z</time>
      </trkpt>
      <trkpt lat="48.64699" lon="1.79917">
        <ele>171</ele>
        <time>2025-06-16T07:50:23.741Z</time>
      </trkpt>
      <trkpt lat="48.64698" lon="1.79922">
        <ele>171</ele>
        <time>2025-06-16T07:50:28.740Z</time>
      </trkpt>
      <trkpt lat="48.64695" lon="1.79928">
        <ele>171</ele>
        <time>2025-06-16T07:50:33.284Z</time>
      </trkpt>
      <trkpt lat="48.64691" lon="1.79937">
        <ele>171</ele>
        <time>2025-06-16T07:50:37.601Z</time>
      </trkpt>
      <trkpt lat="48.64689" lon="1.79945">
        <ele>171</ele>
        <time>2025-06-16T07:50:42.702Z</time>
      </trkpt>
      <trkpt lat="48.64687" lon="1.79952">
        <ele>171</ele>
        <time>2025-06-16T07:50:46.722Z</time>
      </trkpt>
      <trkpt lat="48.64683" lon="1.7996">
        <ele>170</ele>
        <time>2025-06-16T07:50:51.458Z</time>
      </trkpt>
      <trkpt lat="48.6468" lon="1.79968">
        <ele>170</ele>
        <time>2025-06-16T07:50:55.740Z</time>
      </trkpt>
      <trkpt lat="48.64677" lon="1.79975">
        <ele>170</ele>
        <time>2025-06-16T07:51:00.500Z</time>
      </trkpt>
      <trkpt lat="48.64675" lon="1.79983">
        <ele>170</ele>
        <time>2025-06-16T07:51:04.741Z</time>
      </trkpt>
      <trkpt lat="48.64672" lon="1.79991">
        <ele>169</ele>
        <time>2025-06-16T07:51:08.922Z</time>
      </trkpt>
      <trkpt lat="48.64667" lon="1.79994">
        <ele>169</ele>
        <time>2025-06-16T07:51:13.358Z</time>
      </trkpt>
      <trkpt lat="48.64662" lon="1.7999">
        <ele>169</ele>
        <time>2025-06-16T07:51:17.741Z</time>
      </trkpt>
      <trkpt lat="48.64653" lon="1.79986">
        <ele>170</ele>
        <time>2025-06-16T07:51:35.740Z</time>
      </trkpt>
      <trkpt lat="48.64651" lon="1.79987">
        <ele>169</ele>
        <time>2025-06-16T07:51:40.741Z</time>
      </trkpt>
      <trkpt lat="48.6465" lon="1.79986">
        <ele>169</ele>
        <time>2025-06-16T07:51:42.741Z</time>
      </trkpt>
      <trkpt lat="48.6465" lon="1.79986">
        <ele>169</ele>
        <time>2025-06-16T07:51:52.741Z</time>
      </trkpt>
      <trkpt lat="48.64645" lon="1.79981">
        <ele>170</ele>
        <time>2025-06-16T07:51:57.466Z</time>
      </trkpt>
      <trkpt lat="48.64636" lon="1.79977">
        <ele>170</ele>
        <time>2025-06-16T07:52:01.667Z</time>
      </trkpt>
      <trkpt lat="48.64631" lon="1.79971">
        <ele>170</ele>
        <time>2025-06-16T07:52:05.740Z</time>
      </trkpt>
      <trkpt lat="48.64627" lon="1.79965">
        <ele>170</ele>
        <time>2025-06-16T07:52:10.440Z</time>
      </trkpt>
      <trkpt lat="48.64626" lon="1.79963">
        <ele>170</ele>
        <time>2025-06-16T07:52:11.575Z</time>
      </trkpt>
      <trkpt lat="48.64614" lon="1.79952">
        <ele>171</ele>
        <time>2025-06-16T07:53:31.740Z</time>
      </trkpt>
      <trkpt lat="48.64614" lon="1.79951">
        <ele>171</ele>
        <time>2025-06-16T07:53:35.740Z</time>
      </trkpt>
      <trkpt lat="48.64614" lon="1.79951">
        <ele>171</ele>
        <time>2025-06-16T07:53:45.649Z</time>
      </trkpt>
      <trkpt lat="48.64608" lon="1.79947">
        <ele>171</ele>
        <time>2025-06-16T07:53:49.881Z</time>
      </trkpt>
      <trkpt lat="48.64604" lon="1.79946">
        <ele>171</ele>
        <time>2025-06-16T07:53:54.268Z</time>
      </trkpt>
      <trkpt lat="48.64589" lon="1.79936">
        <ele>172</ele>
        <time>2025-06-16T07:54:40.739Z</time>
      </trkpt>
      <trkpt lat="48.64588" lon="1.79936">
        <ele>172</ele>
        <time>2025-06-16T07:54:50.167Z</time>
      </trkpt>
      <trkpt lat="48.64587" lon="1.79936">
        <ele>172</ele>
        <time>2025-06-16T07:54:54.740Z</time>
      </trkpt>
      <trkpt lat="48.64587" lon="1.79936">
        <ele>172</ele>
        <time>2025-06-16T07:55:01.740Z</time>
      </trkpt>
      <trkpt lat="48.64587" lon="1.79934">
        <ele>172</ele>
        <time>2025-06-16T07:55:06.739Z</time>
      </trkpt>
      <trkpt lat="48.64586" lon="1.79926">
        <ele>171</ele>
        <time>2025-06-16T07:55:11.202Z</time>
      </trkpt>
      <trkpt lat="48.64585" lon="1.79918">
        <ele>171</ele>
        <time>2025-06-16T07:55:15.238Z</time>
      </trkpt>
      <trkpt lat="48.64583" lon="1.79912">
        <ele>171</ele>
        <time>2025-06-16T07:55:19.582Z</time>
      </trkpt>
      <trkpt lat="48.64579" lon="1.79909">
        <ele>171</ele>
        <time>2025-06-16T07:55:24.240Z</time>
      </trkpt>
      <trkpt lat="48.64575" lon="1.79902">
        <ele>170</ele>
        <time>2025-06-16T07:55:44.263Z</time>
      </trkpt>
      <trkpt lat="48.64572" lon="1.79912">
        <ele>171</ele>
        <time>2025-06-16T07:55:48.740Z</time>
      </trkpt>
      <trkpt lat="48.64572" lon="1.79914">
        <ele>171</ele>
        <time>2025-06-16T07:55:52.740Z</time>
      </trkpt>
      <trkpt lat="48.64573" lon="1.79917">
        <ele>171</ele>
        <time>2025-06-16T07:55:57.739Z</time>
      </trkpt>
      <trkpt lat="48.64575" lon="1.79922">
        <ele>171</ele>
        <time>2025-06-16T07:56:01.740Z</time>
      </trkpt>
      <trkpt lat="48.64588" lon="1.79938">
        <ele>172</ele>
        <time>2025-06-16T07:57:13.739Z</time>
      </trkpt>
      <trkpt lat="48.6459" lon="1.79939">
        <ele>172</ele>
        <time>2025-06-16T07:57:17.740Z</time>
      </trkpt>
      <trkpt lat="48.64594" lon="1.79942">
        <ele>172</ele>
        <time>2025-06-16T07:57:21.740Z</time>
      </trkpt>
      <trkpt lat="48.64599" lon="1.79948">
        <ele>171</ele>
        <time>2025-06-16T07:57:25.995Z</time>
      </trkpt>
      <trkpt lat="48.64604" lon="1.79952">
        <ele>171</ele>
        <time>2025-06-16T07:57:30.739Z</time>
      </trkpt>
      <trkpt lat="48.64609" lon="1.79957">
        <ele>171</ele>
        <time>2025-06-16T07:57:35.585Z</time>
      </trkpt>
      <trkpt lat="48.64613" lon="1.79961">
        <ele>170</ele>
        <time>2025-06-16T07:57:39.739Z</time>
      </trkpt>
      <trkpt lat="48.64618" lon="1.79964">
        <ele>170</ele>
        <time>2025-06-16T07:57:44.502Z</time>
      </trkpt>
      <trkpt lat="48.64622" lon="1.79971">
        <ele>170</ele>
        <time>2025-06-16T07:57:49.067Z</time>
      </trkpt>
      <trkpt lat="48.64627" lon="1.79975">
        <ele>170</ele>
        <time>2025-06-16T07:57:53.384Z</time>
      </trkpt>
      <trkpt lat="48.64631" lon="1.79977">
        <ele>170</ele>
        <time>2025-06-16T07:57:57.464Z</time>
      </trkpt>
      <trkpt lat="48.64637" lon="1.79979">
        <ele>170</ele>
        <time>2025-06-16T07:58:01.628Z</time>
      </trkpt>
      <trkpt lat="48.64641" lon="1.79983">
        <ele>170</ele>
        <time>2025-06-16T07:58:05.724Z</time>
      </trkpt>
      <trkpt lat="48.64645" lon="1.79989">
        <ele>169</ele>
        <time>2025-06-16T07:58:10.648Z</time>
      </trkpt>
      <trkpt lat="48.64648" lon="1.79994">
        <ele>169</ele>
        <time>2025-06-16T07:58:15.185Z</time>
      </trkpt>
      <trkpt lat="48.64652" lon="1.79995">
        <ele>169</ele>
        <time>2025-06-16T07:58:19.590Z</time>
      </trkpt>
      <trkpt lat="48.64654" lon="1.79997">
        <ele>169</ele>
        <time>2025-06-16T07:58:23.745Z</time>
      </trkpt>
      <trkpt lat="48.64659" lon="1.80009">
        <ele>169</ele>
        <time>2025-06-16T08:00:23.611Z</time>
      </trkpt>
      <trkpt lat="48.6466" lon="1.80009">
        <ele>169</ele>
        <time>2025-06-16T08:00:27.749Z</time>
      </trkpt>
      <trkpt lat="48.64662" lon="1.80013">
        <ele>169</ele>
        <time>2025-06-16T08:00:32.408Z</time>
      </trkpt>
      <trkpt lat="48.64664" lon="1.80022">
        <ele>168</ele>
        <time>2025-06-16T08:00:36.930Z</time>
      </trkpt>
      <trkpt lat="48.64667" lon="1.80029">
        <ele>168</ele>
        <time>2025-06-16T08:00:41.546Z</time>
      </trkpt>
      <trkpt lat="48.64672" lon="1.80034">
        <ele>168</ele>
        <time>2025-06-16T08:00:45.743Z</time>
      </trkpt>
      <trkpt lat="48.64676" lon="1.80039">
        <ele>168</ele>
        <time>2025-06-16T08:00:50.147Z</time>
      </trkpt>
      <trkpt lat="48.64682" lon="1.80045">
        <ele>166</ele>
        <time>2025-06-16T08:00:54.549Z</time>
      </trkpt>
      <trkpt lat="48.64689" lon="1.80049">
        <ele>166</ele>
        <time>2025-06-16T08:00:58.739Z</time>
      </trkpt>
      <trkpt lat="48.64694" lon="1.80052">
        <ele>166</ele>
        <time>2025-06-16T08:01:02.842Z</time>
      </trkpt>
      <trkpt lat="48.647" lon="1.80058">
        <ele>166</ele>
        <time>2025-06-16T08:01:07.304Z</time>
      </trkpt>
      <trkpt lat="48.64706" lon="1.8006">
        <ele>166</ele>
        <time>2025-06-16T08:01:11.742Z</time>
      </trkpt>
      <trkpt lat="48.64713" lon="1.80066">
        <ele>166</ele>
        <time>2025-06-16T08:01:16.739Z</time>
      </trkpt>
      <trkpt lat="48.64718" lon="1.8007">
        <ele>166</ele>
        <time>2025-06-16T08:01:21.127Z</time>
      </trkpt>
      <trkpt lat="48.64723" lon="1.80076">
        <ele>166</ele>
        <time>2025-06-16T08:01:25.490Z</time>
      </trkpt>
      <trkpt lat="48.64728" lon="1.80082">
        <ele>166</ele>
        <time>2025-06-16T08:01:30.026Z</time>
      </trkpt>
      <trkpt lat="48.64732" lon="1.80086">
        <ele>166</ele>
        <time>2025-06-16T08:01:34.311Z</time>
      </trkpt>
      <trkpt lat="48.64738" lon="1.8009">
        <ele>162</ele>
        <time>2025-06-16T08:01:38.507Z</time>
      </trkpt>
      <trkpt lat="48.64743" lon="1.80096">
        <ele>162</ele>
        <time>2025-06-16T08:01:42.526Z</time>
      </trkpt>
      <trkpt lat="48.64747" lon="1.80102">
        <ele>165</ele>
        <time>2025-06-16T08:01:46.739Z</time>
      </trkpt>
      <trkpt lat="48.64752" lon="1.80106">
        <ele>165</ele>
        <time>2025-06-16T08:01:51.229Z</time>
      </trkpt>
      <trkpt lat="48.64761" lon="1.80124">
        <ele>165</ele>
        <time>2025-06-16T08:02:13.738Z</time>
      </trkpt>
      <trkpt lat="48.64761" lon="1.80124">
        <ele>165</ele>
        <time>2025-06-16T08:02:18.387Z</time>
      </trkpt>
      <trkpt lat="48.64757" lon="1.80131">
        <ele>168</ele>
        <time>2025-06-16T08:02:22.739Z</time>
      </trkpt>
      <trkpt lat="48.64752" lon="1.80137">
        <ele>168</ele>
        <time>2025-06-16T08:02:26.739Z</time>
      </trkpt>
      <trkpt lat="48.64747" lon="1.80145">
        <ele>168</ele>
        <time>2025-06-16T08:02:31.305Z</time>
      </trkpt>
      <trkpt lat="48.64744" lon="1.80152">
        <ele>168</ele>
        <time>2025-06-16T08:02:35.904Z</time>
      </trkpt>
      <trkpt lat="48.6474" lon="1.8016">
        <ele>169</ele>
        <time>2025-06-16T08:02:40.469Z</time>
      </trkpt>
      <trkpt lat="48.64735" lon="1.80167">
        <ele>168</ele>
        <time>2025-06-16T08:02:44.549Z</time>
      </trkpt>
      <trkpt lat="48.64732" lon="1.80173">
        <ele>168</ele>
        <time>2025-06-16T08:02:48.739Z</time>
      </trkpt>
      <trkpt lat="48.64729" lon="1.80181">
        <ele>168</ele>
        <time>2025-06-16T08:02:53.589Z</time>
      </trkpt>
      <trkpt lat="48.64725" lon="1.80188">
        <ele>168</ele>
        <time>2025-06-16T08:02:57.739Z</time>
      </trkpt>
      <trkpt lat="48.64722" lon="1.80196">
        <ele>168</ele>
        <time>2025-06-16T08:03:02.141Z</time>
      </trkpt>
      <trkpt lat="48.64719" lon="1.80205">
        <ele>168</ele>
        <time>2025-06-16T08:03:06.485Z</time>
      </trkpt>
      <trkpt lat="48.64716" lon="1.80211">
        <ele>167</ele>
        <time>2025-06-16T08:03:10.738Z</time>
      </trkpt>
      <trkpt lat="48.64713" lon="1.80219">
        <ele>167</ele>
        <time>2025-06-16T08:03:15.283Z</time>
      </trkpt>
      <trkpt lat="48.64709" lon="1.80228">
        <ele>167</ele>
        <time>2025-06-16T08:03:19.624Z</time>
      </trkpt>
      <trkpt lat="48.64705" lon="1.80235">
        <ele>166</ele>
        <time>2025-06-16T08:03:24.283Z</time>
      </trkpt>
      <trkpt lat="48.64701" lon="1.80242">
        <ele>166</ele>
        <time>2025-06-16T08:03:28.348Z</time>
      </trkpt>
      <trkpt lat="48.64698" lon="1.8025">
        <ele>166</ele>
        <time>2025-06-16T08:03:32.739Z</time>
      </trkpt>
      <trkpt lat="48.64693" lon="1.80259">
        <ele>166</ele>
        <time>2025-06-16T08:03:37.739Z</time>
      </trkpt>
      <trkpt lat="48.6469" lon="1.80266">
        <ele>165</ele>
        <time>2025-06-16T08:03:42.276Z</time>
      </trkpt>
      <trkpt lat="48.64685" lon="1.80274">
        <ele>165</ele>
        <time>2025-06-16T08:03:46.738Z</time>
      </trkpt>
      <trkpt lat="48.64681" lon="1.80283">
        <ele>165</ele>
        <time>2025-06-16T08:03:51.570Z</time>
      </trkpt>
      <trkpt lat="48.64677" lon="1.8029">
        <ele>164</ele>
        <time>2025-06-16T08:03:55.739Z</time>
      </trkpt>
      <trkpt lat="48.64675" lon="1.80298">
        <ele>164</ele>
        <time>2025-06-16T08:04:00.025Z</time>
      </trkpt>
      <trkpt lat="48.64671" lon="1.80307">
        <ele>164</ele>
        <time>2025-06-16T08:04:04.505Z</time>
      </trkpt>
      <trkpt lat="48.64666" lon="1.80315">
        <ele>164</ele>
        <time>2025-06-16T08:04:08.712Z</time>
      </trkpt>
      <trkpt lat="48.64662" lon="1.80323">
        <ele>163</ele>
        <time>2025-06-16T08:04:13.739Z</time>
      </trkpt>
      <trkpt lat="48.64658" lon="1.8033">
        <ele>163</ele>
        <time>2025-06-16T08:04:18.147Z</time>
      </trkpt>
      <trkpt lat="48.64655" lon="1.80338">
        <ele>163</ele>
        <time>2025-06-16T08:04:22.567Z</time>
      </trkpt>
      <trkpt lat="48.6465" lon="1.80348">
        <ele>161</ele>
        <time>2025-06-16T08:04:27.388Z</time>
      </trkpt>
      <trkpt lat="48.64646" lon="1.80354">
        <ele>161</ele>
        <time>2025-06-16T08:04:31.467Z</time>
      </trkpt>
      <trkpt lat="48.64642" lon="1.80359">
        <ele>161</ele>
        <time>2025-06-16T08:04:35.832Z</time>
      </trkpt>
      <trkpt lat="48.64639" lon="1.80369">
        <ele>161</ele>
        <time>2025-06-16T08:04:40.387Z</time>
      </trkpt>
      <trkpt lat="48.64637" lon="1.80377">
        <ele>159</ele>
        <time>2025-06-16T08:04:44.494Z</time>
      </trkpt>
      <trkpt lat="48.64635" lon="1.80385">
        <ele>159</ele>
        <time>2025-06-16T08:04:48.738Z</time>
      </trkpt>
      <trkpt lat="48.64628" lon="1.80392">
        <ele>159</ele>
        <time>2025-06-16T08:04:52.783Z</time>
      </trkpt>
      <trkpt lat="48.64624" lon="1.80399">
        <ele>157</ele>
        <time>2025-06-16T08:04:57.171Z</time>
      </trkpt>
      <trkpt lat="48.64621" lon="1.80409">
        <ele>156</ele>
        <time>2025-06-16T08:05:01.469Z</time>
      </trkpt>
      <trkpt lat="48.64616" lon="1.80413">
        <ele>156</ele>
        <time>2025-06-16T08:05:05.505Z</time>
      </trkpt>
      <trkpt lat="48.64612" lon="1.80423">
        <ele>156</ele>
        <time>2025-06-16T08:05:09.686Z</time>
      </trkpt>
      <trkpt lat="48.6461" lon="1.80432">
        <ele>155</ele>
        <time>2025-06-16T08:05:14.089Z</time>
      </trkpt>
      <trkpt lat="48.64607" lon="1.80438">
        <ele>155</ele>
        <time>2025-06-16T08:05:18.672Z</time>
      </trkpt>
      <trkpt lat="48.64601" lon="1.80449">
        <ele>155</ele>
        <time>2025-06-16T08:05:23.747Z</time>
      </trkpt>
      <trkpt lat="48.64598" lon="1.80461">
        <ele>155</ele>
        <time>2025-06-16T08:05:28.193Z</time>
      </trkpt>
      <trkpt lat="48.64595" lon="1.80469">
        <ele>155</ele>
        <time>2025-06-16T08:05:32.433Z</time>
      </trkpt>
      <trkpt lat="48.6459" lon="1.80475">
        <ele>155</ele>
        <time>2025-06-16T08:05:36.913Z</time>
      </trkpt>
      <trkpt lat="48.64586" lon="1.80481">
        <ele>155</ele>
        <time>2025-06-16T08:05:41.307Z</time>
      </trkpt>
      <trkpt lat="48.64583" lon="1.80489">
        <ele>156</ele>
        <time>2025-06-16T08:05:45.385Z</time>
      </trkpt>
      <trkpt lat="48.64578" lon="1.80495">
        <ele>156</ele>
        <time>2025-06-16T08:05:49.490Z</time>
      </trkpt>
      <trkpt lat="48.64573" lon="1.80508">
        <ele>156</ele>
        <time>2025-06-16T08:05:54.712Z</time>
      </trkpt>
      <trkpt lat="48.64571" lon="1.80517">
        <ele>156</ele>
        <time>2025-06-16T08:05:58.806Z</time>
      </trkpt>
      <trkpt lat="48.64568" lon="1.80523">
        <ele>154</ele>
        <time>2025-06-16T08:06:03.739Z</time>
      </trkpt>
      <trkpt lat="48.64562" lon="1.80534">
        <ele>154</ele>
        <time>2025-06-16T08:06:08.533Z</time>
      </trkpt>
      <trkpt lat="48.64559" lon="1.80543">
        <ele>155</ele>
        <time>2025-06-16T08:06:12.739Z</time>
      </trkpt>
      <trkpt lat="48.64557" lon="1.80547">
        <ele>155</ele>
        <time>2025-06-16T08:06:17.688Z</time>
      </trkpt>
      <trkpt lat="48.64553" lon="1.80553">
        <ele>155</ele>
        <time>2025-06-16T08:06:22.090Z</time>
      </trkpt>
      <trkpt lat="48.64545" lon="1.80571">
        <ele>155</ele>
        <time>2025-06-16T08:06:35.574Z</time>
      </trkpt>
      <trkpt lat="48.6454" lon="1.80586">
        <ele>154</ele>
        <time>2025-06-16T08:06:40.274Z</time>
      </trkpt>
      <trkpt lat="48.64535" lon="1.80597">
        <ele>154</ele>
        <time>2025-06-16T08:06:44.573Z</time>
      </trkpt>
      <trkpt lat="48.64531" lon="1.80608">
        <ele>153</ele>
        <time>2025-06-16T08:06:48.712Z</time>
      </trkpt>
      <trkpt lat="48.64528" lon="1.80615">
        <ele>153</ele>
        <time>2025-06-16T08:06:52.739Z</time>
      </trkpt>
      <trkpt lat="48.64522" lon="1.80622">
        <ele>153</ele>
        <time>2025-06-16T08:06:56.739Z</time>
      </trkpt>
      <trkpt lat="48.6452" lon="1.80628">
        <ele>153</ele>
        <time>2025-06-16T08:07:01.227Z</time>
      </trkpt>
      <trkpt lat="48.64515" lon="1.80638">
        <ele>153</ele>
        <time>2025-06-16T08:07:05.739Z</time>
      </trkpt>
      <trkpt lat="48.64513" lon="1.80646">
        <ele>152</ele>
        <time>2025-06-16T08:07:10.424Z</time>
      </trkpt>
      <trkpt lat="48.64513" lon="1.80648">
        <ele>152</ele>
        <time>2025-06-16T08:07:14.738Z</time>
      </trkpt>
      <trkpt lat="48.6451" lon="1.80651">
        <ele>152</ele>
        <time>2025-06-16T08:07:19.725Z</time>
      </trkpt>
      <trkpt lat="48.64503" lon="1.80663">
        <ele>152</ele>
        <time>2025-06-16T08:07:23.739Z</time>
      </trkpt>
      <trkpt lat="48.64497" lon="1.80673">
        <ele>152</ele>
        <time>2025-06-16T08:07:28.053Z</time>
      </trkpt>
      <trkpt lat="48.64495" lon="1.80684">
        <ele>152</ele>
        <time>2025-06-16T08:07:32.087Z</time>
      </trkpt>
      <trkpt lat="48.6449" lon="1.80687">
        <ele>152</ele>
        <time>2025-06-16T08:07:36.148Z</time>
      </trkpt>
      <trkpt lat="48.64489" lon="1.80695">
        <ele>152</ele>
        <time>2025-06-16T08:07:40.433Z</time>
      </trkpt>
      <trkpt lat="48.64488" lon="1.807">
        <ele>152</ele>
        <time>2025-06-16T08:07:44.739Z</time>
      </trkpt>
      <trkpt lat="48.64486" lon="1.80708">
        <ele>152</ele>
        <time>2025-06-16T08:07:49.094Z</time>
      </trkpt>
      <trkpt lat="48.6448" lon="1.80714">
        <ele>150</ele>
        <time>2025-06-16T08:07:53.739Z</time>
      </trkpt>
      <trkpt lat="48.64474" lon="1.8072">
        <ele>150</ele>
        <time>2025-06-16T08:07:57.738Z</time>
      </trkpt>
      <trkpt lat="48.64469" lon="1.80728">
        <ele>150</ele>
        <time>2025-06-16T08:08:02.188Z</time>
      </trkpt>
      <trkpt lat="48.64467" lon="1.80738">
        <ele>149</ele>
        <time>2025-06-16T08:08:06.550Z</time>
      </trkpt>
      <trkpt lat="48.64466" lon="1.80749">
        <ele>149</ele>
        <time>2025-06-16T08:08:10.953Z</time>
      </trkpt>
      <trkpt lat="48.64466" lon="1.8076">
        <ele>149</ele>
        <time>2025-06-16T08:08:15.464Z</time>
      </trkpt>
      <trkpt lat="48.64464" lon="1.80767">
        <ele>149</ele>
        <time>2025-06-16T08:08:19.467Z</time>
      </trkpt>
      <trkpt lat="48.64462" lon="1.80774">
        <ele>149</ele>
        <time>2025-06-16T08:08:23.738Z</time>
      </trkpt>
      <trkpt lat="48.64455" lon="1.80775">
        <ele>148</ele>
        <time>2025-06-16T08:08:28.392Z</time>
      </trkpt>
      <trkpt lat="48.64451" lon="1.8077">
        <ele>148</ele>
        <time>2025-06-16T08:08:32.912Z</time>
      </trkpt>
      <trkpt lat="48.64446" lon="1.80765">
        <ele>148</ele>
        <time>2025-06-16T08:08:37.632Z</time>
      </trkpt>
      <trkpt lat="48.6444" lon="1.80769">
        <ele>148</ele>
        <time>2025-06-16T08:08:41.738Z</time>
      </trkpt>
      <trkpt lat="48.64435" lon="1.80775">
        <ele>148</ele>
        <time>2025-06-16T08:08:45.953Z</time>
      </trkpt>
      <trkpt lat="48.6443" lon="1.80782">
        <ele>149</ele>
        <time>2025-06-16T08:08:50.355Z</time>
      </trkpt>
      <trkpt lat="48.64427" lon="1.8079">
        <ele>149</ele>
        <time>2025-06-16T08:08:54.738Z</time>
      </trkpt>
      <trkpt lat="48.64423" lon="1.80799">
        <ele>148</ele>
        <time>2025-06-16T08:08:59.194Z</time>
      </trkpt>
      <trkpt lat="48.64419" lon="1.80806">
        <ele>148</ele>
        <time>2025-06-16T08:09:03.628Z</time>
      </trkpt>
      <trkpt lat="48.64415" lon="1.80812">
        <ele>148</ele>
        <time>2025-06-16T08:09:08.005Z</time>
      </trkpt>
      <trkpt lat="48.64411" lon="1.80819">
        <ele>148</ele>
        <time>2025-06-16T08:09:12.333Z</time>
      </trkpt>
      <trkpt lat="48.64408" lon="1.80827">
        <ele>147</ele>
        <time>2025-06-16T08:09:16.725Z</time>
      </trkpt>
      <trkpt lat="48.64404" lon="1.80833">
        <ele>147</ele>
        <time>2025-06-16T08:09:21.073Z</time>
      </trkpt>
      <trkpt lat="48.64401" lon="1.8084">
        <ele>149</ele>
        <time>2025-06-16T08:09:25.353Z</time>
      </trkpt>
      <trkpt lat="48.64399" lon="1.80848">
        <ele>150</ele>
        <time>2025-06-16T08:09:29.685Z</time>
      </trkpt>
      <trkpt lat="48.64397" lon="1.80857">
        <ele>150</ele>
        <time>2025-06-16T08:09:34.006Z</time>
      </trkpt>
      <trkpt lat="48.64395" lon="1.80865">
        <ele>150</ele>
        <time>2025-06-16T08:09:38.464Z</time>
      </trkpt>
      <trkpt lat="48.64391" lon="1.80871">
        <ele>150</ele>
        <time>2025-06-16T08:09:42.738Z</time>
      </trkpt>
      <trkpt lat="48.64387" lon="1.80878">
        <ele>150</ele>
        <time>2025-06-16T08:09:47.226Z</time>
      </trkpt>
      <trkpt lat="48.64384" lon="1.80883">
        <ele>150</ele>
        <time>2025-06-16T08:09:51.348Z</time>
      </trkpt>
      <trkpt lat="48.64379" lon="1.80887">
        <ele>150</ele>
        <time>2025-06-16T08:09:55.486Z</time>
      </trkpt>
      <trkpt lat="48.64375" lon="1.80888">
        <ele>153</ele>
        <time>2025-06-16T08:09:59.737Z</time>
      </trkpt>
      <trkpt lat="48.64375" lon="1.80889">
        <ele>153</ele>
        <time>2025-06-16T08:10:03.738Z</time>
      </trkpt>
      <trkpt lat="48.64374" lon="1.80887">
        <ele>153</ele>
        <time>2025-06-16T08:10:31.531Z</time>
      </trkpt>
      <trkpt lat="48.64369" lon="1.80884">
        <ele>153</ele>
        <time>2025-06-16T08:10:35.595Z</time>
      </trkpt>
      <trkpt lat="48.64364" lon="1.8088">
        <ele>153</ele>
        <time>2025-06-16T08:10:40.012Z</time>
      </trkpt>
      <trkpt lat="48.64358" lon="1.80878">
        <ele>153</ele>
        <time>2025-06-16T08:10:44.269Z</time>
      </trkpt>
      <trkpt lat="48.64353" lon="1.80872">
        <ele>152</ele>
        <time>2025-06-16T08:10:48.738Z</time>
      </trkpt>
      <trkpt lat="48.6435" lon="1.8087">
        <ele>152</ele>
        <time>2025-06-16T08:10:52.738Z</time>
      </trkpt>
      <trkpt lat="48.64345" lon="1.80863">
        <ele>153</ele>
        <time>2025-06-16T08:10:57.050Z</time>
      </trkpt>
      <trkpt lat="48.64342" lon="1.80854">
        <ele>153</ele>
        <time>2025-06-16T08:11:01.633Z</time>
      </trkpt>
      <trkpt lat="48.6434" lon="1.80847">
        <ele>153</ele>
        <time>2025-06-16T08:11:05.758Z</time>
      </trkpt>
      <trkpt lat="48.64337" lon="1.80842">
        <ele>151</ele>
        <time>2025-06-16T08:11:09.865Z</time>
      </trkpt>
      <trkpt lat="48.64335" lon="1.80836">
        <ele>151</ele>
        <time>2025-06-16T08:11:14.004Z</time>
      </trkpt>
      <trkpt lat="48.64331" lon="1.80829">
        <ele>151</ele>
        <time>2025-06-16T08:11:18.738Z</time>
      </trkpt>
      <trkpt lat="48.64328" lon="1.80824">
        <ele>151</ele>
        <time>2025-06-16T08:11:23.150Z</time>
      </trkpt>
      <trkpt lat="48.64324" lon="1.80818">
        <ele>149</ele>
        <time>2025-06-16T08:11:27.613Z</time>
      </trkpt>
      <trkpt lat="48.6432" lon="1.80813">
        <ele>149</ele>
        <time>2025-06-16T08:11:32.768Z</time>
      </trkpt>
      <trkpt lat="48.64315" lon="1.80808">
        <ele>149</ele>
        <time>2025-06-16T08:11:37.738Z</time>
      </trkpt>
      <trkpt lat="48.6431" lon="1.80805">
        <ele>149</ele>
        <time>2025-06-16T08:11:41.738Z</time>
      </trkpt>
      <trkpt lat="48.64305" lon="1.808">
        <ele>149</ele>
        <time>2025-06-16T08:11:46.738Z</time>
      </trkpt>
      <trkpt lat="48.64299" lon="1.80797">
        <ele>149</ele>
        <time>2025-06-16T08:11:51.484Z</time>
      </trkpt>
      <trkpt lat="48.64294" lon="1.80793">
        <ele>149</ele>
        <time>2025-06-16T08:11:55.573Z</time>
      </trkpt>
      <trkpt lat="48.6429" lon="1.80791">
        <ele>147</ele>
        <time>2025-06-16T08:11:59.737Z</time>
      </trkpt>
      <trkpt lat="48.64286" lon="1.80782">
        <ele>147</ele>
        <time>2025-06-16T08:12:04.354Z</time>
      </trkpt>
      <trkpt lat="48.64281" lon="1.80775">
        <ele>147</ele>
        <time>2025-06-16T08:12:09.610Z</time>
      </trkpt>
      <trkpt lat="48.64277" lon="1.80769">
        <ele>147</ele>
        <time>2025-06-16T08:12:13.668Z</time>
      </trkpt>
      <trkpt lat="48.64275" lon="1.80763">
        <ele>145</ele>
        <time>2025-06-16T08:12:17.738Z</time>
      </trkpt>
      <trkpt lat="48.64272" lon="1.80755">
        <ele>145</ele>
        <time>2025-06-16T08:12:22.253Z</time>
      </trkpt>
      <trkpt lat="48.64269" lon="1.80747">
        <ele>145</ele>
        <time>2025-06-16T08:12:26.612Z</time>
      </trkpt>
      <trkpt lat="48.64265" lon="1.8074">
        <ele>145</ele>
        <time>2025-06-16T08:12:30.737Z</time>
      </trkpt>
      <trkpt lat="48.64261" lon="1.80732">
        <ele>143</ele>
        <time>2025-06-16T08:12:35.067Z</time>
      </trkpt>
      <trkpt lat="48.64257" lon="1.80724">
        <ele>143</ele>
        <time>2025-06-16T08:12:39.633Z</time>
      </trkpt>
      <trkpt lat="48.64254" lon="1.80718">
        <ele>143</ele>
        <time>2025-06-16T08:12:43.738Z</time>
      </trkpt>
      <trkpt lat="48.64248" lon="1.80712">
        <ele>143</ele>
        <time>2025-06-16T08:12:48.414Z</time>
      </trkpt>
      <trkpt lat="48.64242" lon="1.80707">
        <ele>143</ele>
        <time>2025-06-16T08:12:52.490Z</time>
      </trkpt>
      <trkpt lat="48.64237" lon="1.80702">
        <ele>143</ele>
        <time>2025-06-16T08:12:56.713Z</time>
      </trkpt>
      <trkpt lat="48.64232" lon="1.80697">
        <ele>144</ele>
        <time>2025-06-16T08:13:00.738Z</time>
      </trkpt>
      <trkpt lat="48.64226" lon="1.80693">
        <ele>144</ele>
        <time>2025-06-16T08:13:05.272Z</time>
      </trkpt>
      <trkpt lat="48.6422" lon="1.80689">
        <ele>144</ele>
        <time>2025-06-16T08:13:09.738Z</time>
      </trkpt>
      <trkpt lat="48.64214" lon="1.80683">
        <ele>144</ele>
        <time>2025-06-16T08:13:14.629Z</time>
      </trkpt>
      <trkpt lat="48.6421" lon="1.80678">
        <ele>145</ele>
        <time>2025-06-16T08:13:19.002Z</time>
      </trkpt>
      <trkpt lat="48.64206" lon="1.80671">
        <ele>147</ele>
        <time>2025-06-16T08:13:23.366Z</time>
      </trkpt>
      <trkpt lat="48.64202" lon="1.80664">
        <ele>147</ele>
        <time>2025-06-16T08:13:27.737Z</time>
      </trkpt>
      <trkpt lat="48.64197" lon="1.8066">
        <ele>147</ele>
        <time>2025-06-16T08:13:31.864Z</time>
      </trkpt>
      <trkpt lat="48.64193" lon="1.8065">
        <ele>147</ele>
        <time>2025-06-16T08:13:36.738Z</time>
      </trkpt>
      <trkpt lat="48.6419" lon="1.8064">
        <ele>147</ele>
        <time>2025-06-16T08:13:41.738Z</time>
      </trkpt>
      <trkpt lat="48.64186" lon="1.80631">
        <ele>147</ele>
        <time>2025-06-16T08:13:46.738Z</time>
      </trkpt>
      <trkpt lat="48.64181" lon="1.80624">
        <ele>147</ele>
        <time>2025-06-16T08:13:51.738Z</time>
      </trkpt>
      <trkpt lat="48.64178" lon="1.80615">
        <ele>146</ele>
        <time>2025-06-16T08:13:56.526Z</time>
      </trkpt>
      <trkpt lat="48.64175" lon="1.80608">
        <ele>146</ele>
        <time>2025-06-16T08:14:00.647Z</time>
      </trkpt>
      <trkpt lat="48.64176" lon="1.80599">
        <ele>146</ele>
        <time>2025-06-16T08:14:05.365Z</time>
      </trkpt>
      <trkpt lat="48.64178" lon="1.80591">
        <ele>146</ele>
        <time>2025-06-16T08:14:09.409Z</time>
      </trkpt>
      <trkpt lat="48.64183" lon="1.80584">
        <ele>148</ele>
        <time>2025-06-16T08:14:13.738Z</time>
      </trkpt>
      <trkpt lat="48.64187" lon="1.80578">
        <ele>148</ele>
        <time>2025-06-16T08:14:18.010Z</time>
      </trkpt>
      <trkpt lat="48.64191" lon="1.80569">
        <ele>148</ele>
        <time>2025-06-16T08:14:22.685Z</time>
      </trkpt>
      <trkpt lat="48.64194" lon="1.80562">
        <ele>148</ele>
        <time>2025-06-16T08:14:27.113Z</time>
      </trkpt>
      <trkpt lat="48.64197" lon="1.80554">
        <ele>148</ele>
        <time>2025-06-16T08:14:31.738Z</time>
      </trkpt>
      <trkpt lat="48.642" lon="1.80548">
        <ele>148</ele>
        <time>2025-06-16T08:14:35.738Z</time>
      </trkpt>
      <trkpt lat="48.64204" lon="1.8054">
        <ele>147</ele>
        <time>2025-06-16T08:14:40.373Z</time>
      </trkpt>
      <trkpt lat="48.64207" lon="1.80535">
        <ele>147</ele>
        <time>2025-06-16T08:14:44.955Z</time>
      </trkpt>
      <trkpt lat="48.64212" lon="1.80531">
        <ele>149</ele>
        <time>2025-06-16T08:14:49.737Z</time>
      </trkpt>
      <trkpt lat="48.64213" lon="1.80526">
        <ele>149</ele>
        <time>2025-06-16T08:14:53.738Z</time>
      </trkpt>
      <trkpt lat="48.64216" lon="1.80523">
        <ele>149</ele>
        <time>2025-06-16T08:15:02.737Z</time>
      </trkpt>
      <trkpt lat="48.64218" lon="1.80516">
        <ele>149</ele>
        <time>2025-06-16T08:16:00.738Z</time>
      </trkpt>
      <trkpt lat="48.64214" lon="1.80522">
        <ele>149</ele>
        <time>2025-06-16T08:16:05.151Z</time>
      </trkpt>
      <trkpt lat="48.64212" lon="1.8053">
        <ele>149</ele>
        <time>2025-06-16T08:16:09.630Z</time>
      </trkpt>
      <trkpt lat="48.64208" lon="1.80533">
        <ele>149</ele>
        <time>2025-06-16T08:16:13.738Z</time>
      </trkpt>
      <trkpt lat="48.64205" lon="1.80539">
        <ele>147</ele>
        <time>2025-06-16T08:16:18.738Z</time>
      </trkpt>
      <trkpt lat="48.64202" lon="1.80545">
        <ele>148</ele>
        <time>2025-06-16T08:16:23.086Z</time>
      </trkpt>
      <trkpt lat="48.64199" lon="1.80551">
        <ele>148</ele>
        <time>2025-06-16T08:16:27.192Z</time>
      </trkpt>
      <trkpt lat="48.64196" lon="1.80555">
        <ele>148</ele>
        <time>2025-06-16T08:16:31.389Z</time>
      </trkpt>
      <trkpt lat="48.64193" lon="1.80563">
        <ele>148</ele>
        <time>2025-06-16T08:16:35.527Z</time>
      </trkpt>
      <trkpt lat="48.64191" lon="1.80569">
        <ele>148</ele>
        <time>2025-06-16T08:16:40.213Z</time>
      </trkpt>
      <trkpt lat="48.64188" lon="1.80577">
        <ele>148</ele>
        <time>2025-06-16T08:16:44.667Z</time>
      </trkpt>
      <trkpt lat="48.64184" lon="1.80583">
        <ele>148</ele>
        <time>2025-06-16T08:16:48.738Z</time>
      </trkpt>
      <trkpt lat="48.64181" lon="1.80588">
        <ele>148</ele>
        <time>2025-06-16T08:16:52.738Z</time>
      </trkpt>
      <trkpt lat="48.64178" lon="1.80593">
        <ele>146</ele>
        <time>2025-06-16T08:16:57.073Z</time>
      </trkpt>
      <trkpt lat="48.64173" lon="1.80598">
        <ele>146</ele>
        <time>2025-06-16T08:17:01.347Z</time>
      </trkpt>
      <trkpt lat="48.64168" lon="1.80601">
        <ele>146</ele>
        <time>2025-06-16T08:17:05.691Z</time>
      </trkpt>
      <trkpt lat="48.64163" lon="1.80604">
        <ele>146</ele>
        <time>2025-06-16T08:17:09.737Z</time>
      </trkpt>
      <trkpt lat="48.64157" lon="1.80606">
        <ele>146</ele>
        <time>2025-06-16T08:17:14.207Z</time>
      </trkpt>
      <trkpt lat="48.64152" lon="1.80604">
        <ele>146</ele>
        <time>2025-06-16T08:17:18.668Z</time>
      </trkpt>
      <trkpt lat="48.64146" lon="1.80604">
        <ele>146</ele>
        <time>2025-06-16T08:17:22.737Z</time>
      </trkpt>
      <trkpt lat="48.64141" lon="1.80602">
        <ele>146</ele>
        <time>2025-06-16T08:17:27.108Z</time>
      </trkpt>
      <trkpt lat="48.64137" lon="1.806">
        <ele>146</ele>
        <time>2025-06-16T08:17:31.629Z</time>
      </trkpt>
      <trkpt lat="48.64131" lon="1.80601">
        <ele>146</ele>
        <time>2025-06-16T08:17:35.736Z</time>
      </trkpt>
      <trkpt lat="48.64127" lon="1.80605">
        <ele>146</ele>
        <time>2025-06-16T08:17:39.737Z</time>
      </trkpt>
      <trkpt lat="48.6412" lon="1.80608">
        <ele>147</ele>
        <time>2025-06-16T08:17:44.548Z</time>
      </trkpt>
      <trkpt lat="48.64114" lon="1.8061">
        <ele>147</ele>
        <time>2025-06-16T08:17:48.737Z</time>
      </trkpt>
      <trkpt lat="48.64106" lon="1.8061">
        <ele>147</ele>
        <time>2025-06-16T08:17:53.736Z</time>
      </trkpt>
      <trkpt lat="48.64102" lon="1.80614">
        <ele>147</ele>
        <time>2025-06-16T08:17:57.737Z</time>
      </trkpt>
      <trkpt lat="48.64096" lon="1.80619">
        <ele>150</ele>
        <time>2025-06-16T08:18:02.736Z</time>
      </trkpt>
      <trkpt lat="48.6409" lon="1.80622">
        <ele>150</ele>
        <time>2025-06-16T08:18:07.167Z</time>
      </trkpt>
      <trkpt lat="48.64085" lon="1.80624">
        <ele>150</ele>
        <time>2025-06-16T08:18:11.737Z</time>
      </trkpt>
      <trkpt lat="48.64084" lon="1.80632">
        <ele>152</ele>
        <time>2025-06-16T08:18:16.067Z</time>
      </trkpt>
      <trkpt lat="48.64086" lon="1.80641">
        <ele>152</ele>
        <time>2025-06-16T08:18:20.394Z</time>
      </trkpt>
      <trkpt lat="48.64088" lon="1.80647">
        <ele>152</ele>
        <time>2025-06-16T08:18:24.737Z</time>
      </trkpt>
      <trkpt lat="48.64087" lon="1.80657">
        <ele>154</ele>
        <time>2025-06-16T08:18:29.470Z</time>
      </trkpt>
      <trkpt lat="48.64086" lon="1.80667">
        <ele>154</ele>
        <time>2025-06-16T08:18:33.508Z</time>
      </trkpt>
      <trkpt lat="48.64085" lon="1.80674">
        <ele>154</ele>
        <time>2025-06-16T08:18:37.730Z</time>
      </trkpt>
      <trkpt lat="48.64083" lon="1.8068">
        <ele>154</ele>
        <time>2025-06-16T08:18:41.737Z</time>
      </trkpt>
      <trkpt lat="48.64083" lon="1.80688">
        <ele>154</ele>
        <time>2025-06-16T08:18:45.886Z</time>
      </trkpt>
      <trkpt lat="48.64082" lon="1.80696">
        <ele>154</ele>
        <time>2025-06-16T08:18:50.033Z</time>
      </trkpt>
      <trkpt lat="48.64082" lon="1.80702">
        <ele>154</ele>
        <time>2025-06-16T08:18:54.061Z</time>
      </trkpt>
      <trkpt lat="48.64081" lon="1.8071">
        <ele>154</ele>
        <time>2025-06-16T08:18:58.249Z</time>
      </trkpt>
      <trkpt lat="48.6408" lon="1.80717">
        <ele>154</ele>
        <time>2025-06-16T08:19:02.336Z</time>
      </trkpt>
      <trkpt lat="48.64079" lon="1.80725">
        <ele>154</ele>
        <time>2025-06-16T08:19:06.475Z</time>
      </trkpt>
      <trkpt lat="48.64078" lon="1.80732">
        <ele>154</ele>
        <time>2025-06-16T08:19:10.536Z</time>
      </trkpt>
      <trkpt lat="48.64077" lon="1.80741">
        <ele>155</ele>
        <time>2025-06-16T08:19:14.597Z</time>
      </trkpt>
      <trkpt lat="48.64075" lon="1.80748">
        <ele>155</ele>
        <time>2025-06-16T08:19:19.153Z</time>
      </trkpt>
      <trkpt lat="48.64074" lon="1.80756">
        <ele>155</ele>
        <time>2025-06-16T08:19:23.189Z</time>
      </trkpt>
      <trkpt lat="48.64074" lon="1.80765">
        <ele>156</ele>
        <time>2025-06-16T08:19:27.736Z</time>
      </trkpt>
      <trkpt lat="48.64073" lon="1.80773">
        <ele>156</ele>
        <time>2025-06-16T08:19:31.737Z</time>
      </trkpt>
      <trkpt lat="48.64073" lon="1.80782">
        <ele>156</ele>
        <time>2025-06-16T08:19:36.337Z</time>
      </trkpt>
      <trkpt lat="48.64073" lon="1.8079">
        <ele>156</ele>
        <time>2025-06-16T08:19:40.415Z</time>
      </trkpt>
      <trkpt lat="48.64072" lon="1.80798">
        <ele>157</ele>
        <time>2025-06-16T08:19:44.476Z</time>
      </trkpt>
      <trkpt lat="48.64072" lon="1.80806">
        <ele>157</ele>
        <time>2025-06-16T08:19:49.015Z</time>
      </trkpt>
      <trkpt lat="48.64071" lon="1.80815">
        <ele>157</ele>
        <time>2025-06-16T08:19:53.113Z</time>
      </trkpt>
      <trkpt lat="48.6407" lon="1.80823">
        <ele>158</ele>
        <time>2025-06-16T08:19:57.189Z</time>
      </trkpt>
      <trkpt lat="48.6407" lon="1.80831">
        <ele>158</ele>
        <time>2025-06-16T08:20:01.335Z</time>
      </trkpt>
      <trkpt lat="48.64071" lon="1.80839">
        <ele>158</ele>
        <time>2025-06-16T08:20:05.490Z</time>
      </trkpt>
      <trkpt lat="48.64072" lon="1.80847">
        <ele>158</ele>
        <time>2025-06-16T08:20:09.552Z</time>
      </trkpt>
      <trkpt lat="48.64073" lon="1.80853">
        <ele>159</ele>
        <time>2025-06-16T08:20:13.612Z</time>
      </trkpt>
      <trkpt lat="48.64075" lon="1.80861">
        <ele>159</ele>
        <time>2025-06-16T08:20:17.674Z</time>
      </trkpt>
      <trkpt lat="48.64077" lon="1.80868">
        <ele>159</ele>
        <time>2025-06-16T08:20:21.709Z</time>
      </trkpt>
      <trkpt lat="48.6408" lon="1.80876">
        <ele>160</ele>
        <time>2025-06-16T08:20:26.173Z</time>
      </trkpt>
      <trkpt lat="48.64082" lon="1.80884">
        <ele>160</ele>
        <time>2025-06-16T08:20:30.636Z</time>
      </trkpt>
      <trkpt lat="48.64084" lon="1.80893">
        <ele>160</ele>
        <time>2025-06-16T08:20:35.072Z</time>
      </trkpt>
      <trkpt lat="48.64085" lon="1.80902">
        <ele>160</ele>
        <time>2025-06-16T08:20:39.491Z</time>
      </trkpt>
      <trkpt lat="48.64087" lon="1.80911">
        <ele>160</ele>
        <time>2025-06-16T08:20:43.970Z</time>
      </trkpt>
      <trkpt lat="48.64088" lon="1.80921">
        <ele>160</ele>
        <time>2025-06-16T08:20:48.433Z</time>
      </trkpt>
      <trkpt lat="48.64089" lon="1.80931">
        <ele>159</ele>
        <time>2025-06-16T08:20:52.997Z</time>
      </trkpt>
      <trkpt lat="48.64091" lon="1.8094">
        <ele>159</ele>
        <time>2025-06-16T08:20:57.450Z</time>
      </trkpt>
      <trkpt lat="48.64092" lon="1.80949">
        <ele>159</ele>
        <time>2025-06-16T08:21:01.869Z</time>
      </trkpt>
      <trkpt lat="48.64095" lon="1.80955">
        <ele>159</ele>
        <time>2025-06-16T08:21:06.374Z</time>
      </trkpt>
      <trkpt lat="48.64097" lon="1.80963">
        <ele>159</ele>
        <time>2025-06-16T08:21:10.588Z</time>
      </trkpt>
      <trkpt lat="48.64096" lon="1.80973">
        <ele>159</ele>
        <time>2025-06-16T08:21:14.737Z</time>
      </trkpt>
      <trkpt lat="48.64097" lon="1.80982">
        <ele>155</ele>
        <time>2025-06-16T08:21:18.832Z</time>
      </trkpt>
      <trkpt lat="48.64099" lon="1.80991">
        <ele>156</ele>
        <time>2025-06-16T08:21:23.515Z</time>
      </trkpt>
      <trkpt lat="48.641" lon="1.80999">
        <ele>156</ele>
        <time>2025-06-16T08:21:27.594Z</time>
      </trkpt>
      <trkpt lat="48.64108" lon="1.81003">
        <ele>156</ele>
        <time>2025-06-16T08:21:50.736Z</time>
      </trkpt>
      <trkpt lat="48.64111" lon="1.80999">
        <ele>156</ele>
        <time>2025-06-16T08:21:55.227Z</time>
      </trkpt>
      <trkpt lat="48.64118" lon="1.80998">
        <ele>156</ele>
        <time>2025-06-16T08:21:59.717Z</time>
      </trkpt>
      <trkpt lat="48.64124" lon="1.80997">
        <ele>156</ele>
        <time>2025-06-16T08:22:03.737Z</time>
      </trkpt>
      <trkpt lat="48.64129" lon="1.80994">
        <ele>153</ele>
        <time>2025-06-16T08:22:08.249Z</time>
      </trkpt>
      <trkpt lat="48.64135" lon="1.80992">
        <ele>153</ele>
        <time>2025-06-16T08:22:12.736Z</time>
      </trkpt>
      <trkpt lat="48.64141" lon="1.80989">
        <ele>153</ele>
        <time>2025-06-16T08:22:16.736Z</time>
      </trkpt>
      <trkpt lat="48.64146" lon="1.80986">
        <ele>153</ele>
        <time>2025-06-16T08:22:20.999Z</time>
      </trkpt>
      <trkpt lat="48.64152" lon="1.80984">
        <ele>153</ele>
        <time>2025-06-16T08:22:25.194Z</time>
      </trkpt>
      <trkpt lat="48.64159" lon="1.80983">
        <ele>151</ele>
        <time>2025-06-16T08:22:29.452Z</time>
      </trkpt>
      <trkpt lat="48.64165" lon="1.8098">
        <ele>151</ele>
        <time>2025-06-16T08:22:33.737Z</time>
      </trkpt>
      <trkpt lat="48.6417" lon="1.80977">
        <ele>151</ele>
        <time>2025-06-16T08:22:38.170Z</time>
      </trkpt>
      <trkpt lat="48.64176" lon="1.80975">
        <ele>151</ele>
        <time>2025-06-16T08:22:42.573Z</time>
      </trkpt>
      <trkpt lat="48.64182" lon="1.80973">
        <ele>151</ele>
        <time>2025-06-16T08:22:47.095Z</time>
      </trkpt>
      <trkpt lat="48.64187" lon="1.8097">
        <ele>151</ele>
        <time>2025-06-16T08:22:51.335Z</time>
      </trkpt>
      <trkpt lat="48.64193" lon="1.80969">
        <ele>151</ele>
        <time>2025-06-16T08:22:55.654Z</time>
      </trkpt>
      <trkpt lat="48.64199" lon="1.80966">
        <ele>151</ele>
        <time>2025-06-16T08:23:00.006Z</time>
      </trkpt>
      <trkpt lat="48.64205" lon="1.80964">
        <ele>151</ele>
        <time>2025-06-16T08:23:04.388Z</time>
      </trkpt>
      <trkpt lat="48.64211" lon="1.80961">
        <ele>151</ele>
        <time>2025-06-16T08:23:08.718Z</time>
      </trkpt>
      <trkpt lat="48.64216" lon="1.80959">
        <ele>151</ele>
        <time>2025-06-16T08:23:13.074Z</time>
      </trkpt>
      <trkpt lat="48.64222" lon="1.80958">
        <ele>149</ele>
        <time>2025-06-16T08:23:17.114Z</time>
      </trkpt>
      <trkpt lat="48.64226" lon="1.80962">
        <ele>151</ele>
        <time>2025-06-16T08:23:21.333Z</time>
      </trkpt>
      <trkpt lat="48.64228" lon="1.8097">
        <ele>151</ele>
        <time>2025-06-16T08:23:25.437Z</time>
      </trkpt>
      <trkpt lat="48.6423" lon="1.80978">
        <ele>151</ele>
        <time>2025-06-16T08:23:29.916Z</time>
      </trkpt>
      <trkpt lat="48.64233" lon="1.80986">
        <ele>151</ele>
        <time>2025-06-16T08:23:34.737Z</time>
      </trkpt>
      <trkpt lat="48.64236" lon="1.80993">
        <ele>152</ele>
        <time>2025-06-16T08:23:39.310Z</time>
      </trkpt>
      <trkpt lat="48.64238" lon="1.81001">
        <ele>149</ele>
        <time>2025-06-16T08:23:43.737Z</time>
      </trkpt>
      <trkpt lat="48.64241" lon="1.81009">
        <ele>149</ele>
        <time>2025-06-16T08:23:48.234Z</time>
      </trkpt>
      <trkpt lat="48.64244" lon="1.81016">
        <ele>148</ele>
        <time>2025-06-16T08:23:52.730Z</time>
      </trkpt>
      <trkpt lat="48.64246" lon="1.81023">
        <ele>148</ele>
        <time>2025-06-16T08:23:56.737Z</time>
      </trkpt>
      <trkpt lat="48.64249" lon="1.81032">
        <ele>148</ele>
        <time>2025-06-16T08:24:01.177Z</time>
      </trkpt>
      <trkpt lat="48.64251" lon="1.81041">
        <ele>148</ele>
        <time>2025-06-16T08:24:05.737Z</time>
      </trkpt>
      <trkpt lat="48.64254" lon="1.81048">
        <ele>147</ele>
        <time>2025-06-16T08:24:10.094Z</time>
      </trkpt>
      <trkpt lat="48.64257" lon="1.81056">
        <ele>147</ele>
        <time>2025-06-16T08:24:14.674Z</time>
      </trkpt>
      <trkpt lat="48.6426" lon="1.81064">
        <ele>147</ele>
        <time>2025-06-16T08:24:19.196Z</time>
      </trkpt>
      <trkpt lat="48.64263" lon="1.81071">
        <ele>147</ele>
        <time>2025-06-16T08:24:23.737Z</time>
      </trkpt>
      <trkpt lat="48.64265" lon="1.81079">
        <ele>147</ele>
        <time>2025-06-16T08:24:28.188Z</time>
      </trkpt>
      <trkpt lat="48.64268" lon="1.81087">
        <ele>147</ele>
        <time>2025-06-16T08:24:32.635Z</time>
      </trkpt>
      <trkpt lat="48.64271" lon="1.81094">
        <ele>147</ele>
        <time>2025-06-16T08:24:36.635Z</time>
      </trkpt>
      <trkpt lat="48.64274" lon="1.81102">
        <ele>147</ele>
        <time>2025-06-16T08:24:41.218Z</time>
      </trkpt>
      <trkpt lat="48.64275" lon="1.81108">
        <ele>147</ele>
        <time>2025-06-16T08:24:45.236Z</time>
      </trkpt>
      <trkpt lat="48.64275" lon="1.81117">
        <ele>147</ele>
        <time>2025-06-16T08:24:49.737Z</time>
      </trkpt>
      <trkpt lat="48.64273" lon="1.81125">
        <ele>147</ele>
        <time>2025-06-16T08:24:54.415Z</time>
      </trkpt>
      <trkpt lat="48.6427" lon="1.81132">
        <ele>147</ele>
        <time>2025-06-16T08:24:58.435Z</time>
      </trkpt>
      <trkpt lat="48.64266" lon="1.81139">
        <ele>147</ele>
        <time>2025-06-16T08:25:02.956Z</time>
      </trkpt>
      <trkpt lat="48.64262" lon="1.81145">
        <ele>145</ele>
        <time>2025-06-16T08:25:07.737Z</time>
      </trkpt>
      <trkpt lat="48.6426" lon="1.81152">
        <ele>145</ele>
        <time>2025-06-16T08:25:11.981Z</time>
      </trkpt>
      <trkpt lat="48.64256" lon="1.81158">
        <ele>146</ele>
        <time>2025-06-16T08:25:16.036Z</time>
      </trkpt>
      <trkpt lat="48.64253" lon="1.81165">
        <ele>146</ele>
        <time>2025-06-16T08:25:20.488Z</time>
      </trkpt>
      <trkpt lat="48.64249" lon="1.81172">
        <ele>146</ele>
        <time>2025-06-16T08:25:24.934Z</time>
      </trkpt>
      <trkpt lat="48.64245" lon="1.81178">
        <ele>146</ele>
        <time>2025-06-16T08:25:29.430Z</time>
      </trkpt>
      <trkpt lat="48.64241" lon="1.81185">
        <ele>147</ele>
        <time>2025-06-16T08:25:33.737Z</time>
      </trkpt>
      <trkpt lat="48.64237" lon="1.81192">
        <ele>147</ele>
        <time>2025-06-16T08:25:38.175Z</time>
      </trkpt>
      <trkpt lat="48.64234" lon="1.81201">
        <ele>147</ele>
        <time>2025-06-16T08:25:42.736Z</time>
      </trkpt>
      <trkpt lat="48.64231" lon="1.81209">
        <ele>147</ele>
        <time>2025-06-16T08:25:46.955Z</time>
      </trkpt>
      <trkpt lat="48.64228" lon="1.81216">
        <ele>147</ele>
        <time>2025-06-16T08:25:51.289Z</time>
      </trkpt>
      <trkpt lat="48.64224" lon="1.81224">
        <ele>147</ele>
        <time>2025-06-16T08:25:55.708Z</time>
      </trkpt>
      <trkpt lat="48.64221" lon="1.81231">
        <ele>147</ele>
        <time>2025-06-16T08:25:59.977Z</time>
      </trkpt>
      <trkpt lat="48.64217" lon="1.81239">
        <ele>147</ele>
        <time>2025-06-16T08:26:04.309Z</time>
      </trkpt>
      <trkpt lat="48.64213" lon="1.81246">
        <ele>147</ele>
        <time>2025-06-16T08:26:08.694Z</time>
      </trkpt>
      <trkpt lat="48.6421" lon="1.81253">
        <ele>147</ele>
        <time>2025-06-16T08:26:12.736Z</time>
      </trkpt>
      <trkpt lat="48.64206" lon="1.81261">
        <ele>147</ele>
        <time>2025-06-16T08:26:17.353Z</time>
      </trkpt>
      <trkpt lat="48.64202" lon="1.81268">
        <ele>147</ele>
        <time>2025-06-16T08:26:21.732Z</time>
      </trkpt>
      <trkpt lat="48.64198" lon="1.81275">
        <ele>147</ele>
        <time>2025-06-16T08:26:26.176Z</time>
      </trkpt>
      <trkpt lat="48.64194" lon="1.81282">
        <ele>147</ele>
        <time>2025-06-16T08:26:30.596Z</time>
      </trkpt>
      <trkpt lat="48.64191" lon="1.81288">
        <ele>147</ele>
        <time>2025-06-16T08:26:34.614Z</time>
      </trkpt>
      <trkpt lat="48.64187" lon="1.81295">
        <ele>148</ele>
        <time>2025-06-16T08:26:39.051Z</time>
      </trkpt>
      <trkpt lat="48.64183" lon="1.813">
        <ele>148</ele>
        <time>2025-06-16T08:26:43.555Z</time>
      </trkpt>
      <trkpt lat="48.64179" lon="1.81305">
        <ele>148</ele>
        <time>2025-06-16T08:26:47.616Z</time>
      </trkpt>
      <trkpt lat="48.64174" lon="1.81311">
        <ele>148</ele>
        <time>2025-06-16T08:26:52.275Z</time>
      </trkpt>
      <trkpt lat="48.64171" lon="1.81318">
        <ele>148</ele>
        <time>2025-06-16T08:26:56.694Z</time>
      </trkpt>
      <trkpt lat="48.64167" lon="1.81325">
        <ele>148</ele>
        <time>2025-06-16T08:27:01.735Z</time>
      </trkpt>
      <trkpt lat="48.64166" lon="1.81332">
        <ele>148</ele>
        <time>2025-06-16T08:27:05.921Z</time>
      </trkpt>
      <trkpt lat="48.64152" lon="1.81348">
        <ele>148</ele>
        <time>2025-06-16T08:27:32.179Z</time>
      </trkpt>
      <trkpt lat="48.64152" lon="1.81352">
        <ele>148</ele>
        <time>2025-06-16T08:27:36.735Z</time>
      </trkpt>
      <trkpt lat="48.6415" lon="1.81354">
        <ele>148</ele>
        <time>2025-06-16T08:27:41.735Z</time>
      </trkpt>
      <trkpt lat="48.6415" lon="1.81358">
        <ele>148</ele>
        <time>2025-06-16T08:27:46.736Z</time>
      </trkpt>
      <trkpt lat="48.6415" lon="1.81359">
        <ele>148</ele>
        <time>2025-06-16T08:27:50.736Z</time>
      </trkpt>
      <trkpt lat="48.64149" lon="1.81364">
        <ele>148</ele>
        <time>2025-06-16T08:27:55.735Z</time>
      </trkpt>
      <trkpt lat="48.64148" lon="1.81374">
        <ele>148</ele>
        <time>2025-06-16T08:28:00.276Z</time>
      </trkpt>
      <trkpt lat="48.64144" lon="1.8139">
        <ele>148</ele>
        <time>2025-06-16T08:28:09.455Z</time>
      </trkpt>
      <trkpt lat="48.64146" lon="1.81398">
        <ele>148</ele>
        <time>2025-06-16T08:28:14.482Z</time>
      </trkpt>
      <trkpt lat="48.6415" lon="1.81403">
        <ele>149</ele>
        <time>2025-06-16T08:28:18.736Z</time>
      </trkpt>
      <trkpt lat="48.64151" lon="1.81404">
        <ele>149</ele>
        <time>2025-06-16T08:28:22.736Z</time>
      </trkpt>
      <trkpt lat="48.64152" lon="1.81411">
        <ele>149</ele>
        <time>2025-06-16T08:28:27.735Z</time>
      </trkpt>
      <trkpt lat="48.64156" lon="1.81419">
        <ele>149</ele>
        <time>2025-06-16T08:28:32.212Z</time>
      </trkpt>
      <trkpt lat="48.64157" lon="1.81429">
        <ele>149</ele>
        <time>2025-06-16T08:28:36.736Z</time>
      </trkpt>
      <trkpt lat="48.64154" lon="1.81431">
        <ele>149</ele>
        <time>2025-06-16T08:28:41.581Z</time>
      </trkpt>
      <trkpt lat="48.64152" lon="1.81429">
        <ele>149</ele>
        <time>2025-06-16T08:28:45.736Z</time>
      </trkpt>
      <trkpt lat="48.64152" lon="1.8143">
        <ele>149</ele>
        <time>2025-06-16T08:28:49.736Z</time>
      </trkpt>
      <trkpt lat="48.64148" lon="1.81435">
        <ele>150</ele>
        <time>2025-06-16T08:28:54.735Z</time>
      </trkpt>
      <trkpt lat="48.64146" lon="1.8144">
        <ele>150</ele>
        <time>2025-06-16T08:28:59.115Z</time>
      </trkpt>
      <trkpt lat="48.64144" lon="1.81447">
        <ele>150</ele>
        <time>2025-06-16T08:29:03.736Z</time>
      </trkpt>
      <trkpt lat="48.64141" lon="1.81452">
        <ele>150</ele>
        <time>2025-06-16T08:29:07.736Z</time>
      </trkpt>
      <trkpt lat="48.64138" lon="1.81458">
        <ele>150</ele>
        <time>2025-06-16T08:29:12.112Z</time>
      </trkpt>
      <trkpt lat="48.64136" lon="1.81465">
        <ele>152</ele>
        <time>2025-06-16T08:29:16.515Z</time>
      </trkpt>
      <trkpt lat="48.64133" lon="1.81471">
        <ele>152</ele>
        <time>2025-06-16T08:29:20.536Z</time>
      </trkpt>
      <trkpt lat="48.6413" lon="1.81477">
        <ele>152</ele>
        <time>2025-06-16T08:29:24.736Z</time>
      </trkpt>
      <trkpt lat="48.64128" lon="1.81483">
        <ele>152</ele>
        <time>2025-06-16T08:29:29.222Z</time>
      </trkpt>
      <trkpt lat="48.64125" lon="1.81489">
        <ele>152</ele>
        <time>2025-06-16T08:29:33.472Z</time>
      </trkpt>
      <trkpt lat="48.64122" lon="1.81495">
        <ele>152</ele>
        <time>2025-06-16T08:29:37.635Z</time>
      </trkpt>
      <trkpt lat="48.64119" lon="1.81501">
        <ele>152</ele>
        <time>2025-06-16T08:29:41.736Z</time>
      </trkpt>
      <trkpt lat="48.64115" lon="1.81509">
        <ele>152</ele>
        <time>2025-06-16T08:29:45.896Z</time>
      </trkpt>
      <trkpt lat="48.64111" lon="1.81516">
        <ele>151</ele>
        <time>2025-06-16T08:29:50.257Z</time>
      </trkpt>
      <trkpt lat="48.64107" lon="1.81524">
        <ele>151</ele>
        <time>2025-06-16T08:29:54.634Z</time>
      </trkpt>
      <trkpt lat="48.64105" lon="1.81532">
        <ele>151</ele>
        <time>2025-06-16T08:29:59.054Z</time>
      </trkpt>
      <trkpt lat="48.64101" lon="1.81539">
        <ele>151</ele>
        <time>2025-06-16T08:30:03.438Z</time>
      </trkpt>
      <trkpt lat="48.64098" lon="1.81546">
        <ele>151</ele>
        <time>2025-06-16T08:30:07.672Z</time>
      </trkpt>
      <trkpt lat="48.64094" lon="1.81553">
        <ele>150</ele>
        <time>2025-06-16T08:30:12.160Z</time>
      </trkpt>
      <trkpt lat="48.64091" lon="1.8156">
        <ele>150</ele>
        <time>2025-06-16T08:30:16.616Z</time>
      </trkpt>
      <trkpt lat="48.64087" lon="1.81568">
        <ele>150</ele>
        <time>2025-06-16T08:30:21.052Z</time>
      </trkpt>
      <trkpt lat="48.64084" lon="1.81575">
        <ele>150</ele>
        <time>2025-06-16T08:30:25.312Z</time>
      </trkpt>
      <trkpt lat="48.64081" lon="1.81583">
        <ele>150</ele>
        <time>2025-06-16T08:30:29.578Z</time>
      </trkpt>
      <trkpt lat="48.64077" lon="1.8159">
        <ele>150</ele>
        <time>2025-06-16T08:30:33.973Z</time>
      </trkpt>
      <trkpt lat="48.64074" lon="1.81598">
        <ele>149</ele>
        <time>2025-06-16T08:30:38.392Z</time>
      </trkpt>
      <trkpt lat="48.64071" lon="1.81604">
        <ele>149</ele>
        <time>2025-06-16T08:30:42.437Z</time>
      </trkpt>
      <trkpt lat="48.64067" lon="1.81611">
        <ele>149</ele>
        <time>2025-06-16T08:30:46.738Z</time>
      </trkpt>
      <trkpt lat="48.64064" lon="1.81618">
        <ele>149</ele>
        <time>2025-06-16T08:30:51.515Z</time>
      </trkpt>
      <trkpt lat="48.64062" lon="1.81627">
        <ele>149</ele>
        <time>2025-06-16T08:30:55.736Z</time>
      </trkpt>
      <trkpt lat="48.64059" lon="1.81633">
        <ele>149</ele>
        <time>2025-06-16T08:31:00.152Z</time>
      </trkpt>
      <trkpt lat="48.64055" lon="1.81641">
        <ele>149</ele>
        <time>2025-06-16T08:31:04.494Z</time>
      </trkpt>
      <trkpt lat="48.64052" lon="1.81649">
        <ele>149</ele>
        <time>2025-06-16T08:31:08.897Z</time>
      </trkpt>
      <trkpt lat="48.64048" lon="1.81658">
        <ele>149</ele>
        <time>2025-06-16T08:31:13.257Z</time>
      </trkpt>
      <trkpt lat="48.64044" lon="1.81666">
        <ele>149</ele>
        <time>2025-06-16T08:31:17.736Z</time>
      </trkpt>
      <trkpt lat="48.64039" lon="1.81673">
        <ele>150</ele>
        <time>2025-06-16T08:31:22.515Z</time>
      </trkpt>
      <trkpt lat="48.64039" lon="1.81681">
        <ele>150</ele>
        <time>2025-06-16T08:31:26.736Z</time>
      </trkpt>
      <trkpt lat="48.64034" lon="1.81688">
        <ele>150</ele>
        <time>2025-06-16T08:31:31.133Z</time>
      </trkpt>
      <trkpt lat="48.64029" lon="1.81692">
        <ele>150</ele>
        <time>2025-06-16T08:31:35.393Z</time>
      </trkpt>
      <trkpt lat="48.64025" lon="1.81699">
        <ele>150</ele>
        <time>2025-06-16T08:31:39.693Z</time>
      </trkpt>
      <trkpt lat="48.64021" lon="1.81705">
        <ele>150</ele>
        <time>2025-06-16T08:31:44.138Z</time>
      </trkpt>
      <trkpt lat="48.64018" lon="1.81714">
        <ele>150</ele>
        <time>2025-06-16T08:31:48.634Z</time>
      </trkpt>
      <trkpt lat="48.64014" lon="1.81721">
        <ele>150</ele>
        <time>2025-06-16T08:31:53.593Z</time>
      </trkpt>
      <trkpt lat="48.64011" lon="1.81728">
        <ele>150</ele>
        <time>2025-06-16T08:31:57.918Z</time>
      </trkpt>
      <trkpt lat="48.64008" lon="1.81736">
        <ele>150</ele>
        <time>2025-06-16T08:32:02.278Z</time>
      </trkpt>
      <trkpt lat="48.64005" lon="1.81743">
        <ele>150</ele>
        <time>2025-06-16T08:32:06.312Z</time>
      </trkpt>
      <trkpt lat="48.64003" lon="1.8175">
        <ele>150</ele>
        <time>2025-06-16T08:32:10.736Z</time>
      </trkpt>
      <trkpt lat="48.63999" lon="1.81758">
        <ele>150</ele>
        <time>2025-06-16T08:32:15.255Z</time>
      </trkpt>
      <trkpt lat="48.63996" lon="1.81765">
        <ele>150</ele>
        <time>2025-06-16T08:32:19.755Z</time>
      </trkpt>
      <trkpt lat="48.63991" lon="1.81773">
        <ele>150</ele>
        <time>2025-06-16T08:32:24.155Z</time>
      </trkpt>
      <trkpt lat="48.63988" lon="1.8178">
        <ele>150</ele>
        <time>2025-06-16T08:32:28.560Z</time>
      </trkpt>
      <trkpt lat="48.6399" lon="1.81787">
        <ele>150</ele>
        <time>2025-06-16T08:32:32.893Z</time>
      </trkpt>
      <trkpt lat="48.63996" lon="1.81793">
        <ele>150</ele>
        <time>2025-06-16T08:32:37.175Z</time>
      </trkpt>
      <trkpt lat="48.64001" lon="1.81799">
        <ele>150</ele>
        <time>2025-06-16T08:32:41.654Z</time>
      </trkpt>
      <trkpt lat="48.64006" lon="1.81805">
        <ele>150</ele>
        <time>2025-06-16T08:32:46.134Z</time>
      </trkpt>
      <trkpt lat="48.64011" lon="1.8181">
        <ele>150</ele>
        <time>2025-06-16T08:32:50.572Z</time>
      </trkpt>
      <trkpt lat="48.64015" lon="1.81818">
        <ele>152</ele>
        <time>2025-06-16T08:32:55.076Z</time>
      </trkpt>
      <trkpt lat="48.6402" lon="1.81825">
        <ele>152</ele>
        <time>2025-06-16T08:32:59.735Z</time>
      </trkpt>
      <trkpt lat="48.6402" lon="1.8183">
        <ele>152</ele>
        <time>2025-06-16T08:33:04.198Z</time>
      </trkpt>
      <trkpt lat="48.64029" lon="1.81834">
        <ele>152</ele>
        <time>2025-06-16T08:33:08.736Z</time>
      </trkpt>
      <trkpt lat="48.64031" lon="1.81832">
        <ele>152</ele>
        <time>2025-06-16T08:33:13.757Z</time>
      </trkpt>
      <trkpt lat="48.64036" lon="1.81832">
        <ele>152</ele>
        <time>2025-06-16T08:33:18.336Z</time>
      </trkpt>
      <trkpt lat="48.64042" lon="1.81834">
        <ele>151</ele>
        <time>2025-06-16T08:33:22.735Z</time>
      </trkpt>
      <trkpt lat="48.64047" lon="1.81835">
        <ele>151</ele>
        <time>2025-06-16T08:33:26.935Z</time>
      </trkpt>
      <trkpt lat="48.64053" lon="1.81841">
        <ele>151</ele>
        <time>2025-06-16T08:33:31.295Z</time>
      </trkpt>
      <trkpt lat="48.64057" lon="1.81857">
        <ele>151</ele>
        <time>2025-06-16T08:33:35.736Z</time>
      </trkpt>
      <trkpt lat="48.6406" lon="1.81875">
        <ele>149</ele>
        <time>2025-06-16T08:33:40.015Z</time>
      </trkpt>
      <trkpt lat="48.64064" lon="1.81882">
        <ele>149</ele>
        <time>2025-06-16T08:33:44.291Z</time>
      </trkpt>
      <trkpt lat="48.64069" lon="1.81889">
        <ele>149</ele>
        <time>2025-06-16T08:33:48.735Z</time>
      </trkpt>
      <trkpt lat="48.64073" lon="1.81895">
        <ele>149</ele>
        <time>2025-06-16T08:33:53.234Z</time>
      </trkpt>
      <trkpt lat="48.64078" lon="1.81901">
        <ele>149</ele>
        <time>2025-06-16T08:33:57.635Z</time>
      </trkpt>
      <trkpt lat="48.64082" lon="1.81906">
        <ele>149</ele>
        <time>2025-06-16T08:34:02.054Z</time>
      </trkpt>
      <trkpt lat="48.64086" lon="1.81912">
        <ele>149</ele>
        <time>2025-06-16T08:34:06.295Z</time>
      </trkpt>
      <trkpt lat="48.64091" lon="1.81915">
        <ele>149</ele>
        <time>2025-06-16T08:34:10.689Z</time>
      </trkpt>
      <trkpt lat="48.64096" lon="1.81924">
        <ele>149</ele>
        <time>2025-06-16T08:34:15.389Z</time>
      </trkpt>
      <trkpt lat="48.64101" lon="1.81929">
        <ele>151</ele>
        <time>2025-06-16T08:34:19.735Z</time>
      </trkpt>
      <trkpt lat="48.64106" lon="1.81936">
        <ele>151</ele>
        <time>2025-06-16T08:34:24.135Z</time>
      </trkpt>
      <trkpt lat="48.6411" lon="1.81942">
        <ele>151</ele>
        <time>2025-06-16T08:34:28.453Z</time>
      </trkpt>
      <trkpt lat="48.64115" lon="1.81948">
        <ele>151</ele>
        <time>2025-06-16T08:34:32.735Z</time>
      </trkpt>
      <trkpt lat="48.6412" lon="1.81954">
        <ele>151</ele>
        <time>2025-06-16T08:34:37.113Z</time>
      </trkpt>
      <trkpt lat="48.64125" lon="1.81959">
        <ele>151</ele>
        <time>2025-06-16T08:34:41.490Z</time>
      </trkpt>
      <trkpt lat="48.64129" lon="1.81967">
        <ele>151</ele>
        <time>2025-06-16T08:34:45.712Z</time>
      </trkpt>
      <trkpt lat="48.64133" lon="1.81973">
        <ele>151</ele>
        <time>2025-06-16T08:34:50.133Z</time>
      </trkpt>
      <trkpt lat="48.64137" lon="1.81979">
        <ele>151</ele>
        <time>2025-06-16T08:34:54.493Z</time>
      </trkpt>
      <trkpt lat="48.64142" lon="1.81985">
        <ele>151</ele>
        <time>2025-06-16T08:34:58.735Z</time>
      </trkpt>
      <trkpt lat="48.64147" lon="1.81992">
        <ele>152</ele>
        <time>2025-06-16T08:35:03.288Z</time>
      </trkpt>
      <trkpt lat="48.64152" lon="1.81997">
        <ele>152</ele>
        <time>2025-06-16T08:35:07.735Z</time>
      </trkpt>
      <trkpt lat="48.64156" lon="1.81993">
        <ele>152</ele>
        <time>2025-06-16T08:35:12.017Z</time>
      </trkpt>
      <trkpt lat="48.64161" lon="1.81999">
        <ele>152</ele>
        <time>2025-06-16T08:35:16.557Z</time>
      </trkpt>
      <trkpt lat="48.64165" lon="1.82007">
        <ele>152</ele>
        <time>2025-06-16T08:35:21.011Z</time>
      </trkpt>
      <trkpt lat="48.64169" lon="1.82013">
        <ele>152</ele>
        <time>2025-06-16T08:35:25.574Z</time>
      </trkpt>
      <trkpt lat="48.64172" lon="1.82019">
        <ele>152</ele>
        <time>2025-06-16T08:35:29.695Z</time>
      </trkpt>
      <trkpt lat="48.64176" lon="1.82026">
        <ele>152</ele>
        <time>2025-06-16T08:35:33.999Z</time>
      </trkpt>
      <trkpt lat="48.6418" lon="1.82033">
        <ele>152</ele>
        <time>2025-06-16T08:35:38.432Z</time>
      </trkpt>
      <trkpt lat="48.64184" lon="1.8204">
        <ele>151</ele>
        <time>2025-06-16T08:35:43.577Z</time>
      </trkpt>
      <trkpt lat="48.64189" lon="1.82046">
        <ele>150</ele>
        <time>2025-06-16T08:35:48.612Z</time>
      </trkpt>
      <trkpt lat="48.64194" lon="1.82051">
        <ele>150</ele>
        <time>2025-06-16T08:35:53.137Z</time>
      </trkpt>
      <trkpt lat="48.64199" lon="1.82058">
        <ele>150</ele>
        <time>2025-06-16T08:35:57.494Z</time>
      </trkpt>
      <trkpt lat="48.64203" lon="1.82064">
        <ele>150</ele>
        <time>2025-06-16T08:36:01.895Z</time>
      </trkpt>
      <trkpt lat="48.64207" lon="1.8207">
        <ele>150</ele>
        <time>2025-06-16T08:36:06.255Z</time>
      </trkpt>
      <trkpt lat="48.64212" lon="1.82076">
        <ele>147</ele>
        <time>2025-06-16T08:36:10.735Z</time>
      </trkpt>
      <trkpt lat="48.64217" lon="1.82082">
        <ele>147</ele>
        <time>2025-06-16T08:36:15.034Z</time>
      </trkpt>
      <trkpt lat="48.64221" lon="1.82089">
        <ele>147</ele>
        <time>2025-06-16T08:36:19.472Z</time>
      </trkpt>
      <trkpt lat="48.64224" lon="1.82094">
        <ele>147</ele>
        <time>2025-06-16T08:36:23.532Z</time>
      </trkpt>
      <trkpt lat="48.64229" lon="1.821">
        <ele>147</ele>
        <time>2025-06-16T08:36:27.734Z</time>
      </trkpt>
      <trkpt lat="48.64233" lon="1.82104">
        <ele>147</ele>
        <time>2025-06-16T08:36:31.894Z</time>
      </trkpt>
      <trkpt lat="48.64235" lon="1.82112">
        <ele>147</ele>
        <time>2025-06-16T08:36:36.593Z</time>
      </trkpt>
      <trkpt lat="48.64233" lon="1.82121">
        <ele>147</ele>
        <time>2025-06-16T08:36:40.929Z</time>
      </trkpt>
      <trkpt lat="48.6423" lon="1.82129">
        <ele>147</ele>
        <time>2025-06-16T08:36:45.689Z</time>
      </trkpt>
      <trkpt lat="48.64226" lon="1.82135">
        <ele>147</ele>
        <time>2025-06-16T08:36:50.093Z</time>
      </trkpt>
      <trkpt lat="48.64223" lon="1.82141">
        <ele>147</ele>
        <time>2025-06-16T08:36:54.554Z</time>
      </trkpt>
      <trkpt lat="48.64219" lon="1.82148">
        <ele>147</ele>
        <time>2025-06-16T08:36:58.984Z</time>
      </trkpt>
      <trkpt lat="48.64218" lon="1.82157">
        <ele>149</ele>
        <time>2025-06-16T08:37:03.529Z</time>
      </trkpt>
      <trkpt lat="48.64221" lon="1.82164">
        <ele>149</ele>
        <time>2025-06-16T08:37:07.653Z</time>
      </trkpt>
      <trkpt lat="48.64226" lon="1.82165">
        <ele>149</ele>
        <time>2025-06-16T08:37:12.097Z</time>
      </trkpt>
      <trkpt lat="48.64229" lon="1.82171">
        <ele>149</ele>
        <time>2025-06-16T08:37:16.735Z</time>
      </trkpt>
      <trkpt lat="48.64228" lon="1.82172">
        <ele>149</ele>
        <time>2025-06-16T08:37:21.735Z</time>
      </trkpt>
      <trkpt lat="48.64226" lon="1.82177">
        <ele>149</ele>
        <time>2025-06-16T08:37:25.735Z</time>
      </trkpt>
      <trkpt lat="48.64221" lon="1.82184">
        <ele>151</ele>
        <time>2025-06-16T08:37:30.735Z</time>
      </trkpt>
      <trkpt lat="48.64217" lon="1.82191">
        <ele>151</ele>
        <time>2025-06-16T08:37:35.208Z</time>
      </trkpt>
      <trkpt lat="48.64214" lon="1.82198">
        <ele>151</ele>
        <time>2025-06-16T08:37:39.296Z</time>
      </trkpt>
      <trkpt lat="48.64212" lon="1.82208">
        <ele>151</ele>
        <time>2025-06-16T08:37:43.553Z</time>
      </trkpt>
      <trkpt lat="48.64211" lon="1.82217">
        <ele>151</ele>
        <time>2025-06-16T08:37:47.956Z</time>
      </trkpt>
      <trkpt lat="48.64208" lon="1.82225">
        <ele>149</ele>
        <time>2025-06-16T08:37:52.079Z</time>
      </trkpt>
      <trkpt lat="48.64205" lon="1.82232">
        <ele>149</ele>
        <time>2025-06-16T08:37:56.573Z</time>
      </trkpt>
      <trkpt lat="48.64202" lon="1.82239">
        <ele>149</ele>
        <time>2025-06-16T08:38:01.036Z</time>
      </trkpt>
      <trkpt lat="48.64199" lon="1.82246">
        <ele>149</ele>
        <time>2025-06-16T08:38:05.489Z</time>
      </trkpt>
      <trkpt lat="48.64196" lon="1.82254">
        <ele>149</ele>
        <time>2025-06-16T08:38:09.893Z</time>
      </trkpt>
      <trkpt lat="48.64193" lon="1.82261">
        <ele>149</ele>
        <time>2025-06-16T08:38:14.576Z</time>
      </trkpt>
      <trkpt lat="48.6419" lon="1.82267">
        <ele>148</ele>
        <time>2025-06-16T08:38:18.613Z</time>
      </trkpt>
      <trkpt lat="48.64186" lon="1.82276">
        <ele>148</ele>
        <time>2025-06-16T08:38:23.552Z</time>
      </trkpt>
      <trkpt lat="48.64182" lon="1.82282">
        <ele>148</ele>
        <time>2025-06-16T08:38:28.017Z</time>
      </trkpt>
      <trkpt lat="48.64179" lon="1.82289">
        <ele>150</ele>
        <time>2025-06-16T08:38:32.596Z</time>
      </trkpt>
      <trkpt lat="48.64175" lon="1.82296">
        <ele>151</ele>
        <time>2025-06-16T08:38:36.931Z</time>
      </trkpt>
      <trkpt lat="48.64172" lon="1.82302">
        <ele>151</ele>
        <time>2025-06-16T08:38:41.495Z</time>
      </trkpt>
      <trkpt lat="48.64168" lon="1.82309">
        <ele>151</ele>
        <time>2025-06-16T08:38:45.914Z</time>
      </trkpt>
      <trkpt lat="48.64165" lon="1.82315">
        <ele>151</ele>
        <time>2025-06-16T08:38:49.936Z</time>
      </trkpt>
      <trkpt lat="48.64162" lon="1.82322">
        <ele>150</ele>
        <time>2025-06-16T08:38:53.994Z</time>
      </trkpt>
      <trkpt lat="48.6416" lon="1.82329">
        <ele>150</ele>
        <time>2025-06-16T08:38:58.117Z</time>
      </trkpt>
      <trkpt lat="48.64157" lon="1.82336">
        <ele>150</ele>
        <time>2025-06-16T08:39:02.536Z</time>
      </trkpt>
      <trkpt lat="48.64154" lon="1.82344">
        <ele>150</ele>
        <time>2025-06-16T08:39:07.116Z</time>
      </trkpt>
      <trkpt lat="48.64151" lon="1.82351">
        <ele>150</ele>
        <time>2025-06-16T08:39:11.195Z</time>
      </trkpt>
      <trkpt lat="48.64148" lon="1.82358">
        <ele>150</ele>
        <time>2025-06-16T08:39:15.632Z</time>
      </trkpt>
      <trkpt lat="48.64146" lon="1.82365">
        <ele>150</ele>
        <time>2025-06-16T08:39:20.094Z</time>
      </trkpt>
      <trkpt lat="48.64143" lon="1.82375">
        <ele>150</ele>
        <time>2025-06-16T08:39:24.334Z</time>
      </trkpt>
      <trkpt lat="48.64141" lon="1.82382">
        <ele>150</ele>
        <time>2025-06-16T08:39:28.429Z</time>
      </trkpt>
      <trkpt lat="48.6414" lon="1.8239">
        <ele>150</ele>
        <time>2025-06-16T08:39:32.610Z</time>
      </trkpt>
      <trkpt lat="48.64139" lon="1.82399">
        <ele>150</ele>
        <time>2025-06-16T08:39:36.735Z</time>
      </trkpt>
      <trkpt lat="48.64139" lon="1.82407">
        <ele>150</ele>
        <time>2025-06-16T08:39:41.117Z</time>
      </trkpt>
      <trkpt lat="48.64139" lon="1.82416">
        <ele>150</ele>
        <time>2025-06-16T08:39:45.298Z</time>
      </trkpt>
      <trkpt lat="48.6414" lon="1.82425">
        <ele>150</ele>
        <time>2025-06-16T08:39:49.621Z</time>
      </trkpt>
      <trkpt lat="48.64142" lon="1.82434">
        <ele>150</ele>
        <time>2025-06-16T08:39:53.734Z</time>
      </trkpt>
      <trkpt lat="48.64144" lon="1.82442">
        <ele>150</ele>
        <time>2025-06-16T08:39:58.139Z</time>
      </trkpt>
      <trkpt lat="48.64145" lon="1.8245">
        <ele>150</ele>
        <time>2025-06-16T08:40:02.200Z</time>
      </trkpt>
      <trkpt lat="48.64148" lon="1.82459">
        <ele>150</ele>
        <time>2025-06-16T08:40:06.278Z</time>
      </trkpt>
      <trkpt lat="48.64151" lon="1.82467">
        <ele>150</ele>
        <time>2025-06-16T08:40:10.757Z</time>
      </trkpt>
      <trkpt lat="48.64154" lon="1.82475">
        <ele>148</ele>
        <time>2025-06-16T08:40:14.895Z</time>
      </trkpt>
      <trkpt lat="48.64159" lon="1.82482">
        <ele>148</ele>
        <time>2025-06-16T08:40:19.735Z</time>
      </trkpt>
      <trkpt lat="48.64163" lon="1.82489">
        <ele>150</ele>
        <time>2025-06-16T08:40:24.256Z</time>
      </trkpt>
      <trkpt lat="48.64168" lon="1.82495">
        <ele>150</ele>
        <time>2025-06-16T08:40:28.581Z</time>
      </trkpt>
      <trkpt lat="48.64173" lon="1.825">
        <ele>150</ele>
        <time>2025-06-16T08:40:32.620Z</time>
      </trkpt>
      <trkpt lat="48.64178" lon="1.82504">
        <ele>150</ele>
        <time>2025-06-16T08:40:36.875Z</time>
      </trkpt>
      <trkpt lat="48.64183" lon="1.82507">
        <ele>150</ele>
        <time>2025-06-16T08:40:41.324Z</time>
      </trkpt>
      <trkpt lat="48.64189" lon="1.82509">
        <ele>150</ele>
        <time>2025-06-16T08:40:45.799Z</time>
      </trkpt>
      <trkpt lat="48.64196" lon="1.82509">
        <ele>150</ele>
        <time>2025-06-16T08:40:50.735Z</time>
      </trkpt>
      <trkpt lat="48.64201" lon="1.8251">
        <ele>150</ele>
        <time>2025-06-16T08:40:54.734Z</time>
      </trkpt>
      <trkpt lat="48.64207" lon="1.8251">
        <ele>150</ele>
        <time>2025-06-16T08:40:59.118Z</time>
      </trkpt>
      <trkpt lat="48.64213" lon="1.8251">
        <ele>153</ele>
        <time>2025-06-16T08:41:03.597Z</time>
      </trkpt>
      <trkpt lat="48.64218" lon="1.82509">
        <ele>153</ele>
        <time>2025-06-16T08:41:07.718Z</time>
      </trkpt>
      <trkpt lat="48.64225" lon="1.82507">
        <ele>153</ele>
        <time>2025-06-16T08:41:12.002Z</time>
      </trkpt>
      <trkpt lat="48.64231" lon="1.82505">
        <ele>153</ele>
        <time>2025-06-16T08:41:16.421Z</time>
      </trkpt>
      <trkpt lat="48.64236" lon="1.82502">
        <ele>155</ele>
        <time>2025-06-16T08:41:20.721Z</time>
      </trkpt>
      <trkpt lat="48.64242" lon="1.82498">
        <ele>155</ele>
        <time>2025-06-16T08:41:24.953Z</time>
      </trkpt>
      <trkpt lat="48.64247" lon="1.82494">
        <ele>155</ele>
        <time>2025-06-16T08:41:29.100Z</time>
      </trkpt>
      <trkpt lat="48.64251" lon="1.8249">
        <ele>155</ele>
        <time>2025-06-16T08:41:33.136Z</time>
      </trkpt>
      <trkpt lat="48.64255" lon="1.82485">
        <ele>154</ele>
        <time>2025-06-16T08:41:37.316Z</time>
      </trkpt>
      <trkpt lat="48.64259" lon="1.82479">
        <ele>154</ele>
        <time>2025-06-16T08:41:41.735Z</time>
      </trkpt>
      <trkpt lat="48.64264" lon="1.82473">
        <ele>154</ele>
        <time>2025-06-16T08:41:46.480Z</time>
      </trkpt>
      <trkpt lat="48.64266" lon="1.82465">
        <ele>154</ele>
        <time>2025-06-16T08:41:50.735Z</time>
      </trkpt>
      <trkpt lat="48.64269" lon="1.82458">
        <ele>153</ele>
        <time>2025-06-16T08:41:54.735Z</time>
      </trkpt>
      <trkpt lat="48.64271" lon="1.82453">
        <ele>153</ele>
        <time>2025-06-16T08:41:59.735Z</time>
      </trkpt>
      <trkpt lat="48.64273" lon="1.82463">
        <ele>154</ele>
        <time>2025-06-16T08:42:04.735Z</time>
      </trkpt>
      <trkpt lat="48.64278" lon="1.82471">
        <ele>154</ele>
        <time>2025-06-16T08:42:09.458Z</time>
      </trkpt>
      <trkpt lat="48.64278" lon="1.82481">
        <ele>154</ele>
        <time>2025-06-16T08:42:13.655Z</time>
      </trkpt>
      <trkpt lat="48.64278" lon="1.82491">
        <ele>154</ele>
        <time>2025-06-16T08:42:18.002Z</time>
      </trkpt>
      <trkpt lat="48.64278" lon="1.825">
        <ele>154</ele>
        <time>2025-06-16T08:42:22.554Z</time>
      </trkpt>
      <trkpt lat="48.64281" lon="1.82508">
        <ele>154</ele>
        <time>2025-06-16T08:42:27.093Z</time>
      </trkpt>
      <trkpt lat="48.64283" lon="1.82517">
        <ele>153</ele>
        <time>2025-06-16T08:42:31.643Z</time>
      </trkpt>
      <trkpt lat="48.64286" lon="1.82523">
        <ele>153</ele>
        <time>2025-06-16T08:42:35.735Z</time>
      </trkpt>
      <trkpt lat="48.64288" lon="1.82531">
        <ele>153</ele>
        <time>2025-06-16T08:42:40.199Z</time>
      </trkpt>
      <trkpt lat="48.64289" lon="1.82539">
        <ele>153</ele>
        <time>2025-06-16T08:42:44.576Z</time>
      </trkpt>
      <trkpt lat="48.64292" lon="1.82545">
        <ele>151</ele>
        <time>2025-06-16T08:42:49.021Z</time>
      </trkpt>
      <trkpt lat="48.64292" lon="1.82553">
        <ele>151</ele>
        <time>2025-06-16T08:42:53.734Z</time>
      </trkpt>
      <trkpt lat="48.6429" lon="1.8256">
        <ele>152</ele>
        <time>2025-06-16T08:42:57.995Z</time>
      </trkpt>
      <trkpt lat="48.64283" lon="1.82562">
        <ele>152</ele>
        <time>2025-06-16T08:43:02.596Z</time>
      </trkpt>
      <trkpt lat="48.64276" lon="1.82564">
        <ele>152</ele>
        <time>2025-06-16T08:43:07.734Z</time>
      </trkpt>
      <trkpt lat="48.64273" lon="1.82569">
        <ele>152</ele>
        <time>2025-06-16T08:43:12.075Z</time>
      </trkpt>
      <trkpt lat="48.64275" lon="1.82578">
        <ele>151</ele>
        <time>2025-06-16T08:43:16.478Z</time>
      </trkpt>
      <trkpt lat="48.64282" lon="1.82584">
        <ele>151</ele>
        <time>2025-06-16T08:43:21.001Z</time>
      </trkpt>
      <trkpt lat="48.64286" lon="1.82584">
        <ele>151</ele>
        <time>2025-06-16T08:43:25.522Z</time>
      </trkpt>
      <trkpt lat="48.64292" lon="1.82591">
        <ele>151</ele>
        <time>2025-06-16T08:43:29.733Z</time>
      </trkpt>
      <trkpt lat="48.64294" lon="1.82599">
        <ele>152</ele>
        <time>2025-06-16T08:43:34.156Z</time>
      </trkpt>
      <trkpt lat="48.64295" lon="1.82606">
        <ele>152</ele>
        <time>2025-06-16T08:43:38.440Z</time>
      </trkpt>
      <trkpt lat="48.64292" lon="1.82615">
        <ele>152</ele>
        <time>2025-06-16T08:43:42.681Z</time>
      </trkpt>
      <trkpt lat="48.6429" lon="1.82623">
        <ele>151</ele>
        <time>2025-06-16T08:43:46.819Z</time>
      </trkpt>
      <trkpt lat="48.64289" lon="1.8263">
        <ele>152</ele>
        <time>2025-06-16T08:43:51.299Z</time>
      </trkpt>
      <trkpt lat="48.64287" lon="1.82637">
        <ele>152</ele>
        <time>2025-06-16T08:43:55.734Z</time>
      </trkpt>
      <trkpt lat="48.64285" lon="1.82638">
        <ele>152</ele>
        <time>2025-06-16T08:43:58.321Z</time>
      </trkpt>
      <trkpt lat="48.64284" lon="1.82651">
        <ele>152</ele>
        <time>2025-06-16T08:44:07.734Z</time>
      </trkpt>
      <trkpt lat="48.64284" lon="1.82658">
        <ele>154</ele>
        <time>2025-06-16T08:44:12.661Z</time>
      </trkpt>
      <trkpt lat="48.64285" lon="1.82668">
        <ele>154</ele>
        <time>2025-06-16T08:44:16.734Z</time>
      </trkpt>
      <trkpt lat="48.64286" lon="1.82675">
        <ele>154</ele>
        <time>2025-06-16T08:44:21.034Z</time>
      </trkpt>
      <trkpt lat="48.64285" lon="1.82683">
        <ele>155</ele>
        <time>2025-06-16T08:44:25.540Z</time>
      </trkpt>
      <trkpt lat="48.64285" lon="1.82691">
        <ele>155</ele>
        <time>2025-06-16T08:44:29.734Z</time>
      </trkpt>
      <trkpt lat="48.64284" lon="1.82698">
        <ele>155</ele>
        <time>2025-06-16T08:44:34.356Z</time>
      </trkpt>
      <trkpt lat="48.64284" lon="1.827">
        <ele>155</ele>
        <time>2025-06-16T08:44:35.541Z</time>
      </trkpt>
      <trkpt lat="48.64288" lon="1.82705">
        <ele>155</ele>
        <time>2025-06-16T08:44:45.733Z</time>
      </trkpt>
      <trkpt lat="48.64289" lon="1.82713">
        <ele>156</ele>
        <time>2025-06-16T08:44:50.180Z</time>
      </trkpt>
      <trkpt lat="48.64282" lon="1.82722">
        <ele>156</ele>
        <time>2025-06-16T08:44:54.563Z</time>
      </trkpt>
      <trkpt lat="48.64278" lon="1.82736">
        <ele>158</ele>
        <time>2025-06-16T08:44:59.538Z</time>
      </trkpt>
      <trkpt lat="48.64275" lon="1.82746">
        <ele>158</ele>
        <time>2025-06-16T08:45:03.734Z</time>
      </trkpt>
      <trkpt lat="48.64272" lon="1.82757">
        <ele>158</ele>
        <time>2025-06-16T08:45:08.564Z</time>
      </trkpt>
      <trkpt lat="48.6427" lon="1.82766">
        <ele>158</ele>
        <time>2025-06-16T08:45:12.680Z</time>
      </trkpt>
      <trkpt lat="48.64268" lon="1.82775">
        <ele>158</ele>
        <time>2025-06-16T08:45:16.733Z</time>
      </trkpt>
      <trkpt lat="48.64266" lon="1.82784">
        <ele>158</ele>
        <time>2025-06-16T08:45:21.734Z</time>
      </trkpt>
      <trkpt lat="48.64265" lon="1.82794">
        <ele>157</ele>
        <time>2025-06-16T08:45:26.446Z</time>
      </trkpt>
      <trkpt lat="48.64264" lon="1.82801">
        <ele>156</ele>
        <time>2025-06-16T08:45:30.734Z</time>
      </trkpt>
      <trkpt lat="48.64263" lon="1.82807">
        <ele>156</ele>
        <time>2025-06-16T08:45:34.734Z</time>
      </trkpt>
      <trkpt lat="48.6426" lon="1.82813">
        <ele>156</ele>
        <time>2025-06-16T08:45:38.733Z</time>
      </trkpt>
      <trkpt lat="48.64263" lon="1.82823">
        <ele>155</ele>
        <time>2025-06-16T08:45:43.307Z</time>
      </trkpt>
      <trkpt lat="48.64262" lon="1.82833">
        <ele>155</ele>
        <time>2025-06-16T08:45:47.734Z</time>
      </trkpt>
      <trkpt lat="48.64261" lon="1.82844">
        <ele>155</ele>
        <time>2025-06-16T08:45:52.098Z</time>
      </trkpt>
      <trkpt lat="48.64261" lon="1.82851">
        <ele>155</ele>
        <time>2025-06-16T08:45:56.456Z</time>
      </trkpt>
      <trkpt lat="48.6426" lon="1.82859">
        <ele>155</ele>
        <time>2025-06-16T08:46:00.734Z</time>
      </trkpt>
      <trkpt lat="48.6426" lon="1.82868">
        <ele>155</ele>
        <time>2025-06-16T08:46:05.396Z</time>
      </trkpt>
      <trkpt lat="48.64261" lon="1.82876">
        <ele>155</ele>
        <time>2025-06-16T08:46:09.485Z</time>
      </trkpt>
      <trkpt lat="48.64261" lon="1.82883">
        <ele>155</ele>
        <time>2025-06-16T08:46:13.734Z</time>
      </trkpt>
      <trkpt lat="48.64259" lon="1.82893">
        <ele>155</ele>
        <time>2025-06-16T08:46:18.458Z</time>
      </trkpt>
      <trkpt lat="48.64262" lon="1.82902">
        <ele>155</ele>
        <time>2025-06-16T08:46:22.717Z</time>
      </trkpt>
      <trkpt lat="48.64262" lon="1.82911">
        <ele>156</ele>
        <time>2025-06-16T08:46:26.734Z</time>
      </trkpt>
      <trkpt lat="48.64263" lon="1.8292">
        <ele>156</ele>
        <time>2025-06-16T08:46:31.615Z</time>
      </trkpt>
      <trkpt lat="48.64263" lon="1.82931">
        <ele>156</ele>
        <time>2025-06-16T08:46:36.099Z</time>
      </trkpt>
      <trkpt lat="48.64263" lon="1.82939">
        <ele>156</ele>
        <time>2025-06-16T08:46:40.479Z</time>
      </trkpt>
      <trkpt lat="48.64262" lon="1.82946">
        <ele>156</ele>
        <time>2025-06-16T08:46:44.620Z</time>
      </trkpt>
      <trkpt lat="48.64262" lon="1.82953">
        <ele>156</ele>
        <time>2025-06-16T08:46:48.733Z</time>
      </trkpt>
      <trkpt lat="48.64263" lon="1.8296">
        <ele>157</ele>
        <time>2025-06-16T08:46:53.481Z</time>
      </trkpt>
      <trkpt lat="48.64263" lon="1.82969">
        <ele>157</ele>
        <time>2025-06-16T08:46:57.734Z</time>
      </trkpt>
      <trkpt lat="48.64265" lon="1.82978">
        <ele>156</ele>
        <time>2025-06-16T08:47:02.399Z</time>
      </trkpt>
      <trkpt lat="48.64265" lon="1.82987">
        <ele>157</ele>
        <time>2025-06-16T08:47:06.556Z</time>
      </trkpt>
      <trkpt lat="48.64264" lon="1.82996">
        <ele>157</ele>
        <time>2025-06-16T08:47:10.976Z</time>
      </trkpt>
      <trkpt lat="48.64261" lon="1.83004">
        <ele>158</ele>
        <time>2025-06-16T08:47:15.618Z</time>
      </trkpt>
      <trkpt lat="48.64262" lon="1.83011">
        <ele>158</ele>
        <time>2025-06-16T08:47:19.734Z</time>
      </trkpt>
      <trkpt lat="48.64259" lon="1.83018">
        <ele>158</ele>
        <time>2025-06-16T08:47:23.880Z</time>
      </trkpt>
      <trkpt lat="48.6426" lon="1.83026">
        <ele>158</ele>
        <time>2025-06-16T08:47:28.274Z</time>
      </trkpt>
      <trkpt lat="48.64261" lon="1.83036">
        <ele>158</ele>
        <time>2025-06-16T08:47:32.738Z</time>
      </trkpt>
      <trkpt lat="48.64262" lon="1.83043">
        <ele>158</ele>
        <time>2025-06-16T08:47:36.733Z</time>
      </trkpt>
      <trkpt lat="48.64262" lon="1.83051">
        <ele>158</ele>
        <time>2025-06-16T08:47:40.999Z</time>
      </trkpt>
      <trkpt lat="48.64263" lon="1.83058">
        <ele>158</ele>
        <time>2025-06-16T08:47:45.019Z</time>
      </trkpt>
      <trkpt lat="48.64261" lon="1.83065">
        <ele>158</ele>
        <time>2025-06-16T08:47:49.734Z</time>
      </trkpt>
      <trkpt lat="48.64257" lon="1.83064">
        <ele>158</ele>
        <time>2025-06-16T08:47:53.734Z</time>
      </trkpt>
      <trkpt lat="48.64251" lon="1.83068">
        <ele>158</ele>
        <time>2025-06-16T08:47:58.417Z</time>
      </trkpt>
      <trkpt lat="48.64247" lon="1.83073">
        <ele>158</ele>
        <time>2025-06-16T08:48:02.734Z</time>
      </trkpt>
      <trkpt lat="48.64244" lon="1.83082">
        <ele>158</ele>
        <time>2025-06-16T08:48:06.839Z</time>
      </trkpt>
      <trkpt lat="48.64239" lon="1.83086">
        <ele>158</ele>
        <time>2025-06-16T08:48:11.174Z</time>
      </trkpt>
      <trkpt lat="48.64234" lon="1.8309">
        <ele>158</ele>
        <time>2025-06-16T08:48:15.500Z</time>
      </trkpt>
      <trkpt lat="48.6423" lon="1.83096">
        <ele>158</ele>
        <time>2025-06-16T08:48:19.733Z</time>
      </trkpt>
      <trkpt lat="48.64225" lon="1.83102">
        <ele>159</ele>
        <time>2025-06-16T08:48:24.018Z</time>
      </trkpt>
      <trkpt lat="48.64221" lon="1.83108">
        <ele>159</ele>
        <time>2025-06-16T08:48:28.318Z</time>
      </trkpt>
      <trkpt lat="48.64215" lon="1.83113">
        <ele>159</ele>
        <time>2025-06-16T08:48:32.734Z</time>
      </trkpt>
      <trkpt lat="48.6421" lon="1.83119">
        <ele>159</ele>
        <time>2025-06-16T08:48:37.734Z</time>
      </trkpt>
      <trkpt lat="48.64207" lon="1.83126">
        <ele>159</ele>
        <time>2025-06-16T08:48:42.442Z</time>
      </trkpt>
      <trkpt lat="48.64202" lon="1.8313">
        <ele>159</ele>
        <time>2025-06-16T08:48:46.538Z</time>
      </trkpt>
      <trkpt lat="48.64198" lon="1.83135">
        <ele>159</ele>
        <time>2025-06-16T08:48:50.660Z</time>
      </trkpt>
      <trkpt lat="48.64195" lon="1.83141">
        <ele>159</ele>
        <time>2025-06-16T08:48:54.695Z</time>
      </trkpt>
      <trkpt lat="48.64191" lon="1.83147">
        <ele>159</ele>
        <time>2025-06-16T08:48:58.734Z</time>
      </trkpt>
      <trkpt lat="48.64188" lon="1.83153">
        <ele>160</ele>
        <time>2025-06-16T08:49:02.973Z</time>
      </trkpt>
      <trkpt lat="48.64184" lon="1.8316">
        <ele>160</ele>
        <time>2025-06-16T08:49:07.470Z</time>
      </trkpt>
      <trkpt lat="48.6418" lon="1.83166">
        <ele>161</ele>
        <time>2025-06-16T08:49:11.892Z</time>
      </trkpt>
      <trkpt lat="48.64176" lon="1.83173">
        <ele>161</ele>
        <time>2025-06-16T08:49:16.312Z</time>
      </trkpt>
      <trkpt lat="48.64172" lon="1.83181">
        <ele>162</ele>
        <time>2025-06-16T08:49:20.733Z</time>
      </trkpt>
      <trkpt lat="48.64171" lon="1.83188">
        <ele>162</ele>
        <time>2025-06-16T08:49:25.213Z</time>
      </trkpt>
      <trkpt lat="48.64167" lon="1.83195">
        <ele>162</ele>
        <time>2025-06-16T08:49:29.606Z</time>
      </trkpt>
      <trkpt lat="48.64163" lon="1.83202">
        <ele>162</ele>
        <time>2025-06-16T08:49:34.085Z</time>
      </trkpt>
      <trkpt lat="48.64159" lon="1.83207">
        <ele>162</ele>
        <time>2025-06-16T08:49:38.207Z</time>
      </trkpt>
      <trkpt lat="48.64155" lon="1.83213">
        <ele>163</ele>
        <time>2025-06-16T08:49:42.748Z</time>
      </trkpt>
      <trkpt lat="48.64151" lon="1.83219">
        <ele>163</ele>
        <time>2025-06-16T08:49:47.134Z</time>
      </trkpt>
      <trkpt lat="48.64148" lon="1.83224">
        <ele>163</ele>
        <time>2025-06-16T08:49:51.152Z</time>
      </trkpt>
      <trkpt lat="48.64144" lon="1.83232">
        <ele>163</ele>
        <time>2025-06-16T08:49:55.607Z</time>
      </trkpt>
      <trkpt lat="48.6414" lon="1.83239">
        <ele>164</ele>
        <time>2025-06-16T08:50:00.147Z</time>
      </trkpt>
      <trkpt lat="48.64136" lon="1.83245">
        <ele>164</ele>
        <time>2025-06-16T08:50:04.533Z</time>
      </trkpt>
      <trkpt lat="48.64132" lon="1.83253">
        <ele>164</ele>
        <time>2025-06-16T08:50:08.995Z</time>
      </trkpt>
      <trkpt lat="48.64127" lon="1.8326">
        <ele>164</ele>
        <time>2025-06-16T08:50:13.373Z</time>
      </trkpt>
      <trkpt lat="48.64123" lon="1.83265">
        <ele>163</ele>
        <time>2025-06-16T08:50:17.773Z</time>
      </trkpt>
      <trkpt lat="48.64119" lon="1.83271">
        <ele>163</ele>
        <time>2025-06-16T08:50:22.232Z</time>
      </trkpt>
      <trkpt lat="48.64116" lon="1.83278">
        <ele>163</ele>
        <time>2025-06-16T08:50:26.429Z</time>
      </trkpt>
      <trkpt lat="48.64112" lon="1.83285">
        <ele>163</ele>
        <time>2025-06-16T08:50:30.733Z</time>
      </trkpt>
      <trkpt lat="48.64108" lon="1.83292">
        <ele>163</ele>
        <time>2025-06-16T08:50:35.313Z</time>
      </trkpt>
      <trkpt lat="48.64104" lon="1.83299">
        <ele>163</ele>
        <time>2025-06-16T08:50:39.690Z</time>
      </trkpt>
      <trkpt lat="48.64101" lon="1.83307">
        <ele>163</ele>
        <time>2025-06-16T08:50:44.052Z</time>
      </trkpt>
      <trkpt lat="48.64097" lon="1.83314">
        <ele>162</ele>
        <time>2025-06-16T08:50:48.394Z</time>
      </trkpt>
      <trkpt lat="48.64093" lon="1.8332">
        <ele>162</ele>
        <time>2025-06-16T08:50:52.732Z</time>
      </trkpt>
      <trkpt lat="48.64089" lon="1.83327">
        <ele>162</ele>
        <time>2025-06-16T08:50:57.149Z</time>
      </trkpt>
      <trkpt lat="48.64085" lon="1.83334">
        <ele>162</ele>
        <time>2025-06-16T08:51:01.569Z</time>
      </trkpt>
      <trkpt lat="48.64081" lon="1.8334">
        <ele>162</ele>
        <time>2025-06-16T08:51:05.974Z</time>
      </trkpt>
      <trkpt lat="48.64077" lon="1.83346">
        <ele>162</ele>
        <time>2025-06-16T08:51:10.337Z</time>
      </trkpt>
      <trkpt lat="48.64073" lon="1.83353">
        <ele>162</ele>
        <time>2025-06-16T08:51:14.608Z</time>
      </trkpt>
      <trkpt lat="48.64069" lon="1.8336">
        <ele>163</ele>
        <time>2025-06-16T08:51:18.908Z</time>
      </trkpt>
      <trkpt lat="48.64065" lon="1.83367">
        <ele>163</ele>
        <time>2025-06-16T08:51:23.253Z</time>
      </trkpt>
      <trkpt lat="48.64061" lon="1.83374">
        <ele>163</ele>
        <time>2025-06-16T08:51:27.554Z</time>
      </trkpt>
      <trkpt lat="48.64057" lon="1.8338">
        <ele>163</ele>
        <time>2025-06-16T08:51:31.853Z</time>
      </trkpt>
      <trkpt lat="48.64053" lon="1.83387">
        <ele>163</ele>
        <time>2025-06-16T08:51:36.144Z</time>
      </trkpt>
      <trkpt lat="48.64049" lon="1.83393">
        <ele>163</ele>
        <time>2025-06-16T08:51:40.489Z</time>
      </trkpt>
      <trkpt lat="48.64045" lon="1.834">
        <ele>163</ele>
        <time>2025-06-16T08:51:44.849Z</time>
      </trkpt>
      <trkpt lat="48.64041" lon="1.83407">
        <ele>165</ele>
        <time>2025-06-16T08:51:49.226Z</time>
      </trkpt>
      <trkpt lat="48.64038" lon="1.83414">
        <ele>165</ele>
        <time>2025-06-16T08:51:53.452Z</time>
      </trkpt>
      <trkpt lat="48.64033" lon="1.8342">
        <ele>165</ele>
        <time>2025-06-16T08:51:57.733Z</time>
      </trkpt>
      <trkpt lat="48.6403" lon="1.83427">
        <ele>165</ele>
        <time>2025-06-16T08:52:02.113Z</time>
      </trkpt>
      <trkpt lat="48.64025" lon="1.83433">
        <ele>165</ele>
        <time>2025-06-16T08:52:06.534Z</time>
      </trkpt>
      <trkpt lat="48.6402" lon="1.83438">
        <ele>165</ele>
        <time>2025-06-16T08:52:10.955Z</time>
      </trkpt>
      <trkpt lat="48.64015" lon="1.83444">
        <ele>165</ele>
        <time>2025-06-16T08:52:15.275Z</time>
      </trkpt>
      <trkpt lat="48.64011" lon="1.83449">
        <ele>166</ele>
        <time>2025-06-16T08:52:19.468Z</time>
      </trkpt>
      <trkpt lat="48.64006" lon="1.83455">
        <ele>166</ele>
        <time>2025-06-16T08:52:23.633Z</time>
      </trkpt>
      <trkpt lat="48.64002" lon="1.83461">
        <ele>165</ele>
        <time>2025-06-16T08:52:27.951Z</time>
      </trkpt>
      <trkpt lat="48.63999" lon="1.83469">
        <ele>165</ele>
        <time>2025-06-16T08:52:32.446Z</time>
      </trkpt>
      <trkpt lat="48.63995" lon="1.83475">
        <ele>165</ele>
        <time>2025-06-16T08:52:36.747Z</time>
      </trkpt>
      <trkpt lat="48.63991" lon="1.83482">
        <ele>165</ele>
        <time>2025-06-16T08:52:41.254Z</time>
      </trkpt>
      <trkpt lat="48.63986" lon="1.83487">
        <ele>165</ele>
        <time>2025-06-16T08:52:45.692Z</time>
      </trkpt>
      <trkpt lat="48.63981" lon="1.83492">
        <ele>165</ele>
        <time>2025-06-16T08:52:50.071Z</time>
      </trkpt>
      <trkpt lat="48.63976" lon="1.83497">
        <ele>165</ele>
        <time>2025-06-16T08:52:54.532Z</time>
      </trkpt>
      <trkpt lat="48.63971" lon="1.83505">
        <ele>165</ele>
        <time>2025-06-16T08:52:58.994Z</time>
      </trkpt>
      <trkpt lat="48.63968" lon="1.83511">
        <ele>165</ele>
        <time>2025-06-16T08:53:03.374Z</time>
      </trkpt>
      <trkpt lat="48.63964" lon="1.83516">
        <ele>166</ele>
        <time>2025-06-16T08:53:07.673Z</time>
      </trkpt>
      <trkpt lat="48.63961" lon="1.83521">
        <ele>166</ele>
        <time>2025-06-16T08:53:11.946Z</time>
      </trkpt>
      <trkpt lat="48.63956" lon="1.83526">
        <ele>166</ele>
        <time>2025-06-16T08:53:16.308Z</time>
      </trkpt>
      <trkpt lat="48.6395" lon="1.83532">
        <ele>166</ele>
        <time>2025-06-16T08:53:20.713Z</time>
      </trkpt>
      <trkpt lat="48.63946" lon="1.83538">
        <ele>166</ele>
        <time>2025-06-16T08:53:25.072Z</time>
      </trkpt>
      <trkpt lat="48.63942" lon="1.83545">
        <ele>167</ele>
        <time>2025-06-16T08:53:29.290Z</time>
      </trkpt>
      <trkpt lat="48.63937" lon="1.83551">
        <ele>167</ele>
        <time>2025-06-16T08:53:33.613Z</time>
      </trkpt>
      <trkpt lat="48.63933" lon="1.83557">
        <ele>167</ele>
        <time>2025-06-16T08:53:37.872Z</time>
      </trkpt>
      <trkpt lat="48.63928" lon="1.83564">
        <ele>167</ele>
        <time>2025-06-16T08:53:42.726Z</time>
      </trkpt>
      <trkpt lat="48.63923" lon="1.8357">
        <ele>168</ele>
        <time>2025-06-16T08:53:46.999Z</time>
      </trkpt>
      <trkpt lat="48.63919" lon="1.83577">
        <ele>168</ele>
        <time>2025-06-16T08:53:51.252Z</time>
      </trkpt>
      <trkpt lat="48.63916" lon="1.83583">
        <ele>168</ele>
        <time>2025-06-16T08:53:55.525Z</time>
      </trkpt>
      <trkpt lat="48.63907" lon="1.83603">
        <ele>168</ele>
        <time>2025-06-16T08:54:12.992Z</time>
      </trkpt>
      <trkpt lat="48.63903" lon="1.8361">
        <ele>168</ele>
        <time>2025-06-16T08:54:17.209Z</time>
      </trkpt>
      <trkpt lat="48.63898" lon="1.83619">
        <ele>168</ele>
        <time>2025-06-16T08:54:21.465Z</time>
      </trkpt>
      <trkpt lat="48.63893" lon="1.83628">
        <ele>167</ele>
        <time>2025-06-16T08:54:25.734Z</time>
      </trkpt>
      <trkpt lat="48.63889" lon="1.83635">
        <ele>167</ele>
        <time>2025-06-16T08:54:30.011Z</time>
      </trkpt>
      <trkpt lat="48.63885" lon="1.83641">
        <ele>167</ele>
        <time>2025-06-16T08:54:34.233Z</time>
      </trkpt>
      <trkpt lat="48.6388" lon="1.83648">
        <ele>167</ele>
        <time>2025-06-16T08:54:38.473Z</time>
      </trkpt>
      <trkpt lat="48.63876" lon="1.83655">
        <ele>167</ele>
        <time>2025-06-16T08:54:42.672Z</time>
      </trkpt>
      <trkpt lat="48.63872" lon="1.83662">
        <ele>167</ele>
        <time>2025-06-16T08:54:46.945Z</time>
      </trkpt>
      <trkpt lat="48.63869" lon="1.8367">
        <ele>167</ele>
        <time>2025-06-16T08:54:51.093Z</time>
      </trkpt>
      <trkpt lat="48.63865" lon="1.83677">
        <ele>167</ele>
        <time>2025-06-16T08:54:55.292Z</time>
      </trkpt>
      <trkpt lat="48.63861" lon="1.83682">
        <ele>166</ele>
        <time>2025-06-16T08:54:59.327Z</time>
      </trkpt>
      <trkpt lat="48.63857" lon="1.8369">
        <ele>166</ele>
        <time>2025-06-16T08:55:03.611Z</time>
      </trkpt>
      <trkpt lat="48.63857" lon="1.83699">
        <ele>166</ele>
        <time>2025-06-16T08:55:08.493Z</time>
      </trkpt>
      <trkpt lat="48.63857" lon="1.83708">
        <ele>166</ele>
        <time>2025-06-16T08:55:12.733Z</time>
      </trkpt>
      <trkpt lat="48.63858" lon="1.83716">
        <ele>166</ele>
        <time>2025-06-16T08:55:16.888Z</time>
      </trkpt>
      <trkpt lat="48.6386" lon="1.83723">
        <ele>166</ele>
        <time>2025-06-16T08:55:20.995Z</time>
      </trkpt>
      <trkpt lat="48.63859" lon="1.83733">
        <ele>166</ele>
        <time>2025-06-16T08:55:25.190Z</time>
      </trkpt>
      <trkpt lat="48.63855" lon="1.8374">
        <ele>166</ele>
        <time>2025-06-16T08:55:29.671Z</time>
      </trkpt>
      <trkpt lat="48.6385" lon="1.83743">
        <ele>166</ele>
        <time>2025-06-16T08:55:33.983Z</time>
      </trkpt>
      <trkpt lat="48.63844" lon="1.83743">
        <ele>167</ele>
        <time>2025-06-16T08:55:38.348Z</time>
      </trkpt>
      <trkpt lat="48.63838" lon="1.83747">
        <ele>167</ele>
        <time>2025-06-16T08:55:42.589Z</time>
      </trkpt>
      <trkpt lat="48.63832" lon="1.83748">
        <ele>167</ele>
        <time>2025-06-16T08:55:46.873Z</time>
      </trkpt>
      <trkpt lat="48.63827" lon="1.83752">
        <ele>167</ele>
        <time>2025-06-16T08:55:51.267Z</time>
      </trkpt>
      <trkpt lat="48.63823" lon="1.8376">
        <ele>167</ele>
        <time>2025-06-16T08:55:55.594Z</time>
      </trkpt>
      <trkpt lat="48.6382" lon="1.83767">
        <ele>166</ele>
        <time>2025-06-16T08:55:59.854Z</time>
      </trkpt>
      <trkpt lat="48.63816" lon="1.83775">
        <ele>166</ele>
        <time>2025-06-16T08:56:04.153Z</time>
      </trkpt>
      <trkpt lat="48.63813" lon="1.83782">
        <ele>166</ele>
        <time>2025-06-16T08:56:08.487Z</time>
      </trkpt>
      <trkpt lat="48.63809" lon="1.83789">
        <ele>166</ele>
        <time>2025-06-16T08:56:12.732Z</time>
      </trkpt>
      <trkpt lat="48.63805" lon="1.83796">
        <ele>165</ele>
        <time>2025-06-16T08:56:17.208Z</time>
      </trkpt>
      <trkpt lat="48.63802" lon="1.83803">
        <ele>165</ele>
        <time>2025-06-16T08:56:21.553Z</time>
      </trkpt>
      <trkpt lat="48.63798" lon="1.8381">
        <ele>165</ele>
        <time>2025-06-16T08:56:25.988Z</time>
      </trkpt>
      <trkpt lat="48.63794" lon="1.83817">
        <ele>165</ele>
        <time>2025-06-16T08:56:30.392Z</time>
      </trkpt>
      <trkpt lat="48.63791" lon="1.83824">
        <ele>164</ele>
        <time>2025-06-16T08:56:34.732Z</time>
      </trkpt>
      <trkpt lat="48.63787" lon="1.83832">
        <ele>164</ele>
        <time>2025-06-16T08:56:39.472Z</time>
      </trkpt>
      <trkpt lat="48.63783" lon="1.83839">
        <ele>164</ele>
        <time>2025-06-16T08:56:44.027Z</time>
      </trkpt>
      <trkpt lat="48.63781" lon="1.83845">
        <ele>164</ele>
        <time>2025-06-16T08:56:48.686Z</time>
      </trkpt>
      <trkpt lat="48.63779" lon="1.8385">
        <ele>163</ele>
        <time>2025-06-16T08:56:53.030Z</time>
      </trkpt>
      <trkpt lat="48.63775" lon="1.83856">
        <ele>163</ele>
        <time>2025-06-16T08:56:57.212Z</time>
      </trkpt>
      <trkpt lat="48.63773" lon="1.83863">
        <ele>163</ele>
        <time>2025-06-16T08:57:01.613Z</time>
      </trkpt>
      <trkpt lat="48.63772" lon="1.83871">
        <ele>163</ele>
        <time>2025-06-16T08:57:06.068Z</time>
      </trkpt>
      <trkpt lat="48.63772" lon="1.8388">
        <ele>163</ele>
        <time>2025-06-16T08:57:10.598Z</time>
      </trkpt>
      <trkpt lat="48.6377" lon="1.83889">
        <ele>163</ele>
        <time>2025-06-16T08:57:15.054Z</time>
      </trkpt>
      <trkpt lat="48.63769" lon="1.83897">
        <ele>163</ele>
        <time>2025-06-16T08:57:19.393Z</time>
      </trkpt>
      <trkpt lat="48.63768" lon="1.83906">
        <ele>164</ele>
        <time>2025-06-16T08:57:23.732Z</time>
      </trkpt>
      <trkpt lat="48.63768" lon="1.83916">
        <ele>164</ele>
        <time>2025-06-16T08:57:28.096Z</time>
      </trkpt>
      <trkpt lat="48.63767" lon="1.83926">
        <ele>164</ele>
        <time>2025-06-16T08:57:32.731Z</time>
      </trkpt>
      <trkpt lat="48.63767" lon="1.83935">
        <ele>163</ele>
        <time>2025-06-16T08:57:36.907Z</time>
      </trkpt>
      <trkpt lat="48.63766" lon="1.83944">
        <ele>163</ele>
        <time>2025-06-16T08:57:41.268Z</time>
      </trkpt>
      <trkpt lat="48.63764" lon="1.83952">
        <ele>163</ele>
        <time>2025-06-16T08:57:45.594Z</time>
      </trkpt>
      <trkpt lat="48.63763" lon="1.83961">
        <ele>164</ele>
        <time>2025-06-16T08:57:50.015Z</time>
      </trkpt>
      <trkpt lat="48.63763" lon="1.8397">
        <ele>164</ele>
        <time>2025-06-16T08:57:54.216Z</time>
      </trkpt>
      <trkpt lat="48.63762" lon="1.83978">
        <ele>164</ele>
        <time>2025-06-16T08:57:58.613Z</time>
      </trkpt>
      <trkpt lat="48.63761" lon="1.83989">
        <ele>164</ele>
        <time>2025-06-16T08:58:03.471Z</time>
      </trkpt>
      <trkpt lat="48.63761" lon="1.83998">
        <ele>164</ele>
        <time>2025-06-16T08:58:07.732Z</time>
      </trkpt>
      <trkpt lat="48.63759" lon="1.84006">
        <ele>164</ele>
        <time>2025-06-16T08:58:12.016Z</time>
      </trkpt>
      <trkpt lat="48.63758" lon="1.84015">
        <ele>164</ele>
        <time>2025-06-16T08:58:16.257Z</time>
      </trkpt>
      <trkpt lat="48.63756" lon="1.84024">
        <ele>164</ele>
        <time>2025-06-16T08:58:20.631Z</time>
      </trkpt>
      <trkpt lat="48.63753" lon="1.84033">
        <ele>164</ele>
        <time>2025-06-16T08:58:25.010Z</time>
      </trkpt>
      <trkpt lat="48.6375" lon="1.84042">
        <ele>163</ele>
        <time>2025-06-16T08:58:29.650Z</time>
      </trkpt>
      <trkpt lat="48.63748" lon="1.8405">
        <ele>163</ele>
        <time>2025-06-16T08:58:33.895Z</time>
      </trkpt>
      <trkpt lat="48.63745" lon="1.84058">
        <ele>163</ele>
        <time>2025-06-16T08:58:38.238Z</time>
      </trkpt>
      <trkpt lat="48.63742" lon="1.84066">
        <ele>163</ele>
        <time>2025-06-16T08:58:42.569Z</time>
      </trkpt>
      <trkpt lat="48.6374" lon="1.84074">
        <ele>162</ele>
        <time>2025-06-16T08:58:46.887Z</time>
      </trkpt>
      <trkpt lat="48.63737" lon="1.84083">
        <ele>162</ele>
        <time>2025-06-16T08:58:51.170Z</time>
      </trkpt>
      <trkpt lat="48.63735" lon="1.84091">
        <ele>163</ele>
        <time>2025-06-16T08:58:55.458Z</time>
      </trkpt>
      <trkpt lat="48.63733" lon="1.841">
        <ele>164</ele>
        <time>2025-06-16T08:58:59.673Z</time>
      </trkpt>
      <trkpt lat="48.6373" lon="1.84108">
        <ele>164</ele>
        <time>2025-06-16T08:59:03.956Z</time>
      </trkpt>
      <trkpt lat="48.63727" lon="1.84116">
        <ele>164</ele>
        <time>2025-06-16T08:59:08.227Z</time>
      </trkpt>
      <trkpt lat="48.63724" lon="1.84124">
        <ele>164</ele>
        <time>2025-06-16T08:59:12.513Z</time>
      </trkpt>
      <trkpt lat="48.63721" lon="1.84132">
        <ele>163</ele>
        <time>2025-06-16T08:59:16.893Z</time>
      </trkpt>
      <trkpt lat="48.63717" lon="1.84138">
        <ele>163</ele>
        <time>2025-06-16T08:59:21.176Z</time>
      </trkpt>
      <trkpt lat="48.63713" lon="1.84144">
        <ele>163</ele>
        <time>2025-06-16T08:59:25.673Z</time>
      </trkpt>
      <trkpt lat="48.63708" lon="1.8414">
        <ele>168</ele>
        <time>2025-06-16T08:59:29.732Z</time>
      </trkpt>
      <trkpt lat="48.63703" lon="1.84136">
        <ele>168</ele>
        <time>2025-06-16T08:59:33.732Z</time>
      </trkpt>
      <trkpt lat="48.63696" lon="1.84137">
        <ele>168</ele>
        <time>2025-06-16T08:59:38.438Z</time>
      </trkpt>
      <trkpt lat="48.63691" lon="1.84135">
        <ele>168</ele>
        <time>2025-06-16T08:59:42.667Z</time>
      </trkpt>
      <trkpt lat="48.63687" lon="1.84129">
        <ele>168</ele>
        <time>2025-06-16T08:59:47.130Z</time>
      </trkpt>
      <trkpt lat="48.63683" lon="1.84123">
        <ele>168</ele>
        <time>2025-06-16T08:59:51.713Z</time>
      </trkpt>
      <trkpt lat="48.63679" lon="1.84118">
        <ele>170</ele>
        <time>2025-06-16T08:59:56.033Z</time>
      </trkpt>
      <trkpt lat="48.63673" lon="1.84111">
        <ele>170</ele>
        <time>2025-06-16T09:00:00.517Z</time>
      </trkpt>
      <trkpt lat="48.63668" lon="1.84108">
        <ele>170</ele>
        <time>2025-06-16T09:00:04.853Z</time>
      </trkpt>
      <trkpt lat="48.63661" lon="1.84106">
        <ele>170</ele>
        <time>2025-06-16T09:00:09.254Z</time>
      </trkpt>
      <trkpt lat="48.63656" lon="1.84105">
        <ele>170</ele>
        <time>2025-06-16T09:00:13.732Z</time>
      </trkpt>
      <trkpt lat="48.63651" lon="1.841">
        <ele>170</ele>
        <time>2025-06-16T09:00:18.189Z</time>
      </trkpt>
      <trkpt lat="48.63646" lon="1.84094">
        <ele>169</ele>
        <time>2025-06-16T09:00:22.626Z</time>
      </trkpt>
      <trkpt lat="48.63641" lon="1.84089">
        <ele>169</ele>
        <time>2025-06-16T09:00:27.178Z</time>
      </trkpt>
      <trkpt lat="48.63635" lon="1.84086">
        <ele>169</ele>
        <time>2025-06-16T09:00:31.373Z</time>
      </trkpt>
      <trkpt lat="48.63631" lon="1.84082">
        <ele>169</ele>
        <time>2025-06-16T09:00:35.732Z</time>
      </trkpt>
      <trkpt lat="48.63629" lon="1.84082">
        <ele>169</ele>
        <time>2025-06-16T09:00:40.558Z</time>
      </trkpt>
      <trkpt lat="48.63627" lon="1.84078">
        <ele>169</ele>
        <time>2025-06-16T09:00:45.473Z</time>
      </trkpt>
      <trkpt lat="48.63622" lon="1.84072">
        <ele>171</ele>
        <time>2025-06-16T09:00:49.732Z</time>
      </trkpt>
      <trkpt lat="48.63615" lon="1.84068">
        <ele>169</ele>
        <time>2025-06-16T09:00:54.578Z</time>
      </trkpt>
      <trkpt lat="48.63609" lon="1.84067">
        <ele>169</ele>
        <time>2025-06-16T09:00:58.893Z</time>
      </trkpt>
      <trkpt lat="48.63604" lon="1.84066">
        <ele>169</ele>
        <time>2025-06-16T09:01:03.328Z</time>
      </trkpt>
      <trkpt lat="48.636" lon="1.84061">
        <ele>169</ele>
        <time>2025-06-16T09:01:07.693Z</time>
      </trkpt>
      <trkpt lat="48.63596" lon="1.84055">
        <ele>170</ele>
        <time>2025-06-16T09:01:12.035Z</time>
      </trkpt>
      <trkpt lat="48.6358" lon="1.84046">
        <ele>170</ele>
        <time>2025-06-16T09:01:29.993Z</time>
      </trkpt>
      <trkpt lat="48.63576" lon="1.84045">
        <ele>170</ele>
        <time>2025-06-16T09:01:34.253Z</time>
      </trkpt>
      <trkpt lat="48.63569" lon="1.84038">
        <ele>170</ele>
        <time>2025-06-16T09:01:38.569Z</time>
      </trkpt>
      <trkpt lat="48.63562" lon="1.84036">
        <ele>170</ele>
        <time>2025-06-16T09:01:42.731Z</time>
      </trkpt>
      <trkpt lat="48.63556" lon="1.84036">
        <ele>170</ele>
        <time>2025-06-16T09:01:47.051Z</time>
      </trkpt>
      <trkpt lat="48.63551" lon="1.84037">
        <ele>170</ele>
        <time>2025-06-16T09:01:51.086Z</time>
      </trkpt>
      <trkpt lat="48.63546" lon="1.84038">
        <ele>170</ele>
        <time>2025-06-16T09:01:55.533Z</time>
      </trkpt>
      <trkpt lat="48.6354" lon="1.84039">
        <ele>172</ele>
        <time>2025-06-16T09:02:00.013Z</time>
      </trkpt>
      <trkpt lat="48.63534" lon="1.84039">
        <ele>172</ele>
        <time>2025-06-16T09:02:04.658Z</time>
      </trkpt>
      <trkpt lat="48.63528" lon="1.84036">
        <ele>172</ele>
        <time>2025-06-16T09:02:09.658Z</time>
      </trkpt>
      <trkpt lat="48.63523" lon="1.84033">
        <ele>172</ele>
        <time>2025-06-16T09:02:14.134Z</time>
      </trkpt>
      <trkpt lat="48.63519" lon="1.8403">
        <ele>172</ele>
        <time>2025-06-16T09:02:18.731Z</time>
      </trkpt>
      <trkpt lat="48.63515" lon="1.84028">
        <ele>172</ele>
        <time>2025-06-16T09:02:22.893Z</time>
      </trkpt>
      <trkpt lat="48.63511" lon="1.84024">
        <ele>173</ele>
        <time>2025-06-16T09:02:27.338Z</time>
      </trkpt>
      <trkpt lat="48.63504" lon="1.84023">
        <ele>173</ele>
        <time>2025-06-16T09:02:31.731Z</time>
      </trkpt>
      <trkpt lat="48.63498" lon="1.84022">
        <ele>173</ele>
        <time>2025-06-16T09:02:36.353Z</time>
      </trkpt>
      <trkpt lat="48.63493" lon="1.84018">
        <ele>173</ele>
        <time>2025-06-16T09:02:40.513Z</time>
      </trkpt>
      <trkpt lat="48.63487" lon="1.84014">
        <ele>173</ele>
        <time>2025-06-16T09:02:44.731Z</time>
      </trkpt>
      <trkpt lat="48.6348" lon="1.84012">
        <ele>172</ele>
        <time>2025-06-16T09:02:49.468Z</time>
      </trkpt>
      <trkpt lat="48.63474" lon="1.84009">
        <ele>172</ele>
        <time>2025-06-16T09:02:54.007Z</time>
      </trkpt>
      <trkpt lat="48.63469" lon="1.84004">
        <ele>172</ele>
        <time>2025-06-16T09:02:58.653Z</time>
      </trkpt>
      <trkpt lat="48.63464" lon="1.83999">
        <ele>172</ele>
        <time>2025-06-16T09:03:03.090Z</time>
      </trkpt>
      <trkpt lat="48.63459" lon="1.83995">
        <ele>172</ele>
        <time>2025-06-16T09:03:07.476Z</time>
      </trkpt>
      <trkpt lat="48.63454" lon="1.83992">
        <ele>172</ele>
        <time>2025-06-16T09:03:11.956Z</time>
      </trkpt>
      <trkpt lat="48.63447" lon="1.83992">
        <ele>172</ele>
        <time>2025-06-16T09:03:16.269Z</time>
      </trkpt>
      <trkpt lat="48.63441" lon="1.83989">
        <ele>172</ele>
        <time>2025-06-16T09:03:20.730Z</time>
      </trkpt>
      <trkpt lat="48.63436" lon="1.83986">
        <ele>173</ele>
        <time>2025-06-16T09:03:25.168Z</time>
      </trkpt>
      <trkpt lat="48.63431" lon="1.8398">
        <ele>173</ele>
        <time>2025-06-16T09:03:29.730Z</time>
      </trkpt>
      <trkpt lat="48.63427" lon="1.83972">
        <ele>173</ele>
        <time>2025-06-16T09:03:33.937Z</time>
      </trkpt>
      <trkpt lat="48.63424" lon="1.83966">
        <ele>173</ele>
        <time>2025-06-16T09:03:37.955Z</time>
      </trkpt>
      <trkpt lat="48.6342" lon="1.83959">
        <ele>173</ele>
        <time>2025-06-16T09:03:42.567Z</time>
      </trkpt>
      <trkpt lat="48.63416" lon="1.83953">
        <ele>174</ele>
        <time>2025-06-16T09:03:46.731Z</time>
      </trkpt>
      <trkpt lat="48.63411" lon="1.8395">
        <ele>174</ele>
        <time>2025-06-16T09:03:51.675Z</time>
      </trkpt>
      <trkpt lat="48.63406" lon="1.83953">
        <ele>174</ele>
        <time>2025-06-16T09:03:55.730Z</time>
      </trkpt>
      <trkpt lat="48.634" lon="1.83955">
        <ele>175</ele>
        <time>2025-06-16T09:04:00.221Z</time>
      </trkpt>
      <trkpt lat="48.63395" lon="1.8396">
        <ele>174</ele>
        <time>2025-06-16T09:04:04.525Z</time>
      </trkpt>
      <trkpt lat="48.6339" lon="1.83964">
        <ele>174</ele>
        <time>2025-06-16T09:04:08.630Z</time>
      </trkpt>
      <trkpt lat="48.63385" lon="1.83967">
        <ele>174</ele>
        <time>2025-06-16T09:04:12.665Z</time>
      </trkpt>
      <trkpt lat="48.6338" lon="1.8397">
        <ele>174</ele>
        <time>2025-06-16T09:04:16.727Z</time>
      </trkpt>
      <trkpt lat="48.63374" lon="1.83972">
        <ele>175</ele>
        <time>2025-06-16T09:04:20.731Z</time>
      </trkpt>
      <trkpt lat="48.63369" lon="1.83973">
        <ele>175</ele>
        <time>2025-06-16T09:04:25.307Z</time>
      </trkpt>
      <trkpt lat="48.63362" lon="1.83976">
        <ele>175</ele>
        <time>2025-06-16T09:04:29.888Z</time>
      </trkpt>
      <trkpt lat="48.63357" lon="1.83978">
        <ele>175</ele>
        <time>2025-06-16T09:04:34.027Z</time>
      </trkpt>
      <trkpt lat="48.63352" lon="1.8398">
        <ele>175</ele>
        <time>2025-06-16T09:04:38.387Z</time>
      </trkpt>
      <trkpt lat="48.63346" lon="1.83982">
        <ele>176</ele>
        <time>2025-06-16T09:04:42.850Z</time>
      </trkpt>
      <trkpt lat="48.6334" lon="1.83983">
        <ele>176</ele>
        <time>2025-06-16T09:04:47.303Z</time>
      </trkpt>
      <trkpt lat="48.63334" lon="1.83984">
        <ele>176</ele>
        <time>2025-06-16T09:04:51.731Z</time>
      </trkpt>
      <trkpt lat="48.63329" lon="1.83986">
        <ele>176</ele>
        <time>2025-06-16T09:04:55.866Z</time>
      </trkpt>
      <trkpt lat="48.63323" lon="1.83987">
        <ele>174</ele>
        <time>2025-06-16T09:04:59.889Z</time>
      </trkpt>
      <trkpt lat="48.63318" lon="1.83989">
        <ele>174</ele>
        <time>2025-06-16T09:05:03.904Z</time>
      </trkpt>
      <trkpt lat="48.63312" lon="1.8399">
        <ele>174</ele>
        <time>2025-06-16T09:05:08.026Z</time>
      </trkpt>
      <trkpt lat="48.63306" lon="1.83992">
        <ele>174</ele>
        <time>2025-06-16T09:05:12.444Z</time>
      </trkpt>
      <trkpt lat="48.633" lon="1.83994">
        <ele>174</ele>
        <time>2025-06-16T09:05:17.065Z</time>
      </trkpt>
      <trkpt lat="48.63294" lon="1.83996">
        <ele>174</ele>
        <time>2025-06-16T09:05:21.481Z</time>
      </trkpt>
      <trkpt lat="48.63288" lon="1.83998">
        <ele>172</ele>
        <time>2025-06-16T09:05:25.922Z</time>
      </trkpt>
      <trkpt lat="48.63283" lon="1.84001">
        <ele>172</ele>
        <time>2025-06-16T09:05:30.385Z</time>
      </trkpt>
      <trkpt lat="48.63278" lon="1.84003">
        <ele>172</ele>
        <time>2025-06-16T09:05:34.446Z</time>
      </trkpt>
      <trkpt lat="48.63269" lon="1.84006">
        <ele>172</ele>
        <time>2025-06-16T09:05:47.730Z</time>
      </trkpt>
      <trkpt lat="48.63262" lon="1.8401">
        <ele>171</ele>
        <time>2025-06-16T09:05:51.930Z</time>
      </trkpt>
      <trkpt lat="48.63257" lon="1.84017">
        <ele>170</ele>
        <time>2025-06-16T09:05:56.080Z</time>
      </trkpt>
      <trkpt lat="48.6325" lon="1.84015">
        <ele>170</ele>
        <time>2025-06-16T09:06:00.381Z</time>
      </trkpt>
      <trkpt lat="48.63243" lon="1.84016">
        <ele>170</ele>
        <time>2025-06-16T09:06:04.698Z</time>
      </trkpt>
      <trkpt lat="48.63237" lon="1.84021">
        <ele>170</ele>
        <time>2025-06-16T09:06:09.003Z</time>
      </trkpt>
      <trkpt lat="48.63233" lon="1.84026">
        <ele>170</ele>
        <time>2025-06-16T09:06:13.570Z</time>
      </trkpt>
      <trkpt lat="48.63228" lon="1.84031">
        <ele>170</ele>
        <time>2025-06-16T09:06:18.701Z</time>
      </trkpt>
      <trkpt lat="48.63223" lon="1.84035">
        <ele>170</ele>
        <time>2025-06-16T09:06:22.719Z</time>
      </trkpt>
      <trkpt lat="48.63219" lon="1.8404">
        <ele>170</ele>
        <time>2025-06-16T09:06:26.730Z</time>
      </trkpt>
      <trkpt lat="48.63212" lon="1.84042">
        <ele>170</ele>
        <time>2025-06-16T09:06:31.644Z</time>
      </trkpt>
      <trkpt lat="48.63205" lon="1.84041">
        <ele>170</ele>
        <time>2025-06-16T09:06:36.085Z</time>
      </trkpt>
      <trkpt lat="48.63199" lon="1.84042">
        <ele>170</ele>
        <time>2025-06-16T09:06:40.731Z</time>
      </trkpt>
      <trkpt lat="48.63193" lon="1.84044">
        <ele>169</ele>
        <time>2025-06-16T09:06:45.339Z</time>
      </trkpt>
      <trkpt lat="48.63187" lon="1.84046">
        <ele>169</ele>
        <time>2025-06-16T09:06:49.524Z</time>
      </trkpt>
      <trkpt lat="48.63182" lon="1.84049">
        <ele>169</ele>
        <time>2025-06-16T09:06:53.748Z</time>
      </trkpt>
      <trkpt lat="48.63176" lon="1.84052">
        <ele>169</ele>
        <time>2025-06-16T09:06:57.905Z</time>
      </trkpt>
      <trkpt lat="48.6317" lon="1.84057">
        <ele>169</ele>
        <time>2025-06-16T09:07:02.463Z</time>
      </trkpt>
      <trkpt lat="48.63164" lon="1.84058">
        <ele>169</ele>
        <time>2025-06-16T09:07:06.619Z</time>
      </trkpt>
      <trkpt lat="48.63159" lon="1.84059">
        <ele>169</ele>
        <time>2025-06-16T09:07:10.966Z</time>
      </trkpt>
      <trkpt lat="48.63153" lon="1.84062">
        <ele>168</ele>
        <time>2025-06-16T09:07:15.403Z</time>
      </trkpt>
      <trkpt lat="48.63147" lon="1.84065">
        <ele>168</ele>
        <time>2025-06-16T09:07:19.730Z</time>
      </trkpt>
      <trkpt lat="48.63145" lon="1.84074">
        <ele>168</ele>
        <time>2025-06-16T09:07:24.324Z</time>
      </trkpt>
      <trkpt lat="48.63138" lon="1.84074">
        <ele>168</ele>
        <time>2025-06-16T09:07:28.731Z</time>
      </trkpt>
      <trkpt lat="48.63132" lon="1.84072">
        <ele>168</ele>
        <time>2025-06-16T09:07:33.125Z</time>
      </trkpt>
      <trkpt lat="48.63127" lon="1.84074">
        <ele>168</ele>
        <time>2025-06-16T09:07:37.534Z</time>
      </trkpt>
      <trkpt lat="48.6312" lon="1.84076">
        <ele>167</ele>
        <time>2025-06-16T09:07:42.587Z</time>
      </trkpt>
      <trkpt lat="48.63115" lon="1.84079">
        <ele>167</ele>
        <time>2025-06-16T09:07:46.731Z</time>
      </trkpt>
      <trkpt lat="48.6311" lon="1.84082">
        <ele>167</ele>
        <time>2025-06-16T09:07:51.219Z</time>
      </trkpt>
      <trkpt lat="48.63105" lon="1.84089">
        <ele>167</ele>
        <time>2025-06-16T09:07:55.425Z</time>
      </trkpt>
      <trkpt lat="48.63103" lon="1.84098">
        <ele>167</ele>
        <time>2025-06-16T09:07:59.836Z</time>
      </trkpt>
      <trkpt lat="48.63103" lon="1.84106">
        <ele>167</ele>
        <time>2025-06-16T09:08:04.243Z</time>
      </trkpt>
      <trkpt lat="48.63104" lon="1.84115">
        <ele>167</ele>
        <time>2025-06-16T09:08:08.526Z</time>
      </trkpt>
      <trkpt lat="48.63106" lon="1.84125">
        <ele>167</ele>
        <time>2025-06-16T09:08:12.695Z</time>
      </trkpt>
      <trkpt lat="48.63108" lon="1.84133">
        <ele>167</ele>
        <time>2025-06-16T09:08:16.731Z</time>
      </trkpt>
      <trkpt lat="48.6311" lon="1.84143">
        <ele>167</ele>
        <time>2025-06-16T09:08:21.397Z</time>
      </trkpt>
      <trkpt lat="48.63113" lon="1.84152">
        <ele>167</ele>
        <time>2025-06-16T09:08:25.731Z</time>
      </trkpt>
      <trkpt lat="48.63115" lon="1.84161">
        <ele>167</ele>
        <time>2025-06-16T09:08:30.194Z</time>
      </trkpt>
      <trkpt lat="48.63119" lon="1.84168">
        <ele>167</ele>
        <time>2025-06-16T09:08:34.255Z</time>
      </trkpt>
      <trkpt lat="48.63123" lon="1.84176">
        <ele>167</ele>
        <time>2025-06-16T09:08:38.730Z</time>
      </trkpt>
      <trkpt lat="48.63126" lon="1.84184">
        <ele>167</ele>
        <time>2025-06-16T09:08:43.702Z</time>
      </trkpt>
      <trkpt lat="48.63125" lon="1.8419">
        <ele>166</ele>
        <time>2025-06-16T09:08:47.720Z</time>
      </trkpt>
      <trkpt lat="48.63127" lon="1.84198">
        <ele>167</ele>
        <time>2025-06-16T09:08:52.042Z</time>
      </trkpt>
      <trkpt lat="48.6313" lon="1.84206">
        <ele>167</ele>
        <time>2025-06-16T09:08:56.474Z</time>
      </trkpt>
      <trkpt lat="48.63131" lon="1.84213">
        <ele>167</ele>
        <time>2025-06-16T09:09:00.730Z</time>
      </trkpt>
      <trkpt lat="48.63134" lon="1.84219">
        <ele>167</ele>
        <time>2025-06-16T09:09:05.399Z</time>
      </trkpt>
      <trkpt lat="48.63136" lon="1.84226">
        <ele>167</ele>
        <time>2025-06-16T09:09:09.731Z</time>
      </trkpt>
      <trkpt lat="48.63136" lon="1.84236">
        <ele>167</ele>
        <time>2025-06-16T09:09:14.341Z</time>
      </trkpt>
      <trkpt lat="48.63135" lon="1.84245">
        <ele>168</ele>
        <time>2025-06-16T09:09:18.703Z</time>
      </trkpt>
      <trkpt lat="48.63135" lon="1.84252">
        <ele>168</ele>
        <time>2025-06-16T09:09:22.730Z</time>
      </trkpt>
      <trkpt lat="48.63137" lon="1.84259">
        <ele>168</ele>
        <time>2025-06-16T09:09:27.660Z</time>
      </trkpt>
      <trkpt lat="48.63139" lon="1.84264">
        <ele>168</ele>
        <time>2025-06-16T09:09:31.730Z</time>
      </trkpt>
      <trkpt lat="48.63143" lon="1.84271">
        <ele>168</ele>
        <time>2025-06-16T09:09:36.731Z</time>
      </trkpt>
      <trkpt lat="48.63147" lon="1.84273">
        <ele>168</ele>
        <time>2025-06-16T09:09:41.262Z</time>
      </trkpt>
      <trkpt lat="48.63151" lon="1.84281">
        <ele>168</ele>
        <time>2025-06-16T09:09:45.730Z</time>
      </trkpt>
      <trkpt lat="48.63157" lon="1.84286">
        <ele>168</ele>
        <time>2025-06-16T09:09:50.340Z</time>
      </trkpt>
      <trkpt lat="48.63161" lon="1.84289">
        <ele>168</ele>
        <time>2025-06-16T09:09:54.731Z</time>
      </trkpt>
      <trkpt lat="48.63166" lon="1.8429">
        <ele>168</ele>
        <time>2025-06-16T09:09:59.342Z</time>
      </trkpt>
      <trkpt lat="48.6317" lon="1.84296">
        <ele>166</ele>
        <time>2025-06-16T09:10:03.497Z</time>
      </trkpt>
      <trkpt lat="48.63174" lon="1.84302">
        <ele>166</ele>
        <time>2025-06-16T09:10:07.731Z</time>
      </trkpt>
      <trkpt lat="48.63179" lon="1.84306">
        <ele>166</ele>
        <time>2025-06-16T09:10:12.107Z</time>
      </trkpt>
      <trkpt lat="48.63187" lon="1.84309">
        <ele>166</ele>
        <time>2025-06-16T09:10:16.680Z</time>
      </trkpt>
      <trkpt lat="48.63193" lon="1.84314">
        <ele>166</ele>
        <time>2025-06-16T09:10:21.074Z</time>
      </trkpt>
      <trkpt lat="48.63198" lon="1.84317">
        <ele>166</ele>
        <time>2025-06-16T09:10:25.240Z</time>
      </trkpt>
      <trkpt lat="48.63202" lon="1.84319">
        <ele>166</ele>
        <time>2025-06-16T09:10:29.298Z</time>
      </trkpt>
      <trkpt lat="48.63205" lon="1.84323">
        <ele>165</ele>
        <time>2025-06-16T09:10:33.539Z</time>
      </trkpt>
      <trkpt lat="48.63202" lon="1.84331">
        <ele>165</ele>
        <time>2025-06-16T09:10:37.856Z</time>
      </trkpt>
      <trkpt lat="48.63196" lon="1.84336">
        <ele>165</ele>
        <time>2025-06-16T09:10:42.319Z</time>
      </trkpt>
      <trkpt lat="48.63191" lon="1.8434">
        <ele>165</ele>
        <time>2025-06-16T09:10:46.729Z</time>
      </trkpt>
      <trkpt lat="48.63187" lon="1.84348">
        <ele>163</ele>
        <time>2025-06-16T09:10:51.594Z</time>
      </trkpt>
      <trkpt lat="48.63182" lon="1.84354">
        <ele>163</ele>
        <time>2025-06-16T09:10:55.877Z</time>
      </trkpt>
      <trkpt lat="48.63177" lon="1.8436">
        <ele>163</ele>
        <time>2025-06-16T09:11:00.461Z</time>
      </trkpt>
      <trkpt lat="48.63173" lon="1.84367">
        <ele>163</ele>
        <time>2025-06-16T09:11:04.743Z</time>
      </trkpt>
      <trkpt lat="48.63169" lon="1.84374">
        <ele>163</ele>
        <time>2025-06-16T09:11:09.358Z</time>
      </trkpt>
      <trkpt lat="48.63165" lon="1.8438">
        <ele>161</ele>
        <time>2025-06-16T09:11:13.730Z</time>
      </trkpt>
      <trkpt lat="48.6316" lon="1.84385">
        <ele>161</ele>
        <time>2025-06-16T09:11:17.730Z</time>
      </trkpt>
      <trkpt lat="48.63156" lon="1.84392">
        <ele>161</ele>
        <time>2025-06-16T09:11:22.514Z</time>
      </trkpt>
      <trkpt lat="48.63151" lon="1.84398">
        <ele>163</ele>
        <time>2025-06-16T09:11:26.730Z</time>
      </trkpt>
      <trkpt lat="48.63147" lon="1.84406">
        <ele>163</ele>
        <time>2025-06-16T09:11:31.381Z</time>
      </trkpt>
      <trkpt lat="48.63142" lon="1.84411">
        <ele>163</ele>
        <time>2025-06-16T09:11:35.500Z</time>
      </trkpt>
      <trkpt lat="48.63137" lon="1.84414">
        <ele>163</ele>
        <time>2025-06-16T09:11:39.730Z</time>
      </trkpt>
      <trkpt lat="48.63133" lon="1.84422">
        <ele>163</ele>
        <time>2025-06-16T09:11:44.741Z</time>
      </trkpt>
      <trkpt lat="48.6313" lon="1.8443">
        <ele>163</ele>
        <time>2025-06-16T09:11:49.134Z</time>
      </trkpt>
      <trkpt lat="48.63125" lon="1.84436">
        <ele>166</ele>
        <time>2025-06-16T09:11:53.580Z</time>
      </trkpt>
      <trkpt lat="48.63119" lon="1.84443">
        <ele>166</ele>
        <time>2025-06-16T09:11:58.119Z</time>
      </trkpt>
      <trkpt lat="48.63114" lon="1.8445">
        <ele>166</ele>
        <time>2025-06-16T09:12:02.419Z</time>
      </trkpt>
      <trkpt lat="48.63109" lon="1.84454">
        <ele>166</ele>
        <time>2025-06-16T09:12:06.729Z</time>
      </trkpt>
      <trkpt lat="48.63104" lon="1.84454">
        <ele>166</ele>
        <time>2025-06-16T09:12:11.335Z</time>
      </trkpt>
      <trkpt lat="48.63102" lon="1.84446">
        <ele>166</ele>
        <time>2025-06-16T09:12:15.422Z</time>
      </trkpt>
      <trkpt lat="48.631" lon="1.84438">
        <ele>166</ele>
        <time>2025-06-16T09:12:19.875Z</time>
      </trkpt>
      <trkpt lat="48.63097" lon="1.8443">
        <ele>169</ele>
        <time>2025-06-16T09:12:24.261Z</time>
      </trkpt>
      <trkpt lat="48.63094" lon="1.84422">
        <ele>169</ele>
        <time>2025-06-16T09:12:28.730Z</time>
      </trkpt>
      <trkpt lat="48.63091" lon="1.84415">
        <ele>169</ele>
        <time>2025-06-16T09:12:33.220Z</time>
      </trkpt>
      <trkpt lat="48.63088" lon="1.84407">
        <ele>169</ele>
        <time>2025-06-16T09:12:37.503Z</time>
      </trkpt>
      <trkpt lat="48.63084" lon="1.844">
        <ele>169</ele>
        <time>2025-06-16T09:12:41.938Z</time>
      </trkpt>
      <trkpt lat="48.6308" lon="1.84393">
        <ele>169</ele>
        <time>2025-06-16T09:12:46.520Z</time>
      </trkpt>
      <trkpt lat="48.63077" lon="1.84386">
        <ele>169</ele>
        <time>2025-06-16T09:12:51.103Z</time>
      </trkpt>
      <trkpt lat="48.63074" lon="1.8438">
        <ele>169</ele>
        <time>2025-06-16T09:12:55.317Z</time>
      </trkpt>
      <trkpt lat="48.63071" lon="1.84373">
        <ele>168</ele>
        <time>2025-06-16T09:12:59.574Z</time>
      </trkpt>
      <trkpt lat="48.63068" lon="1.84365">
        <ele>168</ele>
        <time>2025-06-16T09:13:03.900Z</time>
      </trkpt>
      <trkpt lat="48.63064" lon="1.84358">
        <ele>168</ele>
        <time>2025-06-16T09:13:08.395Z</time>
      </trkpt>
      <trkpt lat="48.63062" lon="1.84352">
        <ele>168</ele>
        <time>2025-06-16T09:13:12.499Z</time>
      </trkpt>
      <trkpt lat="48.63059" lon="1.84344">
        <ele>166</ele>
        <time>2025-06-16T09:13:17.001Z</time>
      </trkpt>
      <trkpt lat="48.63056" lon="1.84336">
        <ele>166</ele>
        <time>2025-06-16T09:13:21.415Z</time>
      </trkpt>
      <trkpt lat="48.63053" lon="1.84329">
        <ele>166</ele>
        <time>2025-06-16T09:13:25.877Z</time>
      </trkpt>
      <trkpt lat="48.6305" lon="1.84322">
        <ele>166</ele>
        <time>2025-06-16T09:13:30.297Z</time>
      </trkpt>
      <trkpt lat="48.63046" lon="1.84315">
        <ele>164</ele>
        <time>2025-06-16T09:13:34.639Z</time>
      </trkpt>
      <trkpt lat="48.63042" lon="1.84309">
        <ele>164</ele>
        <time>2025-06-16T09:13:38.730Z</time>
      </trkpt>
      <trkpt lat="48.63039" lon="1.84303">
        <ele>165</ele>
        <time>2025-06-16T09:13:42.855Z</time>
      </trkpt>
      <trkpt lat="48.63036" lon="1.84295">
        <ele>165</ele>
        <time>2025-06-16T09:13:47.019Z</time>
      </trkpt>
      <trkpt lat="48.63033" lon="1.84287">
        <ele>162</ele>
        <time>2025-06-16T09:13:51.080Z</time>
      </trkpt>
      <trkpt lat="48.63029" lon="1.84282">
        <ele>162</ele>
        <time>2025-06-16T09:13:55.175Z</time>
      </trkpt>
      <trkpt lat="48.63023" lon="1.8428">
        <ele>162</ele>
        <time>2025-06-16T09:13:59.355Z</time>
      </trkpt>
      <trkpt lat="48.63017" lon="1.84282">
        <ele>162</ele>
        <time>2025-06-16T09:14:03.382Z</time>
      </trkpt>
      <trkpt lat="48.63012" lon="1.8428">
        <ele>163</ele>
        <time>2025-06-16T09:14:07.657Z</time>
      </trkpt>
      <trkpt lat="48.63007" lon="1.84277">
        <ele>163</ele>
        <time>2025-06-16T09:14:11.922Z</time>
      </trkpt>
      <trkpt lat="48.63003" lon="1.84275">
        <ele>163</ele>
        <time>2025-06-16T09:14:16.060Z</time>
      </trkpt>
      <trkpt lat="48.62997" lon="1.84273">
        <ele>163</ele>
        <time>2025-06-16T09:14:20.730Z</time>
      </trkpt>
      <trkpt lat="48.62992" lon="1.84271">
        <ele>163</ele>
        <time>2025-06-16T09:14:25.180Z</time>
      </trkpt>
      <trkpt lat="48.62987" lon="1.8427">
        <ele>163</ele>
        <time>2025-06-16T09:14:29.660Z</time>
      </trkpt>
      <trkpt lat="48.62982" lon="1.84271">
        <ele>163</ele>
        <time>2025-06-16T09:14:33.729Z</time>
      </trkpt>
      <trkpt lat="48.62976" lon="1.84274">
        <ele>163</ele>
        <time>2025-06-16T09:14:38.259Z</time>
      </trkpt>
      <trkpt lat="48.62972" lon="1.84278">
        <ele>163</ele>
        <time>2025-06-16T09:14:42.499Z</time>
      </trkpt>
      <trkpt lat="48.62966" lon="1.84282">
        <ele>163</ele>
        <time>2025-06-16T09:14:46.936Z</time>
      </trkpt>
      <trkpt lat="48.62961" lon="1.84287">
        <ele>163</ele>
        <time>2025-06-16T09:14:51.321Z</time>
      </trkpt>
      <trkpt lat="48.62955" lon="1.8429">
        <ele>162</ele>
        <time>2025-06-16T09:14:55.730Z</time>
      </trkpt>
      <trkpt lat="48.62951" lon="1.84296">
        <ele>162</ele>
        <time>2025-06-16T09:15:00.057Z</time>
      </trkpt>
      <trkpt lat="48.62946" lon="1.843">
        <ele>162</ele>
        <time>2025-06-16T09:15:04.075Z</time>
      </trkpt>
      <trkpt lat="48.62941" lon="1.84305">
        <ele>162</ele>
        <time>2025-06-16T09:15:08.524Z</time>
      </trkpt>
      <trkpt lat="48.62937" lon="1.8431">
        <ele>162</ele>
        <time>2025-06-16T09:15:12.982Z</time>
      </trkpt>
      <trkpt lat="48.62932" lon="1.84315">
        <ele>162</ele>
        <time>2025-06-16T09:15:17.555Z</time>
      </trkpt>
      <trkpt lat="48.62928" lon="1.8432">
        <ele>161</ele>
        <time>2025-06-16T09:15:21.730Z</time>
      </trkpt>
      <trkpt lat="48.62923" lon="1.84327">
        <ele>161</ele>
        <time>2025-06-16T09:15:26.300Z</time>
      </trkpt>
      <trkpt lat="48.62917" lon="1.84334">
        <ele>161</ele>
        <time>2025-06-16T09:35:41.727Z</time>
      </trkpt>
      <trkpt lat="48.62914" lon="1.84338">
        <ele>161</ele>
        <time>2025-06-16T09:35:45.727Z</time>
      </trkpt>
      <trkpt lat="48.62911" lon="1.84341">
        <ele>161</ele>
        <time>2025-06-16T09:35:50.175Z</time>
      </trkpt>
      <trkpt lat="48.62907" lon="1.84346">
        <ele>161</ele>
        <time>2025-06-16T09:35:54.324Z</time>
      </trkpt>
      <trkpt lat="48.62904" lon="1.84351">
        <ele>161</ele>
        <time>2025-06-16T09:35:58.922Z</time>
      </trkpt>
      <trkpt lat="48.629" lon="1.84356">
        <ele>159</ele>
        <time>2025-06-16T09:36:03.002Z</time>
      </trkpt>
      <trkpt lat="48.62897" lon="1.84361">
        <ele>159</ele>
        <time>2025-06-16T09:36:07.072Z</time>
      </trkpt>
      <trkpt lat="48.62892" lon="1.84366">
        <ele>159</ele>
        <time>2025-06-16T09:36:11.727Z</time>
      </trkpt>
      <trkpt lat="48.62888" lon="1.84372">
        <ele>159</ele>
        <time>2025-06-16T09:36:16.727Z</time>
      </trkpt>
      <trkpt lat="48.62884" lon="1.84379">
        <ele>159</ele>
        <time>2025-06-16T09:36:21.727Z</time>
      </trkpt>
      <trkpt lat="48.62881" lon="1.84386">
        <ele>159</ele>
        <time>2025-06-16T09:36:25.820Z</time>
      </trkpt>
      <trkpt lat="48.62878" lon="1.84393">
        <ele>159</ele>
        <time>2025-06-16T09:36:30.299Z</time>
      </trkpt>
      <trkpt lat="48.62876" lon="1.84402">
        <ele>159</ele>
        <time>2025-06-16T09:36:34.727Z</time>
      </trkpt>
      <trkpt lat="48.62875" lon="1.84409">
        <ele>159</ele>
        <time>2025-06-16T09:36:38.940Z</time>
      </trkpt>
      <trkpt lat="48.62875" lon="1.84417">
        <ele>159</ele>
        <time>2025-06-16T09:36:43.184Z</time>
      </trkpt>
      <trkpt lat="48.62874" lon="1.84424">
        <ele>159</ele>
        <time>2025-06-16T09:36:47.486Z</time>
      </trkpt>
      <trkpt lat="48.62872" lon="1.84432">
        <ele>160</ele>
        <time>2025-06-16T09:36:52.024Z</time>
      </trkpt>
      <trkpt lat="48.62871" lon="1.84441">
        <ele>160</ele>
        <time>2025-06-16T09:36:56.565Z</time>
      </trkpt>
      <trkpt lat="48.62871" lon="1.8445">
        <ele>160</ele>
        <time>2025-06-16T09:37:00.727Z</time>
      </trkpt>
      <trkpt lat="48.62869" lon="1.84459">
        <ele>162</ele>
        <time>2025-06-16T09:37:05.727Z</time>
      </trkpt>
      <trkpt lat="48.62869" lon="1.84468">
        <ele>162</ele>
        <time>2025-06-16T09:37:10.082Z</time>
      </trkpt>
      <trkpt lat="48.62869" lon="1.84475">
        <ele>162</ele>
        <time>2025-06-16T09:37:14.042Z</time>
      </trkpt>
      <trkpt lat="48.62868" lon="1.84486">
        <ele>162</ele>
        <time>2025-06-16T09:37:18.727Z</time>
      </trkpt>
      <trkpt lat="48.62868" lon="1.84493">
        <ele>162</ele>
        <time>2025-06-16T09:37:23.053Z</time>
      </trkpt>
      <trkpt lat="48.62869" lon="1.84503">
        <ele>162</ele>
        <time>2025-06-16T09:37:27.748Z</time>
      </trkpt>
      <trkpt lat="48.6287" lon="1.84514">
        <ele>162</ele>
        <time>2025-06-16T09:37:32.603Z</time>
      </trkpt>
      <trkpt lat="48.6287" lon="1.84521">
        <ele>161</ele>
        <time>2025-06-16T09:37:36.726Z</time>
      </trkpt>
      <trkpt lat="48.62869" lon="1.8453">
        <ele>161</ele>
        <time>2025-06-16T09:37:41.280Z</time>
      </trkpt>
      <trkpt lat="48.62871" lon="1.84539">
        <ele>161</ele>
        <time>2025-06-16T09:37:45.727Z</time>
      </trkpt>
      <trkpt lat="48.62875" lon="1.84547">
        <ele>161</ele>
        <time>2025-06-16T09:37:50.727Z</time>
      </trkpt>
      <trkpt lat="48.62878" lon="1.84555">
        <ele>162</ele>
        <time>2025-06-16T09:37:55.505Z</time>
      </trkpt>
      <trkpt lat="48.62879" lon="1.84564">
        <ele>162</ele>
        <time>2025-06-16T09:37:59.661Z</time>
      </trkpt>
      <trkpt lat="48.62879" lon="1.84573">
        <ele>162</ele>
        <time>2025-06-16T09:38:04.720Z</time>
      </trkpt>
      <trkpt lat="48.62883" lon="1.84579">
        <ele>162</ele>
        <time>2025-06-16T09:38:09.320Z</time>
      </trkpt>
      <trkpt lat="48.62886" lon="1.84584">
        <ele>162</ele>
        <time>2025-06-16T09:38:13.726Z</time>
      </trkpt>
      <trkpt lat="48.62889" lon="1.84589">
        <ele>162</ele>
        <time>2025-06-16T09:38:17.726Z</time>
      </trkpt>
      <trkpt lat="48.62893" lon="1.84597">
        <ele>162</ele>
        <time>2025-06-16T09:38:21.905Z</time>
      </trkpt>
      <trkpt lat="48.62897" lon="1.84607">
        <ele>163</ele>
        <time>2025-06-16T09:38:26.205Z</time>
      </trkpt>
      <trkpt lat="48.629" lon="1.84616">
        <ele>163</ele>
        <time>2025-06-16T09:38:30.242Z</time>
      </trkpt>
      <trkpt lat="48.62903" lon="1.84623">
        <ele>164</ele>
        <time>2025-06-16T09:38:34.686Z</time>
      </trkpt>
      <trkpt lat="48.62908" lon="1.84629">
        <ele>164</ele>
        <time>2025-06-16T09:38:39.229Z</time>
      </trkpt>
      <trkpt lat="48.62911" lon="1.84635">
        <ele>164</ele>
        <time>2025-06-16T09:38:43.544Z</time>
      </trkpt>
      <trkpt lat="48.62916" lon="1.84641">
        <ele>164</ele>
        <time>2025-06-16T09:38:47.921Z</time>
      </trkpt>
      <trkpt lat="48.62922" lon="1.84644">
        <ele>164</ele>
        <time>2025-06-16T09:38:52.341Z</time>
      </trkpt>
      <trkpt lat="48.62928" lon="1.84648">
        <ele>164</ele>
        <time>2025-06-16T09:38:56.863Z</time>
      </trkpt>
      <trkpt lat="48.62932" lon="1.84655">
        <ele>164</ele>
        <time>2025-06-16T09:39:01.403Z</time>
      </trkpt>
      <trkpt lat="48.62937" lon="1.8466">
        <ele>164</ele>
        <time>2025-06-16T09:39:05.727Z</time>
      </trkpt>
      <trkpt lat="48.62942" lon="1.84666">
        <ele>164</ele>
        <time>2025-06-16T09:39:10.286Z</time>
      </trkpt>
      <trkpt lat="48.62947" lon="1.84671">
        <ele>164</ele>
        <time>2025-06-16T09:39:14.321Z</time>
      </trkpt>
      <trkpt lat="48.62951" lon="1.84676">
        <ele>164</ele>
        <time>2025-06-16T09:39:18.844Z</time>
      </trkpt>
      <trkpt lat="48.62956" lon="1.84681">
        <ele>162</ele>
        <time>2025-06-16T09:39:23.425Z</time>
      </trkpt>
      <trkpt lat="48.62959" lon="1.84688">
        <ele>163</ele>
        <time>2025-06-16T09:39:27.563Z</time>
      </trkpt>
      <trkpt lat="48.62963" lon="1.84696">
        <ele>163</ele>
        <time>2025-06-16T09:39:32.102Z</time>
      </trkpt>
      <trkpt lat="48.62966" lon="1.84703">
        <ele>163</ele>
        <time>2025-06-16T09:39:36.446Z</time>
      </trkpt>
      <trkpt lat="48.62968" lon="1.84711">
        <ele>162</ele>
        <time>2025-06-16T09:39:40.839Z</time>
      </trkpt>
      <trkpt lat="48.6297" lon="1.84719">
        <ele>162</ele>
        <time>2025-06-16T09:39:45.260Z</time>
      </trkpt>
      <trkpt lat="48.62975" lon="1.84725">
        <ele>162</ele>
        <time>2025-06-16T09:39:49.585Z</time>
      </trkpt>
      <trkpt lat="48.62977" lon="1.84734">
        <ele>162</ele>
        <time>2025-06-16T09:39:54.081Z</time>
      </trkpt>
      <trkpt lat="48.6298" lon="1.84743">
        <ele>160</ele>
        <time>2025-06-16T09:39:58.443Z</time>
      </trkpt>
      <trkpt lat="48.62983" lon="1.8475">
        <ele>160</ele>
        <time>2025-06-16T09:40:02.904Z</time>
      </trkpt>
      <trkpt lat="48.62985" lon="1.84759">
        <ele>160</ele>
        <time>2025-06-16T09:40:07.401Z</time>
      </trkpt>
      <trkpt lat="48.62987" lon="1.84768">
        <ele>161</ele>
        <time>2025-06-16T09:40:11.727Z</time>
      </trkpt>
      <trkpt lat="48.62989" lon="1.84776">
        <ele>161</ele>
        <time>2025-06-16T09:40:16.223Z</time>
      </trkpt>
      <trkpt lat="48.6299" lon="1.84784">
        <ele>161</ele>
        <time>2025-06-16T09:40:20.660Z</time>
      </trkpt>
      <trkpt lat="48.62991" lon="1.84793">
        <ele>161</ele>
        <time>2025-06-16T09:40:25.046Z</time>
      </trkpt>
      <trkpt lat="48.62993" lon="1.84802">
        <ele>161</ele>
        <time>2025-06-16T09:40:29.560Z</time>
      </trkpt>
      <trkpt lat="48.62995" lon="1.8481">
        <ele>161</ele>
        <time>2025-06-16T09:40:34.005Z</time>
      </trkpt>
      <trkpt lat="48.62997" lon="1.84819">
        <ele>161</ele>
        <time>2025-06-16T09:40:38.424Z</time>
      </trkpt>
      <trkpt lat="48.63" lon="1.84828">
        <ele>160</ele>
        <time>2025-06-16T09:40:43.009Z</time>
      </trkpt>
      <trkpt lat="48.63002" lon="1.84836">
        <ele>160</ele>
        <time>2025-06-16T09:40:47.545Z</time>
      </trkpt>
      <trkpt lat="48.63005" lon="1.84843">
        <ele>160</ele>
        <time>2025-06-16T09:40:51.991Z</time>
      </trkpt>
      <trkpt lat="48.63007" lon="1.84852">
        <ele>159</ele>
        <time>2025-06-16T09:40:56.464Z</time>
      </trkpt>
      <trkpt lat="48.6301" lon="1.84859">
        <ele>159</ele>
        <time>2025-06-16T09:41:00.727Z</time>
      </trkpt>
      <trkpt lat="48.63014" lon="1.84865">
        <ele>162</ele>
        <time>2025-06-16T09:41:05.140Z</time>
      </trkpt>
      <trkpt lat="48.63019" lon="1.84873">
        <ele>162</ele>
        <time>2025-06-16T09:41:09.500Z</time>
      </trkpt>
      <trkpt lat="48.63022" lon="1.8488">
        <ele>161</ele>
        <time>2025-06-16T09:41:14.022Z</time>
      </trkpt>
      <trkpt lat="48.63026" lon="1.84889">
        <ele>161</ele>
        <time>2025-06-16T09:41:18.686Z</time>
      </trkpt>
      <trkpt lat="48.63027" lon="1.84898">
        <ele>161</ele>
        <time>2025-06-16T09:41:22.946Z</time>
      </trkpt>
      <trkpt lat="48.63029" lon="1.84906">
        <ele>162</ele>
        <time>2025-06-16T09:41:27.306Z</time>
      </trkpt>
      <trkpt lat="48.63033" lon="1.84913">
        <ele>162</ele>
        <time>2025-06-16T09:41:31.666Z</time>
      </trkpt>
      <trkpt lat="48.63037" lon="1.84921">
        <ele>162</ele>
        <time>2025-06-16T09:41:36.088Z</time>
      </trkpt>
      <trkpt lat="48.6304" lon="1.84929">
        <ele>162</ele>
        <time>2025-06-16T09:41:40.463Z</time>
      </trkpt>
      <trkpt lat="48.63042" lon="1.84938">
        <ele>163</ele>
        <time>2025-06-16T09:41:44.942Z</time>
      </trkpt>
      <trkpt lat="48.63045" lon="1.84945">
        <ele>163</ele>
        <time>2025-06-16T09:41:48.944Z</time>
      </trkpt>
      <trkpt lat="48.63047" lon="1.84955">
        <ele>163</ele>
        <time>2025-06-16T09:41:53.726Z</time>
      </trkpt>
      <trkpt lat="48.63049" lon="1.84962">
        <ele>163</ele>
        <time>2025-06-16T09:41:57.783Z</time>
      </trkpt>
      <trkpt lat="48.63052" lon="1.8497">
        <ele>163</ele>
        <time>2025-06-16T09:42:02.143Z</time>
      </trkpt>
      <trkpt lat="48.63056" lon="1.84976">
        <ele>163</ele>
        <time>2025-06-16T09:42:06.503Z</time>
      </trkpt>
      <trkpt lat="48.63058" lon="1.84985">
        <ele>163</ele>
        <time>2025-06-16T09:42:10.940Z</time>
      </trkpt>
      <trkpt lat="48.63062" lon="1.84992">
        <ele>163</ele>
        <time>2025-06-16T09:42:15.404Z</time>
      </trkpt>
      <trkpt lat="48.63066" lon="1.84999">
        <ele>163</ele>
        <time>2025-06-16T09:42:19.747Z</time>
      </trkpt>
      <trkpt lat="48.63071" lon="1.85004">
        <ele>163</ele>
        <time>2025-06-16T09:42:24.225Z</time>
      </trkpt>
      <trkpt lat="48.63075" lon="1.85008">
        <ele>163</ele>
        <time>2025-06-16T09:42:28.244Z</time>
      </trkpt>
      <trkpt lat="48.63081" lon="1.85011">
        <ele>163</ele>
        <time>2025-06-16T09:42:32.366Z</time>
      </trkpt>
      <trkpt lat="48.63085" lon="1.85017">
        <ele>162</ele>
        <time>2025-06-16T09:42:36.683Z</time>
      </trkpt>
      <trkpt lat="48.6309" lon="1.85022">
        <ele>162</ele>
        <time>2025-06-16T09:42:41.120Z</time>
      </trkpt>
      <trkpt lat="48.63093" lon="1.85028">
        <ele>162</ele>
        <time>2025-06-16T09:42:45.343Z</time>
      </trkpt>
      <trkpt lat="48.63088" lon="1.85033">
        <ele>162</ele>
        <time>2025-06-16T09:42:49.421Z</time>
      </trkpt>
      <trkpt lat="48.63083" lon="1.85037">
        <ele>162</ele>
        <time>2025-06-16T09:42:53.986Z</time>
      </trkpt>
      <trkpt lat="48.63078" lon="1.85041">
        <ele>162</ele>
        <time>2025-06-16T09:42:58.499Z</time>
      </trkpt>
      <trkpt lat="48.63073" lon="1.85047">
        <ele>161</ele>
        <time>2025-06-16T09:43:02.842Z</time>
      </trkpt>
      <trkpt lat="48.63069" lon="1.85053">
        <ele>163</ele>
        <time>2025-06-16T09:43:07.160Z</time>
      </trkpt>
      <trkpt lat="48.63065" lon="1.85059">
        <ele>163</ele>
        <time>2025-06-16T09:43:11.485Z</time>
      </trkpt>
      <trkpt lat="48.63059" lon="1.85065">
        <ele>163</ele>
        <time>2025-06-16T09:43:16.400Z</time>
      </trkpt>
      <trkpt lat="48.63053" lon="1.85067">
        <ele>163</ele>
        <time>2025-06-16T09:43:20.880Z</time>
      </trkpt>
      <trkpt lat="48.63048" lon="1.85063">
        <ele>163</ele>
        <time>2025-06-16T09:43:25.325Z</time>
      </trkpt>
      <trkpt lat="48.63043" lon="1.85057">
        <ele>163</ele>
        <time>2025-06-16T09:43:29.726Z</time>
      </trkpt>
      <trkpt lat="48.63038" lon="1.85052">
        <ele>164</ele>
        <time>2025-06-16T09:43:33.726Z</time>
      </trkpt>
      <trkpt lat="48.63035" lon="1.85046">
        <ele>164</ele>
        <time>2025-06-16T09:43:37.883Z</time>
      </trkpt>
      <trkpt lat="48.63031" lon="1.8504">
        <ele>164</ele>
        <time>2025-06-16T09:43:42.261Z</time>
      </trkpt>
      <trkpt lat="48.63026" lon="1.85035">
        <ele>164</ele>
        <time>2025-06-16T09:43:46.664Z</time>
      </trkpt>
      <trkpt lat="48.63023" lon="1.8503">
        <ele>164</ele>
        <time>2025-06-16T09:43:51.041Z</time>
      </trkpt>
      <trkpt lat="48.63019" lon="1.85024">
        <ele>164</ele>
        <time>2025-06-16T09:43:55.426Z</time>
      </trkpt>
      <trkpt lat="48.63015" lon="1.85018">
        <ele>164</ele>
        <time>2025-06-16T09:43:59.744Z</time>
      </trkpt>
      <trkpt lat="48.6301" lon="1.85013">
        <ele>166</ele>
        <time>2025-06-16T09:44:04.103Z</time>
      </trkpt>
      <trkpt lat="48.63006" lon="1.85006">
        <ele>166</ele>
        <time>2025-06-16T09:44:08.542Z</time>
      </trkpt>
      <trkpt lat="48.63" lon="1.85007">
        <ele>166</ele>
        <time>2025-06-16T09:44:13.004Z</time>
      </trkpt>
      <trkpt lat="48.62993" lon="1.85013">
        <ele>166</ele>
        <time>2025-06-16T09:44:17.726Z</time>
      </trkpt>
      <trkpt lat="48.6299" lon="1.85022">
        <ele>166</ele>
        <time>2025-06-16T09:44:21.919Z</time>
      </trkpt>
      <trkpt lat="48.62985" lon="1.85029">
        <ele>168</ele>
        <time>2025-06-16T09:44:26.159Z</time>
      </trkpt>
      <trkpt lat="48.6298" lon="1.85035">
        <ele>168</ele>
        <time>2025-06-16T09:44:30.220Z</time>
      </trkpt>
      <trkpt lat="48.62975" lon="1.85043">
        <ele>168</ele>
        <time>2025-06-16T09:44:34.503Z</time>
      </trkpt>
      <trkpt lat="48.62973" lon="1.85052">
        <ele>168</ele>
        <time>2025-06-16T09:44:39Z</time>
      </trkpt>
      <trkpt lat="48.6297" lon="1.85061">
        <ele>168</ele>
        <time>2025-06-16T09:44:43.479Z</time>
      </trkpt>
      <trkpt lat="48.62967" lon="1.8507">
        <ele>168</ele>
        <time>2025-06-16T09:44:47.959Z</time>
      </trkpt>
      <trkpt lat="48.62964" lon="1.85078">
        <ele>168</ele>
        <time>2025-06-16T09:44:52.506Z</time>
      </trkpt>
      <trkpt lat="48.6296" lon="1.85084">
        <ele>168</ele>
        <time>2025-06-16T09:44:57.047Z</time>
      </trkpt>
      <trkpt lat="48.62957" lon="1.85091">
        <ele>170</ele>
        <time>2025-06-16T09:45:01.285Z</time>
      </trkpt>
      <trkpt lat="48.62954" lon="1.85098">
        <ele>170</ele>
        <time>2025-06-16T09:45:05.646Z</time>
      </trkpt>
      <trkpt lat="48.6295" lon="1.85105">
        <ele>170</ele>
        <time>2025-06-16T09:45:10.040Z</time>
      </trkpt>
      <trkpt lat="48.62947" lon="1.85112">
        <ele>170</ele>
        <time>2025-06-16T09:45:14.545Z</time>
      </trkpt>
      <trkpt lat="48.62944" lon="1.8512">
        <ele>170</ele>
        <time>2025-06-16T09:45:18.682Z</time>
      </trkpt>
      <trkpt lat="48.62942" lon="1.85127">
        <ele>170</ele>
        <time>2025-06-16T09:45:22.726Z</time>
      </trkpt>
      <trkpt lat="48.62939" lon="1.85135">
        <ele>170</ele>
        <time>2025-06-16T09:45:26.924Z</time>
      </trkpt>
      <trkpt lat="48.62935" lon="1.85143">
        <ele>170</ele>
        <time>2025-06-16T09:45:31.344Z</time>
      </trkpt>
      <trkpt lat="48.62932" lon="1.8515">
        <ele>170</ele>
        <time>2025-06-16T09:45:35.726Z</time>
      </trkpt>
      <trkpt lat="48.62928" lon="1.85156">
        <ele>171</ele>
        <time>2025-06-16T09:45:39.726Z</time>
      </trkpt>
      <trkpt lat="48.62925" lon="1.85163">
        <ele>171</ele>
        <time>2025-06-16T09:45:44.142Z</time>
      </trkpt>
      <trkpt lat="48.62922" lon="1.85171">
        <ele>171</ele>
        <time>2025-06-16T09:45:48.520Z</time>
      </trkpt>
      <trkpt lat="48.62918" lon="1.85178">
        <ele>171</ele>
        <time>2025-06-16T09:45:53.059Z</time>
      </trkpt>
      <trkpt lat="48.62915" lon="1.85184">
        <ele>171</ele>
        <time>2025-06-16T09:45:57.248Z</time>
      </trkpt>
      <trkpt lat="48.62912" lon="1.85192">
        <ele>171</ele>
        <time>2025-06-16T09:46:01.385Z</time>
      </trkpt>
      <trkpt lat="48.62909" lon="1.85199">
        <ele>171</ele>
        <time>2025-06-16T09:46:05.404Z</time>
      </trkpt>
      <trkpt lat="48.62907" lon="1.85206">
        <ele>171</ele>
        <time>2025-06-16T09:46:09.726Z</time>
      </trkpt>
      <trkpt lat="48.62903" lon="1.85214">
        <ele>171</ele>
        <time>2025-06-16T09:46:14.261Z</time>
      </trkpt>
      <trkpt lat="48.629" lon="1.85222">
        <ele>171</ele>
        <time>2025-06-16T09:46:18.647Z</time>
      </trkpt>
      <trkpt lat="48.62897" lon="1.85229">
        <ele>171</ele>
        <time>2025-06-16T09:46:23.023Z</time>
      </trkpt>
      <trkpt lat="48.62894" lon="1.85236">
        <ele>171</ele>
        <time>2025-06-16T09:46:27.042Z</time>
      </trkpt>
      <trkpt lat="48.6289" lon="1.85243">
        <ele>171</ele>
        <time>2025-06-16T09:46:31.666Z</time>
      </trkpt>
      <trkpt lat="48.62887" lon="1.8525">
        <ele>171</ele>
        <time>2025-06-16T09:46:35.863Z</time>
      </trkpt>
      <trkpt lat="48.62883" lon="1.85256">
        <ele>171</ele>
        <time>2025-06-16T09:46:40.242Z</time>
      </trkpt>
      <trkpt lat="48.6288" lon="1.85265">
        <ele>171</ele>
        <time>2025-06-16T09:46:44.725Z</time>
      </trkpt>
      <trkpt lat="48.62876" lon="1.85273">
        <ele>171</ele>
        <time>2025-06-16T09:46:49.362Z</time>
      </trkpt>
      <trkpt lat="48.62872" lon="1.85278">
        <ele>171</ele>
        <time>2025-06-16T09:46:53.586Z</time>
      </trkpt>
      <trkpt lat="48.6287" lon="1.85285">
        <ele>171</ele>
        <time>2025-06-16T09:46:57.726Z</time>
      </trkpt>
      <trkpt lat="48.62868" lon="1.85295">
        <ele>171</ele>
        <time>2025-06-16T09:47:02.186Z</time>
      </trkpt>
      <trkpt lat="48.62865" lon="1.85303">
        <ele>171</ele>
        <time>2025-06-16T09:47:06.502Z</time>
      </trkpt>
      <trkpt lat="48.62861" lon="1.85311">
        <ele>171</ele>
        <time>2025-06-16T09:47:10.820Z</time>
      </trkpt>
      <trkpt lat="48.62858" lon="1.85319">
        <ele>171</ele>
        <time>2025-06-16T09:47:15.061Z</time>
      </trkpt>
      <trkpt lat="48.62855" lon="1.85326">
        <ele>172</ele>
        <time>2025-06-16T09:47:19.156Z</time>
      </trkpt>
      <trkpt lat="48.6285" lon="1.85334">
        <ele>172</ele>
        <time>2025-06-16T09:47:23.627Z</time>
      </trkpt>
      <trkpt lat="48.62847" lon="1.85342">
        <ele>172</ele>
        <time>2025-06-16T09:47:27.884Z</time>
      </trkpt>
      <trkpt lat="48.62843" lon="1.8535">
        <ele>173</ele>
        <time>2025-06-16T09:47:32.244Z</time>
      </trkpt>
      <trkpt lat="48.62839" lon="1.85358">
        <ele>173</ele>
        <time>2025-06-16T09:47:36.726Z</time>
      </trkpt>
      <trkpt lat="48.62836" lon="1.85365">
        <ele>173</ele>
        <time>2025-06-16T09:47:41.067Z</time>
      </trkpt>
      <trkpt lat="48.62832" lon="1.85373">
        <ele>173</ele>
        <time>2025-06-16T09:47:45.563Z</time>
      </trkpt>
      <trkpt lat="48.62829" lon="1.8538">
        <ele>174</ele>
        <time>2025-06-16T09:47:50.144Z</time>
      </trkpt>
      <trkpt lat="48.62826" lon="1.85387">
        <ele>174</ele>
        <time>2025-06-16T09:47:54.419Z</time>
      </trkpt>
      <trkpt lat="48.62822" lon="1.85393">
        <ele>174</ele>
        <time>2025-06-16T09:47:58.726Z</time>
      </trkpt>
      <trkpt lat="48.62817" lon="1.85399">
        <ele>174</ele>
        <time>2025-06-16T09:48:03.199Z</time>
      </trkpt>
      <trkpt lat="48.62811" lon="1.85402">
        <ele>174</ele>
        <time>2025-06-16T09:48:07.725Z</time>
      </trkpt>
      <trkpt lat="48.62807" lon="1.85407">
        <ele>174</ele>
        <time>2025-06-16T09:48:12.106Z</time>
      </trkpt>
      <trkpt lat="48.62803" lon="1.85414">
        <ele>174</ele>
        <time>2025-06-16T09:48:16.680Z</time>
      </trkpt>
      <trkpt lat="48.62802" lon="1.85422">
        <ele>174</ele>
        <time>2025-06-16T09:48:21.044Z</time>
      </trkpt>
      <trkpt lat="48.62803" lon="1.85433">
        <ele>174</ele>
        <time>2025-06-16T09:48:25.726Z</time>
      </trkpt>
      <trkpt lat="48.62803" lon="1.85443">
        <ele>174</ele>
        <time>2025-06-16T09:48:30.284Z</time>
      </trkpt>
      <trkpt lat="48.628" lon="1.85451">
        <ele>174</ele>
        <time>2025-06-16T09:48:34.726Z</time>
      </trkpt>
      <trkpt lat="48.62795" lon="1.85458">
        <ele>174</ele>
        <time>2025-06-16T09:48:39.503Z</time>
      </trkpt>
      <trkpt lat="48.62791" lon="1.85465">
        <ele>173</ele>
        <time>2025-06-16T09:48:43.701Z</time>
      </trkpt>
      <trkpt lat="48.62788" lon="1.85474">
        <ele>173</ele>
        <time>2025-06-16T09:48:48.043Z</time>
      </trkpt>
      <trkpt lat="48.62785" lon="1.85482">
        <ele>173</ele>
        <time>2025-06-16T09:48:52.483Z</time>
      </trkpt>
      <trkpt lat="48.62782" lon="1.85489">
        <ele>173</ele>
        <time>2025-06-16T09:48:56.707Z</time>
      </trkpt>
      <trkpt lat="48.62779" lon="1.85496">
        <ele>173</ele>
        <time>2025-06-16T09:49:01.153Z</time>
      </trkpt>
      <trkpt lat="48.62775" lon="1.85503">
        <ele>173</ele>
        <time>2025-06-16T09:49:05.725Z</time>
      </trkpt>
      <trkpt lat="48.62771" lon="1.85511">
        <ele>173</ele>
        <time>2025-06-16T09:49:10.194Z</time>
      </trkpt>
      <trkpt lat="48.62768" lon="1.85518">
        <ele>174</ele>
        <time>2025-06-16T09:49:14.554Z</time>
      </trkpt>
      <trkpt lat="48.62765" lon="1.85527">
        <ele>174</ele>
        <time>2025-06-16T09:49:18.875Z</time>
      </trkpt>
      <trkpt lat="48.62762" lon="1.85534">
        <ele>173</ele>
        <time>2025-06-16T09:49:23.216Z</time>
      </trkpt>
      <trkpt lat="48.62759" lon="1.85541">
        <ele>173</ele>
        <time>2025-06-16T09:49:27.726Z</time>
      </trkpt>
      <trkpt lat="48.62755" lon="1.85549">
        <ele>173</ele>
        <time>2025-06-16T09:49:31.906Z</time>
      </trkpt>
      <trkpt lat="48.62752" lon="1.85557">
        <ele>173</ele>
        <time>2025-06-16T09:49:36.265Z</time>
      </trkpt>
      <trkpt lat="48.62749" lon="1.85566">
        <ele>173</ele>
        <time>2025-06-16T09:49:40.566Z</time>
      </trkpt>
      <trkpt lat="48.62745" lon="1.85573">
        <ele>173</ele>
        <time>2025-06-16T09:49:44.930Z</time>
      </trkpt>
      <trkpt lat="48.6274" lon="1.85582">
        <ele>173</ele>
        <time>2025-06-16T09:49:49.733Z</time>
      </trkpt>
      <trkpt lat="48.62736" lon="1.85589">
        <ele>174</ele>
        <time>2025-06-16T09:49:53.726Z</time>
      </trkpt>
      <trkpt lat="48.62736" lon="1.85601">
        <ele>173</ele>
        <time>2025-06-16T09:49:58.726Z</time>
      </trkpt>
      <trkpt lat="48.6273" lon="1.85605">
        <ele>173</ele>
        <time>2025-06-16T09:50:03.448Z</time>
      </trkpt>
      <trkpt lat="48.62727" lon="1.85611">
        <ele>173</ele>
        <time>2025-06-16T09:50:07.733Z</time>
      </trkpt>
      <trkpt lat="48.62725" lon="1.85619">
        <ele>173</ele>
        <time>2025-06-16T09:50:12.096Z</time>
      </trkpt>
      <trkpt lat="48.62721" lon="1.85627">
        <ele>173</ele>
        <time>2025-06-16T09:50:16.489Z</time>
      </trkpt>
      <trkpt lat="48.62719" lon="1.85634">
        <ele>173</ele>
        <time>2025-06-16T09:50:20.726Z</time>
      </trkpt>
      <trkpt lat="48.62715" lon="1.8564">
        <ele>173</ele>
        <time>2025-06-16T09:50:25.026Z</time>
      </trkpt>
      <trkpt lat="48.62711" lon="1.85641">
        <ele>173</ele>
        <time>2025-06-16T09:50:29.308Z</time>
      </trkpt>
      <trkpt lat="48.62706" lon="1.85649">
        <ele>173</ele>
        <time>2025-06-16T09:50:33.726Z</time>
      </trkpt>
      <trkpt lat="48.62704" lon="1.85659">
        <ele>173</ele>
        <time>2025-06-16T09:50:37.808Z</time>
      </trkpt>
      <trkpt lat="48.62702" lon="1.85668">
        <ele>173</ele>
        <time>2025-06-16T09:50:42.136Z</time>
      </trkpt>
      <trkpt lat="48.62699" lon="1.85678">
        <ele>173</ele>
        <time>2025-06-16T09:50:46.511Z</time>
      </trkpt>
      <trkpt lat="48.62695" lon="1.85685">
        <ele>173</ele>
        <time>2025-06-16T09:50:50.664Z</time>
      </trkpt>
      <trkpt lat="48.62692" lon="1.85692">
        <ele>173</ele>
        <time>2025-06-16T09:50:54.726Z</time>
      </trkpt>
      <trkpt lat="48.62687" lon="1.85699">
        <ele>173</ele>
        <time>2025-06-16T09:50:59.253Z</time>
      </trkpt>
      <trkpt lat="48.62684" lon="1.85707">
        <ele>173</ele>
        <time>2025-06-16T09:51:03.725Z</time>
      </trkpt>
      <trkpt lat="48.62681" lon="1.85714">
        <ele>173</ele>
        <time>2025-06-16T09:51:07.928Z</time>
      </trkpt>
      <trkpt lat="48.62677" lon="1.85724">
        <ele>173</ele>
        <time>2025-06-16T09:51:12.373Z</time>
      </trkpt>
      <trkpt lat="48.62674" lon="1.85731">
        <ele>173</ele>
        <time>2025-06-16T09:51:16.583Z</time>
      </trkpt>
      <trkpt lat="48.62671" lon="1.85739">
        <ele>173</ele>
        <time>2025-06-16T09:51:21.028Z</time>
      </trkpt>
      <trkpt lat="48.62668" lon="1.85747">
        <ele>173</ele>
        <time>2025-06-16T09:51:25.210Z</time>
      </trkpt>
      <trkpt lat="48.62664" lon="1.85754">
        <ele>173</ele>
        <time>2025-06-16T09:51:29.629Z</time>
      </trkpt>
      <trkpt lat="48.62659" lon="1.85762">
        <ele>173</ele>
        <time>2025-06-16T09:51:34.364Z</time>
      </trkpt>
      <trkpt lat="48.62657" lon="1.85771">
        <ele>173</ele>
        <time>2025-06-16T09:51:38.890Z</time>
      </trkpt>
      <trkpt lat="48.62653" lon="1.85778">
        <ele>173</ele>
        <time>2025-06-16T09:51:43.169Z</time>
      </trkpt>
      <trkpt lat="48.6265" lon="1.85785">
        <ele>173</ele>
        <time>2025-06-16T09:51:47.725Z</time>
      </trkpt>
      <trkpt lat="48.62647" lon="1.85791">
        <ele>173</ele>
        <time>2025-06-16T09:51:52.725Z</time>
      </trkpt>
      <trkpt lat="48.6265" lon="1.85795">
        <ele>173</ele>
        <time>2025-06-16T09:51:56.725Z</time>
      </trkpt>
      <trkpt lat="48.62649" lon="1.85803">
        <ele>173</ele>
        <time>2025-06-16T09:52:01.427Z</time>
      </trkpt>
      <trkpt lat="48.62647" lon="1.85809">
        <ele>173</ele>
        <time>2025-06-16T09:52:05.473Z</time>
      </trkpt>
      <trkpt lat="48.62641" lon="1.85815">
        <ele>173</ele>
        <time>2025-06-16T09:52:10.309Z</time>
      </trkpt>
      <trkpt lat="48.62635" lon="1.8582">
        <ele>173</ele>
        <time>2025-06-16T09:52:14.725Z</time>
      </trkpt>
      <trkpt lat="48.62629" lon="1.85817">
        <ele>173</ele>
        <time>2025-06-16T09:52:19.272Z</time>
      </trkpt>
      <trkpt lat="48.62622" lon="1.85817">
        <ele>173</ele>
        <time>2025-06-16T09:52:23.513Z</time>
      </trkpt>
      <trkpt lat="48.62616" lon="1.8582">
        <ele>173</ele>
        <time>2025-06-16T09:52:27.724Z</time>
      </trkpt>
      <trkpt lat="48.6261" lon="1.85823">
        <ele>173</ele>
        <time>2025-06-16T09:52:32.424Z</time>
      </trkpt>
      <trkpt lat="48.62607" lon="1.85832">
        <ele>173</ele>
        <time>2025-06-16T09:52:37.305Z</time>
      </trkpt>
      <trkpt lat="48.62605" lon="1.85839">
        <ele>173</ele>
        <time>2025-06-16T09:52:41.487Z</time>
      </trkpt>
      <trkpt lat="48.62604" lon="1.85847">
        <ele>173</ele>
        <time>2025-06-16T09:52:45.654Z</time>
      </trkpt>
      <trkpt lat="48.62601" lon="1.85854">
        <ele>173</ele>
        <time>2025-06-16T09:52:49.725Z</time>
      </trkpt>
      <trkpt lat="48.62596" lon="1.8586">
        <ele>174</ele>
        <time>2025-06-16T09:52:54.392Z</time>
      </trkpt>
      <trkpt lat="48.62595" lon="1.85867">
        <ele>174</ele>
        <time>2025-06-16T09:52:58.724Z</time>
      </trkpt>
      <trkpt lat="48.62592" lon="1.85876">
        <ele>174</ele>
        <time>2025-06-16T09:53:03.534Z</time>
      </trkpt>
      <trkpt lat="48.62589" lon="1.85882">
        <ele>174</ele>
        <time>2025-06-16T09:53:07.725Z</time>
      </trkpt>
      <trkpt lat="48.62585" lon="1.8589">
        <ele>174</ele>
        <time>2025-06-16T09:53:12.430Z</time>
      </trkpt>
      <trkpt lat="48.62583" lon="1.859">
        <ele>174</ele>
        <time>2025-06-16T09:53:16.725Z</time>
      </trkpt>
      <trkpt lat="48.6258" lon="1.85908">
        <ele>174</ele>
        <time>2025-06-16T09:53:21.129Z</time>
      </trkpt>
      <trkpt lat="48.62579" lon="1.85916">
        <ele>174</ele>
        <time>2025-06-16T09:53:25.190Z</time>
      </trkpt>
      <trkpt lat="48.62575" lon="1.85923">
        <ele>174</ele>
        <time>2025-06-16T09:53:29.725Z</time>
      </trkpt>
      <trkpt lat="48.62571" lon="1.85932">
        <ele>174</ele>
        <time>2025-06-16T09:53:34.708Z</time>
      </trkpt>
      <trkpt lat="48.62575" lon="1.85934">
        <ele>174</ele>
        <time>2025-06-16T09:53:39.112Z</time>
      </trkpt>
      <trkpt lat="48.62572" lon="1.85939">
        <ele>174</ele>
        <time>2025-06-16T09:53:43.725Z</time>
      </trkpt>
      <trkpt lat="48.62568" lon="1.85947">
        <ele>173</ele>
        <time>2025-06-16T09:53:48.355Z</time>
      </trkpt>
      <trkpt lat="48.62564" lon="1.85951">
        <ele>173</ele>
        <time>2025-06-16T09:53:52.673Z</time>
      </trkpt>
      <trkpt lat="48.62558" lon="1.85954">
        <ele>173</ele>
        <time>2025-06-16T09:53:57.149Z</time>
      </trkpt>
      <trkpt lat="48.62552" lon="1.85959">
        <ele>173</ele>
        <time>2025-06-16T09:54:01.724Z</time>
      </trkpt>
      <trkpt lat="48.62548" lon="1.85966">
        <ele>173</ele>
        <time>2025-06-16T09:54:06.397Z</time>
      </trkpt>
      <trkpt lat="48.62545" lon="1.85974">
        <ele>173</ele>
        <time>2025-06-16T09:54:11.034Z</time>
      </trkpt>
      <trkpt lat="48.62543" lon="1.85982">
        <ele>173</ele>
        <time>2025-06-16T09:54:15.616Z</time>
      </trkpt>
      <trkpt lat="48.6254" lon="1.85991">
        <ele>172</ele>
        <time>2025-06-16T09:54:20.125Z</time>
      </trkpt>
      <trkpt lat="48.62539" lon="1.86">
        <ele>172</ele>
        <time>2025-06-16T09:54:24.528Z</time>
      </trkpt>
      <trkpt lat="48.62537" lon="1.86008">
        <ele>172</ele>
        <time>2025-06-16T09:54:28.725Z</time>
      </trkpt>
      <trkpt lat="48.62534" lon="1.86018">
        <ele>173</ele>
        <time>2025-06-16T09:54:33.248Z</time>
      </trkpt>
      <trkpt lat="48.6253" lon="1.86025">
        <ele>173</ele>
        <time>2025-06-16T09:54:37.673Z</time>
      </trkpt>
      <trkpt lat="48.62525" lon="1.86032">
        <ele>173</ele>
        <time>2025-06-16T09:54:41.725Z</time>
      </trkpt>
      <trkpt lat="48.6252" lon="1.86039">
        <ele>173</ele>
        <time>2025-06-16T09:54:46.714Z</time>
      </trkpt>
      <trkpt lat="48.62516" lon="1.86047">
        <ele>173</ele>
        <time>2025-06-16T09:54:51.493Z</time>
      </trkpt>
      <trkpt lat="48.62513" lon="1.86055">
        <ele>175</ele>
        <time>2025-06-16T09:54:56.012Z</time>
      </trkpt>
      <trkpt lat="48.62511" lon="1.86063">
        <ele>175</ele>
        <time>2025-06-16T09:55:00.047Z</time>
      </trkpt>
      <trkpt lat="48.62509" lon="1.86071">
        <ele>175</ele>
        <time>2025-06-16T09:55:04.347Z</time>
      </trkpt>
      <trkpt lat="48.62508" lon="1.86077">
        <ele>175</ele>
        <time>2025-06-16T09:55:08.545Z</time>
      </trkpt>
      <trkpt lat="48.62506" lon="1.86085">
        <ele>175</ele>
        <time>2025-06-16T09:55:12.908Z</time>
      </trkpt>
      <trkpt lat="48.62509" lon="1.8609">
        <ele>175</ele>
        <time>2025-06-16T09:55:16.983Z</time>
      </trkpt>
      <trkpt lat="48.62513" lon="1.86092">
        <ele>175</ele>
        <time>2025-06-16T09:55:21.508Z</time>
      </trkpt>
      <trkpt lat="48.62519" lon="1.86095">
        <ele>174</ele>
        <time>2025-06-16T09:55:41.725Z</time>
      </trkpt>
      <trkpt lat="48.62519" lon="1.86095">
        <ele>174</ele>
        <time>2025-06-16T09:55:46.725Z</time>
      </trkpt>
      <trkpt lat="48.62517" lon="1.86097">
        <ele>174</ele>
        <time>2025-06-16T09:55:51.725Z</time>
      </trkpt>
      <trkpt lat="48.62513" lon="1.86104">
        <ele>175</ele>
        <time>2025-06-16T09:55:56.252Z</time>
      </trkpt>
      <trkpt lat="48.62509" lon="1.86111">
        <ele>175</ele>
        <time>2025-06-16T09:56:00.552Z</time>
      </trkpt>
      <trkpt lat="48.62507" lon="1.86117">
        <ele>175</ele>
        <time>2025-06-16T09:56:04.595Z</time>
      </trkpt>
      <trkpt lat="48.62502" lon="1.86123">
        <ele>175</ele>
        <time>2025-06-16T09:56:08.729Z</time>
      </trkpt>
      <trkpt lat="48.62499" lon="1.86132">
        <ele>176</ele>
        <time>2025-06-16T09:56:12.928Z</time>
      </trkpt>
      <trkpt lat="48.62495" lon="1.86139">
        <ele>176</ele>
        <time>2025-06-16T09:56:17.090Z</time>
      </trkpt>
      <trkpt lat="48.62492" lon="1.86147">
        <ele>176</ele>
        <time>2025-06-16T09:56:21.468Z</time>
      </trkpt>
      <trkpt lat="48.62489" lon="1.86155">
        <ele>177</ele>
        <time>2025-06-16T09:56:25.873Z</time>
      </trkpt>
      <trkpt lat="48.62486" lon="1.86162">
        <ele>174</ele>
        <time>2025-06-16T09:56:30.370Z</time>
      </trkpt>
      <trkpt lat="48.62482" lon="1.86169">
        <ele>174</ele>
        <time>2025-06-16T09:56:34.713Z</time>
      </trkpt>
      <trkpt lat="48.62478" lon="1.86177">
        <ele>174</ele>
        <time>2025-06-16T09:56:38.724Z</time>
      </trkpt>
      <trkpt lat="48.62475" lon="1.86186">
        <ele>174</ele>
        <time>2025-06-16T09:56:43.725Z</time>
      </trkpt>
      <trkpt lat="48.62472" lon="1.86192">
        <ele>174</ele>
        <time>2025-06-16T09:56:47.940Z</time>
      </trkpt>
      <trkpt lat="48.6247" lon="1.86197">
        <ele>174</ele>
        <time>2025-06-16T09:56:52.549Z</time>
      </trkpt>
      <trkpt lat="48.62469" lon="1.86205">
        <ele>174</ele>
        <time>2025-06-16T09:56:56.725Z</time>
      </trkpt>
      <trkpt lat="48.62465" lon="1.86209">
        <ele>174</ele>
        <time>2025-06-16T09:57:00.914Z</time>
      </trkpt>
      <trkpt lat="48.62462" lon="1.86216">
        <ele>174</ele>
        <time>2025-06-16T09:57:05.367Z</time>
      </trkpt>
      <trkpt lat="48.62459" lon="1.86223">
        <ele>174</ele>
        <time>2025-06-16T09:57:09.725Z</time>
      </trkpt>
      <trkpt lat="48.62455" lon="1.86231">
        <ele>174</ele>
        <time>2025-06-16T09:57:14.215Z</time>
      </trkpt>
      <trkpt lat="48.62452" lon="1.86239">
        <ele>174</ele>
        <time>2025-06-16T09:57:18.708Z</time>
      </trkpt>
      <trkpt lat="48.62449" lon="1.86245">
        <ele>174</ele>
        <time>2025-06-16T09:57:22.725Z</time>
      </trkpt>
      <trkpt lat="48.62446" lon="1.86253">
        <ele>174</ele>
        <time>2025-06-16T09:57:27.326Z</time>
      </trkpt>
      <trkpt lat="48.62442" lon="1.8626">
        <ele>174</ele>
        <time>2025-06-16T09:57:31.725Z</time>
      </trkpt>
      <trkpt lat="48.62439" lon="1.86267">
        <ele>173</ele>
        <time>2025-06-16T09:57:35.725Z</time>
      </trkpt>
      <trkpt lat="48.62435" lon="1.86276">
        <ele>173</ele>
        <time>2025-06-16T09:57:40.455Z</time>
      </trkpt>
      <trkpt lat="48.62432" lon="1.86285">
        <ele>173</ele>
        <time>2025-06-16T09:57:44.914Z</time>
      </trkpt>
      <trkpt lat="48.62428" lon="1.86293">
        <ele>175</ele>
        <time>2025-06-16T09:57:49.393Z</time>
      </trkpt>
      <trkpt lat="48.62425" lon="1.863">
        <ele>175</ele>
        <time>2025-06-16T09:57:53.810Z</time>
      </trkpt>
      <trkpt lat="48.62422" lon="1.86308">
        <ele>175</ele>
        <time>2025-06-16T09:57:58.306Z</time>
      </trkpt>
      <trkpt lat="48.62419" lon="1.86315">
        <ele>175</ele>
        <time>2025-06-16T09:58:02.725Z</time>
      </trkpt>
      <trkpt lat="48.62415" lon="1.86322">
        <ele>175</ele>
        <time>2025-06-16T09:58:07.029Z</time>
      </trkpt>
      <trkpt lat="48.62411" lon="1.8633">
        <ele>175</ele>
        <time>2025-06-16T09:58:11.509Z</time>
      </trkpt>
      <trkpt lat="48.62407" lon="1.86335">
        <ele>175</ele>
        <time>2025-06-16T09:58:15.724Z</time>
      </trkpt>
      <trkpt lat="48.62404" lon="1.86344">
        <ele>175</ele>
        <time>2025-06-16T09:58:20.372Z</time>
      </trkpt>
      <trkpt lat="48.62401" lon="1.86351">
        <ele>176</ele>
        <time>2025-06-16T09:58:24.725Z</time>
      </trkpt>
      <trkpt lat="48.62398" lon="1.86358">
        <ele>176</ele>
        <time>2025-06-16T09:58:29.056Z</time>
      </trkpt>
      <trkpt lat="48.62396" lon="1.86365">
        <ele>176</ele>
        <time>2025-06-16T09:58:33.725Z</time>
      </trkpt>
      <trkpt lat="48.62392" lon="1.86371">
        <ele>176</ele>
        <time>2025-06-16T09:58:38.406Z</time>
      </trkpt>
      <trkpt lat="48.62387" lon="1.86378">
        <ele>177</ele>
        <time>2025-06-16T09:58:42.856Z</time>
      </trkpt>
      <trkpt lat="48.62384" lon="1.86386">
        <ele>177</ele>
        <time>2025-06-16T09:58:47.232Z</time>
      </trkpt>
      <trkpt lat="48.62382" lon="1.86393">
        <ele>177</ele>
        <time>2025-06-16T09:58:51.269Z</time>
      </trkpt>
      <trkpt lat="48.62378" lon="1.86398">
        <ele>177</ele>
        <time>2025-06-16T09:58:55.415Z</time>
      </trkpt>
      <trkpt lat="48.62375" lon="1.86407">
        <ele>177</ele>
        <time>2025-06-16T09:58:59.725Z</time>
      </trkpt>
      <trkpt lat="48.62373" lon="1.86417">
        <ele>177</ele>
        <time>2025-06-16T09:59:04.725Z</time>
      </trkpt>
      <trkpt lat="48.62369" lon="1.86425">
        <ele>177</ele>
        <time>2025-06-16T09:59:09.148Z</time>
      </trkpt>
      <trkpt lat="48.62366" lon="1.86432">
        <ele>176</ele>
        <time>2025-06-16T09:59:13.465Z</time>
      </trkpt>
      <trkpt lat="48.62363" lon="1.8644">
        <ele>176</ele>
        <time>2025-06-16T09:59:17.949Z</time>
      </trkpt>
      <trkpt lat="48.6236" lon="1.86448">
        <ele>176</ele>
        <time>2025-06-16T09:59:22.573Z</time>
      </trkpt>
      <trkpt lat="48.62357" lon="1.86455">
        <ele>176</ele>
        <time>2025-06-16T09:59:26.916Z</time>
      </trkpt>
      <trkpt lat="48.62353" lon="1.86462">
        <ele>176</ele>
        <time>2025-06-16T09:59:31.250Z</time>
      </trkpt>
      <trkpt lat="48.6235" lon="1.8647">
        <ele>176</ele>
        <time>2025-06-16T09:59:35.444Z</time>
      </trkpt>
      <trkpt lat="48.62347" lon="1.86478">
        <ele>176</ele>
        <time>2025-06-16T09:59:39.724Z</time>
      </trkpt>
      <trkpt lat="48.62344" lon="1.86487">
        <ele>175</ele>
        <time>2025-06-16T09:59:44.590Z</time>
      </trkpt>
      <trkpt lat="48.62341" lon="1.86493">
        <ele>175</ele>
        <time>2025-06-16T09:59:48.625Z</time>
      </trkpt>
      <trkpt lat="48.62337" lon="1.865">
        <ele>175</ele>
        <time>2025-06-16T09:59:52.724Z</time>
      </trkpt>
      <trkpt lat="48.62333" lon="1.86508">
        <ele>175</ele>
        <time>2025-06-16T09:59:57.315Z</time>
      </trkpt>
      <trkpt lat="48.62329" lon="1.86515">
        <ele>174</ele>
        <time>2025-06-16T10:00:01.573Z</time>
      </trkpt>
      <trkpt lat="48.62326" lon="1.86522">
        <ele>174</ele>
        <time>2025-06-16T10:00:05.725Z</time>
      </trkpt>
      <trkpt lat="48.62323" lon="1.8653">
        <ele>174</ele>
        <time>2025-06-16T10:00:10.013Z</time>
      </trkpt>
      <trkpt lat="48.6232" lon="1.86537">
        <ele>174</ele>
        <time>2025-06-16T10:00:14.350Z</time>
      </trkpt>
      <trkpt lat="48.62317" lon="1.86545">
        <ele>173</ele>
        <time>2025-06-16T10:00:18.829Z</time>
      </trkpt>
      <trkpt lat="48.62314" lon="1.86553">
        <ele>173</ele>
        <time>2025-06-16T10:00:23.249Z</time>
      </trkpt>
      <trkpt lat="48.62306" lon="1.86559">
        <ele>173</ele>
        <time>2025-06-16T10:00:41.724Z</time>
      </trkpt>
      <trkpt lat="48.62305" lon="1.86559">
        <ele>173</ele>
        <time>2025-06-16T10:00:46.724Z</time>
      </trkpt>
      <trkpt lat="48.62305" lon="1.86559">
        <ele>173</ele>
        <time>2025-06-16T10:00:51.226Z</time>
      </trkpt>
      <trkpt lat="48.62303" lon="1.86559">
        <ele>173</ele>
        <time>2025-06-16T10:00:55.287Z</time>
      </trkpt>
      <trkpt lat="48.62303" lon="1.86553">
        <ele>173</ele>
        <time>2025-06-16T10:00:59.353Z</time>
      </trkpt>
      <trkpt lat="48.62297" lon="1.86547">
        <ele>173</ele>
        <time>2025-06-16T10:01:03.724Z</time>
      </trkpt>
      <trkpt lat="48.62295" lon="1.86543">
        <ele>173</ele>
        <time>2025-06-16T10:01:08.128Z</time>
      </trkpt>
      <trkpt lat="48.6229" lon="1.86541">
        <ele>173</ele>
        <time>2025-06-16T10:01:12.548Z</time>
      </trkpt>
      <trkpt lat="48.62286" lon="1.86536">
        <ele>173</ele>
        <time>2025-06-16T10:01:17.014Z</time>
      </trkpt>
      <trkpt lat="48.62281" lon="1.86532">
        <ele>173</ele>
        <time>2025-06-16T10:01:21.433Z</time>
      </trkpt>
      <trkpt lat="48.62277" lon="1.86527">
        <ele>173</ele>
        <time>2025-06-16T10:01:25.724Z</time>
      </trkpt>
      <trkpt lat="48.62272" lon="1.86522">
        <ele>173</ele>
        <time>2025-06-16T10:01:30.153Z</time>
      </trkpt>
      <trkpt lat="48.62267" lon="1.86516">
        <ele>173</ele>
        <time>2025-06-16T10:01:34.454Z</time>
      </trkpt>
      <trkpt lat="48.62262" lon="1.86511">
        <ele>173</ele>
        <time>2025-06-16T10:01:38.724Z</time>
      </trkpt>
      <trkpt lat="48.62257" lon="1.86506">
        <ele>173</ele>
        <time>2025-06-16T10:01:43.207Z</time>
      </trkpt>
      <trkpt lat="48.62253" lon="1.86501">
        <ele>173</ele>
        <time>2025-06-16T10:01:47.507Z</time>
      </trkpt>
      <trkpt lat="48.62247" lon="1.86496">
        <ele>173</ele>
        <time>2025-06-16T10:01:51.847Z</time>
      </trkpt>
      <trkpt lat="48.62242" lon="1.8649">
        <ele>173</ele>
        <time>2025-06-16T10:01:56.164Z</time>
      </trkpt>
      <trkpt lat="48.62237" lon="1.86483">
        <ele>173</ele>
        <time>2025-06-16T10:02:00.495Z</time>
      </trkpt>
      <trkpt lat="48.62232" lon="1.86479">
        <ele>174</ele>
        <time>2025-06-16T10:02:04.724Z</time>
      </trkpt>
      <trkpt lat="48.62226" lon="1.86473">
        <ele>174</ele>
        <time>2025-06-16T10:02:09.211Z</time>
      </trkpt>
      <trkpt lat="48.62222" lon="1.86467">
        <ele>174</ele>
        <time>2025-06-16T10:02:13.724Z</time>
      </trkpt>
      <trkpt lat="48.62217" lon="1.86461">
        <ele>174</ele>
        <time>2025-06-16T10:02:17.845Z</time>
      </trkpt>
      <trkpt lat="48.62213" lon="1.86456">
        <ele>174</ele>
        <time>2025-06-16T10:02:22.145Z</time>
      </trkpt>
      <trkpt lat="48.62208" lon="1.86451">
        <ele>174</ele>
        <time>2025-06-16T10:02:26.417Z</time>
      </trkpt>
      <trkpt lat="48.62203" lon="1.86445">
        <ele>174</ele>
        <time>2025-06-16T10:02:30.724Z</time>
      </trkpt>
      <trkpt lat="48.62199" lon="1.8644">
        <ele>174</ele>
        <time>2025-06-16T10:02:34.904Z</time>
      </trkpt>
      <trkpt lat="48.62193" lon="1.86436">
        <ele>174</ele>
        <time>2025-06-16T10:02:39.084Z</time>
      </trkpt>
      <trkpt lat="48.62189" lon="1.86431">
        <ele>174</ele>
        <time>2025-06-16T10:02:43.321Z</time>
      </trkpt>
      <trkpt lat="48.62184" lon="1.86425">
        <ele>174</ele>
        <time>2025-06-16T10:02:47.520Z</time>
      </trkpt>
      <trkpt lat="48.6218" lon="1.8642">
        <ele>172</ele>
        <time>2025-06-16T10:02:51.845Z</time>
      </trkpt>
      <trkpt lat="48.62174" lon="1.86414">
        <ele>172</ele>
        <time>2025-06-16T10:02:56.164Z</time>
      </trkpt>
      <trkpt lat="48.62169" lon="1.86407">
        <ele>172</ele>
        <time>2025-06-16T10:03:00.462Z</time>
      </trkpt>
      <trkpt lat="48.62164" lon="1.86401">
        <ele>172</ele>
        <time>2025-06-16T10:03:04.810Z</time>
      </trkpt>
      <trkpt lat="48.62159" lon="1.86396">
        <ele>172</ele>
        <time>2025-06-16T10:03:09.050Z</time>
      </trkpt>
      <trkpt lat="48.62154" lon="1.86391">
        <ele>172</ele>
        <time>2025-06-16T10:03:13.286Z</time>
      </trkpt>
      <trkpt lat="48.62149" lon="1.86386">
        <ele>172</ele>
        <time>2025-06-16T10:03:17.518Z</time>
      </trkpt>
      <trkpt lat="48.62143" lon="1.8638">
        <ele>172</ele>
        <time>2025-06-16T10:03:22.283Z</time>
      </trkpt>
      <trkpt lat="48.62138" lon="1.86375">
        <ele>172</ele>
        <time>2025-06-16T10:03:26.489Z</time>
      </trkpt>
      <trkpt lat="48.62133" lon="1.8637">
        <ele>173</ele>
        <time>2025-06-16T10:03:30.704Z</time>
      </trkpt>
      <trkpt lat="48.62129" lon="1.86364">
        <ele>173</ele>
        <time>2025-06-16T10:03:34.928Z</time>
      </trkpt>
      <trkpt lat="48.62124" lon="1.86358">
        <ele>173</ele>
        <time>2025-06-16T10:03:39.603Z</time>
      </trkpt>
      <trkpt lat="48.62119" lon="1.86352">
        <ele>173</ele>
        <time>2025-06-16T10:03:43.886Z</time>
      </trkpt>
      <trkpt lat="48.62114" lon="1.86346">
        <ele>173</ele>
        <time>2025-06-16T10:03:48.110Z</time>
      </trkpt>
      <trkpt lat="48.62109" lon="1.8634">
        <ele>173</ele>
        <time>2025-06-16T10:03:52.724Z</time>
      </trkpt>
      <trkpt lat="48.62103" lon="1.86334">
        <ele>173</ele>
        <time>2025-06-16T10:03:57.068Z</time>
      </trkpt>
      <trkpt lat="48.62097" lon="1.86329">
        <ele>173</ele>
        <time>2025-06-16T10:04:01.354Z</time>
      </trkpt>
      <trkpt lat="48.62092" lon="1.86324">
        <ele>173</ele>
        <time>2025-06-16T10:04:05.528Z</time>
      </trkpt>
      <trkpt lat="48.62087" lon="1.86319">
        <ele>173</ele>
        <time>2025-06-16T10:04:09.726Z</time>
      </trkpt>
      <trkpt lat="48.62082" lon="1.86314">
        <ele>173</ele>
        <time>2025-06-16T10:04:13.894Z</time>
      </trkpt>
      <trkpt lat="48.62077" lon="1.86309">
        <ele>173</ele>
        <time>2025-06-16T10:04:18.108Z</time>
      </trkpt>
      <trkpt lat="48.62073" lon="1.86302">
        <ele>173</ele>
        <time>2025-06-16T10:04:22.306Z</time>
      </trkpt>
      <trkpt lat="48.62067" lon="1.86295">
        <ele>172</ele>
        <time>2025-06-16T10:04:26.466Z</time>
      </trkpt>
      <trkpt lat="48.62062" lon="1.8629">
        <ele>172</ele>
        <time>2025-06-16T10:04:30.724Z</time>
      </trkpt>
      <trkpt lat="48.62056" lon="1.86285">
        <ele>172</ele>
        <time>2025-06-16T10:04:35.027Z</time>
      </trkpt>
      <trkpt lat="48.62051" lon="1.8628">
        <ele>172</ele>
        <time>2025-06-16T10:04:39.209Z</time>
      </trkpt>
      <trkpt lat="48.62046" lon="1.86274">
        <ele>172</ele>
        <time>2025-06-16T10:04:43.521Z</time>
      </trkpt>
      <trkpt lat="48.62042" lon="1.86268">
        <ele>172</ele>
        <time>2025-06-16T10:04:47.907Z</time>
      </trkpt>
      <trkpt lat="48.62037" lon="1.86262">
        <ele>171</ele>
        <time>2025-06-16T10:04:52.150Z</time>
      </trkpt>
      <trkpt lat="48.62033" lon="1.86256">
        <ele>171</ele>
        <time>2025-06-16T10:04:56.468Z</time>
      </trkpt>
      <trkpt lat="48.62027" lon="1.86249">
        <ele>171</ele>
        <time>2025-06-16T10:05:01.344Z</time>
      </trkpt>
      <trkpt lat="48.62021" lon="1.86244">
        <ele>171</ele>
        <time>2025-06-16T10:05:05.666Z</time>
      </trkpt>
      <trkpt lat="48.62016" lon="1.86237">
        <ele>171</ele>
        <time>2025-06-16T10:05:09.993Z</time>
      </trkpt>
      <trkpt lat="48.62011" lon="1.86231">
        <ele>171</ele>
        <time>2025-06-16T10:05:14.288Z</time>
      </trkpt>
      <trkpt lat="48.62006" lon="1.86226">
        <ele>171</ele>
        <time>2025-06-16T10:05:18.604Z</time>
      </trkpt>
      <trkpt lat="48.62001" lon="1.8622">
        <ele>171</ele>
        <time>2025-06-16T10:05:22.964Z</time>
      </trkpt>
      <trkpt lat="48.61997" lon="1.86214">
        <ele>171</ele>
        <time>2025-06-16T10:05:27.187Z</time>
      </trkpt>
      <trkpt lat="48.61992" lon="1.86209">
        <ele>171</ele>
        <time>2025-06-16T10:05:31.723Z</time>
      </trkpt>
      <trkpt lat="48.61987" lon="1.86204">
        <ele>170</ele>
        <time>2025-06-16T10:05:35.864Z</time>
      </trkpt>
      <trkpt lat="48.61982" lon="1.86199">
        <ele>172</ele>
        <time>2025-06-16T10:05:40.165Z</time>
      </trkpt>
      <trkpt lat="48.61977" lon="1.86194">
        <ele>172</ele>
        <time>2025-06-16T10:05:44.392Z</time>
      </trkpt>
      <trkpt lat="48.61972" lon="1.86189">
        <ele>172</ele>
        <time>2025-06-16T10:05:48.650Z</time>
      </trkpt>
      <trkpt lat="48.61966" lon="1.86183">
        <ele>172</ele>
        <time>2025-06-16T10:05:52.993Z</time>
      </trkpt>
      <trkpt lat="48.61962" lon="1.86178">
        <ele>172</ele>
        <time>2025-06-16T10:05:57.267Z</time>
      </trkpt>
      <trkpt lat="48.61957" lon="1.86173">
        <ele>172</ele>
        <time>2025-06-16T10:06:01.563Z</time>
      </trkpt>
      <trkpt lat="48.61951" lon="1.86166">
        <ele>172</ele>
        <time>2025-06-16T10:06:06.409Z</time>
      </trkpt>
      <trkpt lat="48.61947" lon="1.86161">
        <ele>172</ele>
        <time>2025-06-16T10:06:10.726Z</time>
      </trkpt>
      <trkpt lat="48.61942" lon="1.86155">
        <ele>172</ele>
        <time>2025-06-16T10:06:14.724Z</time>
      </trkpt>
      <trkpt lat="48.61938" lon="1.8615">
        <ele>172</ele>
        <time>2025-06-16T10:06:18.886Z</time>
      </trkpt>
      <trkpt lat="48.61934" lon="1.86145">
        <ele>172</ele>
        <time>2025-06-16T10:06:23.232Z</time>
      </trkpt>
      <trkpt lat="48.61929" lon="1.86139">
        <ele>171</ele>
        <time>2025-06-16T10:06:27.590Z</time>
      </trkpt>
      <trkpt lat="48.61924" lon="1.86135">
        <ele>171</ele>
        <time>2025-06-16T10:06:31.934Z</time>
      </trkpt>
      <trkpt lat="48.61919" lon="1.8613">
        <ele>171</ele>
        <time>2025-06-16T10:06:36.306Z</time>
      </trkpt>
      <trkpt lat="48.61913" lon="1.86134">
        <ele>171</ele>
        <time>2025-06-16T10:06:41.203Z</time>
      </trkpt>
      <trkpt lat="48.61909" lon="1.86143">
        <ele>171</ele>
        <time>2025-06-16T10:06:45.366Z</time>
      </trkpt>
      <trkpt lat="48.61905" lon="1.86151">
        <ele>171</ele>
        <time>2025-06-16T10:06:49.731Z</time>
      </trkpt>
      <trkpt lat="48.61901" lon="1.86159">
        <ele>171</ele>
        <time>2025-06-16T10:06:54.193Z</time>
      </trkpt>
      <trkpt lat="48.61898" lon="1.86167">
        <ele>171</ele>
        <time>2025-06-16T10:06:58.493Z</time>
      </trkpt>
      <trkpt lat="48.61895" lon="1.86175">
        <ele>171</ele>
        <time>2025-06-16T10:07:02.913Z</time>
      </trkpt>
      <trkpt lat="48.61891" lon="1.86182">
        <ele>170</ele>
        <time>2025-06-16T10:07:07.386Z</time>
      </trkpt>
      <trkpt lat="48.61888" lon="1.8619">
        <ele>170</ele>
        <time>2025-06-16T10:07:11.724Z</time>
      </trkpt>
      <trkpt lat="48.61885" lon="1.86199">
        <ele>170</ele>
        <time>2025-06-16T10:07:16.166Z</time>
      </trkpt>
      <trkpt lat="48.61881" lon="1.86207">
        <ele>170</ele>
        <time>2025-06-16T10:07:20.724Z</time>
      </trkpt>
      <trkpt lat="48.61878" lon="1.86216">
        <ele>171</ele>
        <time>2025-06-16T10:07:24.886Z</time>
      </trkpt>
      <trkpt lat="48.61875" lon="1.86224">
        <ele>170</ele>
        <time>2025-06-16T10:07:29.293Z</time>
      </trkpt>
      <trkpt lat="48.61872" lon="1.86233">
        <ele>170</ele>
        <time>2025-06-16T10:07:33.730Z</time>
      </trkpt>
      <trkpt lat="48.61869" lon="1.86241">
        <ele>171</ele>
        <time>2025-06-16T10:07:37.893Z</time>
      </trkpt>
      <trkpt lat="48.61865" lon="1.86249">
        <ele>171</ele>
        <time>2025-06-16T10:07:42.268Z</time>
      </trkpt>
      <trkpt lat="48.61861" lon="1.86257">
        <ele>171</ele>
        <time>2025-06-16T10:07:46.670Z</time>
      </trkpt>
      <trkpt lat="48.61858" lon="1.86265">
        <ele>171</ele>
        <time>2025-06-16T10:07:51.147Z</time>
      </trkpt>
      <trkpt lat="48.61855" lon="1.86273">
        <ele>171</ele>
        <time>2025-06-16T10:07:55.541Z</time>
      </trkpt>
      <trkpt lat="48.61852" lon="1.86281">
        <ele>171</ele>
        <time>2025-06-16T10:07:59.724Z</time>
      </trkpt>
      <trkpt lat="48.6185" lon="1.86289">
        <ele>171</ele>
        <time>2025-06-16T10:08:04.172Z</time>
      </trkpt>
      <trkpt lat="48.61846" lon="1.86297">
        <ele>170</ele>
        <time>2025-06-16T10:08:08.487Z</time>
      </trkpt>
      <trkpt lat="48.61843" lon="1.86305">
        <ele>170</ele>
        <time>2025-06-16T10:08:13.052Z</time>
      </trkpt>
      <trkpt lat="48.61839" lon="1.86313">
        <ele>170</ele>
        <time>2025-06-16T10:08:17.369Z</time>
      </trkpt>
      <trkpt lat="48.61836" lon="1.86321">
        <ele>169</ele>
        <time>2025-06-16T10:08:21.724Z</time>
      </trkpt>
      <trkpt lat="48.61832" lon="1.86328">
        <ele>169</ele>
        <time>2025-06-16T10:08:26.127Z</time>
      </trkpt>
      <trkpt lat="48.61829" lon="1.86336">
        <ele>169</ele>
        <time>2025-06-16T10:08:30.488Z</time>
      </trkpt>
      <trkpt lat="48.61827" lon="1.86344">
        <ele>169</ele>
        <time>2025-06-16T10:08:34.724Z</time>
      </trkpt>
      <trkpt lat="48.61824" lon="1.86353">
        <ele>170</ele>
        <time>2025-06-16T10:08:39.347Z</time>
      </trkpt>
      <trkpt lat="48.6182" lon="1.8636">
        <ele>170</ele>
        <time>2025-06-16T10:08:43.633Z</time>
      </trkpt>
      <trkpt lat="48.61816" lon="1.86368">
        <ele>169</ele>
        <time>2025-06-16T10:08:48.093Z</time>
      </trkpt>
      <trkpt lat="48.61813" lon="1.86376">
        <ele>171</ele>
        <time>2025-06-16T10:08:52.470Z</time>
      </trkpt>
      <trkpt lat="48.6181" lon="1.86384">
        <ele>171</ele>
        <time>2025-06-16T10:08:56.724Z</time>
      </trkpt>
      <trkpt lat="48.61807" lon="1.86393">
        <ele>171</ele>
        <time>2025-06-16T10:09:01.245Z</time>
      </trkpt>
      <trkpt lat="48.61804" lon="1.86401">
        <ele>171</ele>
        <time>2025-06-16T10:09:05.648Z</time>
      </trkpt>
      <trkpt lat="48.61801" lon="1.86409">
        <ele>173</ele>
        <time>2025-06-16T10:09:10.186Z</time>
      </trkpt>
      <trkpt lat="48.61798" lon="1.86417">
        <ele>173</ele>
        <time>2025-06-16T10:09:14.724Z</time>
      </trkpt>
      <trkpt lat="48.61795" lon="1.86425">
        <ele>173</ele>
        <time>2025-06-16T10:09:18.808Z</time>
      </trkpt>
      <trkpt lat="48.61791" lon="1.86432">
        <ele>173</ele>
        <time>2025-06-16T10:09:23.185Z</time>
      </trkpt>
      <trkpt lat="48.61787" lon="1.8644">
        <ele>173</ele>
        <time>2025-06-16T10:09:27.691Z</time>
      </trkpt>
      <trkpt lat="48.61784" lon="1.86448">
        <ele>173</ele>
        <time>2025-06-16T10:09:32.046Z</time>
      </trkpt>
      <trkpt lat="48.61781" lon="1.86456">
        <ele>173</ele>
        <time>2025-06-16T10:09:36.304Z</time>
      </trkpt>
      <trkpt lat="48.61778" lon="1.86464">
        <ele>174</ele>
        <time>2025-06-16T10:09:40.681Z</time>
      </trkpt>
      <trkpt lat="48.61775" lon="1.86472">
        <ele>174</ele>
        <time>2025-06-16T10:09:45.087Z</time>
      </trkpt>
      <trkpt lat="48.61771" lon="1.8648">
        <ele>174</ele>
        <time>2025-06-16T10:09:49.491Z</time>
      </trkpt>
      <trkpt lat="48.61768" lon="1.86488">
        <ele>174</ele>
        <time>2025-06-16T10:09:53.927Z</time>
      </trkpt>
      <trkpt lat="48.61764" lon="1.86496">
        <ele>174</ele>
        <time>2025-06-16T10:09:58.266Z</time>
      </trkpt>
      <trkpt lat="48.61761" lon="1.86504">
        <ele>173</ele>
        <time>2025-06-16T10:10:02.723Z</time>
      </trkpt>
      <trkpt lat="48.61757" lon="1.86512">
        <ele>173</ele>
        <time>2025-06-16T10:10:07.106Z</time>
      </trkpt>
      <trkpt lat="48.61754" lon="1.8652">
        <ele>173</ele>
        <time>2025-06-16T10:10:11.529Z</time>
      </trkpt>
      <trkpt lat="48.61752" lon="1.86529">
        <ele>173</ele>
        <time>2025-06-16T10:10:15.967Z</time>
      </trkpt>
      <trkpt lat="48.61749" lon="1.86537">
        <ele>173</ele>
        <time>2025-06-16T10:10:20.414Z</time>
      </trkpt>
      <trkpt lat="48.61746" lon="1.86545">
        <ele>173</ele>
        <time>2025-06-16T10:10:24.654Z</time>
      </trkpt>
      <trkpt lat="48.61743" lon="1.86552">
        <ele>173</ele>
        <time>2025-06-16T10:10:28.723Z</time>
      </trkpt>
      <trkpt lat="48.6174" lon="1.8656">
        <ele>173</ele>
        <time>2025-06-16T10:10:32.865Z</time>
      </trkpt>
      <trkpt lat="48.61737" lon="1.86568">
        <ele>173</ele>
        <time>2025-06-16T10:10:37.229Z</time>
      </trkpt>
      <trkpt lat="48.61733" lon="1.86576">
        <ele>172</ele>
        <time>2025-06-16T10:10:41.650Z</time>
      </trkpt>
      <trkpt lat="48.6173" lon="1.86584">
        <ele>172</ele>
        <time>2025-06-16T10:10:46.055Z</time>
      </trkpt>
      <trkpt lat="48.61727" lon="1.86591">
        <ele>172</ele>
        <time>2025-06-16T10:10:50.484Z</time>
      </trkpt>
      <trkpt lat="48.61723" lon="1.86598">
        <ele>172</ele>
        <time>2025-06-16T10:10:54.887Z</time>
      </trkpt>
      <trkpt lat="48.6172" lon="1.86607">
        <ele>172</ele>
        <time>2025-06-16T10:10:59.281Z</time>
      </trkpt>
      <trkpt lat="48.61717" lon="1.86614">
        <ele>172</ele>
        <time>2025-06-16T10:11:03.670Z</time>
      </trkpt>
      <trkpt lat="48.61714" lon="1.86622">
        <ele>172</ele>
        <time>2025-06-16T10:11:08.032Z</time>
      </trkpt>
      <trkpt lat="48.61711" lon="1.8663">
        <ele>171</ele>
        <time>2025-06-16T10:11:12.373Z</time>
      </trkpt>
      <trkpt lat="48.61708" lon="1.8664">
        <ele>171</ele>
        <time>2025-06-16T10:11:17.389Z</time>
      </trkpt>
      <trkpt lat="48.61704" lon="1.86648">
        <ele>171</ele>
        <time>2025-06-16T10:11:21.723Z</time>
      </trkpt>
      <trkpt lat="48.61701" lon="1.86656">
        <ele>171</ele>
        <time>2025-06-16T10:11:26.208Z</time>
      </trkpt>
      <trkpt lat="48.61698" lon="1.86664">
        <ele>171</ele>
        <time>2025-06-16T10:11:30.526Z</time>
      </trkpt>
      <trkpt lat="48.61695" lon="1.86672">
        <ele>171</ele>
        <time>2025-06-16T10:11:34.723Z</time>
      </trkpt>
      <trkpt lat="48.61692" lon="1.8668">
        <ele>171</ele>
        <time>2025-06-16T10:11:39.267Z</time>
      </trkpt>
      <trkpt lat="48.61688" lon="1.86687">
        <ele>173</ele>
        <time>2025-06-16T10:11:43.723Z</time>
      </trkpt>
      <trkpt lat="48.61685" lon="1.86695">
        <ele>173</ele>
        <time>2025-06-16T10:11:47.893Z</time>
      </trkpt>
      <trkpt lat="48.61681" lon="1.86702">
        <ele>173</ele>
        <time>2025-06-16T10:11:52.223Z</time>
      </trkpt>
      <trkpt lat="48.61678" lon="1.8671">
        <ele>173</ele>
        <time>2025-06-16T10:11:56.643Z</time>
      </trkpt>
      <trkpt lat="48.61674" lon="1.86718">
        <ele>173</ele>
        <time>2025-06-16T10:12:00.943Z</time>
      </trkpt>
      <trkpt lat="48.61671" lon="1.86726">
        <ele>173</ele>
        <time>2025-06-16T10:12:05.333Z</time>
      </trkpt>
      <trkpt lat="48.61668" lon="1.86733">
        <ele>173</ele>
        <time>2025-06-16T10:12:09.607Z</time>
      </trkpt>
      <trkpt lat="48.61665" lon="1.86741">
        <ele>172</ele>
        <time>2025-06-16T10:12:13.844Z</time>
      </trkpt>
      <trkpt lat="48.61662" lon="1.8675">
        <ele>172</ele>
        <time>2025-06-16T10:12:18.323Z</time>
      </trkpt>
      <trkpt lat="48.61659" lon="1.86758">
        <ele>172</ele>
        <time>2025-06-16T10:12:22.666Z</time>
      </trkpt>
      <trkpt lat="48.61655" lon="1.86765">
        <ele>172</ele>
        <time>2025-06-16T10:12:26.723Z</time>
      </trkpt>
      <trkpt lat="48.61652" lon="1.86773">
        <ele>172</ele>
        <time>2025-06-16T10:12:31.326Z</time>
      </trkpt>
      <trkpt lat="48.61649" lon="1.86781">
        <ele>172</ele>
        <time>2025-06-16T10:12:35.723Z</time>
      </trkpt>
      <trkpt lat="48.61646" lon="1.86789">
        <ele>172</ele>
        <time>2025-06-16T10:12:40.169Z</time>
      </trkpt>
      <trkpt lat="48.61643" lon="1.86797">
        <ele>171</ele>
        <time>2025-06-16T10:12:44.723Z</time>
      </trkpt>
      <trkpt lat="48.6164" lon="1.86805">
        <ele>171</ele>
        <time>2025-06-16T10:12:48.962Z</time>
      </trkpt>
      <trkpt lat="48.61637" lon="1.86812">
        <ele>171</ele>
        <time>2025-06-16T10:12:53.288Z</time>
      </trkpt>
      <trkpt lat="48.61633" lon="1.8682">
        <ele>171</ele>
        <time>2025-06-16T10:12:57.708Z</time>
      </trkpt>
      <trkpt lat="48.6163" lon="1.86827">
        <ele>171</ele>
        <time>2025-06-16T10:13:01.722Z</time>
      </trkpt>
      <trkpt lat="48.61628" lon="1.86833">
        <ele>171</ele>
        <time>2025-06-16T10:13:05.826Z</time>
      </trkpt>
      <trkpt lat="48.61625" lon="1.86841">
        <ele>171</ele>
        <time>2025-06-16T10:13:09.913Z</time>
      </trkpt>
      <trkpt lat="48.61622" lon="1.86849">
        <ele>170</ele>
        <time>2025-06-16T10:13:14.567Z</time>
      </trkpt>
      <trkpt lat="48.61619" lon="1.86857">
        <ele>170</ele>
        <time>2025-06-16T10:13:18.722Z</time>
      </trkpt>
      <trkpt lat="48.61615" lon="1.86866">
        <ele>170</ele>
        <time>2025-06-16T10:13:23.202Z</time>
      </trkpt>
      <trkpt lat="48.61612" lon="1.86873">
        <ele>170</ele>
        <time>2025-06-16T10:13:27.648Z</time>
      </trkpt>
      <trkpt lat="48.61609" lon="1.86881">
        <ele>171</ele>
        <time>2025-06-16T10:13:31.894Z</time>
      </trkpt>
      <trkpt lat="48.61606" lon="1.8689">
        <ele>171</ele>
        <time>2025-06-16T10:13:36.269Z</time>
      </trkpt>
      <trkpt lat="48.61603" lon="1.86898">
        <ele>171</ele>
        <time>2025-06-16T10:13:40.689Z</time>
      </trkpt>
      <trkpt lat="48.616" lon="1.86903">
        <ele>171</ele>
        <time>2025-06-16T10:13:45.088Z</time>
      </trkpt>
      <trkpt lat="48.61598" lon="1.86912">
        <ele>171</ele>
        <time>2025-06-16T10:13:49.183Z</time>
      </trkpt>
      <trkpt lat="48.61594" lon="1.8692">
        <ele>172</ele>
        <time>2025-06-16T10:13:53.304Z</time>
      </trkpt>
      <trkpt lat="48.6159" lon="1.86927">
        <ele>172</ele>
        <time>2025-06-16T10:13:57.621Z</time>
      </trkpt>
      <trkpt lat="48.61587" lon="1.86935">
        <ele>171</ele>
        <time>2025-06-16T10:14:01.921Z</time>
      </trkpt>
      <trkpt lat="48.61584" lon="1.86944">
        <ele>171</ele>
        <time>2025-06-16T10:14:06.387Z</time>
      </trkpt>
      <trkpt lat="48.61581" lon="1.86952">
        <ele>171</ele>
        <time>2025-06-16T10:14:10.568Z</time>
      </trkpt>
      <trkpt lat="48.61577" lon="1.8696">
        <ele>171</ele>
        <time>2025-06-16T10:14:14.924Z</time>
      </trkpt>
      <trkpt lat="48.61575" lon="1.86968">
        <ele>171</ele>
        <time>2025-06-16T10:14:19.267Z</time>
      </trkpt>
      <trkpt lat="48.61573" lon="1.86977">
        <ele>171</ele>
        <time>2025-06-16T10:14:23.601Z</time>
      </trkpt>
      <trkpt lat="48.61569" lon="1.86986">
        <ele>171</ele>
        <time>2025-06-16T10:14:28.388Z</time>
      </trkpt>
      <trkpt lat="48.61565" lon="1.86996">
        <ele>171</ele>
        <time>2025-06-16T10:14:33.367Z</time>
      </trkpt>
      <trkpt lat="48.61562" lon="1.87004">
        <ele>171</ele>
        <time>2025-06-16T10:14:37.573Z</time>
      </trkpt>
      <trkpt lat="48.61559" lon="1.87012">
        <ele>171</ele>
        <time>2025-06-16T10:14:41.723Z</time>
      </trkpt>
      <trkpt lat="48.61555" lon="1.8702">
        <ele>170</ele>
        <time>2025-06-16T10:14:46.070Z</time>
      </trkpt>
      <trkpt lat="48.61552" lon="1.87028">
        <ele>170</ele>
        <time>2025-06-16T10:14:50.445Z</time>
      </trkpt>
      <trkpt lat="48.61549" lon="1.87036">
        <ele>170</ele>
        <time>2025-06-16T10:14:54.684Z</time>
      </trkpt>
      <trkpt lat="48.61546" lon="1.87043">
        <ele>170</ele>
        <time>2025-06-16T10:14:58.723Z</time>
      </trkpt>
      <trkpt lat="48.61542" lon="1.87052">
        <ele>170</ele>
        <time>2025-06-16T10:15:03.284Z</time>
      </trkpt>
      <trkpt lat="48.6154" lon="1.8706">
        <ele>172</ele>
        <time>2025-06-16T10:15:07.469Z</time>
      </trkpt>
      <trkpt lat="48.61537" lon="1.87068">
        <ele>172</ele>
        <time>2025-06-16T10:15:11.723Z</time>
      </trkpt>
      <trkpt lat="48.61534" lon="1.87076">
        <ele>172</ele>
        <time>2025-06-16T10:15:16.019Z</time>
      </trkpt>
      <trkpt lat="48.6153" lon="1.87084">
        <ele>172</ele>
        <time>2025-06-16T10:15:20.353Z</time>
      </trkpt>
      <trkpt lat="48.61528" lon="1.87092">
        <ele>172</ele>
        <time>2025-06-16T10:15:24.550Z</time>
      </trkpt>
      <trkpt lat="48.61524" lon="1.87101">
        <ele>172</ele>
        <time>2025-06-16T10:15:28.906Z</time>
      </trkpt>
      <trkpt lat="48.6152" lon="1.87108">
        <ele>172</ele>
        <time>2025-06-16T10:15:33.283Z</time>
      </trkpt>
      <trkpt lat="48.61516" lon="1.87116">
        <ele>172</ele>
        <time>2025-06-16T10:15:37.582Z</time>
      </trkpt>
      <trkpt lat="48.61513" lon="1.87123">
        <ele>173</ele>
        <time>2025-06-16T10:15:41.866Z</time>
      </trkpt>
      <trkpt lat="48.6151" lon="1.87131">
        <ele>171</ele>
        <time>2025-06-16T10:15:46.213Z</time>
      </trkpt>
      <trkpt lat="48.61506" lon="1.87139">
        <ele>171</ele>
        <time>2025-06-16T10:15:50.589Z</time>
      </trkpt>
      <trkpt lat="48.61503" lon="1.87146">
        <ele>171</ele>
        <time>2025-06-16T10:15:54.849Z</time>
      </trkpt>
      <trkpt lat="48.615" lon="1.87154">
        <ele>170</ele>
        <time>2025-06-16T10:15:59.310Z</time>
      </trkpt>
      <trkpt lat="48.61497" lon="1.87162">
        <ele>170</ele>
        <time>2025-06-16T10:16:03.485Z</time>
      </trkpt>
      <trkpt lat="48.61494" lon="1.87171">
        <ele>170</ele>
        <time>2025-06-16T10:16:07.723Z</time>
      </trkpt>
      <trkpt lat="48.61491" lon="1.87179">
        <ele>170</ele>
        <time>2025-06-16T10:16:12.103Z</time>
      </trkpt>
      <trkpt lat="48.61488" lon="1.87187">
        <ele>170</ele>
        <time>2025-06-16T10:16:16.386Z</time>
      </trkpt>
      <trkpt lat="48.61485" lon="1.87195">
        <ele>169</ele>
        <time>2025-06-16T10:16:20.722Z</time>
      </trkpt>
      <trkpt lat="48.61482" lon="1.87203">
        <ele>169</ele>
        <time>2025-06-16T10:16:25.186Z</time>
      </trkpt>
      <trkpt lat="48.61479" lon="1.87211">
        <ele>170</ele>
        <time>2025-06-16T10:16:29.412Z</time>
      </trkpt>
      <trkpt lat="48.61475" lon="1.87219">
        <ele>170</ele>
        <time>2025-06-16T10:16:33.706Z</time>
      </trkpt>
      <trkpt lat="48.61471" lon="1.87226">
        <ele>170</ele>
        <time>2025-06-16T10:16:38.083Z</time>
      </trkpt>
      <trkpt lat="48.61467" lon="1.87234">
        <ele>170</ele>
        <time>2025-06-16T10:16:42.528Z</time>
      </trkpt>
      <trkpt lat="48.61464" lon="1.87242">
        <ele>171</ele>
        <time>2025-06-16T10:16:46.722Z</time>
      </trkpt>
      <trkpt lat="48.61461" lon="1.8725">
        <ele>171</ele>
        <time>2025-06-16T10:16:51.128Z</time>
      </trkpt>
      <trkpt lat="48.61458" lon="1.87259">
        <ele>170</ele>
        <time>2025-06-16T10:16:55.467Z</time>
      </trkpt>
      <trkpt lat="48.61455" lon="1.87267">
        <ele>170</ele>
        <time>2025-06-16T10:16:59.707Z</time>
      </trkpt>
      <trkpt lat="48.61452" lon="1.87275">
        <ele>170</ele>
        <time>2025-06-16T10:17:04.153Z</time>
      </trkpt>
      <trkpt lat="48.61448" lon="1.87282">
        <ele>170</ele>
        <time>2025-06-16T10:17:08.410Z</time>
      </trkpt>
      <trkpt lat="48.61444" lon="1.8729">
        <ele>170</ele>
        <time>2025-06-16T10:17:12.722Z</time>
      </trkpt>
      <trkpt lat="48.61441" lon="1.873">
        <ele>171</ele>
        <time>2025-06-16T10:17:17.502Z</time>
      </trkpt>
      <trkpt lat="48.61438" lon="1.87308">
        <ele>171</ele>
        <time>2025-06-16T10:17:21.784Z</time>
      </trkpt>
      <trkpt lat="48.61435" lon="1.87316">
        <ele>171</ele>
        <time>2025-06-16T10:17:26.069Z</time>
      </trkpt>
      <trkpt lat="48.61432" lon="1.87325">
        <ele>172</ele>
        <time>2025-06-16T10:17:30.328Z</time>
      </trkpt>
      <trkpt lat="48.6143" lon="1.87333">
        <ele>171</ele>
        <time>2025-06-16T10:17:34.646Z</time>
      </trkpt>
      <trkpt lat="48.61427" lon="1.87342">
        <ele>171</ele>
        <time>2025-06-16T10:17:38.929Z</time>
      </trkpt>
      <trkpt lat="48.61423" lon="1.8735">
        <ele>170</ele>
        <time>2025-06-16T10:17:43.246Z</time>
      </trkpt>
      <trkpt lat="48.6142" lon="1.87358">
        <ele>170</ele>
        <time>2025-06-16T10:17:47.722Z</time>
      </trkpt>
      <trkpt lat="48.61415" lon="1.87365">
        <ele>170</ele>
        <time>2025-06-16T10:17:51.885Z</time>
      </trkpt>
      <trkpt lat="48.61411" lon="1.87373">
        <ele>170</ele>
        <time>2025-06-16T10:17:56.170Z</time>
      </trkpt>
      <trkpt lat="48.61407" lon="1.8738">
        <ele>170</ele>
        <time>2025-06-16T10:18:00.545Z</time>
      </trkpt>
      <trkpt lat="48.61404" lon="1.87388">
        <ele>170</ele>
        <time>2025-06-16T10:18:04.828Z</time>
      </trkpt>
      <trkpt lat="48.61401" lon="1.87396">
        <ele>170</ele>
        <time>2025-06-16T10:18:09.149Z</time>
      </trkpt>
      <trkpt lat="48.61398" lon="1.87404">
        <ele>170</ele>
        <time>2025-06-16T10:18:13.526Z</time>
      </trkpt>
      <trkpt lat="48.61395" lon="1.87411">
        <ele>170</ele>
        <time>2025-06-16T10:18:17.805Z</time>
      </trkpt>
      <trkpt lat="48.61391" lon="1.87419">
        <ele>170</ele>
        <time>2025-06-16T10:18:22.723Z</time>
      </trkpt>
      <trkpt lat="48.61389" lon="1.87421">
        <ele>170</ele>
        <time>2025-06-16T10:18:27.185Z</time>
      </trkpt>
      <trkpt lat="48.61385" lon="1.87428">
        <ele>170</ele>
        <time>2025-06-16T10:18:31.588Z</time>
      </trkpt>
      <trkpt lat="48.61382" lon="1.87439">
        <ele>169</ele>
        <time>2025-06-16T10:18:36.084Z</time>
      </trkpt>
      <trkpt lat="48.61384" lon="1.87451">
        <ele>169</ele>
        <time>2025-06-16T10:18:40.563Z</time>
      </trkpt>
      <trkpt lat="48.61381" lon="1.8746">
        <ele>169</ele>
        <time>2025-06-16T10:18:44.723Z</time>
      </trkpt>
      <trkpt lat="48.61375" lon="1.87465">
        <ele>169</ele>
        <time>2025-06-16T10:18:48.806Z</time>
      </trkpt>
      <trkpt lat="48.61373" lon="1.87474">
        <ele>167</ele>
        <time>2025-06-16T10:18:53.166Z</time>
      </trkpt>
      <trkpt lat="48.61369" lon="1.87481">
        <ele>167</ele>
        <time>2025-06-16T10:18:57.543Z</time>
      </trkpt>
      <trkpt lat="48.61364" lon="1.87487">
        <ele>166</ele>
        <time>2025-06-16T10:19:02.074Z</time>
      </trkpt>
      <trkpt lat="48.61361" lon="1.87495">
        <ele>166</ele>
        <time>2025-06-16T10:19:06.392Z</time>
      </trkpt>
      <trkpt lat="48.61358" lon="1.87502">
        <ele>166</ele>
        <time>2025-06-16T10:19:10.515Z</time>
      </trkpt>
      <trkpt lat="48.61354" lon="1.87505">
        <ele>166</ele>
        <time>2025-06-16T10:19:14.722Z</time>
      </trkpt>
      <trkpt lat="48.61356" lon="1.87505">
        <ele>166</ele>
        <time>2025-06-16T10:19:52.099Z</time>
      </trkpt>
      <trkpt lat="48.61352" lon="1.875">
        <ele>166</ele>
        <time>2025-06-16T10:19:56.262Z</time>
      </trkpt>
      <trkpt lat="48.61349" lon="1.87495">
        <ele>166</ele>
        <time>2025-06-16T10:20:00.340Z</time>
      </trkpt>
      <trkpt lat="48.61345" lon="1.87489">
        <ele>164</ele>
        <time>2025-06-16T10:20:04.402Z</time>
      </trkpt>
      <trkpt lat="48.61341" lon="1.87484">
        <ele>166</ele>
        <time>2025-06-16T10:20:08.722Z</time>
      </trkpt>
      <trkpt lat="48.61337" lon="1.87479">
        <ele>166</ele>
        <time>2025-06-16T10:20:12.917Z</time>
      </trkpt>
      <trkpt lat="48.61332" lon="1.87479">
        <ele>166</ele>
        <time>2025-06-16T10:20:17.156Z</time>
      </trkpt>
      <trkpt lat="48.61327" lon="1.87484">
        <ele>166</ele>
        <time>2025-06-16T10:20:21.722Z</time>
      </trkpt>
      <trkpt lat="48.61323" lon="1.87488">
        <ele>164</ele>
        <time>2025-06-16T10:20:25.817Z</time>
      </trkpt>
      <trkpt lat="48.61319" lon="1.87494">
        <ele>165</ele>
        <time>2025-06-16T10:20:29.938Z</time>
      </trkpt>
      <trkpt lat="48.61314" lon="1.87496">
        <ele>165</ele>
        <time>2025-06-16T10:20:34.077Z</time>
      </trkpt>
      <trkpt lat="48.61308" lon="1.87497">
        <ele>165</ele>
        <time>2025-06-16T10:20:38.722Z</time>
      </trkpt>
      <trkpt lat="48.61306" lon="1.87504">
        <ele>165</ele>
        <time>2025-06-16T10:20:42.943Z</time>
      </trkpt>
      <trkpt lat="48.61303" lon="1.87512">
        <ele>165</ele>
        <time>2025-06-16T10:20:47.300Z</time>
      </trkpt>
      <trkpt lat="48.61299" lon="1.87515">
        <ele>164</ele>
        <time>2025-06-16T10:20:51.722Z</time>
      </trkpt>
      <trkpt lat="48.61293" lon="1.87519">
        <ele>164</ele>
        <time>2025-06-16T10:20:56.156Z</time>
      </trkpt>
      <trkpt lat="48.61289" lon="1.87525">
        <ele>166</ele>
        <time>2025-06-16T10:21:00.558Z</time>
      </trkpt>
      <trkpt lat="48.61285" lon="1.87532">
        <ele>166</ele>
        <time>2025-06-16T10:21:04.799Z</time>
      </trkpt>
      <trkpt lat="48.61281" lon="1.87538">
        <ele>166</ele>
        <time>2025-06-16T10:21:09.056Z</time>
      </trkpt>
      <trkpt lat="48.61276" lon="1.87545">
        <ele>164</ele>
        <time>2025-06-16T10:21:13.340Z</time>
      </trkpt>
      <trkpt lat="48.61272" lon="1.8755">
        <ele>164</ele>
        <time>2025-06-16T10:21:17.722Z</time>
      </trkpt>
      <trkpt lat="48.61268" lon="1.87555">
        <ele>164</ele>
        <time>2025-06-16T10:21:22.183Z</time>
      </trkpt>
      <trkpt lat="48.61263" lon="1.87561">
        <ele>165</ele>
        <time>2025-06-16T10:21:26.497Z</time>
      </trkpt>
      <trkpt lat="48.61259" lon="1.87567">
        <ele>165</ele>
        <time>2025-06-16T10:21:30.582Z</time>
      </trkpt>
      <trkpt lat="48.61255" lon="1.87573">
        <ele>164</ele>
        <time>2025-06-16T10:21:35.036Z</time>
      </trkpt>
      <trkpt lat="48.61251" lon="1.8758">
        <ele>164</ele>
        <time>2025-06-16T10:21:39.199Z</time>
      </trkpt>
      <trkpt lat="48.61247" lon="1.87587">
        <ele>164</ele>
        <time>2025-06-16T10:21:43.601Z</time>
      </trkpt>
      <trkpt lat="48.61242" lon="1.87593">
        <ele>164</ele>
        <time>2025-06-16T10:21:47.919Z</time>
      </trkpt>
      <trkpt lat="48.61237" lon="1.87599">
        <ele>163</ele>
        <time>2025-06-16T10:21:52.263Z</time>
      </trkpt>
      <trkpt lat="48.61231" lon="1.87603">
        <ele>165</ele>
        <time>2025-06-16T10:21:56.638Z</time>
      </trkpt>
      <trkpt lat="48.61227" lon="1.8761">
        <ele>165</ele>
        <time>2025-06-16T10:22:00.939Z</time>
      </trkpt>
      <trkpt lat="48.61225" lon="1.8762">
        <ele>165</ele>
        <time>2025-06-16T10:22:05.255Z</time>
      </trkpt>
      <trkpt lat="48.61224" lon="1.8763">
        <ele>165</ele>
        <time>2025-06-16T10:22:09.641Z</time>
      </trkpt>
      <trkpt lat="48.61224" lon="1.8764">
        <ele>165</ele>
        <time>2025-06-16T10:22:14.021Z</time>
      </trkpt>
      <trkpt lat="48.61221" lon="1.87649">
        <ele>165</ele>
        <time>2025-06-16T10:22:18.421Z</time>
      </trkpt>
      <trkpt lat="48.61219" lon="1.87657">
        <ele>166</ele>
        <time>2025-06-16T10:22:22.663Z</time>
      </trkpt>
      <trkpt lat="48.61218" lon="1.87666">
        <ele>166</ele>
        <time>2025-06-16T10:22:26.996Z</time>
      </trkpt>
      <trkpt lat="48.61216" lon="1.87675">
        <ele>166</ele>
        <time>2025-06-16T10:22:31.321Z</time>
      </trkpt>
      <trkpt lat="48.61214" lon="1.87684">
        <ele>167</ele>
        <time>2025-06-16T10:22:35.722Z</time>
      </trkpt>
      <trkpt lat="48.61214" lon="1.87693">
        <ele>167</ele>
        <time>2025-06-16T10:22:39.722Z</time>
      </trkpt>
      <trkpt lat="48.61211" lon="1.87704">
        <ele>167</ele>
        <time>2025-06-16T10:22:44.557Z</time>
      </trkpt>
      <trkpt lat="48.61208" lon="1.87712">
        <ele>166</ele>
        <time>2025-06-16T10:22:48.722Z</time>
      </trkpt>
      <trkpt lat="48.61204" lon="1.8772">
        <ele>166</ele>
        <time>2025-06-16T10:22:53.056Z</time>
      </trkpt>
      <trkpt lat="48.612" lon="1.87727">
        <ele>166</ele>
        <time>2025-06-16T10:22:57.320Z</time>
      </trkpt>
      <trkpt lat="48.61196" lon="1.87735">
        <ele>166</ele>
        <time>2025-06-16T10:23:01.622Z</time>
      </trkpt>
      <trkpt lat="48.61193" lon="1.87742">
        <ele>169</ele>
        <time>2025-06-16T10:23:05.921Z</time>
      </trkpt>
      <trkpt lat="48.6119" lon="1.87751">
        <ele>169</ele>
        <time>2025-06-16T10:23:10.239Z</time>
      </trkpt>
      <trkpt lat="48.61187" lon="1.8776">
        <ele>169</ele>
        <time>2025-06-16T10:23:14.522Z</time>
      </trkpt>
      <trkpt lat="48.61184" lon="1.87768">
        <ele>170</ele>
        <time>2025-06-16T10:23:18.721Z</time>
      </trkpt>
      <trkpt lat="48.6118" lon="1.87776">
        <ele>170</ele>
        <time>2025-06-16T10:23:23.157Z</time>
      </trkpt>
      <trkpt lat="48.61176" lon="1.87783">
        <ele>170</ele>
        <time>2025-06-16T10:23:27.740Z</time>
      </trkpt>
      <trkpt lat="48.61173" lon="1.87791">
        <ele>170</ele>
        <time>2025-06-16T10:23:31.842Z</time>
      </trkpt>
      <trkpt lat="48.61171" lon="1.87799">
        <ele>171</ele>
        <time>2025-06-16T10:23:36.117Z</time>
      </trkpt>
      <trkpt lat="48.61168" lon="1.87808">
        <ele>171</ele>
        <time>2025-06-16T10:23:40.476Z</time>
      </trkpt>
      <trkpt lat="48.61166" lon="1.87817">
        <ele>171</ele>
        <time>2025-06-16T10:23:44.742Z</time>
      </trkpt>
      <trkpt lat="48.61163" lon="1.87825">
        <ele>170</ele>
        <time>2025-06-16T10:23:49.059Z</time>
      </trkpt>
      <trkpt lat="48.61159" lon="1.87834">
        <ele>170</ele>
        <time>2025-06-16T10:23:53.419Z</time>
      </trkpt>
      <trkpt lat="48.61157" lon="1.87842">
        <ele>170</ele>
        <time>2025-06-16T10:23:57.722Z</time>
      </trkpt>
      <trkpt lat="48.61154" lon="1.87852">
        <ele>170</ele>
        <time>2025-06-16T10:24:02.641Z</time>
      </trkpt>
      <trkpt lat="48.61151" lon="1.87861">
        <ele>168</ele>
        <time>2025-06-16T10:24:07.061Z</time>
      </trkpt>
      <trkpt lat="48.61147" lon="1.87867">
        <ele>168</ele>
        <time>2025-06-16T10:24:11.302Z</time>
      </trkpt>
      <trkpt lat="48.61143" lon="1.87873">
        <ele>168</ele>
        <time>2025-06-16T10:24:15.517Z</time>
      </trkpt>
      <trkpt lat="48.61139" lon="1.87881">
        <ele>168</ele>
        <time>2025-06-16T10:24:19.740Z</time>
      </trkpt>
      <trkpt lat="48.61136" lon="1.87888">
        <ele>168</ele>
        <time>2025-06-16T10:24:24.057Z</time>
      </trkpt>
      <trkpt lat="48.61131" lon="1.87895">
        <ele>168</ele>
        <time>2025-06-16T10:24:28.322Z</time>
      </trkpt>
      <trkpt lat="48.61127" lon="1.87902">
        <ele>168</ele>
        <time>2025-06-16T10:24:32.597Z</time>
      </trkpt>
      <trkpt lat="48.61122" lon="1.87908">
        <ele>168</ele>
        <time>2025-06-16T10:24:36.940Z</time>
      </trkpt>
      <trkpt lat="48.61117" lon="1.87915">
        <ele>168</ele>
        <time>2025-06-16T10:24:41.282Z</time>
      </trkpt>
      <trkpt lat="48.61113" lon="1.87921">
        <ele>168</ele>
        <time>2025-06-16T10:24:45.421Z</time>
      </trkpt>
      <trkpt lat="48.61108" lon="1.87927">
        <ele>168</ele>
        <time>2025-06-16T10:24:49.721Z</time>
      </trkpt>
      <trkpt lat="48.61103" lon="1.87932">
        <ele>169</ele>
        <time>2025-06-16T10:24:54.004Z</time>
      </trkpt>
      <trkpt lat="48.61099" lon="1.8794">
        <ele>169</ele>
        <time>2025-06-16T10:24:58.221Z</time>
      </trkpt>
      <trkpt lat="48.61095" lon="1.87947">
        <ele>170</ele>
        <time>2025-06-16T10:25:02.502Z</time>
      </trkpt>
      <trkpt lat="48.6109" lon="1.87953">
        <ele>170</ele>
        <time>2025-06-16T10:25:06.722Z</time>
      </trkpt>
      <trkpt lat="48.61084" lon="1.87959">
        <ele>170</ele>
        <time>2025-06-16T10:25:11.102Z</time>
      </trkpt>
      <trkpt lat="48.61079" lon="1.87965">
        <ele>170</ele>
        <time>2025-06-16T10:25:15.342Z</time>
      </trkpt>
      <trkpt lat="48.61075" lon="1.87972">
        <ele>170</ele>
        <time>2025-06-16T10:25:19.600Z</time>
      </trkpt>
      <trkpt lat="48.6107" lon="1.87979">
        <ele>170</ele>
        <time>2025-06-16T10:25:23.857Z</time>
      </trkpt>
      <trkpt lat="48.61065" lon="1.87985">
        <ele>169</ele>
        <time>2025-06-16T10:25:28.157Z</time>
      </trkpt>
      <trkpt lat="48.6106" lon="1.8799">
        <ele>169</ele>
        <time>2025-06-16T10:25:32.543Z</time>
      </trkpt>
      <trkpt lat="48.61056" lon="1.87996">
        <ele>169</ele>
        <time>2025-06-16T10:25:36.722Z</time>
      </trkpt>
      <trkpt lat="48.61051" lon="1.88002">
        <ele>169</ele>
        <time>2025-06-16T10:25:41.143Z</time>
      </trkpt>
      <trkpt lat="48.61046" lon="1.88009">
        <ele>169</ele>
        <time>2025-06-16T10:25:45.400Z</time>
      </trkpt>
      <trkpt lat="48.61041" lon="1.88015">
        <ele>168</ele>
        <time>2025-06-16T10:25:49.658Z</time>
      </trkpt>
      <trkpt lat="48.61038" lon="1.88023">
        <ele>168</ele>
        <time>2025-06-16T10:25:53.957Z</time>
      </trkpt>
      <trkpt lat="48.61033" lon="1.88029">
        <ele>168</ele>
        <time>2025-06-16T10:25:58.198Z</time>
      </trkpt>
      <trkpt lat="48.61029" lon="1.88036">
        <ele>168</ele>
        <time>2025-06-16T10:26:02.481Z</time>
      </trkpt>
      <trkpt lat="48.61024" lon="1.88041">
        <ele>168</ele>
        <time>2025-06-16T10:26:06.722Z</time>
      </trkpt>
      <trkpt lat="48.61019" lon="1.88046">
        <ele>169</ele>
        <time>2025-06-16T10:26:10.722Z</time>
      </trkpt>
      <trkpt lat="48.61016" lon="1.88052">
        <ele>169</ele>
        <time>2025-06-16T10:26:15.722Z</time>
      </trkpt>
      <trkpt lat="48.6102" lon="1.88053">
        <ele>169</ele>
        <time>2025-06-16T10:26:20.722Z</time>
      </trkpt>
      <trkpt lat="48.61016" lon="1.8806">
        <ele>169</ele>
        <time>2025-06-16T10:26:25.039Z</time>
      </trkpt>
      <trkpt lat="48.61012" lon="1.88068">
        <ele>170</ele>
        <time>2025-06-16T10:26:29.321Z</time>
      </trkpt>
      <trkpt lat="48.61007" lon="1.88074">
        <ele>170</ele>
        <time>2025-06-16T10:26:33.656Z</time>
      </trkpt>
      <trkpt lat="48.61002" lon="1.88083">
        <ele>170</ele>
        <time>2025-06-16T10:26:38.536Z</time>
      </trkpt>
      <trkpt lat="48.60999" lon="1.8809">
        <ele>170</ele>
        <time>2025-06-16T10:26:42.640Z</time>
      </trkpt>
      <trkpt lat="48.60994" lon="1.88097">
        <ele>170</ele>
        <time>2025-06-16T10:26:46.659Z</time>
      </trkpt>
      <trkpt lat="48.6099" lon="1.88105">
        <ele>170</ele>
        <time>2025-06-16T10:26:50.823Z</time>
      </trkpt>
      <trkpt lat="48.60985" lon="1.88113">
        <ele>170</ele>
        <time>2025-06-16T10:26:55.458Z</time>
      </trkpt>
      <trkpt lat="48.60981" lon="1.88118">
        <ele>170</ele>
        <time>2025-06-16T10:26:59.602Z</time>
      </trkpt>
      <trkpt lat="48.60977" lon="1.88126">
        <ele>169</ele>
        <time>2025-06-16T10:27:03.722Z</time>
      </trkpt>
      <trkpt lat="48.60973" lon="1.88135">
        <ele>169</ele>
        <time>2025-06-16T10:27:08.475Z</time>
      </trkpt>
      <trkpt lat="48.60968" lon="1.88142">
        <ele>169</ele>
        <time>2025-06-16T10:27:13.023Z</time>
      </trkpt>
      <trkpt lat="48.60963" lon="1.88148">
        <ele>169</ele>
        <time>2025-06-16T10:27:17.101Z</time>
      </trkpt>
      <trkpt lat="48.60957" lon="1.88152">
        <ele>168</ele>
        <time>2025-06-16T10:27:21.256Z</time>
      </trkpt>
      <trkpt lat="48.60951" lon="1.88156">
        <ele>170</ele>
        <time>2025-06-16T10:27:25.497Z</time>
      </trkpt>
      <trkpt lat="48.60946" lon="1.88162">
        <ele>170</ele>
        <time>2025-06-16T10:27:29.720Z</time>
      </trkpt>
      <trkpt lat="48.60941" lon="1.88167">
        <ele>170</ele>
        <time>2025-06-16T10:27:33.943Z</time>
      </trkpt>
      <trkpt lat="48.60936" lon="1.88172">
        <ele>170</ele>
        <time>2025-06-16T10:27:38.243Z</time>
      </trkpt>
      <trkpt lat="48.60931" lon="1.88177">
        <ele>170</ele>
        <time>2025-06-16T10:27:42.475Z</time>
      </trkpt>
      <trkpt lat="48.60926" lon="1.88183">
        <ele>170</ele>
        <time>2025-06-16T10:27:46.700Z</time>
      </trkpt>
      <trkpt lat="48.60921" lon="1.88188">
        <ele>170</ele>
        <time>2025-06-16T10:27:50.836Z</time>
      </trkpt>
      <trkpt lat="48.60916" lon="1.88193">
        <ele>170</ele>
        <time>2025-06-16T10:27:55.102Z</time>
      </trkpt>
      <trkpt lat="48.60911" lon="1.88198">
        <ele>170</ele>
        <time>2025-06-16T10:27:59.300Z</time>
      </trkpt>
      <trkpt lat="48.60905" lon="1.88201">
        <ele>170</ele>
        <time>2025-06-16T10:28:03.542Z</time>
      </trkpt>
      <trkpt lat="48.609" lon="1.88207">
        <ele>170</ele>
        <time>2025-06-16T10:28:07.721Z</time>
      </trkpt>
      <trkpt lat="48.60895" lon="1.88213">
        <ele>168</ele>
        <time>2025-06-16T10:28:12.040Z</time>
      </trkpt>
      <trkpt lat="48.6089" lon="1.88219">
        <ele>168</ele>
        <time>2025-06-16T10:28:16.261Z</time>
      </trkpt>
      <trkpt lat="48.60884" lon="1.88224">
        <ele>168</ele>
        <time>2025-06-16T10:28:20.417Z</time>
      </trkpt>
      <trkpt lat="48.60879" lon="1.8823">
        <ele>168</ele>
        <time>2025-06-16T10:28:24.520Z</time>
      </trkpt>
      <trkpt lat="48.60874" lon="1.88238">
        <ele>168</ele>
        <time>2025-06-16T10:28:29.222Z</time>
      </trkpt>
      <trkpt lat="48.60869" lon="1.88245">
        <ele>168</ele>
        <time>2025-06-16T10:28:33.420Z</time>
      </trkpt>
      <trkpt lat="48.60864" lon="1.88251">
        <ele>168</ele>
        <time>2025-06-16T10:28:37.642Z</time>
      </trkpt>
      <trkpt lat="48.6086" lon="1.88258">
        <ele>168</ele>
        <time>2025-06-16T10:28:41.858Z</time>
      </trkpt>
      <trkpt lat="48.60856" lon="1.88265">
        <ele>168</ele>
        <time>2025-06-16T10:28:46.056Z</time>
      </trkpt>
      <trkpt lat="48.60852" lon="1.88273">
        <ele>168</ele>
        <time>2025-06-16T10:28:50.442Z</time>
      </trkpt>
      <trkpt lat="48.60847" lon="1.88279">
        <ele>170</ele>
        <time>2025-06-16T10:28:54.722Z</time>
      </trkpt>
      <trkpt lat="48.60842" lon="1.88286">
        <ele>170</ele>
        <time>2025-06-16T10:28:59.226Z</time>
      </trkpt>
      <trkpt lat="48.60836" lon="1.88293">
        <ele>169</ele>
        <time>2025-06-16T10:29:03.721Z</time>
      </trkpt>
      <trkpt lat="48.60831" lon="1.883">
        <ele>169</ele>
        <time>2025-06-16T10:29:08.079Z</time>
      </trkpt>
      <trkpt lat="48.60827" lon="1.88306">
        <ele>169</ele>
        <time>2025-06-16T10:29:12.362Z</time>
      </trkpt>
      <trkpt lat="48.60823" lon="1.88313">
        <ele>169</ele>
        <time>2025-06-16T10:29:16.662Z</time>
      </trkpt>
      <trkpt lat="48.60819" lon="1.8832">
        <ele>170</ele>
        <time>2025-06-16T10:29:20.996Z</time>
      </trkpt>
      <trkpt lat="48.60816" lon="1.88328">
        <ele>170</ele>
        <time>2025-06-16T10:29:25.300Z</time>
      </trkpt>
      <trkpt lat="48.60814" lon="1.88337">
        <ele>170</ele>
        <time>2025-06-16T10:29:29.601Z</time>
      </trkpt>
      <trkpt lat="48.60812" lon="1.88345">
        <ele>170</ele>
        <time>2025-06-16T10:29:33.927Z</time>
      </trkpt>
      <trkpt lat="48.6081" lon="1.88354">
        <ele>170</ele>
        <time>2025-06-16T10:29:38.257Z</time>
      </trkpt>
      <trkpt lat="48.6081" lon="1.88363">
        <ele>170</ele>
        <time>2025-06-16T10:29:42.361Z</time>
      </trkpt>
      <trkpt lat="48.60807" lon="1.88373">
        <ele>170</ele>
        <time>2025-06-16T10:29:46.661Z</time>
      </trkpt>
      <trkpt lat="48.60803" lon="1.88381">
        <ele>169</ele>
        <time>2025-06-16T10:29:51.004Z</time>
      </trkpt>
      <trkpt lat="48.60799" lon="1.88389">
        <ele>169</ele>
        <time>2025-06-16T10:29:55.326Z</time>
      </trkpt>
      <trkpt lat="48.60798" lon="1.88397">
        <ele>169</ele>
        <time>2025-06-16T10:29:59.506Z</time>
      </trkpt>
      <trkpt lat="48.60796" lon="1.88406">
        <ele>170</ele>
        <time>2025-06-16T10:30:03.780Z</time>
      </trkpt>
      <trkpt lat="48.60794" lon="1.88415">
        <ele>170</ele>
        <time>2025-06-16T10:30:08.064Z</time>
      </trkpt>
      <trkpt lat="48.6079" lon="1.88422">
        <ele>169</ele>
        <time>2025-06-16T10:30:12.322Z</time>
      </trkpt>
      <trkpt lat="48.60787" lon="1.88431">
        <ele>168</ele>
        <time>2025-06-16T10:30:16.645Z</time>
      </trkpt>
      <trkpt lat="48.60785" lon="1.88439">
        <ele>168</ele>
        <time>2025-06-16T10:30:20.944Z</time>
      </trkpt>
      <trkpt lat="48.60781" lon="1.88447">
        <ele>168</ele>
        <time>2025-06-16T10:30:25.320Z</time>
      </trkpt>
      <trkpt lat="48.60779" lon="1.88455">
        <ele>168</ele>
        <time>2025-06-16T10:30:29.620Z</time>
      </trkpt>
      <trkpt lat="48.60775" lon="1.88462">
        <ele>168</ele>
        <time>2025-06-16T10:30:33.925Z</time>
      </trkpt>
      <trkpt lat="48.60774" lon="1.88471">
        <ele>168</ele>
        <time>2025-06-16T10:30:38.140Z</time>
      </trkpt>
      <trkpt lat="48.60772" lon="1.8848">
        <ele>168</ele>
        <time>2025-06-16T10:30:42.283Z</time>
      </trkpt>
      <trkpt lat="48.60771" lon="1.88489">
        <ele>167</ele>
        <time>2025-06-16T10:30:46.581Z</time>
      </trkpt>
      <trkpt lat="48.60768" lon="1.88498">
        <ele>167</ele>
        <time>2025-06-16T10:30:50.856Z</time>
      </trkpt>
      <trkpt lat="48.60766" lon="1.88507">
        <ele>167</ele>
        <time>2025-06-16T10:30:55.126Z</time>
      </trkpt>
      <trkpt lat="48.60764" lon="1.88515">
        <ele>167</ele>
        <time>2025-06-16T10:30:59.456Z</time>
      </trkpt>
      <trkpt lat="48.60762" lon="1.88524">
        <ele>167</ele>
        <time>2025-06-16T10:31:03.684Z</time>
      </trkpt>
      <trkpt lat="48.60759" lon="1.88533">
        <ele>167</ele>
        <time>2025-06-16T10:31:07.907Z</time>
      </trkpt>
      <trkpt lat="48.60756" lon="1.88541">
        <ele>167</ele>
        <time>2025-06-16T10:31:12.220Z</time>
      </trkpt>
      <trkpt lat="48.60753" lon="1.88548">
        <ele>168</ele>
        <time>2025-06-16T10:31:16.521Z</time>
      </trkpt>
      <trkpt lat="48.6075" lon="1.88556">
        <ele>168</ele>
        <time>2025-06-16T10:31:20.897Z</time>
      </trkpt>
      <trkpt lat="48.60748" lon="1.88565">
        <ele>168</ele>
        <time>2025-06-16T10:31:25.163Z</time>
      </trkpt>
      <trkpt lat="48.60745" lon="1.88573">
        <ele>168</ele>
        <time>2025-06-16T10:31:29.546Z</time>
      </trkpt>
      <trkpt lat="48.60744" lon="1.88582">
        <ele>168</ele>
        <time>2025-06-16T10:31:33.882Z</time>
      </trkpt>
      <trkpt lat="48.60743" lon="1.88591">
        <ele>168</ele>
        <time>2025-06-16T10:31:38.098Z</time>
      </trkpt>
      <trkpt lat="48.6074" lon="1.88601">
        <ele>169</ele>
        <time>2025-06-16T10:31:42.381Z</time>
      </trkpt>
      <trkpt lat="48.60738" lon="1.8861">
        <ele>169</ele>
        <time>2025-06-16T10:31:46.656Z</time>
      </trkpt>
      <trkpt lat="48.60736" lon="1.8862">
        <ele>169</ele>
        <time>2025-06-16T10:31:51.001Z</time>
      </trkpt>
      <trkpt lat="48.60735" lon="1.88629">
        <ele>168</ele>
        <time>2025-06-16T10:31:55.281Z</time>
      </trkpt>
      <trkpt lat="48.60732" lon="1.88638">
        <ele>168</ele>
        <time>2025-06-16T10:31:59.663Z</time>
      </trkpt>
      <trkpt lat="48.6073" lon="1.88647">
        <ele>168</ele>
        <time>2025-06-16T10:32:03.990Z</time>
      </trkpt>
      <trkpt lat="48.60728" lon="1.88655">
        <ele>167</ele>
        <time>2025-06-16T10:32:08.199Z</time>
      </trkpt>
      <trkpt lat="48.60726" lon="1.88664">
        <ele>167</ele>
        <time>2025-06-16T10:32:12.605Z</time>
      </trkpt>
      <trkpt lat="48.60725" lon="1.88672">
        <ele>167</ele>
        <time>2025-06-16T10:32:16.965Z</time>
      </trkpt>
      <trkpt lat="48.60722" lon="1.8868">
        <ele>167</ele>
        <time>2025-06-16T10:32:21.202Z</time>
      </trkpt>
      <trkpt lat="48.60719" lon="1.88688">
        <ele>167</ele>
        <time>2025-06-16T10:32:25.561Z</time>
      </trkpt>
      <trkpt lat="48.60716" lon="1.88696">
        <ele>167</ele>
        <time>2025-06-16T10:32:29.721Z</time>
      </trkpt>
      <trkpt lat="48.60713" lon="1.88704">
        <ele>167</ele>
        <time>2025-06-16T10:32:34.328Z</time>
      </trkpt>
      <trkpt lat="48.6071" lon="1.88713">
        <ele>168</ele>
        <time>2025-06-16T10:32:38.598Z</time>
      </trkpt>
      <trkpt lat="48.60707" lon="1.8872">
        <ele>165</ele>
        <time>2025-06-16T10:32:42.721Z</time>
      </trkpt>
      <trkpt lat="48.60703" lon="1.88728">
        <ele>165</ele>
        <time>2025-06-16T10:32:47.078Z</time>
      </trkpt>
      <trkpt lat="48.607" lon="1.88735">
        <ele>165</ele>
        <time>2025-06-16T10:32:51.443Z</time>
      </trkpt>
      <trkpt lat="48.60696" lon="1.88743">
        <ele>166</ele>
        <time>2025-06-16T10:32:55.721Z</time>
      </trkpt>
      <trkpt lat="48.60693" lon="1.8875">
        <ele>166</ele>
        <time>2025-06-16T10:33:00.056Z</time>
      </trkpt>
      <trkpt lat="48.60689" lon="1.88758">
        <ele>166</ele>
        <time>2025-06-16T10:33:04.424Z</time>
      </trkpt>
      <trkpt lat="48.60686" lon="1.88766">
        <ele>166</ele>
        <time>2025-06-16T10:33:08.721Z</time>
      </trkpt>
      <trkpt lat="48.60682" lon="1.88774">
        <ele>166</ele>
        <time>2025-06-16T10:33:12.960Z</time>
      </trkpt>
      <trkpt lat="48.60677" lon="1.8878">
        <ele>165</ele>
        <time>2025-06-16T10:33:17.363Z</time>
      </trkpt>
      <trkpt lat="48.60674" lon="1.88788">
        <ele>165</ele>
        <time>2025-06-16T10:33:21.721Z</time>
      </trkpt>
      <trkpt lat="48.60671" lon="1.88795">
        <ele>166</ele>
        <time>2025-06-16T10:33:26.180Z</time>
      </trkpt>
      <trkpt lat="48.60669" lon="1.88804">
        <ele>166</ele>
        <time>2025-06-16T10:33:30.420Z</time>
      </trkpt>
      <trkpt lat="48.60665" lon="1.88812">
        <ele>166</ele>
        <time>2025-06-16T10:33:34.721Z</time>
      </trkpt>
      <trkpt lat="48.60661" lon="1.88818">
        <ele>166</ele>
        <time>2025-06-16T10:33:39.041Z</time>
      </trkpt>
      <trkpt lat="48.60657" lon="1.88825">
        <ele>167</ele>
        <time>2025-06-16T10:33:43.440Z</time>
      </trkpt>
      <trkpt lat="48.60653" lon="1.88833">
        <ele>167</ele>
        <time>2025-06-16T10:33:47.721Z</time>
      </trkpt>
      <trkpt lat="48.6065" lon="1.88841">
        <ele>165</ele>
        <time>2025-06-16T10:33:52.165Z</time>
      </trkpt>
      <trkpt lat="48.60646" lon="1.88847">
        <ele>165</ele>
        <time>2025-06-16T10:33:56.540Z</time>
      </trkpt>
      <trkpt lat="48.60644" lon="1.88855">
        <ele>165</ele>
        <time>2025-06-16T10:34:00.959Z</time>
      </trkpt>
      <trkpt lat="48.60641" lon="1.88863">
        <ele>165</ele>
        <time>2025-06-16T10:34:05.200Z</time>
      </trkpt>
      <trkpt lat="48.60637" lon="1.88869">
        <ele>165</ele>
        <time>2025-06-16T10:34:09.637Z</time>
      </trkpt>
      <trkpt lat="48.60634" lon="1.88877">
        <ele>165</ele>
        <time>2025-06-16T10:34:13.920Z</time>
      </trkpt>
      <trkpt lat="48.6063" lon="1.88885">
        <ele>165</ele>
        <time>2025-06-16T10:34:18.279Z</time>
      </trkpt>
      <trkpt lat="48.60627" lon="1.88893">
        <ele>165</ele>
        <time>2025-06-16T10:34:22.623Z</time>
      </trkpt>
      <trkpt lat="48.60623" lon="1.88899">
        <ele>166</ele>
        <time>2025-06-16T10:34:26.939Z</time>
      </trkpt>
      <trkpt lat="48.60618" lon="1.88906">
        <ele>167</ele>
        <time>2025-06-16T10:34:31.193Z</time>
      </trkpt>
      <trkpt lat="48.60615" lon="1.88914">
        <ele>167</ele>
        <time>2025-06-16T10:34:35.577Z</time>
      </trkpt>
      <trkpt lat="48.60611" lon="1.88922">
        <ele>167</ele>
        <time>2025-06-16T10:34:39.853Z</time>
      </trkpt>
      <trkpt lat="48.60608" lon="1.8893">
        <ele>167</ele>
        <time>2025-06-16T10:34:44.135Z</time>
      </trkpt>
      <trkpt lat="48.60604" lon="1.88937">
        <ele>168</ele>
        <time>2025-06-16T10:34:48.575Z</time>
      </trkpt>
      <trkpt lat="48.606" lon="1.88944">
        <ele>168</ele>
        <time>2025-06-16T10:34:52.876Z</time>
      </trkpt>
      <trkpt lat="48.60596" lon="1.88952">
        <ele>167</ele>
        <time>2025-06-16T10:34:57.261Z</time>
      </trkpt>
      <trkpt lat="48.60593" lon="1.8896">
        <ele>168</ele>
        <time>2025-06-16T10:35:01.399Z</time>
      </trkpt>
      <trkpt lat="48.60589" lon="1.88968">
        <ele>168</ele>
        <time>2025-06-16T10:35:05.656Z</time>
      </trkpt>
      <trkpt lat="48.60585" lon="1.88975">
        <ele>168</ele>
        <time>2025-06-16T10:35:09.895Z</time>
      </trkpt>
      <trkpt lat="48.6058" lon="1.88982">
        <ele>168</ele>
        <time>2025-06-16T10:35:14.680Z</time>
      </trkpt>
      <trkpt lat="48.60576" lon="1.88987">
        <ele>168</ele>
        <time>2025-06-16T10:35:18.720Z</time>
      </trkpt>
      <trkpt lat="48.60575" lon="1.88997">
        <ele>168</ele>
        <time>2025-06-16T10:35:23.219Z</time>
      </trkpt>
      <trkpt lat="48.60571" lon="1.89006">
        <ele>168</ele>
        <time>2025-06-16T10:35:27.498Z</time>
      </trkpt>
      <trkpt lat="48.60566" lon="1.89012">
        <ele>166</ele>
        <time>2025-06-16T10:35:31.781Z</time>
      </trkpt>
      <trkpt lat="48.60562" lon="1.89019">
        <ele>166</ele>
        <time>2025-06-16T10:35:36.004Z</time>
      </trkpt>
      <trkpt lat="48.60559" lon="1.89029">
        <ele>166</ele>
        <time>2025-06-16T10:35:40.721Z</time>
      </trkpt>
      <trkpt lat="48.60555" lon="1.89036">
        <ele>166</ele>
        <time>2025-06-16T10:35:45.094Z</time>
      </trkpt>
      <trkpt lat="48.60551" lon="1.89043">
        <ele>167</ele>
        <time>2025-06-16T10:35:49.318Z</time>
      </trkpt>
      <trkpt lat="48.60546" lon="1.89048">
        <ele>167</ele>
        <time>2025-06-16T10:35:53.654Z</time>
      </trkpt>
      <trkpt lat="48.60542" lon="1.89056">
        <ele>167</ele>
        <time>2025-06-16T10:35:57.721Z</time>
      </trkpt>
      <trkpt lat="48.60539" lon="1.89065">
        <ele>165</ele>
        <time>2025-06-16T10:36:02.098Z</time>
      </trkpt>
      <trkpt lat="48.60536" lon="1.89073">
        <ele>165</ele>
        <time>2025-06-16T10:36:06.223Z</time>
      </trkpt>
      <trkpt lat="48.60533" lon="1.89081">
        <ele>165</ele>
        <time>2025-06-16T10:36:10.643Z</time>
      </trkpt>
      <trkpt lat="48.60529" lon="1.89089">
        <ele>165</ele>
        <time>2025-06-16T10:36:14.900Z</time>
      </trkpt>
      <trkpt lat="48.60526" lon="1.89097">
        <ele>165</ele>
        <time>2025-06-16T10:36:19.336Z</time>
      </trkpt>
      <trkpt lat="48.60523" lon="1.89104">
        <ele>165</ele>
        <time>2025-06-16T10:36:23.423Z</time>
      </trkpt>
      <trkpt lat="48.6052" lon="1.89112">
        <ele>165</ele>
        <time>2025-06-16T10:36:27.740Z</time>
      </trkpt>
      <trkpt lat="48.60516" lon="1.89119">
        <ele>165</ele>
        <time>2025-06-16T10:36:31.993Z</time>
      </trkpt>
      <trkpt lat="48.60512" lon="1.89127">
        <ele>165</ele>
        <time>2025-06-16T10:36:36.277Z</time>
      </trkpt>
      <trkpt lat="48.60508" lon="1.89134">
        <ele>165</ele>
        <time>2025-06-16T10:36:40.583Z</time>
      </trkpt>
      <trkpt lat="48.60505" lon="1.89142">
        <ele>165</ele>
        <time>2025-06-16T10:36:44.838Z</time>
      </trkpt>
      <trkpt lat="48.60501" lon="1.8915">
        <ele>165</ele>
        <time>2025-06-16T10:36:49.019Z</time>
      </trkpt>
      <trkpt lat="48.60497" lon="1.89157">
        <ele>165</ele>
        <time>2025-06-16T10:36:53.301Z</time>
      </trkpt>
      <trkpt lat="48.60492" lon="1.89164">
        <ele>165</ele>
        <time>2025-06-16T10:36:57.601Z</time>
      </trkpt>
      <trkpt lat="48.60489" lon="1.89171">
        <ele>165</ele>
        <time>2025-06-16T10:37:01.883Z</time>
      </trkpt>
      <trkpt lat="48.60485" lon="1.89179">
        <ele>166</ele>
        <time>2025-06-16T10:37:06.180Z</time>
      </trkpt>
      <trkpt lat="48.60483" lon="1.89187">
        <ele>166</ele>
        <time>2025-06-16T10:37:10.413Z</time>
      </trkpt>
      <trkpt lat="48.60479" lon="1.89195">
        <ele>166</ele>
        <time>2025-06-16T10:37:14.740Z</time>
      </trkpt>
      <trkpt lat="48.60476" lon="1.89202">
        <ele>166</ele>
        <time>2025-06-16T10:37:18.994Z</time>
      </trkpt>
      <trkpt lat="48.60472" lon="1.8921">
        <ele>167</ele>
        <time>2025-06-16T10:37:23.234Z</time>
      </trkpt>
      <trkpt lat="48.60468" lon="1.89218">
        <ele>167</ele>
        <time>2025-06-16T10:37:27.598Z</time>
      </trkpt>
      <trkpt lat="48.60464" lon="1.89225">
        <ele>167</ele>
        <time>2025-06-16T10:37:32.013Z</time>
      </trkpt>
      <trkpt lat="48.60461" lon="1.89233">
        <ele>167</ele>
        <time>2025-06-16T10:37:36.279Z</time>
      </trkpt>
      <trkpt lat="48.60457" lon="1.89241">
        <ele>168</ele>
        <time>2025-06-16T10:37:40.596Z</time>
      </trkpt>
      <trkpt lat="48.60453" lon="1.89248">
        <ele>168</ele>
        <time>2025-06-16T10:37:44.939Z</time>
      </trkpt>
      <trkpt lat="48.60449" lon="1.89255">
        <ele>168</ele>
        <time>2025-06-16T10:37:49.239Z</time>
      </trkpt>
      <trkpt lat="48.60445" lon="1.89263">
        <ele>168</ele>
        <time>2025-06-16T10:37:53.603Z</time>
      </trkpt>
      <trkpt lat="48.60443" lon="1.89262">
        <ele>168</ele>
        <time>2025-06-16T10:37:57.721Z</time>
      </trkpt>
      <trkpt lat="48.60443" lon="1.89262">
        <ele>168</ele>
        <time>2025-06-16T10:38:02.322Z</time>
      </trkpt>
      <trkpt lat="48.60447" lon="1.89251">
        <ele>168</ele>
        <time>2025-06-16T10:38:06.743Z</time>
      </trkpt>
      <trkpt lat="48.6045" lon="1.89243">
        <ele>168</ele>
        <time>2025-06-16T10:38:11.173Z</time>
      </trkpt>
      <trkpt lat="48.60446" lon="1.89237">
        <ele>168</ele>
        <time>2025-06-16T10:38:15.721Z</time>
      </trkpt>
      <trkpt lat="48.60441" lon="1.89232">
        <ele>168</ele>
        <time>2025-06-16T10:38:20.007Z</time>
      </trkpt>
      <trkpt lat="48.60436" lon="1.89234">
        <ele>168</ele>
        <time>2025-06-16T10:38:24.193Z</time>
      </trkpt>
      <trkpt lat="48.60431" lon="1.89234">
        <ele>168</ele>
        <time>2025-06-16T10:38:28.274Z</time>
      </trkpt>
      <trkpt lat="48.60425" lon="1.89231">
        <ele>169</ele>
        <time>2025-06-16T10:38:32.721Z</time>
      </trkpt>
      <trkpt lat="48.6042" lon="1.89231">
        <ele>169</ele>
        <time>2025-06-16T10:38:37.213Z</time>
      </trkpt>
      <trkpt lat="48.60415" lon="1.89235">
        <ele>169</ele>
        <time>2025-06-16T10:38:41.662Z</time>
      </trkpt>
      <trkpt lat="48.60411" lon="1.89239">
        <ele>169</ele>
        <time>2025-06-16T10:38:45.720Z</time>
      </trkpt>
      <trkpt lat="48.60412" lon="1.89245">
        <ele>169</ele>
        <time>2025-06-16T10:38:50.718Z</time>
      </trkpt>
      <trkpt lat="48.60409" lon="1.89234">
        <ele>169</ele>
        <time>2025-06-16T11:09:06.715Z</time>
      </trkpt>
      <trkpt lat="48.60409" lon="1.89234">
        <ele>169</ele>
        <time>2025-06-16T11:09:16.319Z</time>
      </trkpt>
      <trkpt lat="48.60409" lon="1.89231">
        <ele>169</ele>
        <time>2025-06-16T11:09:20.714Z</time>
      </trkpt>
      <trkpt lat="48.60409" lon="1.89222">
        <ele>169</ele>
        <time>2025-06-16T11:09:25.715Z</time>
      </trkpt>
      <trkpt lat="48.60408" lon="1.8922">
        <ele>169</ele>
        <time>2025-06-16T11:09:30.715Z</time>
      </trkpt>
      <trkpt lat="48.60406" lon="1.89218">
        <ele>169</ele>
        <time>2025-06-16T11:09:58.715Z</time>
      </trkpt>
      <trkpt lat="48.60406" lon="1.89218">
        <ele>169</ele>
        <time>2025-06-16T11:10:00.714Z</time>
      </trkpt>
      <trkpt lat="48.60409" lon="1.89224">
        <ele>169</ele>
        <time>2025-06-16T11:10:09.715Z</time>
      </trkpt>
      <trkpt lat="48.6041" lon="1.89225">
        <ele>169</ele>
        <time>2025-06-16T11:10:14.513Z</time>
      </trkpt>
      <trkpt lat="48.6041" lon="1.89231">
        <ele>169</ele>
        <time>2025-06-16T11:10:18.701Z</time>
      </trkpt>
      <trkpt lat="48.60417" lon="1.89242">
        <ele>169</ele>
        <time>2025-06-16T11:33:37.709Z</time>
      </trkpt>
      <trkpt lat="48.60417" lon="1.89242">
        <ele>169</ele>
        <time>2025-06-16T11:33:41.710Z</time>
      </trkpt>
      <trkpt lat="48.60417" lon="1.89242">
        <ele>169</ele>
        <time>2025-06-16T11:33:46.912Z</time>
      </trkpt>
      <trkpt lat="48.60417" lon="1.89235">
        <ele>169</ele>
        <time>2025-06-16T11:33:51.453Z</time>
      </trkpt>
      <trkpt lat="48.60424" lon="1.89235">
        <ele>169</ele>
        <time>2025-06-16T11:33:55.514Z</time>
      </trkpt>
      <trkpt lat="48.6043" lon="1.89237">
        <ele>169</ele>
        <time>2025-06-16T11:33:59.740Z</time>
      </trkpt>
      <trkpt lat="48.60434" lon="1.89243">
        <ele>168</ele>
        <time>2025-06-16T11:34:04.143Z</time>
      </trkpt>
      <trkpt lat="48.60437" lon="1.89247">
        <ele>168</ele>
        <time>2025-06-16T11:34:08.223Z</time>
      </trkpt>
      <trkpt lat="48.60441" lon="1.8925">
        <ele>168</ele>
        <time>2025-06-16T11:34:12.406Z</time>
      </trkpt>
      <trkpt lat="48.60444" lon="1.89253">
        <ele>168</ele>
        <time>2025-06-16T11:34:42.244Z</time>
      </trkpt>
      <trkpt lat="48.60443" lon="1.89243">
        <ele>168</ele>
        <time>2025-06-16T11:34:46.544Z</time>
      </trkpt>
      <trkpt lat="48.60441" lon="1.89235">
        <ele>168</ele>
        <time>2025-06-16T11:34:50.883Z</time>
      </trkpt>
      <trkpt lat="48.60438" lon="1.8923">
        <ele>168</ele>
        <time>2025-06-16T11:34:55.080Z</time>
      </trkpt>
      <trkpt lat="48.60435" lon="1.89223">
        <ele>168</ele>
        <time>2025-06-16T11:34:59.683Z</time>
      </trkpt>
      <trkpt lat="48.60431" lon="1.89217">
        <ele>168</ele>
        <time>2025-06-16T11:35:04.710Z</time>
      </trkpt>
      <trkpt lat="48.60426" lon="1.89212">
        <ele>169</ele>
        <time>2025-06-16T11:35:09.162Z</time>
      </trkpt>
      <trkpt lat="48.60422" lon="1.89208">
        <ele>168</ele>
        <time>2025-06-16T11:35:13.506Z</time>
      </trkpt>
      <trkpt lat="48.60418" lon="1.89203">
        <ele>168</ele>
        <time>2025-06-16T11:35:17.944Z</time>
      </trkpt>
      <trkpt lat="48.60414" lon="1.89198">
        <ele>168</ele>
        <time>2025-06-16T11:35:22.246Z</time>
      </trkpt>
      <trkpt lat="48.6041" lon="1.89192">
        <ele>168</ele>
        <time>2025-06-16T11:35:26.667Z</time>
      </trkpt>
      <trkpt lat="48.60405" lon="1.89185">
        <ele>168</ele>
        <time>2025-06-16T11:35:31.045Z</time>
      </trkpt>
      <trkpt lat="48.60399" lon="1.89179">
        <ele>168</ele>
        <time>2025-06-16T11:35:35.381Z</time>
      </trkpt>
      <trkpt lat="48.60394" lon="1.89173">
        <ele>168</ele>
        <time>2025-06-16T11:35:39.606Z</time>
      </trkpt>
      <trkpt lat="48.6039" lon="1.89168">
        <ele>168</ele>
        <time>2025-06-16T11:35:43.906Z</time>
      </trkpt>
      <trkpt lat="48.60386" lon="1.89162">
        <ele>168</ele>
        <time>2025-06-16T11:35:48.225Z</time>
      </trkpt>
      <trkpt lat="48.60382" lon="1.89156">
        <ele>168</ele>
        <time>2025-06-16T11:35:52.604Z</time>
      </trkpt>
      <trkpt lat="48.60377" lon="1.89149">
        <ele>168</ele>
        <time>2025-06-16T11:35:56.905Z</time>
      </trkpt>
      <trkpt lat="48.60373" lon="1.89143">
        <ele>169</ele>
        <time>2025-06-16T11:36:01.110Z</time>
      </trkpt>
      <trkpt lat="48.6037" lon="1.89134">
        <ele>169</ele>
        <time>2025-06-16T11:36:05.287Z</time>
      </trkpt>
      <trkpt lat="48.60367" lon="1.89127">
        <ele>169</ele>
        <time>2025-06-16T11:36:09.484Z</time>
      </trkpt>
      <trkpt lat="48.60364" lon="1.8912">
        <ele>168</ele>
        <time>2025-06-16T11:36:13.730Z</time>
      </trkpt>
      <trkpt lat="48.60361" lon="1.89114">
        <ele>168</ele>
        <time>2025-06-16T11:36:17.944Z</time>
      </trkpt>
      <trkpt lat="48.60359" lon="1.89106">
        <ele>168</ele>
        <time>2025-06-16T11:36:22.262Z</time>
      </trkpt>
      <trkpt lat="48.60357" lon="1.89099">
        <ele>168</ele>
        <time>2025-06-16T11:36:26.606Z</time>
      </trkpt>
      <trkpt lat="48.60353" lon="1.89093">
        <ele>168</ele>
        <time>2025-06-16T11:36:30.864Z</time>
      </trkpt>
      <trkpt lat="48.6035" lon="1.89087">
        <ele>168</ele>
        <time>2025-06-16T11:36:34.945Z</time>
      </trkpt>
      <trkpt lat="48.60342" lon="1.89088">
        <ele>170</ele>
        <time>2025-06-16T11:36:39.424Z</time>
      </trkpt>
      <trkpt lat="48.60337" lon="1.89091">
        <ele>170</ele>
        <time>2025-06-16T11:36:43.666Z</time>
      </trkpt>
      <trkpt lat="48.60331" lon="1.89093">
        <ele>170</ele>
        <time>2025-06-16T11:36:47.708Z</time>
      </trkpt>
      <trkpt lat="48.60325" lon="1.89096">
        <ele>170</ele>
        <time>2025-06-16T11:36:51.783Z</time>
      </trkpt>
      <trkpt lat="48.60319" lon="1.89101">
        <ele>170</ele>
        <time>2025-06-16T11:36:56.084Z</time>
      </trkpt>
      <trkpt lat="48.60314" lon="1.89104">
        <ele>170</ele>
        <time>2025-06-16T11:37:00.037Z</time>
      </trkpt>
      <trkpt lat="48.60307" lon="1.89107">
        <ele>170</ele>
        <time>2025-06-16T11:37:04.526Z</time>
      </trkpt>
      <trkpt lat="48.60301" lon="1.89109">
        <ele>170</ele>
        <time>2025-06-16T11:37:08.964Z</time>
      </trkpt>
      <trkpt lat="48.60296" lon="1.89112">
        <ele>170</ele>
        <time>2025-06-16T11:37:13.547Z</time>
      </trkpt>
      <trkpt lat="48.60291" lon="1.89115">
        <ele>171</ele>
        <time>2025-06-16T11:37:17.709Z</time>
      </trkpt>
      <trkpt lat="48.60285" lon="1.89116">
        <ele>171</ele>
        <time>2025-06-16T11:37:22.007Z</time>
      </trkpt>
      <trkpt lat="48.60278" lon="1.89118">
        <ele>171</ele>
        <time>2025-06-16T11:37:26.443Z</time>
      </trkpt>
      <trkpt lat="48.60273" lon="1.89123">
        <ele>171</ele>
        <time>2025-06-16T11:37:30.709Z</time>
      </trkpt>
      <trkpt lat="48.60267" lon="1.89125">
        <ele>170</ele>
        <time>2025-06-16T11:37:35.018Z</time>
      </trkpt>
      <trkpt lat="48.60262" lon="1.8913">
        <ele>169</ele>
        <time>2025-06-16T11:37:39.708Z</time>
      </trkpt>
      <trkpt lat="48.60257" lon="1.8913">
        <ele>169</ele>
        <time>2025-06-16T11:37:44.708Z</time>
      </trkpt>
      <trkpt lat="48.60252" lon="1.89137">
        <ele>169</ele>
        <time>2025-06-16T11:37:49.224Z</time>
      </trkpt>
      <trkpt lat="48.60248" lon="1.89147">
        <ele>169</ele>
        <time>2025-06-16T11:37:53.446Z</time>
      </trkpt>
      <trkpt lat="48.60244" lon="1.89149">
        <ele>169</ele>
        <time>2025-06-16T11:37:57.644Z</time>
      </trkpt>
      <trkpt lat="48.60236" lon="1.89151">
        <ele>168</ele>
        <time>2025-06-16T11:38:01.921Z</time>
      </trkpt>
      <trkpt lat="48.60229" lon="1.89154">
        <ele>167</ele>
        <time>2025-06-16T11:38:06.187Z</time>
      </trkpt>
      <trkpt lat="48.60223" lon="1.89156">
        <ele>167</ele>
        <time>2025-06-16T11:38:10.522Z</time>
      </trkpt>
      <trkpt lat="48.60219" lon="1.8916">
        <ele>167</ele>
        <time>2025-06-16T11:38:14.708Z</time>
      </trkpt>
      <trkpt lat="48.60213" lon="1.89164">
        <ele>167</ele>
        <time>2025-06-16T11:38:19.143Z</time>
      </trkpt>
      <trkpt lat="48.60208" lon="1.89168">
        <ele>167</ele>
        <time>2025-06-16T11:38:23.486Z</time>
      </trkpt>
      <trkpt lat="48.60203" lon="1.8917">
        <ele>167</ele>
        <time>2025-06-16T11:38:27.968Z</time>
      </trkpt>
      <trkpt lat="48.60197" lon="1.89172">
        <ele>167</ele>
        <time>2025-06-16T11:38:32.202Z</time>
      </trkpt>
      <trkpt lat="48.60191" lon="1.89175">
        <ele>167</ele>
        <time>2025-06-16T11:38:36.549Z</time>
      </trkpt>
      <trkpt lat="48.60185" lon="1.89177">
        <ele>167</ele>
        <time>2025-06-16T11:38:40.803Z</time>
      </trkpt>
      <trkpt lat="48.60179" lon="1.8918">
        <ele>168</ele>
        <time>2025-06-16T11:38:45.027Z</time>
      </trkpt>
      <trkpt lat="48.60174" lon="1.89184">
        <ele>167</ele>
        <time>2025-06-16T11:38:49.106Z</time>
      </trkpt>
      <trkpt lat="48.60169" lon="1.89188">
        <ele>167</ele>
        <time>2025-06-16T11:38:53.484Z</time>
      </trkpt>
      <trkpt lat="48.60164" lon="1.89192">
        <ele>167</ele>
        <time>2025-06-16T11:38:57.905Z</time>
      </trkpt>
      <trkpt lat="48.60158" lon="1.89194">
        <ele>167</ele>
        <time>2025-06-16T11:39:02.267Z</time>
      </trkpt>
      <trkpt lat="48.60154" lon="1.89197">
        <ele>167</ele>
        <time>2025-06-16T11:39:06.286Z</time>
      </trkpt>
      <trkpt lat="48.60148" lon="1.89201">
        <ele>169</ele>
        <time>2025-06-16T11:39:11.364Z</time>
      </trkpt>
      <trkpt lat="48.60143" lon="1.89203">
        <ele>169</ele>
        <time>2025-06-16T11:39:15.538Z</time>
      </trkpt>
      <trkpt lat="48.60137" lon="1.89207">
        <ele>169</ele>
        <time>2025-06-16T11:39:20.061Z</time>
      </trkpt>
      <trkpt lat="48.60132" lon="1.89211">
        <ele>169</ele>
        <time>2025-06-16T11:39:24.542Z</time>
      </trkpt>
      <trkpt lat="48.60127" lon="1.89214">
        <ele>169</ele>
        <time>2025-06-16T11:39:29.047Z</time>
      </trkpt>
      <trkpt lat="48.60121" lon="1.89216">
        <ele>170</ele>
        <time>2025-06-16T11:39:33.424Z</time>
      </trkpt>
      <trkpt lat="48.60115" lon="1.89218">
        <ele>170</ele>
        <time>2025-06-16T11:39:37.709Z</time>
      </trkpt>
      <trkpt lat="48.60109" lon="1.8922">
        <ele>170</ele>
        <time>2025-06-16T11:39:42.206Z</time>
      </trkpt>
      <trkpt lat="48.60102" lon="1.89223">
        <ele>170</ele>
        <time>2025-06-16T11:39:46.499Z</time>
      </trkpt>
      <trkpt lat="48.60097" lon="1.89225">
        <ele>170</ele>
        <time>2025-06-16T11:39:50.665Z</time>
      </trkpt>
      <trkpt lat="48.6009" lon="1.89226">
        <ele>172</ele>
        <time>2025-06-16T11:39:55.002Z</time>
      </trkpt>
      <trkpt lat="48.60085" lon="1.89229">
        <ele>172</ele>
        <time>2025-06-16T11:39:59.224Z</time>
      </trkpt>
      <trkpt lat="48.6008" lon="1.89232">
        <ele>172</ele>
        <time>2025-06-16T11:40:03.304Z</time>
      </trkpt>
      <trkpt lat="48.60074" lon="1.89234">
        <ele>172</ele>
        <time>2025-06-16T11:40:07.707Z</time>
      </trkpt>
      <trkpt lat="48.60069" lon="1.89238">
        <ele>171</ele>
        <time>2025-06-16T11:40:11.820Z</time>
      </trkpt>
      <trkpt lat="48.60063" lon="1.89242">
        <ele>171</ele>
        <time>2025-06-16T11:40:15.926Z</time>
      </trkpt>
      <trkpt lat="48.60058" lon="1.89245">
        <ele>171</ele>
        <time>2025-06-16T11:40:20.124Z</time>
      </trkpt>
      <trkpt lat="48.60052" lon="1.89248">
        <ele>171</ele>
        <time>2025-06-16T11:40:24.367Z</time>
      </trkpt>
      <trkpt lat="48.60046" lon="1.8925">
        <ele>171</ele>
        <time>2025-06-16T11:40:28.611Z</time>
      </trkpt>
      <trkpt lat="48.6004" lon="1.89253">
        <ele>171</ele>
        <time>2025-06-16T11:40:33.089Z</time>
      </trkpt>
      <trkpt lat="48.60035" lon="1.89256">
        <ele>171</ele>
        <time>2025-06-16T11:40:37.559Z</time>
      </trkpt>
      <trkpt lat="48.60029" lon="1.89258">
        <ele>171</ele>
        <time>2025-06-16T11:40:41.709Z</time>
      </trkpt>
      <trkpt lat="48.60023" lon="1.8926">
        <ele>171</ele>
        <time>2025-06-16T11:40:45.863Z</time>
      </trkpt>
      <trkpt lat="48.60019" lon="1.89264">
        <ele>170</ele>
        <time>2025-06-16T11:40:50.089Z</time>
      </trkpt>
      <trkpt lat="48.60014" lon="1.89269">
        <ele>171</ele>
        <time>2025-06-16T11:40:54.482Z</time>
      </trkpt>
      <trkpt lat="48.60008" lon="1.89272">
        <ele>171</ele>
        <time>2025-06-16T11:40:58.724Z</time>
      </trkpt>
      <trkpt lat="48.60001" lon="1.89273">
        <ele>171</ele>
        <time>2025-06-16T11:41:02.821Z</time>
      </trkpt>
      <trkpt lat="48.59995" lon="1.89276">
        <ele>171</ele>
        <time>2025-06-16T11:41:07.181Z</time>
      </trkpt>
      <trkpt lat="48.59989" lon="1.89279">
        <ele>171</ele>
        <time>2025-06-16T11:41:11.627Z</time>
      </trkpt>
      <trkpt lat="48.59984" lon="1.89281">
        <ele>171</ele>
        <time>2025-06-16T11:41:15.706Z</time>
      </trkpt>
      <trkpt lat="48.59978" lon="1.89284">
        <ele>171</ele>
        <time>2025-06-16T11:41:20.007Z</time>
      </trkpt>
      <trkpt lat="48.59973" lon="1.89289">
        <ele>171</ele>
        <time>2025-06-16T11:41:24.223Z</time>
      </trkpt>
      <trkpt lat="48.59967" lon="1.89292">
        <ele>170</ele>
        <time>2025-06-16T11:41:28.381Z</time>
      </trkpt>
      <trkpt lat="48.59961" lon="1.89297">
        <ele>170</ele>
        <time>2025-06-16T11:41:32.528Z</time>
      </trkpt>
      <trkpt lat="48.59956" lon="1.89301">
        <ele>169</ele>
        <time>2025-06-16T11:41:36.707Z</time>
      </trkpt>
      <trkpt lat="48.5995" lon="1.89305">
        <ele>169</ele>
        <time>2025-06-16T11:41:41.061Z</time>
      </trkpt>
      <trkpt lat="48.59945" lon="1.8931">
        <ele>169</ele>
        <time>2025-06-16T11:41:45.201Z</time>
      </trkpt>
      <trkpt lat="48.5994" lon="1.89314">
        <ele>169</ele>
        <time>2025-06-16T11:41:49.466Z</time>
      </trkpt>
      <trkpt lat="48.59935" lon="1.89319">
        <ele>169</ele>
        <time>2025-06-16T11:41:53.623Z</time>
      </trkpt>
      <trkpt lat="48.5993" lon="1.89324">
        <ele>170</ele>
        <time>2025-06-16T11:41:57.702Z</time>
      </trkpt>
      <trkpt lat="48.59923" lon="1.89326">
        <ele>170</ele>
        <time>2025-06-16T11:42:02.140Z</time>
      </trkpt>
      <trkpt lat="48.59918" lon="1.89329">
        <ele>170</ele>
        <time>2025-06-16T11:42:06.203Z</time>
      </trkpt>
      <trkpt lat="48.59912" lon="1.89334">
        <ele>170</ele>
        <time>2025-06-16T11:42:10.666Z</time>
      </trkpt>
      <trkpt lat="48.59908" lon="1.89338">
        <ele>170</ele>
        <time>2025-06-16T11:42:14.684Z</time>
      </trkpt>
      <trkpt lat="48.59903" lon="1.89343">
        <ele>170</ele>
        <time>2025-06-16T11:42:18.708Z</time>
      </trkpt>
      <trkpt lat="48.59898" lon="1.89348">
        <ele>171</ele>
        <time>2025-06-16T11:42:22.843Z</time>
      </trkpt>
      <trkpt lat="48.59892" lon="1.89352">
        <ele>171</ele>
        <time>2025-06-16T11:42:27.547Z</time>
      </trkpt>
      <trkpt lat="48.59886" lon="1.89357">
        <ele>171</ele>
        <time>2025-06-16T11:42:31.684Z</time>
      </trkpt>
      <trkpt lat="48.5988" lon="1.8936">
        <ele>171</ele>
        <time>2025-06-16T11:42:35.843Z</time>
      </trkpt>
      <trkpt lat="48.59875" lon="1.89365">
        <ele>172</ele>
        <time>2025-06-16T11:42:40.125Z</time>
      </trkpt>
      <trkpt lat="48.5987" lon="1.89371">
        <ele>172</ele>
        <time>2025-06-16T11:42:44.708Z</time>
      </trkpt>
      <trkpt lat="48.59864" lon="1.89374">
        <ele>172</ele>
        <time>2025-06-16T11:42:49.163Z</time>
      </trkpt>
      <trkpt lat="48.59859" lon="1.89378">
        <ele>172</ele>
        <time>2025-06-16T11:42:53.224Z</time>
      </trkpt>
      <trkpt lat="48.59864" lon="1.89385">
        <ele>172</ele>
        <time>2025-06-16T11:42:57.592Z</time>
      </trkpt>
      <trkpt lat="48.59862" lon="1.89392">
        <ele>172</ele>
        <time>2025-06-16T11:43:01.708Z</time>
      </trkpt>
      <trkpt lat="48.59855" lon="1.89394">
        <ele>172</ele>
        <time>2025-06-16T11:43:06.222Z</time>
      </trkpt>
      <trkpt lat="48.59849" lon="1.89397">
        <ele>172</ele>
        <time>2025-06-16T11:43:10.601Z</time>
      </trkpt>
      <trkpt lat="48.59842" lon="1.89398">
        <ele>172</ele>
        <time>2025-06-16T11:43:15.004Z</time>
      </trkpt>
      <trkpt lat="48.59836" lon="1.89401">
        <ele>172</ele>
        <time>2025-06-16T11:43:19.407Z</time>
      </trkpt>
      <trkpt lat="48.59829" lon="1.89404">
        <ele>172</ele>
        <time>2025-06-16T11:43:23.726Z</time>
      </trkpt>
      <trkpt lat="48.59824" lon="1.89408">
        <ele>172</ele>
        <time>2025-06-16T11:43:28.043Z</time>
      </trkpt>
      <trkpt lat="48.59819" lon="1.89412">
        <ele>170</ele>
        <time>2025-06-16T11:43:32.421Z</time>
      </trkpt>
      <trkpt lat="48.59815" lon="1.8942">
        <ele>170</ele>
        <time>2025-06-16T11:43:36.739Z</time>
      </trkpt>
      <trkpt lat="48.5981" lon="1.89423">
        <ele>170</ele>
        <time>2025-06-16T11:43:41.484Z</time>
      </trkpt>
      <trkpt lat="48.59804" lon="1.89426">
        <ele>170</ele>
        <time>2025-06-16T11:43:45.564Z</time>
      </trkpt>
      <trkpt lat="48.59796" lon="1.89428">
        <ele>170</ele>
        <time>2025-06-16T11:43:50.488Z</time>
      </trkpt>
      <trkpt lat="48.59791" lon="1.89432">
        <ele>170</ele>
        <time>2025-06-16T11:43:54.708Z</time>
      </trkpt>
      <trkpt lat="48.59786" lon="1.89435">
        <ele>170</ele>
        <time>2025-06-16T11:43:59.184Z</time>
      </trkpt>
      <trkpt lat="48.59782" lon="1.89441">
        <ele>170</ele>
        <time>2025-06-16T11:44:03.502Z</time>
      </trkpt>
      <trkpt lat="48.59777" lon="1.89446">
        <ele>170</ele>
        <time>2025-06-16T11:44:07.785Z</time>
      </trkpt>
      <trkpt lat="48.5977" lon="1.8945">
        <ele>170</ele>
        <time>2025-06-16T11:44:12.062Z</time>
      </trkpt>
      <trkpt lat="48.59765" lon="1.89454">
        <ele>170</ele>
        <time>2025-06-16T11:44:16.261Z</time>
      </trkpt>
      <trkpt lat="48.59759" lon="1.89458">
        <ele>172</ele>
        <time>2025-06-16T11:44:20.562Z</time>
      </trkpt>
      <trkpt lat="48.59754" lon="1.89463">
        <ele>172</ele>
        <time>2025-06-16T11:44:24.785Z</time>
      </trkpt>
      <trkpt lat="48.59749" lon="1.89467">
        <ele>172</ele>
        <time>2025-06-16T11:44:29.061Z</time>
      </trkpt>
      <trkpt lat="48.59743" lon="1.8947">
        <ele>172</ele>
        <time>2025-06-16T11:44:33.259Z</time>
      </trkpt>
      <trkpt lat="48.59737" lon="1.89473">
        <ele>172</ele>
        <time>2025-06-16T11:44:37.708Z</time>
      </trkpt>
      <trkpt lat="48.59732" lon="1.89477">
        <ele>172</ele>
        <time>2025-06-16T11:44:42.162Z</time>
      </trkpt>
      <trkpt lat="48.59727" lon="1.89482">
        <ele>172</ele>
        <time>2025-06-16T11:44:46.666Z</time>
      </trkpt>
      <trkpt lat="48.59722" lon="1.89486">
        <ele>172</ele>
        <time>2025-06-16T11:44:51.061Z</time>
      </trkpt>
      <trkpt lat="48.59716" lon="1.8949">
        <ele>172</ele>
        <time>2025-06-16T11:44:55.319Z</time>
      </trkpt>
      <trkpt lat="48.59711" lon="1.89494">
        <ele>172</ele>
        <time>2025-06-16T11:44:59.707Z</time>
      </trkpt>
      <trkpt lat="48.59706" lon="1.89498">
        <ele>171</ele>
        <time>2025-06-16T11:45:03.947Z</time>
      </trkpt>
      <trkpt lat="48.59701" lon="1.89502">
        <ele>171</ele>
        <time>2025-06-16T11:45:08.205Z</time>
      </trkpt>
      <trkpt lat="48.59697" lon="1.89507">
        <ele>171</ele>
        <time>2025-06-16T11:45:12.507Z</time>
      </trkpt>
      <trkpt lat="48.59689" lon="1.89511">
        <ele>171</ele>
        <time>2025-06-16T11:45:17.303Z</time>
      </trkpt>
      <trkpt lat="48.59683" lon="1.89515">
        <ele>171</ele>
        <time>2025-06-16T11:45:21.707Z</time>
      </trkpt>
      <trkpt lat="48.59678" lon="1.89519">
        <ele>171</ele>
        <time>2025-06-16T11:45:26.024Z</time>
      </trkpt>
      <trkpt lat="48.59672" lon="1.89523">
        <ele>171</ele>
        <time>2025-06-16T11:45:30.385Z</time>
      </trkpt>
      <trkpt lat="48.59667" lon="1.89528">
        <ele>171</ele>
        <time>2025-06-16T11:45:34.721Z</time>
      </trkpt>
      <trkpt lat="48.59663" lon="1.89533">
        <ele>171</ele>
        <time>2025-06-16T11:45:39.201Z</time>
      </trkpt>
      <trkpt lat="48.59658" lon="1.89536">
        <ele>171</ele>
        <time>2025-06-16T11:45:43.663Z</time>
      </trkpt>
      <trkpt lat="48.59652" lon="1.8954">
        <ele>170</ele>
        <time>2025-06-16T11:45:48.246Z</time>
      </trkpt>
      <trkpt lat="48.59649" lon="1.89543">
        <ele>171</ele>
        <time>2025-06-16T11:45:52.708Z</time>
      </trkpt>
      <trkpt lat="48.59645" lon="1.89548">
        <ele>171</ele>
        <time>2025-06-16T11:45:57.183Z</time>
      </trkpt>
      <trkpt lat="48.59645" lon="1.89551">
        <ele>171</ele>
        <time>2025-06-16T11:46:05.708Z</time>
      </trkpt>
      <trkpt lat="48.59645" lon="1.89553">
        <ele>171</ele>
        <time>2025-06-16T11:46:10.708Z</time>
      </trkpt>
      <trkpt lat="48.59645" lon="1.89554">
        <ele>171</ele>
        <time>2025-06-16T11:46:15.708Z</time>
      </trkpt>
      <trkpt lat="48.59643" lon="1.89559">
        <ele>171</ele>
        <time>2025-06-16T11:46:20.708Z</time>
      </trkpt>
      <trkpt lat="48.59639" lon="1.89567">
        <ele>171</ele>
        <time>2025-06-16T11:46:24.847Z</time>
      </trkpt>
      <trkpt lat="48.59637" lon="1.89576">
        <ele>171</ele>
        <time>2025-06-16T11:46:29.319Z</time>
      </trkpt>
      <trkpt lat="48.59636" lon="1.89584">
        <ele>171</ele>
        <time>2025-06-16T11:46:33.381Z</time>
      </trkpt>
      <trkpt lat="48.59633" lon="1.89591">
        <ele>171</ele>
        <time>2025-06-16T11:46:37.707Z</time>
      </trkpt>
      <trkpt lat="48.59629" lon="1.896">
        <ele>172</ele>
        <time>2025-06-16T11:46:42.564Z</time>
      </trkpt>
      <trkpt lat="48.59626" lon="1.89609">
        <ele>172</ele>
        <time>2025-06-16T11:46:47.548Z</time>
      </trkpt>
      <trkpt lat="48.59624" lon="1.89617">
        <ele>171</ele>
        <time>2025-06-16T11:46:52.104Z</time>
      </trkpt>
      <trkpt lat="48.59622" lon="1.89625">
        <ele>173</ele>
        <time>2025-06-16T11:46:56.559Z</time>
      </trkpt>
      <trkpt lat="48.59619" lon="1.89632">
        <ele>173</ele>
        <time>2025-06-16T11:47:00.707Z</time>
      </trkpt>
      <trkpt lat="48.59617" lon="1.8964">
        <ele>173</ele>
        <time>2025-06-16T11:47:05.307Z</time>
      </trkpt>
      <trkpt lat="48.59615" lon="1.89648">
        <ele>173</ele>
        <time>2025-06-16T11:47:09.883Z</time>
      </trkpt>
      <trkpt lat="48.59612" lon="1.89656">
        <ele>174</ele>
        <time>2025-06-16T11:47:14.207Z</time>
      </trkpt>
      <trkpt lat="48.5961" lon="1.89666">
        <ele>174</ele>
        <time>2025-06-16T11:47:18.707Z</time>
      </trkpt>
      <trkpt lat="48.59608" lon="1.89674">
        <ele>174</ele>
        <time>2025-06-16T11:47:23.202Z</time>
      </trkpt>
      <trkpt lat="48.59605" lon="1.89683">
        <ele>174</ele>
        <time>2025-06-16T11:47:27.827Z</time>
      </trkpt>
      <trkpt lat="48.59603" lon="1.89691">
        <ele>174</ele>
        <time>2025-06-16T11:47:32.085Z</time>
      </trkpt>
      <trkpt lat="48.59601" lon="1.897">
        <ele>174</ele>
        <time>2025-06-16T11:47:36.422Z</time>
      </trkpt>
      <trkpt lat="48.59599" lon="1.89708">
        <ele>174</ele>
        <time>2025-06-16T11:47:40.725Z</time>
      </trkpt>
      <trkpt lat="48.59596" lon="1.89717">
        <ele>173</ele>
        <time>2025-06-16T11:47:45Z</time>
      </trkpt>
      <trkpt lat="48.59593" lon="1.89725">
        <ele>173</ele>
        <time>2025-06-16T11:47:49.347Z</time>
      </trkpt>
      <trkpt lat="48.59591" lon="1.89733">
        <ele>173</ele>
        <time>2025-06-16T11:47:53.707Z</time>
      </trkpt>
      <trkpt lat="48.59588" lon="1.89742">
        <ele>172</ele>
        <time>2025-06-16T11:47:58.225Z</time>
      </trkpt>
      <trkpt lat="48.59587" lon="1.8975">
        <ele>172</ele>
        <time>2025-06-16T11:48:02.486Z</time>
      </trkpt>
      <trkpt lat="48.59585" lon="1.89761">
        <ele>172</ele>
        <time>2025-06-16T11:48:07.567Z</time>
      </trkpt>
      <trkpt lat="48.59584" lon="1.89771">
        <ele>172</ele>
        <time>2025-06-16T11:48:12.012Z</time>
      </trkpt>
      <trkpt lat="48.59582" lon="1.89781">
        <ele>172</ele>
        <time>2025-06-16T11:48:16.716Z</time>
      </trkpt>
      <trkpt lat="48.5958" lon="1.8979">
        <ele>172</ele>
        <time>2025-06-16T11:48:21.152Z</time>
      </trkpt>
      <trkpt lat="48.59579" lon="1.89797">
        <ele>172</ele>
        <time>2025-06-16T11:48:25.167Z</time>
      </trkpt>
      <trkpt lat="48.59577" lon="1.89805">
        <ele>172</ele>
        <time>2025-06-16T11:48:29.327Z</time>
      </trkpt>
      <trkpt lat="48.59575" lon="1.89815">
        <ele>172</ele>
        <time>2025-06-16T11:48:33.623Z</time>
      </trkpt>
      <trkpt lat="48.59574" lon="1.89824">
        <ele>173</ele>
        <time>2025-06-16T11:48:37.865Z</time>
      </trkpt>
      <trkpt lat="48.59571" lon="1.89833">
        <ele>173</ele>
        <time>2025-06-16T11:48:42.409Z</time>
      </trkpt>
      <trkpt lat="48.5957" lon="1.89842">
        <ele>173</ele>
        <time>2025-06-16T11:48:47.064Z</time>
      </trkpt>
      <trkpt lat="48.59567" lon="1.8985">
        <ele>172</ele>
        <time>2025-06-16T11:48:51.592Z</time>
      </trkpt>
      <trkpt lat="48.59565" lon="1.89859">
        <ele>172</ele>
        <time>2025-06-16T11:48:55.969Z</time>
      </trkpt>
      <trkpt lat="48.59562" lon="1.89868">
        <ele>172</ele>
        <time>2025-06-16T11:49:00.446Z</time>
      </trkpt>
      <trkpt lat="48.5956" lon="1.89877">
        <ele>171</ele>
        <time>2025-06-16T11:49:04.707Z</time>
      </trkpt>
      <trkpt lat="48.59558" lon="1.89885">
        <ele>171</ele>
        <time>2025-06-16T11:49:09.211Z</time>
      </trkpt>
      <trkpt lat="48.59558" lon="1.89893">
        <ele>171</ele>
        <time>2025-06-16T11:49:13.710Z</time>
      </trkpt>
      <trkpt lat="48.59556" lon="1.899">
        <ele>171</ele>
        <time>2025-06-16T11:49:17.809Z</time>
      </trkpt>
      <trkpt lat="48.59555" lon="1.89909">
        <ele>172</ele>
        <time>2025-06-16T11:49:22.348Z</time>
      </trkpt>
      <trkpt lat="48.59553" lon="1.89916">
        <ele>172</ele>
        <time>2025-06-16T11:49:26.799Z</time>
      </trkpt>
      <trkpt lat="48.59552" lon="1.89923">
        <ele>172</ele>
        <time>2025-06-16T11:49:30.937Z</time>
      </trkpt>
      <trkpt lat="48.59548" lon="1.89931">
        <ele>172</ele>
        <time>2025-06-16T11:49:35.204Z</time>
      </trkpt>
      <trkpt lat="48.59547" lon="1.89939">
        <ele>172</ele>
        <time>2025-06-16T11:49:39.569Z</time>
      </trkpt>
      <trkpt lat="48.59544" lon="1.89947">
        <ele>172</ele>
        <time>2025-06-16T11:49:43.845Z</time>
      </trkpt>
      <trkpt lat="48.59541" lon="1.89955">
        <ele>173</ele>
        <time>2025-06-16T11:49:48.585Z</time>
      </trkpt>
      <trkpt lat="48.59539" lon="1.89963">
        <ele>173</ele>
        <time>2025-06-16T11:49:52.885Z</time>
      </trkpt>
      <trkpt lat="48.59536" lon="1.89971">
        <ele>173</ele>
        <time>2025-06-16T11:49:57.217Z</time>
      </trkpt>
      <trkpt lat="48.59534" lon="1.89979">
        <ele>173</ele>
        <time>2025-06-16T11:50:01.709Z</time>
      </trkpt>
      <trkpt lat="48.59532" lon="1.89988">
        <ele>174</ele>
        <time>2025-06-16T11:50:06.386Z</time>
      </trkpt>
      <trkpt lat="48.5953" lon="1.89997">
        <ele>174</ele>
        <time>2025-06-16T11:50:10.470Z</time>
      </trkpt>
      <trkpt lat="48.59528" lon="1.90005">
        <ele>174</ele>
        <time>2025-06-16T11:50:14.882Z</time>
      </trkpt>
      <trkpt lat="48.59525" lon="1.90013">
        <ele>174</ele>
        <time>2025-06-16T11:50:19.542Z</time>
      </trkpt>
      <trkpt lat="48.59522" lon="1.90021">
        <ele>173</ele>
        <time>2025-06-16T11:50:23.919Z</time>
      </trkpt>
      <trkpt lat="48.59519" lon="1.90028">
        <ele>173</ele>
        <time>2025-06-16T11:50:28.263Z</time>
      </trkpt>
      <trkpt lat="48.59516" lon="1.90036">
        <ele>173</ele>
        <time>2025-06-16T11:50:32.483Z</time>
      </trkpt>
      <trkpt lat="48.59512" lon="1.90043">
        <ele>174</ele>
        <time>2025-06-16T11:50:36.827Z</time>
      </trkpt>
      <trkpt lat="48.59508" lon="1.9005">
        <ele>174</ele>
        <time>2025-06-16T11:50:41.064Z</time>
      </trkpt>
      <trkpt lat="48.59505" lon="1.90057">
        <ele>174</ele>
        <time>2025-06-16T11:50:45.408Z</time>
      </trkpt>
      <trkpt lat="48.595" lon="1.90062">
        <ele>174</ele>
        <time>2025-06-16T11:50:49.546Z</time>
      </trkpt>
      <trkpt lat="48.59496" lon="1.90068">
        <ele>174</ele>
        <time>2025-06-16T11:50:53.759Z</time>
      </trkpt>
      <trkpt lat="48.59492" lon="1.90074">
        <ele>174</ele>
        <time>2025-06-16T11:50:57.922Z</time>
      </trkpt>
      <trkpt lat="48.59487" lon="1.90082">
        <ele>174</ele>
        <time>2025-06-16T11:51:02.508Z</time>
      </trkpt>
      <trkpt lat="48.59483" lon="1.90089">
        <ele>174</ele>
        <time>2025-06-16T11:51:06.524Z</time>
      </trkpt>
      <trkpt lat="48.59479" lon="1.90095">
        <ele>174</ele>
        <time>2025-06-16T11:51:10.662Z</time>
      </trkpt>
      <trkpt lat="48.59475" lon="1.90102">
        <ele>174</ele>
        <time>2025-06-16T11:51:14.715Z</time>
      </trkpt>
      <trkpt lat="48.59471" lon="1.9011">
        <ele>174</ele>
        <time>2025-06-16T11:51:19.180Z</time>
      </trkpt>
      <trkpt lat="48.59467" lon="1.90117">
        <ele>174</ele>
        <time>2025-06-16T11:51:23.242Z</time>
      </trkpt>
      <trkpt lat="48.59463" lon="1.90125">
        <ele>174</ele>
        <time>2025-06-16T11:51:27.337Z</time>
      </trkpt>
      <trkpt lat="48.59459" lon="1.90131">
        <ele>174</ele>
        <time>2025-06-16T11:51:31.426Z</time>
      </trkpt>
      <trkpt lat="48.59455" lon="1.90137">
        <ele>173</ele>
        <time>2025-06-16T11:51:35.526Z</time>
      </trkpt>
      <trkpt lat="48.59452" lon="1.90144">
        <ele>173</ele>
        <time>2025-06-16T11:51:39.563Z</time>
      </trkpt>
      <trkpt lat="48.59448" lon="1.9015">
        <ele>173</ele>
        <time>2025-06-16T11:51:43.680Z</time>
      </trkpt>
      <trkpt lat="48.59444" lon="1.90158">
        <ele>174</ele>
        <time>2025-06-16T11:51:48.442Z</time>
      </trkpt>
      <trkpt lat="48.59439" lon="1.90165">
        <ele>174</ele>
        <time>2025-06-16T11:51:53.058Z</time>
      </trkpt>
      <trkpt lat="48.59436" lon="1.90172">
        <ele>174</ele>
        <time>2025-06-16T11:51:57.406Z</time>
      </trkpt>
      <trkpt lat="48.59431" lon="1.90179">
        <ele>174</ele>
        <time>2025-06-16T11:52:01.706Z</time>
      </trkpt>
      <trkpt lat="48.59427" lon="1.90187">
        <ele>172</ele>
        <time>2025-06-16T11:52:06.529Z</time>
      </trkpt>
      <trkpt lat="48.59423" lon="1.90193">
        <ele>172</ele>
        <time>2025-06-16T11:52:10.706Z</time>
      </trkpt>
      <trkpt lat="48.59419" lon="1.902">
        <ele>172</ele>
        <time>2025-06-16T11:52:14.939Z</time>
      </trkpt>
      <trkpt lat="48.59414" lon="1.90207">
        <ele>172</ele>
        <time>2025-06-16T11:52:19.418Z</time>
      </trkpt>
      <trkpt lat="48.59409" lon="1.90212">
        <ele>171</ele>
        <time>2025-06-16T11:52:23.482Z</time>
      </trkpt>
      <trkpt lat="48.59405" lon="1.90218">
        <ele>171</ele>
        <time>2025-06-16T11:52:27.725Z</time>
      </trkpt>
      <trkpt lat="48.59402" lon="1.90226">
        <ele>169</ele>
        <time>2025-06-16T11:52:31.714Z</time>
      </trkpt>
      <trkpt lat="48.59399" lon="1.90233">
        <ele>169</ele>
        <time>2025-06-16T11:52:36.328Z</time>
      </trkpt>
      <trkpt lat="48.59394" lon="1.9024">
        <ele>169</ele>
        <time>2025-06-16T11:52:40.442Z</time>
      </trkpt>
      <trkpt lat="48.5939" lon="1.90247">
        <ele>169</ele>
        <time>2025-06-16T11:52:44.718Z</time>
      </trkpt>
      <trkpt lat="48.59386" lon="1.90253">
        <ele>169</ele>
        <time>2025-06-16T11:52:49.069Z</time>
      </trkpt>
      <trkpt lat="48.59382" lon="1.9026">
        <ele>169</ele>
        <time>2025-06-16T11:52:53.182Z</time>
      </trkpt>
      <trkpt lat="48.59379" lon="1.90266">
        <ele>169</ele>
        <time>2025-06-16T11:52:57.202Z</time>
      </trkpt>
      <trkpt lat="48.59375" lon="1.90272">
        <ele>168</ele>
        <time>2025-06-16T11:53:01.302Z</time>
      </trkpt>
      <trkpt lat="48.59371" lon="1.90279">
        <ele>168</ele>
        <time>2025-06-16T11:53:05.728Z</time>
      </trkpt>
      <trkpt lat="48.59367" lon="1.90286">
        <ele>168</ele>
        <time>2025-06-16T11:53:10.382Z</time>
      </trkpt>
      <trkpt lat="48.59362" lon="1.90292">
        <ele>168</ele>
        <time>2025-06-16T11:53:14.624Z</time>
      </trkpt>
      <trkpt lat="48.59358" lon="1.90298">
        <ele>169</ele>
        <time>2025-06-16T11:53:18.718Z</time>
      </trkpt>
      <trkpt lat="48.59354" lon="1.90305">
        <ele>169</ele>
        <time>2025-06-16T11:53:23.042Z</time>
      </trkpt>
      <trkpt lat="48.5935" lon="1.90311">
        <ele>169</ele>
        <time>2025-06-16T11:53:27.088Z</time>
      </trkpt>
      <trkpt lat="48.59347" lon="1.90319">
        <ele>168</ele>
        <time>2025-06-16T11:53:31.683Z</time>
      </trkpt>
      <trkpt lat="48.59343" lon="1.90325">
        <ele>169</ele>
        <time>2025-06-16T11:53:35.868Z</time>
      </trkpt>
      <trkpt lat="48.59339" lon="1.90332">
        <ele>169</ele>
        <time>2025-06-16T11:53:40.169Z</time>
      </trkpt>
      <trkpt lat="48.59335" lon="1.90339">
        <ele>169</ele>
        <time>2025-06-16T11:53:44.338Z</time>
      </trkpt>
      <trkpt lat="48.59331" lon="1.90345">
        <ele>169</ele>
        <time>2025-06-16T11:53:48.664Z</time>
      </trkpt>
      <trkpt lat="48.59327" lon="1.90351">
        <ele>170</ele>
        <time>2025-06-16T11:53:52.923Z</time>
      </trkpt>
      <trkpt lat="48.59323" lon="1.90358">
        <ele>170</ele>
        <time>2025-06-16T11:53:57.263Z</time>
      </trkpt>
      <trkpt lat="48.59319" lon="1.90365">
        <ele>168</ele>
        <time>2025-06-16T11:54:01.718Z</time>
      </trkpt>
      <trkpt lat="48.59314" lon="1.90371">
        <ele>168</ele>
        <time>2025-06-16T11:54:05.937Z</time>
      </trkpt>
      <trkpt lat="48.59311" lon="1.90378">
        <ele>170</ele>
        <time>2025-06-16T11:54:10.263Z</time>
      </trkpt>
      <trkpt lat="48.59306" lon="1.90385">
        <ele>170</ele>
        <time>2025-06-16T11:54:14.546Z</time>
      </trkpt>
      <trkpt lat="48.59303" lon="1.90391">
        <ele>170</ele>
        <time>2025-06-16T11:54:18.718Z</time>
      </trkpt>
      <trkpt lat="48.59299" lon="1.90399">
        <ele>170</ele>
        <time>2025-06-16T11:54:23.183Z</time>
      </trkpt>
      <trkpt lat="48.59296" lon="1.90405">
        <ele>171</ele>
        <time>2025-06-16T11:54:27.204Z</time>
      </trkpt>
      <trkpt lat="48.59291" lon="1.90411">
        <ele>171</ele>
        <time>2025-06-16T11:54:31.347Z</time>
      </trkpt>
      <trkpt lat="48.59286" lon="1.90416">
        <ele>171</ele>
        <time>2025-06-16T11:54:35.485Z</time>
      </trkpt>
      <trkpt lat="48.59282" lon="1.90424">
        <ele>171</ele>
        <time>2025-06-16T11:54:39.718Z</time>
      </trkpt>
      <trkpt lat="48.59279" lon="1.90432">
        <ele>172</ele>
        <time>2025-06-16T11:54:44.221Z</time>
      </trkpt>
      <trkpt lat="48.59276" lon="1.9044">
        <ele>172</ele>
        <time>2025-06-16T11:54:48.364Z</time>
      </trkpt>
      <trkpt lat="48.59271" lon="1.90445">
        <ele>172</ele>
        <time>2025-06-16T11:54:52.579Z</time>
      </trkpt>
      <trkpt lat="48.59267" lon="1.90451">
        <ele>172</ele>
        <time>2025-06-16T11:54:56.724Z</time>
      </trkpt>
      <trkpt lat="48.59264" lon="1.90456">
        <ele>170</ele>
        <time>2025-06-16T11:55:01.468Z</time>
      </trkpt>
      <trkpt lat="48.59264" lon="1.90462">
        <ele>169</ele>
        <time>2025-06-16T11:55:05.718Z</time>
      </trkpt>
      <trkpt lat="48.59267" lon="1.90469">
        <ele>173</ele>
        <time>2025-06-16T11:55:10.457Z</time>
      </trkpt>
      <trkpt lat="48.59271" lon="1.90476">
        <ele>173</ele>
        <time>2025-06-16T11:55:14.849Z</time>
      </trkpt>
      <trkpt lat="48.59274" lon="1.90482">
        <ele>173</ele>
        <time>2025-06-16T11:55:19.226Z</time>
      </trkpt>
      <trkpt lat="48.59277" lon="1.90491">
        <ele>172</ele>
        <time>2025-06-16T11:55:23.559Z</time>
      </trkpt>
      <trkpt lat="48.5928" lon="1.90499">
        <ele>172</ele>
        <time>2025-06-16T11:55:27.944Z</time>
      </trkpt>
      <trkpt lat="48.59283" lon="1.90507">
        <ele>172</ele>
        <time>2025-06-16T11:55:32.303Z</time>
      </trkpt>
      <trkpt lat="48.59285" lon="1.90515">
        <ele>171</ele>
        <time>2025-06-16T11:55:36.688Z</time>
      </trkpt>
      <trkpt lat="48.59289" lon="1.90523">
        <ele>171</ele>
        <time>2025-06-16T11:55:41.002Z</time>
      </trkpt>
      <trkpt lat="48.59291" lon="1.90532">
        <ele>171</ele>
        <time>2025-06-16T11:55:45.338Z</time>
      </trkpt>
      <trkpt lat="48.59294" lon="1.9054">
        <ele>174</ele>
        <time>2025-06-16T11:55:49.664Z</time>
      </trkpt>
      <trkpt lat="48.59297" lon="1.90548">
        <ele>175</ele>
        <time>2025-06-16T11:55:53.984Z</time>
      </trkpt>
      <trkpt lat="48.593" lon="1.90556">
        <ele>175</ele>
        <time>2025-06-16T11:55:58.305Z</time>
      </trkpt>
      <trkpt lat="48.59303" lon="1.90564">
        <ele>175</ele>
        <time>2025-06-16T11:56:02.649Z</time>
      </trkpt>
      <trkpt lat="48.59306" lon="1.90571">
        <ele>174</ele>
        <time>2025-06-16T11:56:06.963Z</time>
      </trkpt>
      <trkpt lat="48.59309" lon="1.90578">
        <ele>174</ele>
        <time>2025-06-16T11:56:11.265Z</time>
      </trkpt>
      <trkpt lat="48.59312" lon="1.90585">
        <ele>174</ele>
        <time>2025-06-16T11:56:15.462Z</time>
      </trkpt>
      <trkpt lat="48.59315" lon="1.90593">
        <ele>174</ele>
        <time>2025-06-16T11:56:19.618Z</time>
      </trkpt>
      <trkpt lat="48.59316" lon="1.90601">
        <ele>175</ele>
        <time>2025-06-16T11:56:23.822Z</time>
      </trkpt>
      <trkpt lat="48.59318" lon="1.90611">
        <ele>175</ele>
        <time>2025-06-16T11:56:28.643Z</time>
      </trkpt>
      <trkpt lat="48.59321" lon="1.9062">
        <ele>175</ele>
        <time>2025-06-16T11:56:33.238Z</time>
      </trkpt>
      <trkpt lat="48.59324" lon="1.90628">
        <ele>175</ele>
        <time>2025-06-16T11:56:37.527Z</time>
      </trkpt>
      <trkpt lat="48.59327" lon="1.90636">
        <ele>175</ele>
        <time>2025-06-16T11:56:41.622Z</time>
      </trkpt>
      <trkpt lat="48.5933" lon="1.90643">
        <ele>175</ele>
        <time>2025-06-16T11:56:45.718Z</time>
      </trkpt>
      <trkpt lat="48.59332" lon="1.90651">
        <ele>175</ele>
        <time>2025-06-16T11:56:50.358Z</time>
      </trkpt>
      <trkpt lat="48.59334" lon="1.90659">
        <ele>175</ele>
        <time>2025-06-16T11:56:54.522Z</time>
      </trkpt>
      <trkpt lat="48.59334" lon="1.90665">
        <ele>175</ele>
        <time>2025-06-16T11:56:58.718Z</time>
      </trkpt>
      <trkpt lat="48.59331" lon="1.9067">
        <ele>175</ele>
        <time>2025-06-16T11:57:03.025Z</time>
      </trkpt>
      <trkpt lat="48.59327" lon="1.90673">
        <ele>175</ele>
        <time>2025-06-16T11:57:07.083Z</time>
      </trkpt>
      <trkpt lat="48.59323" lon="1.90678">
        <ele>175</ele>
        <time>2025-06-16T11:57:11.623Z</time>
      </trkpt>
      <trkpt lat="48.59318" lon="1.9068">
        <ele>176</ele>
        <time>2025-06-16T11:57:16.228Z</time>
      </trkpt>
      <trkpt lat="48.59314" lon="1.90678">
        <ele>176</ele>
        <time>2025-06-16T11:57:20.644Z</time>
      </trkpt>
      <trkpt lat="48.59309" lon="1.9068">
        <ele>176</ele>
        <time>2025-06-16T11:57:25.124Z</time>
      </trkpt>
      <trkpt lat="48.59303" lon="1.90683">
        <ele>175</ele>
        <time>2025-06-16T11:57:29.718Z</time>
      </trkpt>
      <trkpt lat="48.59299" lon="1.90692">
        <ele>175</ele>
        <time>2025-06-16T11:57:34.118Z</time>
      </trkpt>
      <trkpt lat="48.59294" lon="1.90698">
        <ele>175</ele>
        <time>2025-06-16T11:57:38.263Z</time>
      </trkpt>
      <trkpt lat="48.59292" lon="1.90707">
        <ele>175</ele>
        <time>2025-06-16T11:57:42.717Z</time>
      </trkpt>
      <trkpt lat="48.59288" lon="1.90712">
        <ele>175</ele>
        <time>2025-06-16T11:57:47.063Z</time>
      </trkpt>
      <trkpt lat="48.59283" lon="1.90718">
        <ele>175</ele>
        <time>2025-06-16T11:57:51.383Z</time>
      </trkpt>
      <trkpt lat="48.59278" lon="1.90722">
        <ele>175</ele>
        <time>2025-06-16T11:57:55.718Z</time>
      </trkpt>
      <trkpt lat="48.59273" lon="1.90728">
        <ele>175</ele>
        <time>2025-06-16T11:58:00.018Z</time>
      </trkpt>
      <trkpt lat="48.59267" lon="1.90733">
        <ele>175</ele>
        <time>2025-06-16T11:58:04.524Z</time>
      </trkpt>
      <trkpt lat="48.59262" lon="1.90737">
        <ele>174</ele>
        <time>2025-06-16T11:58:08.945Z</time>
      </trkpt>
      <trkpt lat="48.59257" lon="1.90741">
        <ele>174</ele>
        <time>2025-06-16T11:58:13.237Z</time>
      </trkpt>
      <trkpt lat="48.59251" lon="1.90745">
        <ele>174</ele>
        <time>2025-06-16T11:58:17.478Z</time>
      </trkpt>
      <trkpt lat="48.59246" lon="1.9075">
        <ele>174</ele>
        <time>2025-06-16T11:58:21.864Z</time>
      </trkpt>
      <trkpt lat="48.59241" lon="1.90755">
        <ele>174</ele>
        <time>2025-06-16T11:58:26.141Z</time>
      </trkpt>
      <trkpt lat="48.59236" lon="1.9076">
        <ele>174</ele>
        <time>2025-06-16T11:58:30.325Z</time>
      </trkpt>
      <trkpt lat="48.59231" lon="1.90765">
        <ele>175</ele>
        <time>2025-06-16T11:58:34.718Z</time>
      </trkpt>
      <trkpt lat="48.59226" lon="1.90769">
        <ele>175</ele>
        <time>2025-06-16T11:58:39.164Z</time>
      </trkpt>
      <trkpt lat="48.5922" lon="1.90775">
        <ele>175</ele>
        <time>2025-06-16T11:58:43.661Z</time>
      </trkpt>
      <trkpt lat="48.59216" lon="1.9078">
        <ele>175</ele>
        <time>2025-06-16T11:58:47.902Z</time>
      </trkpt>
      <trkpt lat="48.59211" lon="1.90786">
        <ele>175</ele>
        <time>2025-06-16T11:58:52.484Z</time>
      </trkpt>
      <trkpt lat="48.59206" lon="1.90791">
        <ele>175</ele>
        <time>2025-06-16T11:58:56.922Z</time>
      </trkpt>
      <trkpt lat="48.59203" lon="1.90796">
        <ele>175</ele>
        <time>2025-06-16T11:59:01.062Z</time>
      </trkpt>
      <trkpt lat="48.59199" lon="1.90803">
        <ele>175</ele>
        <time>2025-06-16T11:59:05.557Z</time>
      </trkpt>
      <trkpt lat="48.59196" lon="1.90811">
        <ele>175</ele>
        <time>2025-06-16T11:59:10.082Z</time>
      </trkpt>
      <trkpt lat="48.59194" lon="1.9082">
        <ele>174</ele>
        <time>2025-06-16T11:59:14.544Z</time>
      </trkpt>
      <trkpt lat="48.59191" lon="1.90827">
        <ele>174</ele>
        <time>2025-06-16T11:59:19.020Z</time>
      </trkpt>
      <trkpt lat="48.59189" lon="1.90836">
        <ele>174</ele>
        <time>2025-06-16T11:59:23.420Z</time>
      </trkpt>
      <trkpt lat="48.59187" lon="1.90844">
        <ele>174</ele>
        <time>2025-06-16T11:59:27.864Z</time>
      </trkpt>
      <trkpt lat="48.59183" lon="1.90852">
        <ele>174</ele>
        <time>2025-06-16T11:59:32.243Z</time>
      </trkpt>
      <trkpt lat="48.59179" lon="1.90859">
        <ele>173</ele>
        <time>2025-06-16T11:59:36.697Z</time>
      </trkpt>
      <trkpt lat="48.59177" lon="1.90867">
        <ele>173</ele>
        <time>2025-06-16T11:59:40.845Z</time>
      </trkpt>
      <trkpt lat="48.59175" lon="1.90875">
        <ele>174</ele>
        <time>2025-06-16T11:59:45.102Z</time>
      </trkpt>
      <trkpt lat="48.59172" lon="1.90883">
        <ele>174</ele>
        <time>2025-06-16T11:59:49.557Z</time>
      </trkpt>
      <trkpt lat="48.59169" lon="1.90891">
        <ele>174</ele>
        <time>2025-06-16T11:59:53.943Z</time>
      </trkpt>
      <trkpt lat="48.59165" lon="1.90897">
        <ele>174</ele>
        <time>2025-06-16T11:59:58.022Z</time>
      </trkpt>
      <trkpt lat="48.59162" lon="1.90904">
        <ele>175</ele>
        <time>2025-06-16T12:00:02.282Z</time>
      </trkpt>
      <trkpt lat="48.59159" lon="1.90912">
        <ele>175</ele>
        <time>2025-06-16T12:00:06.719Z</time>
      </trkpt>
      <trkpt lat="48.59156" lon="1.90918">
        <ele>175</ele>
        <time>2025-06-16T12:00:10.718Z</time>
      </trkpt>
      <trkpt lat="48.59153" lon="1.90927">
        <ele>175</ele>
        <time>2025-06-16T12:00:15.483Z</time>
      </trkpt>
      <trkpt lat="48.59151" lon="1.90935">
        <ele>177</ele>
        <time>2025-06-16T12:00:19.718Z</time>
      </trkpt>
      <trkpt lat="48.59148" lon="1.90944">
        <ele>177</ele>
        <time>2025-06-16T12:00:24.171Z</time>
      </trkpt>
      <trkpt lat="48.59145" lon="1.90951">
        <ele>177</ele>
        <time>2025-06-16T12:00:28.531Z</time>
      </trkpt>
      <trkpt lat="48.59142" lon="1.90959">
        <ele>176</ele>
        <time>2025-06-16T12:00:32.718Z</time>
      </trkpt>
      <trkpt lat="48.59139" lon="1.90966">
        <ele>176</ele>
        <time>2025-06-16T12:00:37.073Z</time>
      </trkpt>
      <trkpt lat="48.59136" lon="1.90974">
        <ele>176</ele>
        <time>2025-06-16T12:00:41.476Z</time>
      </trkpt>
      <trkpt lat="48.59133" lon="1.90982">
        <ele>176</ele>
        <time>2025-06-16T12:00:45.794Z</time>
      </trkpt>
      <trkpt lat="48.5913" lon="1.9099">
        <ele>176</ele>
        <time>2025-06-16T12:00:50.233Z</time>
      </trkpt>
      <trkpt lat="48.59127" lon="1.90998">
        <ele>176</ele>
        <time>2025-06-16T12:00:54.474Z</time>
      </trkpt>
      <trkpt lat="48.59124" lon="1.91006">
        <ele>177</ele>
        <time>2025-06-16T12:00:58.717Z</time>
      </trkpt>
      <trkpt lat="48.5912" lon="1.91015">
        <ele>175</ele>
        <time>2025-06-16T12:01:03.152Z</time>
      </trkpt>
      <trkpt lat="48.59117" lon="1.91024">
        <ele>175</ele>
        <time>2025-06-16T12:01:07.413Z</time>
      </trkpt>
      <trkpt lat="48.59115" lon="1.91031">
        <ele>175</ele>
        <time>2025-06-16T12:01:11.713Z</time>
      </trkpt>
      <trkpt lat="48.59111" lon="1.91038">
        <ele>175</ele>
        <time>2025-06-16T12:01:16.013Z</time>
      </trkpt>
      <trkpt lat="48.59108" lon="1.91046">
        <ele>174</ele>
        <time>2025-06-16T12:01:20.296Z</time>
      </trkpt>
      <trkpt lat="48.59104" lon="1.91054">
        <ele>174</ele>
        <time>2025-06-16T12:01:24.512Z</time>
      </trkpt>
      <trkpt lat="48.59101" lon="1.91061">
        <ele>174</ele>
        <time>2025-06-16T12:01:28.718Z</time>
      </trkpt>
      <trkpt lat="48.59097" lon="1.91068">
        <ele>173</ele>
        <time>2025-06-16T12:01:32.892Z</time>
      </trkpt>
      <trkpt lat="48.59094" lon="1.91078">
        <ele>173</ele>
        <time>2025-06-16T12:01:37.654Z</time>
      </trkpt>
      <trkpt lat="48.59091" lon="1.91087">
        <ele>173</ele>
        <time>2025-06-16T12:01:42.014Z</time>
      </trkpt>
      <trkpt lat="48.59089" lon="1.91095">
        <ele>173</ele>
        <time>2025-06-16T12:01:46.255Z</time>
      </trkpt>
      <trkpt lat="48.59086" lon="1.91103">
        <ele>173</ele>
        <time>2025-06-16T12:01:50.718Z</time>
      </trkpt>
      <trkpt lat="48.59083" lon="1.91112">
        <ele>173</ele>
        <time>2025-06-16T12:01:55.293Z</time>
      </trkpt>
      <trkpt lat="48.5908" lon="1.9112">
        <ele>173</ele>
        <time>2025-06-16T12:01:59.718Z</time>
      </trkpt>
      <trkpt lat="48.59077" lon="1.91127">
        <ele>173</ele>
        <time>2025-06-16T12:02:03.894Z</time>
      </trkpt>
      <trkpt lat="48.59073" lon="1.91135">
        <ele>173</ele>
        <time>2025-06-16T12:02:08.137Z</time>
      </trkpt>
      <trkpt lat="48.59069" lon="1.91143">
        <ele>173</ele>
        <time>2025-06-16T12:02:12.438Z</time>
      </trkpt>
      <trkpt lat="48.59066" lon="1.9115">
        <ele>173</ele>
        <time>2025-06-16T12:02:16.717Z</time>
      </trkpt>
      <trkpt lat="48.59063" lon="1.91158">
        <ele>173</ele>
        <time>2025-06-16T12:02:21.209Z</time>
      </trkpt>
      <trkpt lat="48.59059" lon="1.91165">
        <ele>173</ele>
        <time>2025-06-16T12:02:25.553Z</time>
      </trkpt>
      <trkpt lat="48.59056" lon="1.91172">
        <ele>173</ele>
        <time>2025-06-16T12:02:30.016Z</time>
      </trkpt>
      <trkpt lat="48.59052" lon="1.91179">
        <ele>173</ele>
        <time>2025-06-16T12:02:34.393Z</time>
      </trkpt>
      <trkpt lat="48.59049" lon="1.91187">
        <ele>173</ele>
        <time>2025-06-16T12:02:38.669Z</time>
      </trkpt>
      <trkpt lat="48.59046" lon="1.91196">
        <ele>173</ele>
        <time>2025-06-16T12:02:43.456Z</time>
      </trkpt>
      <trkpt lat="48.59043" lon="1.91203">
        <ele>173</ele>
        <time>2025-06-16T12:02:47.985Z</time>
      </trkpt>
      <trkpt lat="48.59039" lon="1.91211">
        <ele>172</ele>
        <time>2025-06-16T12:02:52.357Z</time>
      </trkpt>
      <trkpt lat="48.59035" lon="1.91218">
        <ele>172</ele>
        <time>2025-06-16T12:02:57.395Z</time>
      </trkpt>
      <trkpt lat="48.59033" lon="1.91225">
        <ele>172</ele>
        <time>2025-06-16T12:03:01.718Z</time>
      </trkpt>
      <trkpt lat="48.59029" lon="1.91234">
        <ele>172</ele>
        <time>2025-06-16T12:03:06.393Z</time>
      </trkpt>
      <trkpt lat="48.59026" lon="1.9124">
        <ele>173</ele>
        <time>2025-06-16T12:03:10.718Z</time>
      </trkpt>
      <trkpt lat="48.59021" lon="1.91248">
        <ele>173</ele>
        <time>2025-06-16T12:03:15.175Z</time>
      </trkpt>
      <trkpt lat="48.59017" lon="1.91255">
        <ele>173</ele>
        <time>2025-06-16T12:03:19.494Z</time>
      </trkpt>
      <trkpt lat="48.59014" lon="1.91261">
        <ele>171</ele>
        <time>2025-06-16T12:03:24.195Z</time>
      </trkpt>
      <trkpt lat="48.59009" lon="1.91269">
        <ele>172</ele>
        <time>2025-06-16T12:03:28.718Z</time>
      </trkpt>
      <trkpt lat="48.59005" lon="1.91276">
        <ele>172</ele>
        <time>2025-06-16T12:03:32.933Z</time>
      </trkpt>
      <trkpt lat="48.59001" lon="1.91284">
        <ele>172</ele>
        <time>2025-06-16T12:03:37.353Z</time>
      </trkpt>
      <trkpt lat="48.58997" lon="1.91291">
        <ele>172</ele>
        <time>2025-06-16T12:03:41.511Z</time>
      </trkpt>
      <trkpt lat="48.58993" lon="1.91298">
        <ele>172</ele>
        <time>2025-06-16T12:03:45.931Z</time>
      </trkpt>
      <trkpt lat="48.58988" lon="1.91304">
        <ele>172</ele>
        <time>2025-06-16T12:03:50.215Z</time>
      </trkpt>
      <trkpt lat="48.58985" lon="1.91309">
        <ele>170</ele>
        <time>2025-06-16T12:03:54.302Z</time>
      </trkpt>
      <trkpt lat="48.5898" lon="1.91316">
        <ele>170</ele>
        <time>2025-06-16T12:03:58.718Z</time>
      </trkpt>
      <trkpt lat="48.58976" lon="1.91324">
        <ele>170</ele>
        <time>2025-06-16T12:04:03.238Z</time>
      </trkpt>
      <trkpt lat="48.58973" lon="1.91331">
        <ele>170</ele>
        <time>2025-06-16T12:04:07.402Z</time>
      </trkpt>
      <trkpt lat="48.58969" lon="1.9134">
        <ele>170</ele>
        <time>2025-06-16T12:04:11.718Z</time>
      </trkpt>
      <trkpt lat="48.58966" lon="1.91347">
        <ele>170</ele>
        <time>2025-06-16T12:04:16.275Z</time>
      </trkpt>
      <trkpt lat="48.58962" lon="1.91353">
        <ele>170</ele>
        <time>2025-06-16T12:04:20.534Z</time>
      </trkpt>
      <trkpt lat="48.58957" lon="1.91357">
        <ele>168</ele>
        <time>2025-06-16T12:04:24.718Z</time>
      </trkpt>
      <trkpt lat="48.58952" lon="1.91364">
        <ele>168</ele>
        <time>2025-06-16T12:04:29.059Z</time>
      </trkpt>
      <trkpt lat="48.58948" lon="1.9137">
        <ele>168</ele>
        <time>2025-06-16T12:04:33.155Z</time>
      </trkpt>
      <trkpt lat="48.58944" lon="1.91377">
        <ele>168</ele>
        <time>2025-06-16T12:04:37.413Z</time>
      </trkpt>
      <trkpt lat="48.58941" lon="1.91384">
        <ele>168</ele>
        <time>2025-06-16T12:04:41.718Z</time>
      </trkpt>
      <trkpt lat="48.58936" lon="1.91391">
        <ele>168</ele>
        <time>2025-06-16T12:04:46.535Z</time>
      </trkpt>
      <trkpt lat="48.58932" lon="1.91398">
        <ele>168</ele>
        <time>2025-06-16T12:04:50.718Z</time>
      </trkpt>
      <trkpt lat="48.58928" lon="1.91404">
        <ele>168</ele>
        <time>2025-06-16T12:04:54.934Z</time>
      </trkpt>
      <trkpt lat="48.58923" lon="1.9141">
        <ele>168</ele>
        <time>2025-06-16T12:04:59.081Z</time>
      </trkpt>
      <trkpt lat="48.58918" lon="1.91414">
        <ele>168</ele>
        <time>2025-06-16T12:05:03.193Z</time>
      </trkpt>
      <trkpt lat="48.58913" lon="1.91419">
        <ele>168</ele>
        <time>2025-06-16T12:05:07.433Z</time>
      </trkpt>
      <trkpt lat="48.58909" lon="1.91426">
        <ele>168</ele>
        <time>2025-06-16T12:05:11.693Z</time>
      </trkpt>
      <trkpt lat="48.58905" lon="1.91433">
        <ele>169</ele>
        <time>2025-06-16T12:05:16.053Z</time>
      </trkpt>
      <trkpt lat="48.58902" lon="1.9144">
        <ele>169</ele>
        <time>2025-06-16T12:05:20.234Z</time>
      </trkpt>
      <trkpt lat="48.58899" lon="1.91447">
        <ele>169</ele>
        <time>2025-06-16T12:05:24.433Z</time>
      </trkpt>
      <trkpt lat="48.58895" lon="1.91456">
        <ele>169</ele>
        <time>2025-06-16T12:05:28.793Z</time>
      </trkpt>
      <trkpt lat="48.58891" lon="1.91463">
        <ele>169</ele>
        <time>2025-06-16T12:05:33.004Z</time>
      </trkpt>
      <trkpt lat="48.58888" lon="1.91472">
        <ele>169</ele>
        <time>2025-06-16T12:05:37.217Z</time>
      </trkpt>
      <trkpt lat="48.58884" lon="1.9148">
        <ele>169</ele>
        <time>2025-06-16T12:05:41.517Z</time>
      </trkpt>
      <trkpt lat="48.58881" lon="1.91487">
        <ele>169</ele>
        <time>2025-06-16T12:05:45.717Z</time>
      </trkpt>
      <trkpt lat="48.58878" lon="1.91496">
        <ele>169</ele>
        <time>2025-06-16T12:05:50.001Z</time>
      </trkpt>
      <trkpt lat="48.58876" lon="1.91504">
        <ele>169</ele>
        <time>2025-06-16T12:05:54.319Z</time>
      </trkpt>
      <trkpt lat="48.58872" lon="1.91512">
        <ele>169</ele>
        <time>2025-06-16T12:05:58.718Z</time>
      </trkpt>
      <trkpt lat="48.58868" lon="1.91519">
        <ele>170</ele>
        <time>2025-06-16T12:06:02.929Z</time>
      </trkpt>
      <trkpt lat="48.58864" lon="1.91528">
        <ele>170</ele>
        <time>2025-06-16T12:06:07.556Z</time>
      </trkpt>
      <trkpt lat="48.5886" lon="1.91536">
        <ele>170</ele>
        <time>2025-06-16T12:06:11.716Z</time>
      </trkpt>
      <trkpt lat="48.58857" lon="1.91545">
        <ele>170</ele>
        <time>2025-06-16T12:06:16.096Z</time>
      </trkpt>
      <trkpt lat="48.58854" lon="1.91552">
        <ele>170</ele>
        <time>2025-06-16T12:06:20.389Z</time>
      </trkpt>
      <trkpt lat="48.58851" lon="1.9156">
        <ele>170</ele>
        <time>2025-06-16T12:06:24.673Z</time>
      </trkpt>
      <trkpt lat="48.58849" lon="1.91569">
        <ele>170</ele>
        <time>2025-06-16T12:06:28.718Z</time>
      </trkpt>
      <trkpt lat="48.58847" lon="1.91579">
        <ele>170</ele>
        <time>2025-06-16T12:06:33.275Z</time>
      </trkpt>
      <trkpt lat="48.58845" lon="1.91588">
        <ele>170</ele>
        <time>2025-06-16T12:06:37.492Z</time>
      </trkpt>
      <trkpt lat="48.58842" lon="1.91597">
        <ele>170</ele>
        <time>2025-06-16T12:06:41.716Z</time>
      </trkpt>
      <trkpt lat="48.5884" lon="1.91606">
        <ele>170</ele>
        <time>2025-06-16T12:06:46.033Z</time>
      </trkpt>
      <trkpt lat="48.5884" lon="1.91615">
        <ele>170</ele>
        <time>2025-06-16T12:06:50.274Z</time>
      </trkpt>
      <trkpt lat="48.58838" lon="1.91624">
        <ele>170</ele>
        <time>2025-06-16T12:06:54.592Z</time>
      </trkpt>
      <trkpt lat="48.58837" lon="1.91634">
        <ele>170</ele>
        <time>2025-06-16T12:06:58.816Z</time>
      </trkpt>
      <trkpt lat="48.58835" lon="1.91643">
        <ele>170</ele>
        <time>2025-06-16T12:07:03.048Z</time>
      </trkpt>
      <trkpt lat="48.58833" lon="1.91652">
        <ele>170</ele>
        <time>2025-06-16T12:07:07.333Z</time>
      </trkpt>
      <trkpt lat="48.58832" lon="1.9166">
        <ele>170</ele>
        <time>2025-06-16T12:07:11.562Z</time>
      </trkpt>
      <trkpt lat="48.5883" lon="1.91669">
        <ele>170</ele>
        <time>2025-06-16T12:07:15.695Z</time>
      </trkpt>
      <trkpt lat="48.58828" lon="1.91677">
        <ele>170</ele>
        <time>2025-06-16T12:07:19.834Z</time>
      </trkpt>
      <trkpt lat="48.58826" lon="1.91687">
        <ele>171</ele>
        <time>2025-06-16T12:07:24.033Z</time>
      </trkpt>
      <trkpt lat="48.58824" lon="1.91696">
        <ele>171</ele>
        <time>2025-06-16T12:07:28.316Z</time>
      </trkpt>
      <trkpt lat="48.58822" lon="1.91704">
        <ele>171</ele>
        <time>2025-06-16T12:07:32.472Z</time>
      </trkpt>
      <trkpt lat="48.5882" lon="1.91713">
        <ele>172</ele>
        <time>2025-06-16T12:07:36.718Z</time>
      </trkpt>
      <trkpt lat="48.58818" lon="1.91722">
        <ele>170</ele>
        <time>2025-06-16T12:07:40.775Z</time>
      </trkpt>
      <trkpt lat="48.58816" lon="1.91731">
        <ele>170</ele>
        <time>2025-06-16T12:07:44.915Z</time>
      </trkpt>
      <trkpt lat="48.58814" lon="1.9174">
        <ele>171</ele>
        <time>2025-06-16T12:07:49.189Z</time>
      </trkpt>
      <trkpt lat="48.58813" lon="1.91749">
        <ele>171</ele>
        <time>2025-06-16T12:07:53.295Z</time>
      </trkpt>
      <trkpt lat="48.58811" lon="1.91759">
        <ele>171</ele>
        <time>2025-06-16T12:07:57.617Z</time>
      </trkpt>
      <trkpt lat="48.58809" lon="1.91768">
        <ele>172</ele>
        <time>2025-06-16T12:08:01.718Z</time>
      </trkpt>
      <trkpt lat="48.58808" lon="1.91778">
        <ele>172</ele>
        <time>2025-06-16T12:08:06.189Z</time>
      </trkpt>
      <trkpt lat="48.58806" lon="1.91787">
        <ele>172</ele>
        <time>2025-06-16T12:08:10.218Z</time>
      </trkpt>
      <trkpt lat="48.58804" lon="1.91795">
        <ele>173</ele>
        <time>2025-06-16T12:08:14.333Z</time>
      </trkpt>
      <trkpt lat="48.58801" lon="1.91805">
        <ele>173</ele>
        <time>2025-06-16T12:08:18.798Z</time>
      </trkpt>
      <trkpt lat="48.58798" lon="1.91816">
        <ele>173</ele>
        <time>2025-06-16T12:08:23.718Z</time>
      </trkpt>
      <trkpt lat="48.58796" lon="1.91826">
        <ele>173</ele>
        <time>2025-06-16T12:08:28.437Z</time>
      </trkpt>
      <trkpt lat="48.58795" lon="1.91836">
        <ele>173</ele>
        <time>2025-06-16T12:08:32.716Z</time>
      </trkpt>
      <trkpt lat="48.58793" lon="1.91845">
        <ele>173</ele>
        <time>2025-06-16T12:08:36.958Z</time>
      </trkpt>
      <trkpt lat="48.58791" lon="1.91856">
        <ele>173</ele>
        <time>2025-06-16T12:08:41.716Z</time>
      </trkpt>
      <trkpt lat="48.58789" lon="1.91865">
        <ele>173</ele>
        <time>2025-06-16T12:08:46.112Z</time>
      </trkpt>
      <trkpt lat="48.58785" lon="1.91873">
        <ele>173</ele>
        <time>2025-06-16T12:08:50.281Z</time>
      </trkpt>
      <trkpt lat="48.58782" lon="1.91881">
        <ele>172</ele>
        <time>2025-06-16T12:08:54.462Z</time>
      </trkpt>
      <trkpt lat="48.58778" lon="1.91889">
        <ele>172</ele>
        <time>2025-06-16T12:08:58.514Z</time>
      </trkpt>
      <trkpt lat="48.58774" lon="1.91897">
        <ele>172</ele>
        <time>2025-06-16T12:09:02.752Z</time>
      </trkpt>
      <trkpt lat="48.58771" lon="1.91905">
        <ele>172</ele>
        <time>2025-06-16T12:09:07.014Z</time>
      </trkpt>
      <trkpt lat="48.58767" lon="1.91914">
        <ele>172</ele>
        <time>2025-06-16T12:09:11.721Z</time>
      </trkpt>
      <trkpt lat="48.58763" lon="1.91921">
        <ele>171</ele>
        <time>2025-06-16T12:09:15.997Z</time>
      </trkpt>
      <trkpt lat="48.58759" lon="1.91929">
        <ele>171</ele>
        <time>2025-06-16T12:09:20.297Z</time>
      </trkpt>
      <trkpt lat="48.58755" lon="1.91936">
        <ele>171</ele>
        <time>2025-06-16T12:09:24.557Z</time>
      </trkpt>
      <trkpt lat="48.58751" lon="1.91943">
        <ele>171</ele>
        <time>2025-06-16T12:09:28.718Z</time>
      </trkpt>
      <trkpt lat="48.58747" lon="1.91951">
        <ele>171</ele>
        <time>2025-06-16T12:09:33.660Z</time>
      </trkpt>
      <trkpt lat="48.58742" lon="1.91959">
        <ele>171</ele>
        <time>2025-06-16T12:09:37.954Z</time>
      </trkpt>
      <trkpt lat="48.58737" lon="1.91966">
        <ele>171</ele>
        <time>2025-06-16T12:09:42.162Z</time>
      </trkpt>
      <trkpt lat="48.58733" lon="1.91973">
        <ele>169</ele>
        <time>2025-06-16T12:09:46.568Z</time>
      </trkpt>
      <trkpt lat="48.5873" lon="1.91981">
        <ele>169</ele>
        <time>2025-06-16T12:09:50.657Z</time>
      </trkpt>
      <trkpt lat="48.58726" lon="1.91989">
        <ele>170</ele>
        <time>2025-06-16T12:09:55.099Z</time>
      </trkpt>
      <trkpt lat="48.58722" lon="1.91997">
        <ele>170</ele>
        <time>2025-06-16T12:09:59.655Z</time>
      </trkpt>
      <trkpt lat="48.58718" lon="1.92005">
        <ele>170</ele>
        <time>2025-06-16T12:10:03.917Z</time>
      </trkpt>
      <trkpt lat="48.58715" lon="1.92014">
        <ele>171</ele>
        <time>2025-06-16T12:10:08.177Z</time>
      </trkpt>
      <trkpt lat="48.58713" lon="1.92023">
        <ele>171</ele>
        <time>2025-06-16T12:10:12.316Z</time>
      </trkpt>
      <trkpt lat="48.58709" lon="1.92031">
        <ele>171</ele>
        <time>2025-06-16T12:10:16.518Z</time>
      </trkpt>
      <trkpt lat="48.58707" lon="1.92039">
        <ele>168</ele>
        <time>2025-06-16T12:10:20.717Z</time>
      </trkpt>
      <trkpt lat="48.58704" lon="1.92049">
        <ele>170</ele>
        <time>2025-06-16T12:10:25.553Z</time>
      </trkpt>
      <trkpt lat="48.58701" lon="1.92057">
        <ele>170</ele>
        <time>2025-06-16T12:10:29.716Z</time>
      </trkpt>
      <trkpt lat="48.58698" lon="1.92064">
        <ele>170</ele>
        <time>2025-06-16T12:10:34.082Z</time>
      </trkpt>
      <trkpt lat="48.58694" lon="1.92071">
        <ele>171</ele>
        <time>2025-06-16T12:10:38.314Z</time>
      </trkpt>
      <trkpt lat="48.58691" lon="1.92079">
        <ele>171</ele>
        <time>2025-06-16T12:10:42.376Z</time>
      </trkpt>
      <trkpt lat="48.58687" lon="1.92087">
        <ele>171</ele>
        <time>2025-06-16T12:10:46.615Z</time>
      </trkpt>
      <trkpt lat="48.58682" lon="1.92094">
        <ele>171</ele>
        <time>2025-06-16T12:10:50.776Z</time>
      </trkpt>
      <trkpt lat="48.58679" lon="1.92102">
        <ele>170</ele>
        <time>2025-06-16T12:10:55.074Z</time>
      </trkpt>
      <trkpt lat="48.58675" lon="1.9211">
        <ele>170</ele>
        <time>2025-06-16T12:10:59.353Z</time>
      </trkpt>
      <trkpt lat="48.58671" lon="1.92117">
        <ele>170</ele>
        <time>2025-06-16T12:11:03.516Z</time>
      </trkpt>
      <trkpt lat="48.58668" lon="1.92125">
        <ele>170</ele>
        <time>2025-06-16T12:11:07.797Z</time>
      </trkpt>
      <trkpt lat="48.58665" lon="1.92133">
        <ele>170</ele>
        <time>2025-06-16T12:11:12.158Z</time>
      </trkpt>
      <trkpt lat="48.58662" lon="1.92142">
        <ele>170</ele>
        <time>2025-06-16T12:11:16.417Z</time>
      </trkpt>
      <trkpt lat="48.58659" lon="1.9215">
        <ele>170</ele>
        <time>2025-06-16T12:11:20.669Z</time>
      </trkpt>
      <trkpt lat="48.58656" lon="1.92157">
        <ele>171</ele>
        <time>2025-06-16T12:11:24.937Z</time>
      </trkpt>
      <trkpt lat="48.58652" lon="1.92165">
        <ele>170</ele>
        <time>2025-06-16T12:11:29.258Z</time>
      </trkpt>
      <trkpt lat="48.58649" lon="1.92172">
        <ele>170</ele>
        <time>2025-06-16T12:11:33.501Z</time>
      </trkpt>
      <trkpt lat="48.58646" lon="1.9218">
        <ele>170</ele>
        <time>2025-06-16T12:11:37.717Z</time>
      </trkpt>
      <trkpt lat="48.58643" lon="1.92188">
        <ele>169</ele>
        <time>2025-06-16T12:11:42.192Z</time>
      </trkpt>
      <trkpt lat="48.5864" lon="1.92196">
        <ele>169</ele>
        <time>2025-06-16T12:11:46.272Z</time>
      </trkpt>
      <trkpt lat="48.58637" lon="1.92205">
        <ele>169</ele>
        <time>2025-06-16T12:11:50.726Z</time>
      </trkpt>
      <trkpt lat="48.58635" lon="1.92212">
        <ele>169</ele>
        <time>2025-06-16T12:11:54.803Z</time>
      </trkpt>
      <trkpt lat="48.58632" lon="1.92221">
        <ele>169</ele>
        <time>2025-06-16T12:11:59.489Z</time>
      </trkpt>
      <trkpt lat="48.58628" lon="1.92229">
        <ele>169</ele>
        <time>2025-06-16T12:12:04.252Z</time>
      </trkpt>
      <trkpt lat="48.58624" lon="1.92236">
        <ele>167</ele>
        <time>2025-06-16T12:12:08.481Z</time>
      </trkpt>
      <trkpt lat="48.58619" lon="1.92243">
        <ele>167</ele>
        <time>2025-06-16T12:12:12.901Z</time>
      </trkpt>
      <trkpt lat="48.58615" lon="1.9225">
        <ele>167</ele>
        <time>2025-06-16T12:12:17.436Z</time>
      </trkpt>
      <trkpt lat="48.5861" lon="1.92256">
        <ele>167</ele>
        <time>2025-06-16T12:12:21.718Z</time>
      </trkpt>
      <trkpt lat="48.58609" lon="1.92259">
        <ele>167</ele>
        <time>2025-06-16T12:12:26.718Z</time>
      </trkpt>
      <trkpt lat="48.58608" lon="1.92259">
        <ele>167</ele>
        <time>2025-06-16T12:12:32.718Z</time>
      </trkpt>
      <trkpt lat="48.58612" lon="1.92255">
        <ele>167</ele>
        <time>2025-06-16T12:12:37.209Z</time>
      </trkpt>
      <trkpt lat="48.58617" lon="1.92251">
        <ele>167</ele>
        <time>2025-06-16T12:12:41.374Z</time>
      </trkpt>
      <trkpt lat="48.58622" lon="1.92255">
        <ele>167</ele>
        <time>2025-06-16T12:12:45.718Z</time>
      </trkpt>
      <trkpt lat="48.58625" lon="1.92252">
        <ele>168</ele>
        <time>2025-06-16T12:14:09.718Z</time>
      </trkpt>
      <trkpt lat="48.58621" lon="1.92249">
        <ele>167</ele>
        <time>2025-06-16T12:14:14.185Z</time>
      </trkpt>
      <trkpt lat="48.58619" lon="1.92247">
        <ele>167</ele>
        <time>2025-06-16T12:14:18.559Z</time>
      </trkpt>
      <trkpt lat="48.58616" lon="1.92252">
        <ele>167</ele>
        <time>2025-06-16T12:14:22.718Z</time>
      </trkpt>
      <trkpt lat="48.58612" lon="1.92257">
        <ele>167</ele>
        <time>2025-06-16T12:14:27.195Z</time>
      </trkpt>
      <trkpt lat="48.58611" lon="1.92264">
        <ele>167</ele>
        <time>2025-06-16T12:15:56.718Z</time>
      </trkpt>
      <trkpt lat="48.5861" lon="1.92263">
        <ele>167</ele>
        <time>2025-06-16T12:16:13.716Z</time>
      </trkpt>
      <trkpt lat="48.5861" lon="1.92263">
        <ele>167</ele>
        <time>2025-06-16T12:16:25.716Z</time>
      </trkpt>
      <trkpt lat="48.58608" lon="1.92264">
        <ele>166</ele>
        <time>2025-06-16T12:16:29.715Z</time>
      </trkpt>
      <trkpt lat="48.58604" lon="1.92272">
        <ele>166</ele>
        <time>2025-06-16T12:16:34.718Z</time>
      </trkpt>
      <trkpt lat="48.58602" lon="1.92279">
        <ele>166</ele>
        <time>2025-06-16T12:16:39.521Z</time>
      </trkpt>
      <trkpt lat="48.58599" lon="1.92285">
        <ele>166</ele>
        <time>2025-06-16T12:16:43.915Z</time>
      </trkpt>
      <trkpt lat="48.58597" lon="1.92292">
        <ele>165</ele>
        <time>2025-06-16T12:16:48.443Z</time>
      </trkpt>
      <trkpt lat="48.58594" lon="1.92299">
        <ele>165</ele>
        <time>2025-06-16T12:16:52.917Z</time>
      </trkpt>
      <trkpt lat="48.58593" lon="1.92307">
        <ele>165</ele>
        <time>2025-06-16T12:16:57.718Z</time>
      </trkpt>
      <trkpt lat="48.58591" lon="1.92314">
        <ele>165</ele>
        <time>2025-06-16T12:17:02.517Z</time>
      </trkpt>
      <trkpt lat="48.58589" lon="1.92321">
        <ele>165</ele>
        <time>2025-06-16T12:17:06.921Z</time>
      </trkpt>
      <trkpt lat="48.58586" lon="1.92328">
        <ele>165</ele>
        <time>2025-06-16T12:17:11.315Z</time>
      </trkpt>
      <trkpt lat="48.58583" lon="1.92335">
        <ele>165</ele>
        <time>2025-06-16T12:17:15.715Z</time>
      </trkpt>
      <trkpt lat="48.58579" lon="1.92343">
        <ele>165</ele>
        <time>2025-06-16T12:17:20.575Z</time>
      </trkpt>
      <trkpt lat="48.58576" lon="1.9235">
        <ele>166</ele>
        <time>2025-06-16T12:17:25.379Z</time>
      </trkpt>
      <trkpt lat="48.58574" lon="1.92358">
        <ele>166</ele>
        <time>2025-06-16T12:17:29.622Z</time>
      </trkpt>
      <trkpt lat="48.58571" lon="1.92365">
        <ele>166</ele>
        <time>2025-06-16T12:17:33.712Z</time>
      </trkpt>
      <trkpt lat="48.58567" lon="1.92373">
        <ele>164</ele>
        <time>2025-06-16T12:17:38.077Z</time>
      </trkpt>
      <trkpt lat="48.58564" lon="1.9238">
        <ele>165</ele>
        <time>2025-06-16T12:17:42.422Z</time>
      </trkpt>
      <trkpt lat="48.58561" lon="1.92387">
        <ele>165</ele>
        <time>2025-06-16T12:17:46.715Z</time>
      </trkpt>
      <trkpt lat="48.58557" lon="1.92394">
        <ele>165</ele>
        <time>2025-06-16T12:17:50.717Z</time>
      </trkpt>
      <trkpt lat="48.58552" lon="1.92402">
        <ele>165</ele>
        <time>2025-06-16T12:17:55.298Z</time>
      </trkpt>
      <trkpt lat="48.58549" lon="1.92409">
        <ele>166</ele>
        <time>2025-06-16T12:17:59.455Z</time>
      </trkpt>
      <trkpt lat="48.58545" lon="1.92416">
        <ele>166</ele>
        <time>2025-06-16T12:18:03.917Z</time>
      </trkpt>
      <trkpt lat="48.58542" lon="1.92424">
        <ele>166</ele>
        <time>2025-06-16T12:18:08.143Z</time>
      </trkpt>
      <trkpt lat="48.58538" lon="1.92432">
        <ele>167</ele>
        <time>2025-06-16T12:18:12.223Z</time>
      </trkpt>
      <trkpt lat="48.58535" lon="1.9244">
        <ele>167</ele>
        <time>2025-06-16T12:18:16.478Z</time>
      </trkpt>
      <trkpt lat="48.5853" lon="1.92448">
        <ele>167</ele>
        <time>2025-06-16T12:18:20.636Z</time>
      </trkpt>
      <trkpt lat="48.58524" lon="1.92452">
        <ele>167</ele>
        <time>2025-06-16T12:18:24.935Z</time>
      </trkpt>
      <trkpt lat="48.58519" lon="1.92458">
        <ele>167</ele>
        <time>2025-06-16T12:18:29.176Z</time>
      </trkpt>
      <trkpt lat="48.58514" lon="1.92465">
        <ele>166</ele>
        <time>2025-06-16T12:18:33.494Z</time>
      </trkpt>
      <trkpt lat="48.58509" lon="1.92471">
        <ele>167</ele>
        <time>2025-06-16T12:18:37.718Z</time>
      </trkpt>
      <trkpt lat="48.58503" lon="1.92476">
        <ele>167</ele>
        <time>2025-06-16T12:18:41.901Z</time>
      </trkpt>
      <trkpt lat="48.58497" lon="1.92481">
        <ele>167</ele>
        <time>2025-06-16T12:18:46.012Z</time>
      </trkpt>
      <trkpt lat="48.58492" lon="1.92486">
        <ele>167</ele>
        <time>2025-06-16T12:18:50.297Z</time>
      </trkpt>
      <trkpt lat="48.58487" lon="1.92491">
        <ele>167</ele>
        <time>2025-06-16T12:18:54.452Z</time>
      </trkpt>
      <trkpt lat="48.58482" lon="1.92497">
        <ele>168</ele>
        <time>2025-06-16T12:18:58.718Z</time>
      </trkpt>
      <trkpt lat="48.58476" lon="1.92503">
        <ele>168</ele>
        <time>2025-06-16T12:19:03.412Z</time>
      </trkpt>
      <trkpt lat="48.58471" lon="1.92509">
        <ele>168</ele>
        <time>2025-06-16T12:19:07.637Z</time>
      </trkpt>
      <trkpt lat="48.58467" lon="1.92515">
        <ele>169</ele>
        <time>2025-06-16T12:19:11.878Z</time>
      </trkpt>
      <trkpt lat="48.58462" lon="1.92519">
        <ele>169</ele>
        <time>2025-06-16T12:19:16.136Z</time>
      </trkpt>
      <trkpt lat="48.58456" lon="1.92523">
        <ele>169</ele>
        <time>2025-06-16T12:19:20.336Z</time>
      </trkpt>
      <trkpt lat="48.58451" lon="1.92526">
        <ele>169</ele>
        <time>2025-06-16T12:19:24.576Z</time>
      </trkpt>
      <trkpt lat="48.58445" lon="1.9253">
        <ele>169</ele>
        <time>2025-06-16T12:19:28.836Z</time>
      </trkpt>
      <trkpt lat="48.5844" lon="1.92535">
        <ele>169</ele>
        <time>2025-06-16T12:19:32.973Z</time>
      </trkpt>
      <trkpt lat="48.58435" lon="1.9254">
        <ele>169</ele>
        <time>2025-06-16T12:19:37.213Z</time>
      </trkpt>
      <trkpt lat="48.58431" lon="1.92545">
        <ele>168</ele>
        <time>2025-06-16T12:19:41.396Z</time>
      </trkpt>
      <trkpt lat="48.58426" lon="1.92551">
        <ele>168</ele>
        <time>2025-06-16T12:19:45.718Z</time>
      </trkpt>
      <trkpt lat="48.58422" lon="1.92557">
        <ele>168</ele>
        <time>2025-06-16T12:19:49.775Z</time>
      </trkpt>
      <trkpt lat="48.58418" lon="1.92565">
        <ele>168</ele>
        <time>2025-06-16T12:19:54.512Z</time>
      </trkpt>
      <trkpt lat="48.58413" lon="1.92572">
        <ele>168</ele>
        <time>2025-06-16T12:19:58.716Z</time>
      </trkpt>
      <trkpt lat="48.5841" lon="1.92579">
        <ele>168</ele>
        <time>2025-06-16T12:20:02.718Z</time>
      </trkpt>
      <trkpt lat="48.58405" lon="1.92586">
        <ele>168</ele>
        <time>2025-06-16T12:20:07.355Z</time>
      </trkpt>
      <trkpt lat="48.58401" lon="1.92594">
        <ele>167</ele>
        <time>2025-06-16T12:20:11.541Z</time>
      </trkpt>
      <trkpt lat="48.58397" lon="1.926">
        <ele>167</ele>
        <time>2025-06-16T12:20:15.956Z</time>
      </trkpt>
      <trkpt lat="48.58392" lon="1.92607">
        <ele>167</ele>
        <time>2025-06-16T12:20:20.291Z</time>
      </trkpt>
      <trkpt lat="48.58387" lon="1.92613">
        <ele>167</ele>
        <time>2025-06-16T12:20:24.593Z</time>
      </trkpt>
      <trkpt lat="48.58383" lon="1.9262">
        <ele>167</ele>
        <time>2025-06-16T12:20:28.716Z</time>
      </trkpt>
      <trkpt lat="48.58379" lon="1.92627">
        <ele>167</ele>
        <time>2025-06-16T12:20:33.014Z</time>
      </trkpt>
      <trkpt lat="48.58376" lon="1.92634">
        <ele>167</ele>
        <time>2025-06-16T12:20:37.112Z</time>
      </trkpt>
      <trkpt lat="48.58371" lon="1.92642">
        <ele>166</ele>
        <time>2025-06-16T12:20:41.714Z</time>
      </trkpt>
      <trkpt lat="48.58366" lon="1.92648">
        <ele>166</ele>
        <time>2025-06-16T12:20:46.258Z</time>
      </trkpt>
      <trkpt lat="48.58361" lon="1.92652">
        <ele>166</ele>
        <time>2025-06-16T12:20:50.337Z</time>
      </trkpt>
      <trkpt lat="48.58356" lon="1.92655">
        <ele>166</ele>
        <time>2025-06-16T12:20:54.535Z</time>
      </trkpt>
      <trkpt lat="48.5835" lon="1.92659">
        <ele>166</ele>
        <time>2025-06-16T12:20:58.693Z</time>
      </trkpt>
      <trkpt lat="48.58345" lon="1.92661">
        <ele>165</ele>
        <time>2025-06-16T12:21:02.839Z</time>
      </trkpt>
      <trkpt lat="48.58338" lon="1.92664">
        <ele>165</ele>
        <time>2025-06-16T12:21:07.097Z</time>
      </trkpt>
      <trkpt lat="48.58334" lon="1.92669">
        <ele>165</ele>
        <time>2025-06-16T12:21:11.295Z</time>
      </trkpt>
      <trkpt lat="48.58327" lon="1.92673">
        <ele>165</ele>
        <time>2025-06-16T12:21:15.716Z</time>
      </trkpt>
      <trkpt lat="48.5832" lon="1.92676">
        <ele>165</ele>
        <time>2025-06-16T12:21:20.154Z</time>
      </trkpt>
      <trkpt lat="48.58313" lon="1.92679">
        <ele>165</ele>
        <time>2025-06-16T12:21:24.334Z</time>
      </trkpt>
      <trkpt lat="48.58308" lon="1.92685">
        <ele>167</ele>
        <time>2025-06-16T12:21:28.558Z</time>
      </trkpt>
      <trkpt lat="48.58304" lon="1.92693">
        <ele>167</ele>
        <time>2025-06-16T12:21:32.875Z</time>
      </trkpt>
      <trkpt lat="48.583" lon="1.92688">
        <ele>167</ele>
        <time>2025-06-16T12:21:37.399Z</time>
      </trkpt>
      <trkpt lat="48.58294" lon="1.92698">
        <ele>167</ele>
        <time>2025-06-16T12:21:41.714Z</time>
      </trkpt>
      <trkpt lat="48.58291" lon="1.92708">
        <ele>168</ele>
        <time>2025-06-16T12:21:46.375Z</time>
      </trkpt>
      <trkpt lat="48.58289" lon="1.92717">
        <ele>168</ele>
        <time>2025-06-16T12:21:50.796Z</time>
      </trkpt>
      <trkpt lat="48.58285" lon="1.92726">
        <ele>168</ele>
        <time>2025-06-16T12:21:55.679Z</time>
      </trkpt>
      <trkpt lat="48.58283" lon="1.92733">
        <ele>168</ele>
        <time>2025-06-16T12:21:59.715Z</time>
      </trkpt>
      <trkpt lat="48.5828" lon="1.92742">
        <ele>168</ele>
        <time>2025-06-16T12:22:04.176Z</time>
      </trkpt>
      <trkpt lat="48.58276" lon="1.9275">
        <ele>168</ele>
        <time>2025-06-16T12:22:08.718Z</time>
      </trkpt>
      <trkpt lat="48.58273" lon="1.92758">
        <ele>168</ele>
        <time>2025-06-16T12:22:13.495Z</time>
      </trkpt>
      <trkpt lat="48.5827" lon="1.92768">
        <ele>168</ele>
        <time>2025-06-16T12:22:18.417Z</time>
      </trkpt>
      <trkpt lat="48.58267" lon="1.92775">
        <ele>168</ele>
        <time>2025-06-16T12:22:22.598Z</time>
      </trkpt>
      <trkpt lat="48.58263" lon="1.92783">
        <ele>169</ele>
        <time>2025-06-16T12:22:27.113Z</time>
      </trkpt>
      <trkpt lat="48.5826" lon="1.9279">
        <ele>169</ele>
        <time>2025-06-16T12:22:31.293Z</time>
      </trkpt>
      <trkpt lat="48.58257" lon="1.92799">
        <ele>169</ele>
        <time>2025-06-16T12:22:35.552Z</time>
      </trkpt>
      <trkpt lat="48.58254" lon="1.92807">
        <ele>169</ele>
        <time>2025-06-16T12:22:39.596Z</time>
      </trkpt>
      <trkpt lat="48.58251" lon="1.92814">
        <ele>169</ele>
        <time>2025-06-16T12:22:43.715Z</time>
      </trkpt>
      <trkpt lat="48.58247" lon="1.92822">
        <ele>170</ele>
        <time>2025-06-16T12:22:47.839Z</time>
      </trkpt>
      <trkpt lat="48.58243" lon="1.92829">
        <ele>170</ele>
        <time>2025-06-16T12:22:51.876Z</time>
      </trkpt>
      <trkpt lat="48.5824" lon="1.92836">
        <ele>170</ele>
        <time>2025-06-16T12:22:56.014Z</time>
      </trkpt>
      <trkpt lat="48.58237" lon="1.92841">
        <ele>170</ele>
        <time>2025-06-16T12:23:00.076Z</time>
      </trkpt>
      <trkpt lat="48.58233" lon="1.92847">
        <ele>170</ele>
        <time>2025-06-16T12:23:04.198Z</time>
      </trkpt>
      <trkpt lat="48.58229" lon="1.92854">
        <ele>169</ele>
        <time>2025-06-16T12:23:08.619Z</time>
      </trkpt>
      <trkpt lat="48.58222" lon="1.92858">
        <ele>169</ele>
        <time>2025-06-16T12:23:13.651Z</time>
      </trkpt>
      <trkpt lat="48.58216" lon="1.92862">
        <ele>169</ele>
        <time>2025-06-16T12:23:17.714Z</time>
      </trkpt>
      <trkpt lat="48.58211" lon="1.92867">
        <ele>169</ele>
        <time>2025-06-16T12:23:21.997Z</time>
      </trkpt>
      <trkpt lat="48.58207" lon="1.92872">
        <ele>170</ele>
        <time>2025-06-16T12:23:26.197Z</time>
      </trkpt>
      <trkpt lat="48.58204" lon="1.9288">
        <ele>168</ele>
        <time>2025-06-16T12:23:30.317Z</time>
      </trkpt>
      <trkpt lat="48.58198" lon="1.92882">
        <ele>168</ele>
        <time>2025-06-16T12:23:34.677Z</time>
      </trkpt>
      <trkpt lat="48.58192" lon="1.92887">
        <ele>168</ele>
        <time>2025-06-16T12:23:39.716Z</time>
      </trkpt>
      <trkpt lat="48.58187" lon="1.92893">
        <ele>168</ele>
        <time>2025-06-16T12:23:44.413Z</time>
      </trkpt>
      <trkpt lat="48.58181" lon="1.92897">
        <ele>168</ele>
        <time>2025-06-16T12:23:48.518Z</time>
      </trkpt>
      <trkpt lat="48.58176" lon="1.929">
        <ele>168</ele>
        <time>2025-06-16T12:23:52.639Z</time>
      </trkpt>
      <trkpt lat="48.58169" lon="1.92901">
        <ele>168</ele>
        <time>2025-06-16T12:23:56.837Z</time>
      </trkpt>
      <trkpt lat="48.58163" lon="1.92903">
        <ele>166</ele>
        <time>2025-06-16T12:24:00.874Z</time>
      </trkpt>
      <trkpt lat="48.58158" lon="1.92906">
        <ele>166</ele>
        <time>2025-06-16T12:24:05.037Z</time>
      </trkpt>
      <trkpt lat="48.58152" lon="1.92909">
        <ele>165</ele>
        <time>2025-06-16T12:24:09.457Z</time>
      </trkpt>
      <trkpt lat="48.58147" lon="1.92912">
        <ele>165</ele>
        <time>2025-06-16T12:24:13.555Z</time>
      </trkpt>
      <trkpt lat="48.58142" lon="1.92915">
        <ele>165</ele>
        <time>2025-06-16T12:24:17.716Z</time>
      </trkpt>
      <trkpt lat="48.58136" lon="1.92918">
        <ele>165</ele>
        <time>2025-06-16T12:24:22.240Z</time>
      </trkpt>
      <trkpt lat="48.5813" lon="1.9292">
        <ele>165</ele>
        <time>2025-06-16T12:24:26.258Z</time>
      </trkpt>
      <trkpt lat="48.58124" lon="1.92922">
        <ele>165</ele>
        <time>2025-06-16T12:24:30.715Z</time>
      </trkpt>
      <trkpt lat="48.58119" lon="1.92925">
        <ele>165</ele>
        <time>2025-06-16T12:24:34.936Z</time>
      </trkpt>
      <trkpt lat="48.58113" lon="1.92928">
        <ele>165</ele>
        <time>2025-06-16T12:24:39.135Z</time>
      </trkpt>
      <trkpt lat="48.58107" lon="1.92931">
        <ele>163</ele>
        <time>2025-06-16T12:24:43.554Z</time>
      </trkpt>
      <trkpt lat="48.581" lon="1.92934">
        <ele>163</ele>
        <time>2025-06-16T12:24:48.051Z</time>
      </trkpt>
      <trkpt lat="48.58094" lon="1.92937">
        <ele>164</ele>
        <time>2025-06-16T12:24:52.556Z</time>
      </trkpt>
      <trkpt lat="48.58088" lon="1.9294">
        <ele>164</ele>
        <time>2025-06-16T12:24:56.718Z</time>
      </trkpt>
      <trkpt lat="48.58082" lon="1.92944">
        <ele>164</ele>
        <time>2025-06-16T12:25:01.277Z</time>
      </trkpt>
      <trkpt lat="48.58077" lon="1.92947">
        <ele>164</ele>
        <time>2025-06-16T12:25:05.415Z</time>
      </trkpt>
      <trkpt lat="48.58071" lon="1.9295">
        <ele>164</ele>
        <time>2025-06-16T12:25:09.536Z</time>
      </trkpt>
      <trkpt lat="48.58066" lon="1.92954">
        <ele>165</ele>
        <time>2025-06-16T12:25:13.715Z</time>
      </trkpt>
      <trkpt lat="48.5806" lon="1.92957">
        <ele>165</ele>
        <time>2025-06-16T12:25:18.202Z</time>
      </trkpt>
      <trkpt lat="48.58054" lon="1.9296">
        <ele>164</ele>
        <time>2025-06-16T12:25:22.502Z</time>
      </trkpt>
      <trkpt lat="48.58048" lon="1.92962">
        <ele>164</ele>
        <time>2025-06-16T12:25:27.264Z</time>
      </trkpt>
      <trkpt lat="48.58041" lon="1.92967">
        <ele>165</ele>
        <time>2025-06-16T12:25:31.683Z</time>
      </trkpt>
      <trkpt lat="48.58035" lon="1.92968">
        <ele>165</ele>
        <time>2025-06-16T12:25:35.718Z</time>
      </trkpt>
      <trkpt lat="48.58029" lon="1.92971">
        <ele>165</ele>
        <time>2025-06-16T12:25:40.242Z</time>
      </trkpt>
      <trkpt lat="48.58023" lon="1.92975">
        <ele>165</ele>
        <time>2025-06-16T12:25:44.679Z</time>
      </trkpt>
      <trkpt lat="48.58017" lon="1.92979">
        <ele>165</ele>
        <time>2025-06-16T12:25:49.303Z</time>
      </trkpt>
      <trkpt lat="48.58011" lon="1.92982">
        <ele>164</ele>
        <time>2025-06-16T12:25:53.536Z</time>
      </trkpt>
      <trkpt lat="48.58006" lon="1.92985">
        <ele>164</ele>
        <time>2025-06-16T12:25:57.716Z</time>
      </trkpt>
      <trkpt lat="48.58" lon="1.92988">
        <ele>164</ele>
        <time>2025-06-16T12:26:01.986Z</time>
      </trkpt>
      <trkpt lat="48.57993" lon="1.92991">
        <ele>164</ele>
        <time>2025-06-16T12:26:06.272Z</time>
      </trkpt>
      <trkpt lat="48.57988" lon="1.92995">
        <ele>164</ele>
        <time>2025-06-16T12:26:10.499Z</time>
      </trkpt>
      <trkpt lat="48.57982" lon="1.92999">
        <ele>164</ele>
        <time>2025-06-16T12:26:14.721Z</time>
      </trkpt>
      <trkpt lat="48.57977" lon="1.93003">
        <ele>164</ele>
        <time>2025-06-16T12:26:18.818Z</time>
      </trkpt>
      <trkpt lat="48.5797" lon="1.93007">
        <ele>164</ele>
        <time>2025-06-16T12:26:23.622Z</time>
      </trkpt>
      <trkpt lat="48.57964" lon="1.9301">
        <ele>164</ele>
        <time>2025-06-16T12:26:27.898Z</time>
      </trkpt>
      <trkpt lat="48.57958" lon="1.93014">
        <ele>164</ele>
        <time>2025-06-16T12:26:32.638Z</time>
      </trkpt>
      <trkpt lat="48.57952" lon="1.93017">
        <ele>164</ele>
        <time>2025-06-16T12:26:36.717Z</time>
      </trkpt>
      <trkpt lat="48.57946" lon="1.9302">
        <ele>164</ele>
        <time>2025-06-16T12:26:41.242Z</time>
      </trkpt>
      <trkpt lat="48.5794" lon="1.93023">
        <ele>164</ele>
        <time>2025-06-16T12:26:45.542Z</time>
      </trkpt>
      <trkpt lat="48.57934" lon="1.93028">
        <ele>164</ele>
        <time>2025-06-16T12:26:49.921Z</time>
      </trkpt>
      <trkpt lat="48.57928" lon="1.93032">
        <ele>165</ele>
        <time>2025-06-16T12:26:54.216Z</time>
      </trkpt>
      <trkpt lat="48.57923" lon="1.93037">
        <ele>165</ele>
        <time>2025-06-16T12:26:58.594Z</time>
      </trkpt>
      <trkpt lat="48.57918" lon="1.93041">
        <ele>165</ele>
        <time>2025-06-16T12:27:02.822Z</time>
      </trkpt>
      <trkpt lat="48.57912" lon="1.93046">
        <ele>164</ele>
        <time>2025-06-16T12:27:07.557Z</time>
      </trkpt>
      <trkpt lat="48.57906" lon="1.9305">
        <ele>164</ele>
        <time>2025-06-16T12:27:11.836Z</time>
      </trkpt>
      <trkpt lat="48.57901" lon="1.93055">
        <ele>165</ele>
        <time>2025-06-16T12:27:16.035Z</time>
      </trkpt>
      <trkpt lat="48.57896" lon="1.9306">
        <ele>165</ele>
        <time>2025-06-16T12:27:20.382Z</time>
      </trkpt>
      <trkpt lat="48.5789" lon="1.93065">
        <ele>165</ele>
        <time>2025-06-16T12:27:24.720Z</time>
      </trkpt>
      <trkpt lat="48.57885" lon="1.9307">
        <ele>165</ele>
        <time>2025-06-16T12:27:29.343Z</time>
      </trkpt>
      <trkpt lat="48.57879" lon="1.93075">
        <ele>165</ele>
        <time>2025-06-16T12:27:33.672Z</time>
      </trkpt>
      <trkpt lat="48.57874" lon="1.93079">
        <ele>165</ele>
        <time>2025-06-16T12:27:37.716Z</time>
      </trkpt>
      <trkpt lat="48.57869" lon="1.93084">
        <ele>165</ele>
        <time>2025-06-16T12:27:42.058Z</time>
      </trkpt>
      <trkpt lat="48.57864" lon="1.93088">
        <ele>165</ele>
        <time>2025-06-16T12:27:46.304Z</time>
      </trkpt>
      <trkpt lat="48.57858" lon="1.93093">
        <ele>165</ele>
        <time>2025-06-16T12:27:50.518Z</time>
      </trkpt>
      <trkpt lat="48.57853" lon="1.93098">
        <ele>165</ele>
        <time>2025-06-16T12:27:54.714Z</time>
      </trkpt>
      <trkpt lat="48.57848" lon="1.93103">
        <ele>165</ele>
        <time>2025-06-16T12:27:58.877Z</time>
      </trkpt>
      <trkpt lat="48.57842" lon="1.93109">
        <ele>164</ele>
        <time>2025-06-16T12:28:03.715Z</time>
      </trkpt>
      <trkpt lat="48.57836" lon="1.93114">
        <ele>164</ele>
        <time>2025-06-16T12:28:08.152Z</time>
      </trkpt>
      <trkpt lat="48.57831" lon="1.9312">
        <ele>164</ele>
        <time>2025-06-16T12:28:12.256Z</time>
      </trkpt>
      <trkpt lat="48.57826" lon="1.93124">
        <ele>164</ele>
        <time>2025-06-16T12:28:16.617Z</time>
      </trkpt>
      <trkpt lat="48.57821" lon="1.93129">
        <ele>164</ele>
        <time>2025-06-16T12:28:20.717Z</time>
      </trkpt>
      <trkpt lat="48.57814" lon="1.93134">
        <ele>164</ele>
        <time>2025-06-16T12:28:25.622Z</time>
      </trkpt>
      <trkpt lat="48.57808" lon="1.93139">
        <ele>164</ele>
        <time>2025-06-16T12:28:29.716Z</time>
      </trkpt>
      <trkpt lat="48.57803" lon="1.93144">
        <ele>164</ele>
        <time>2025-06-16T12:28:34.019Z</time>
      </trkpt>
      <trkpt lat="48.57798" lon="1.93149">
        <ele>164</ele>
        <time>2025-06-16T12:28:38.122Z</time>
      </trkpt>
      <trkpt lat="48.57792" lon="1.93155">
        <ele>163</ele>
        <time>2025-06-16T12:28:42.716Z</time>
      </trkpt>
      <trkpt lat="48.57786" lon="1.93161">
        <ele>164</ele>
        <time>2025-06-16T12:28:47.624Z</time>
      </trkpt>
      <trkpt lat="48.57781" lon="1.93166">
        <ele>164</ele>
        <time>2025-06-16T12:28:51.949Z</time>
      </trkpt>
      <trkpt lat="48.57776" lon="1.93171">
        <ele>164</ele>
        <time>2025-06-16T12:28:56.049Z</time>
      </trkpt>
      <trkpt lat="48.5777" lon="1.93176">
        <ele>164</ele>
        <time>2025-06-16T12:29:00.716Z</time>
      </trkpt>
      <trkpt lat="48.57765" lon="1.93182">
        <ele>163</ele>
        <time>2025-06-16T12:29:05.173Z</time>
      </trkpt>
      <trkpt lat="48.57759" lon="1.93188">
        <ele>164</ele>
        <time>2025-06-16T12:29:09.716Z</time>
      </trkpt>
      <trkpt lat="48.57754" lon="1.93193">
        <ele>164</ele>
        <time>2025-06-16T12:29:14.087Z</time>
      </trkpt>
      <trkpt lat="48.57748" lon="1.93198">
        <ele>164</ele>
        <time>2025-06-16T12:29:18.507Z</time>
      </trkpt>
      <trkpt lat="48.57743" lon="1.93203">
        <ele>164</ele>
        <time>2025-06-16T12:29:22.607Z</time>
      </trkpt>
      <trkpt lat="48.57738" lon="1.93207">
        <ele>164</ele>
        <time>2025-06-16T12:29:26.715Z</time>
      </trkpt>
      <trkpt lat="48.57732" lon="1.93213">
        <ele>164</ele>
        <time>2025-06-16T12:29:31.686Z</time>
      </trkpt>
      <trkpt lat="48.57726" lon="1.93219">
        <ele>164</ele>
        <time>2025-06-16T12:29:36.033Z</time>
      </trkpt>
      <trkpt lat="48.57721" lon="1.93224">
        <ele>164</ele>
        <time>2025-06-16T12:29:40.188Z</time>
      </trkpt>
      <trkpt lat="48.57716" lon="1.93229">
        <ele>164</ele>
        <time>2025-06-16T12:29:44.409Z</time>
      </trkpt>
      <trkpt lat="48.5771" lon="1.93234">
        <ele>164</ele>
        <time>2025-06-16T12:29:48.947Z</time>
      </trkpt>
      <trkpt lat="48.57705" lon="1.93239">
        <ele>162</ele>
        <time>2025-06-16T12:29:53.209Z</time>
      </trkpt>
      <trkpt lat="48.57699" lon="1.93244">
        <ele>162</ele>
        <time>2025-06-16T12:29:57.332Z</time>
      </trkpt>
      <trkpt lat="48.57694" lon="1.9325">
        <ele>162</ele>
        <time>2025-06-16T12:30:01.602Z</time>
      </trkpt>
      <trkpt lat="48.57689" lon="1.93255">
        <ele>162</ele>
        <time>2025-06-16T12:30:05.714Z</time>
      </trkpt>
      <trkpt lat="48.57684" lon="1.93259">
        <ele>162</ele>
        <time>2025-06-16T12:30:09.931Z</time>
      </trkpt>
      <trkpt lat="48.57677" lon="1.9326">
        <ele>162</ele>
        <time>2025-06-16T12:30:14.718Z</time>
      </trkpt>
      <trkpt lat="48.57671" lon="1.93268">
        <ele>162</ele>
        <time>2025-06-16T12:30:19.186Z</time>
      </trkpt>
      <trkpt lat="48.5767" lon="1.93271">
        <ele>162</ele>
        <time>2025-06-16T12:30:20.712Z</time>
      </trkpt>
      <trkpt lat="48.57661" lon="1.93286">
        <ele>162</ele>
        <time>2025-06-16T12:30:29.718Z</time>
      </trkpt>
      <trkpt lat="48.57655" lon="1.9329">
        <ele>162</ele>
        <time>2025-06-16T12:30:34.212Z</time>
      </trkpt>
      <trkpt lat="48.57648" lon="1.93295">
        <ele>161</ele>
        <time>2025-06-16T12:30:38.718Z</time>
      </trkpt>
      <trkpt lat="48.57642" lon="1.93299">
        <ele>161</ele>
        <time>2025-06-16T12:30:43.205Z</time>
      </trkpt>
      <trkpt lat="48.57636" lon="1.93301">
        <ele>161</ele>
        <time>2025-06-16T12:30:47.713Z</time>
      </trkpt>
      <trkpt lat="48.57632" lon="1.93305">
        <ele>161</ele>
        <time>2025-06-16T12:30:52.147Z</time>
      </trkpt>
      <trkpt lat="48.57629" lon="1.93312">
        <ele>161</ele>
        <time>2025-06-16T12:30:56.713Z</time>
      </trkpt>
      <trkpt lat="48.57626" lon="1.93317">
        <ele>161</ele>
        <time>2025-06-16T12:31:01.718Z</time>
      </trkpt>
      <trkpt lat="48.57622" lon="1.93325">
        <ele>161</ele>
        <time>2025-06-16T12:31:06.716Z</time>
      </trkpt>
      <trkpt lat="48.57617" lon="1.9333">
        <ele>161</ele>
        <time>2025-06-16T12:31:11.083Z</time>
      </trkpt>
      <trkpt lat="48.57612" lon="1.93334">
        <ele>161</ele>
        <time>2025-06-16T12:31:15.308Z</time>
      </trkpt>
      <trkpt lat="48.57606" lon="1.93338">
        <ele>161</ele>
        <time>2025-06-16T12:31:19.582Z</time>
      </trkpt>
      <trkpt lat="48.57601" lon="1.93344">
        <ele>161</ele>
        <time>2025-06-16T12:31:23.718Z</time>
      </trkpt>
      <trkpt lat="48.57596" lon="1.93351">
        <ele>162</ele>
        <time>2025-06-16T12:31:28.442Z</time>
      </trkpt>
      <trkpt lat="48.57591" lon="1.9336">
        <ele>162</ele>
        <time>2025-06-16T12:31:33.407Z</time>
      </trkpt>
      <trkpt lat="48.57586" lon="1.93366">
        <ele>162</ele>
        <time>2025-06-16T12:31:37.666Z</time>
      </trkpt>
      <trkpt lat="48.57582" lon="1.93373">
        <ele>162</ele>
        <time>2025-06-16T12:31:42.189Z</time>
      </trkpt>
      <trkpt lat="48.57578" lon="1.9338">
        <ele>161</ele>
        <time>2025-06-16T12:31:46.268Z</time>
      </trkpt>
      <trkpt lat="48.57572" lon="1.93387">
        <ele>161</ele>
        <time>2025-06-16T12:31:50.706Z</time>
      </trkpt>
      <trkpt lat="48.57568" lon="1.93397">
        <ele>160</ele>
        <time>2025-06-16T12:31:55.715Z</time>
      </trkpt>
      <trkpt lat="48.57564" lon="1.93405">
        <ele>159</ele>
        <time>2025-06-16T12:32:00.066Z</time>
      </trkpt>
      <trkpt lat="48.57561" lon="1.93414">
        <ele>159</ele>
        <time>2025-06-16T12:32:04.714Z</time>
      </trkpt>
      <trkpt lat="48.57558" lon="1.93424">
        <ele>159</ele>
        <time>2025-06-16T12:32:09.716Z</time>
      </trkpt>
      <trkpt lat="48.57553" lon="1.93431">
        <ele>156</ele>
        <time>2025-06-16T12:32:14.385Z</time>
      </trkpt>
      <trkpt lat="48.57549" lon="1.93438">
        <ele>156</ele>
        <time>2025-06-16T12:32:18.718Z</time>
      </trkpt>
      <trkpt lat="48.57544" lon="1.93447">
        <ele>156</ele>
        <time>2025-06-16T12:32:23.346Z</time>
      </trkpt>
      <trkpt lat="48.57539" lon="1.93455">
        <ele>158</ele>
        <time>2025-06-16T12:32:27.718Z</time>
      </trkpt>
      <trkpt lat="48.57535" lon="1.93464">
        <ele>157</ele>
        <time>2025-06-16T12:32:32.718Z</time>
      </trkpt>
      <trkpt lat="48.57531" lon="1.93473">
        <ele>157</ele>
        <time>2025-06-16T12:32:37.203Z</time>
      </trkpt>
      <trkpt lat="48.57528" lon="1.93481">
        <ele>157</ele>
        <time>2025-06-16T12:32:41.385Z</time>
      </trkpt>
      <trkpt lat="48.57524" lon="1.93488">
        <ele>155</ele>
        <time>2025-06-16T12:32:45.422Z</time>
      </trkpt>
      <trkpt lat="48.57521" lon="1.93497">
        <ele>155</ele>
        <time>2025-06-16T12:32:49.718Z</time>
      </trkpt>
      <trkpt lat="48.57516" lon="1.93504">
        <ele>155</ele>
        <time>2025-06-16T12:32:54.424Z</time>
      </trkpt>
      <trkpt lat="48.57512" lon="1.93511">
        <ele>157</ele>
        <time>2025-06-16T12:32:58.503Z</time>
      </trkpt>
      <trkpt lat="48.57508" lon="1.93519">
        <ele>154</ele>
        <time>2025-06-16T12:33:02.642Z</time>
      </trkpt>
      <trkpt lat="48.57506" lon="1.93528">
        <ele>154</ele>
        <time>2025-06-16T12:33:06.714Z</time>
      </trkpt>
      <trkpt lat="48.57504" lon="1.93537">
        <ele>154</ele>
        <time>2025-06-16T12:33:10.961Z</time>
      </trkpt>
      <trkpt lat="48.575" lon="1.93546">
        <ele>152</ele>
        <time>2025-06-16T12:33:15.407Z</time>
      </trkpt>
      <trkpt lat="48.57497" lon="1.93556">
        <ele>152</ele>
        <time>2025-06-16T12:33:20.323Z</time>
      </trkpt>
      <trkpt lat="48.57494" lon="1.93566">
        <ele>152</ele>
        <time>2025-06-16T12:33:24.709Z</time>
      </trkpt>
      <trkpt lat="48.57493" lon="1.93574">
        <ele>150</ele>
        <time>2025-06-16T12:33:28.718Z</time>
      </trkpt>
      <trkpt lat="48.57492" lon="1.93584">
        <ele>150</ele>
        <time>2025-06-16T12:33:33.164Z</time>
      </trkpt>
      <trkpt lat="48.5749" lon="1.93594">
        <ele>150</ele>
        <time>2025-06-16T12:33:37.718Z</time>
      </trkpt>
      <trkpt lat="48.57488" lon="1.93605">
        <ele>149</ele>
        <time>2025-06-16T12:33:42.543Z</time>
      </trkpt>
      <trkpt lat="48.57486" lon="1.93615">
        <ele>149</ele>
        <time>2025-06-16T12:33:46.718Z</time>
      </trkpt>
      <trkpt lat="48.57486" lon="1.93626">
        <ele>147</ele>
        <time>2025-06-16T12:33:50.844Z</time>
      </trkpt>
      <trkpt lat="48.57487" lon="1.93635">
        <ele>147</ele>
        <time>2025-06-16T12:33:55.226Z</time>
      </trkpt>
      <trkpt lat="48.57486" lon="1.93643">
        <ele>147</ele>
        <time>2025-06-16T12:33:59.718Z</time>
      </trkpt>
      <trkpt lat="48.57487" lon="1.93649">
        <ele>147</ele>
        <time>2025-06-16T12:34:04.088Z</time>
      </trkpt>
      <trkpt lat="48.57487" lon="1.93657">
        <ele>146</ele>
        <time>2025-06-16T12:34:08.432Z</time>
      </trkpt>
      <trkpt lat="48.57486" lon="1.93662">
        <ele>146</ele>
        <time>2025-06-16T12:34:12.996Z</time>
      </trkpt>
      <trkpt lat="48.57487" lon="1.93669">
        <ele>146</ele>
        <time>2025-06-16T12:34:17.196Z</time>
      </trkpt>
      <trkpt lat="48.57486" lon="1.93675">
        <ele>146</ele>
        <time>2025-06-16T12:34:21.213Z</time>
      </trkpt>
      <trkpt lat="48.57488" lon="1.93681">
        <ele>145</ele>
        <time>2025-06-16T12:34:25.718Z</time>
      </trkpt>
      <trkpt lat="48.57487" lon="1.9369">
        <ele>145</ele>
        <time>2025-06-16T12:34:30.716Z</time>
      </trkpt>
      <trkpt lat="48.57485" lon="1.93702">
        <ele>143</ele>
        <time>2025-06-16T12:34:35.654Z</time>
      </trkpt>
      <trkpt lat="48.57485" lon="1.93711">
        <ele>142</ele>
        <time>2025-06-16T12:34:39.713Z</time>
      </trkpt>
      <trkpt lat="48.57485" lon="1.93722">
        <ele>142</ele>
        <time>2025-06-16T12:34:44.314Z</time>
      </trkpt>
      <trkpt lat="48.57484" lon="1.93731">
        <ele>142</ele>
        <time>2025-06-16T12:34:48.433Z</time>
      </trkpt>
      <trkpt lat="48.57482" lon="1.9374">
        <ele>140</ele>
        <time>2025-06-16T12:34:52.713Z</time>
      </trkpt>
      <trkpt lat="48.57479" lon="1.93748">
        <ele>140</ele>
        <time>2025-06-16T12:34:56.889Z</time>
      </trkpt>
      <trkpt lat="48.57477" lon="1.93757">
        <ele>140</ele>
        <time>2025-06-16T12:35:01.087Z</time>
      </trkpt>
      <trkpt lat="48.57475" lon="1.93768">
        <ele>139</ele>
        <time>2025-06-16T12:35:05.295Z</time>
      </trkpt>
      <trkpt lat="48.57472" lon="1.93776">
        <ele>139</ele>
        <time>2025-06-16T12:35:09.392Z</time>
      </trkpt>
      <trkpt lat="48.5747" lon="1.93785">
        <ele>139</ele>
        <time>2025-06-16T12:35:13.441Z</time>
      </trkpt>
      <trkpt lat="48.57469" lon="1.93794">
        <ele>138</ele>
        <time>2025-06-16T12:35:17.573Z</time>
      </trkpt>
      <trkpt lat="48.57466" lon="1.93803">
        <ele>138</ele>
        <time>2025-06-16T12:35:21.674Z</time>
      </trkpt>
      <trkpt lat="48.57464" lon="1.93812">
        <ele>138</ele>
        <time>2025-06-16T12:35:25.893Z</time>
      </trkpt>
      <trkpt lat="48.57462" lon="1.9382">
        <ele>137</ele>
        <time>2025-06-16T12:35:30.227Z</time>
      </trkpt>
      <trkpt lat="48.57459" lon="1.93829">
        <ele>137</ele>
        <time>2025-06-16T12:35:34.434Z</time>
      </trkpt>
      <trkpt lat="48.57456" lon="1.93838">
        <ele>137</ele>
        <time>2025-06-16T12:35:38.529Z</time>
      </trkpt>
      <trkpt lat="48.57453" lon="1.93846">
        <ele>137</ele>
        <time>2025-06-16T12:35:42.788Z</time>
      </trkpt>
      <trkpt lat="48.57451" lon="1.93854">
        <ele>136</ele>
        <time>2025-06-16T12:35:47.087Z</time>
      </trkpt>
      <trkpt lat="48.5745" lon="1.93863">
        <ele>136</ele>
        <time>2025-06-16T12:35:51.681Z</time>
      </trkpt>
      <trkpt lat="48.57449" lon="1.93869">
        <ele>136</ele>
        <time>2025-06-16T12:35:55.868Z</time>
      </trkpt>
      <trkpt lat="48.57443" lon="1.93873">
        <ele>136</ele>
        <time>2025-06-16T12:36:00.195Z</time>
      </trkpt>
      <trkpt lat="48.57437" lon="1.93876">
        <ele>135</ele>
        <time>2025-06-16T12:36:04.692Z</time>
      </trkpt>
      <trkpt lat="48.57432" lon="1.93879">
        <ele>135</ele>
        <time>2025-06-16T12:36:08.713Z</time>
      </trkpt>
      <trkpt lat="48.57428" lon="1.93887">
        <ele>134</ele>
        <time>2025-06-16T12:36:13.206Z</time>
      </trkpt>
      <trkpt lat="48.57427" lon="1.93896">
        <ele>134</ele>
        <time>2025-06-16T12:36:17.433Z</time>
      </trkpt>
      <trkpt lat="48.57427" lon="1.93905">
        <ele>133</ele>
        <time>2025-06-16T12:36:21.774Z</time>
      </trkpt>
      <trkpt lat="48.57426" lon="1.93915">
        <ele>133</ele>
        <time>2025-06-16T12:36:26.611Z</time>
      </trkpt>
      <trkpt lat="48.57423" lon="1.93923">
        <ele>133</ele>
        <time>2025-06-16T12:36:30.871Z</time>
      </trkpt>
      <trkpt lat="48.57417" lon="1.93927">
        <ele>133</ele>
        <time>2025-06-16T12:36:35.232Z</time>
      </trkpt>
      <trkpt lat="48.57412" lon="1.93933">
        <ele>133</ele>
        <time>2025-06-16T12:36:39.634Z</time>
      </trkpt>
      <trkpt lat="48.57407" lon="1.93937">
        <ele>133</ele>
        <time>2025-06-16T12:36:44.087Z</time>
      </trkpt>
      <trkpt lat="48.57403" lon="1.93943">
        <ele>132</ele>
        <time>2025-06-16T12:36:48.716Z</time>
      </trkpt>
      <trkpt lat="48.57398" lon="1.93949">
        <ele>132</ele>
        <time>2025-06-16T12:36:52.991Z</time>
      </trkpt>
      <trkpt lat="48.57393" lon="1.93951">
        <ele>132</ele>
        <time>2025-06-16T12:36:57.230Z</time>
      </trkpt>
      <trkpt lat="48.57387" lon="1.93954">
        <ele>132</ele>
        <time>2025-06-16T12:37:01.674Z</time>
      </trkpt>
      <trkpt lat="48.57382" lon="1.93957">
        <ele>132</ele>
        <time>2025-06-16T12:37:05.949Z</time>
      </trkpt>
      <trkpt lat="48.57377" lon="1.93951">
        <ele>132</ele>
        <time>2025-06-16T12:37:10.240Z</time>
      </trkpt>
      <trkpt lat="48.57375" lon="1.93951">
        <ele>132</ele>
        <time>2025-06-16T12:37:11.716Z</time>
      </trkpt>
      <trkpt lat="48.57371" lon="1.93944">
        <ele>131</ele>
        <time>2025-06-16T12:37:34.718Z</time>
      </trkpt>
      <trkpt lat="48.57371" lon="1.93944">
        <ele>131</ele>
        <time>2025-06-16T12:37:40.711Z</time>
      </trkpt>
      <trkpt lat="48.57371" lon="1.93944">
        <ele>131</ele>
        <time>2025-06-16T12:37:46.718Z</time>
      </trkpt>
      <trkpt lat="48.57368" lon="1.93941">
        <ele>131</ele>
        <time>2025-06-16T12:37:50.954Z</time>
      </trkpt>
      <trkpt lat="48.57363" lon="1.93935">
        <ele>131</ele>
        <time>2025-06-16T12:37:55.526Z</time>
      </trkpt>
      <trkpt lat="48.57358" lon="1.93931">
        <ele>131</ele>
        <time>2025-06-16T12:38:00.033Z</time>
      </trkpt>
      <trkpt lat="48.57354" lon="1.93924">
        <ele>132</ele>
        <time>2025-06-16T12:38:04.714Z</time>
      </trkpt>
      <trkpt lat="48.57352" lon="1.93917">
        <ele>132</ele>
        <time>2025-06-16T12:38:09.052Z</time>
      </trkpt>
      <trkpt lat="48.57348" lon="1.93911">
        <ele>132</ele>
        <time>2025-06-16T12:38:13.371Z</time>
      </trkpt>
      <trkpt lat="48.57342" lon="1.93914">
        <ele>132</ele>
        <time>2025-06-16T12:38:17.492Z</time>
      </trkpt>
      <trkpt lat="48.57336" lon="1.93917">
        <ele>132</ele>
        <time>2025-06-16T12:38:21.711Z</time>
      </trkpt>
      <trkpt lat="48.5733" lon="1.9392">
        <ele>132</ele>
        <time>2025-06-16T12:38:26.674Z</time>
      </trkpt>
      <trkpt lat="48.57324" lon="1.93921">
        <ele>132</ele>
        <time>2025-06-16T12:38:30.856Z</time>
      </trkpt>
      <trkpt lat="48.57317" lon="1.93924">
        <ele>131</ele>
        <time>2025-06-16T12:38:35.715Z</time>
      </trkpt>
      <trkpt lat="48.5731" lon="1.93926">
        <ele>131</ele>
        <time>2025-06-16T12:38:40.574Z</time>
      </trkpt>
      <trkpt lat="48.57304" lon="1.93929">
        <ele>131</ele>
        <time>2025-06-16T12:38:44.672Z</time>
      </trkpt>
      <trkpt lat="48.57299" lon="1.93932">
        <ele>131</ele>
        <time>2025-06-16T12:38:49.211Z</time>
      </trkpt>
      <trkpt lat="48.57294" lon="1.93933">
        <ele>131</ele>
        <time>2025-06-16T12:38:53.615Z</time>
      </trkpt>
      <trkpt lat="48.57293" lon="1.93934">
        <ele>131</ele>
        <time>2025-06-16T12:38:54.127Z</time>
      </trkpt>
      <trkpt lat="48.57283" lon="1.93942">
        <ele>130</ele>
        <time>2025-06-16T12:39:03.295Z</time>
      </trkpt>
      <trkpt lat="48.57278" lon="1.93945">
        <ele>130</ele>
        <time>2025-06-16T12:39:07.691Z</time>
      </trkpt>
      <trkpt lat="48.57272" lon="1.93946">
        <ele>130</ele>
        <time>2025-06-16T12:39:11.709Z</time>
      </trkpt>
      <trkpt lat="48.57267" lon="1.93945">
        <ele>130</ele>
        <time>2025-06-16T12:39:15.718Z</time>
      </trkpt>
      <trkpt lat="48.57261" lon="1.93947">
        <ele>129</ele>
        <time>2025-06-16T12:39:20.672Z</time>
      </trkpt>
      <trkpt lat="48.57257" lon="1.93953">
        <ele>129</ele>
        <time>2025-06-16T12:39:24.714Z</time>
      </trkpt>
      <trkpt lat="48.5725" lon="1.93955">
        <ele>129</ele>
        <time>2025-06-16T12:39:29.171Z</time>
      </trkpt>
      <trkpt lat="48.57244" lon="1.93957">
        <ele>129</ele>
        <time>2025-06-16T12:39:33.235Z</time>
      </trkpt>
      <trkpt lat="48.57237" lon="1.9396">
        <ele>130</ele>
        <time>2025-06-16T12:39:37.718Z</time>
      </trkpt>
      <trkpt lat="48.57231" lon="1.93961">
        <ele>128</ele>
        <time>2025-06-16T12:39:41.714Z</time>
      </trkpt>
      <trkpt lat="48.57224" lon="1.93964">
        <ele>128</ele>
        <time>2025-06-16T12:39:46.026Z</time>
      </trkpt>
      <trkpt lat="48.57218" lon="1.93966">
        <ele>128</ele>
        <time>2025-06-16T12:39:50.292Z</time>
      </trkpt>
      <trkpt lat="48.57212" lon="1.93968">
        <ele>128</ele>
        <time>2025-06-16T12:39:54.712Z</time>
      </trkpt>
      <trkpt lat="48.57206" lon="1.93971">
        <ele>128</ele>
        <time>2025-06-16T12:39:59.552Z</time>
      </trkpt>
      <trkpt lat="48.57201" lon="1.93975">
        <ele>128</ele>
        <time>2025-06-16T12:40:03.955Z</time>
      </trkpt>
      <trkpt lat="48.57201" lon="1.93983">
        <ele>128</ele>
        <time>2025-06-16T12:40:08.674Z</time>
      </trkpt>
      <trkpt lat="48.572" lon="1.93988">
        <ele>128</ele>
        <time>2025-06-16T12:40:13.174Z</time>
      </trkpt>
      <trkpt lat="48.57197" lon="1.93994">
        <ele>128</ele>
        <time>2025-06-16T12:40:17.575Z</time>
      </trkpt>
      <trkpt lat="48.57193" lon="1.93997">
        <ele>128</ele>
        <time>2025-06-16T12:40:21.953Z</time>
      </trkpt>
      <trkpt lat="48.57188" lon="1.94001">
        <ele>128</ele>
        <time>2025-06-16T12:40:26.715Z</time>
      </trkpt>
      <trkpt lat="48.57183" lon="1.94003">
        <ele>128</ele>
        <time>2025-06-16T12:40:31.197Z</time>
      </trkpt>
      <trkpt lat="48.57178" lon="1.94004">
        <ele>128</ele>
        <time>2025-06-16T12:40:35.718Z</time>
      </trkpt>
      <trkpt lat="48.57178" lon="1.94012">
        <ele>128</ele>
        <time>2025-06-16T12:40:40.712Z</time>
      </trkpt>
      <trkpt lat="48.57177" lon="1.94016">
        <ele>127</ele>
        <time>2025-06-16T12:40:44.718Z</time>
      </trkpt>
      <trkpt lat="48.57178" lon="1.94017">
        <ele>127</ele>
        <time>2025-06-16T12:40:48.715Z</time>
      </trkpt>
      <trkpt lat="48.57178" lon="1.94023">
        <ele>127</ele>
        <time>2025-06-16T12:40:53.718Z</time>
      </trkpt>
      <trkpt lat="48.57181" lon="1.9403">
        <ele>127</ele>
        <time>2025-06-16T12:40:58.528Z</time>
      </trkpt>
      <trkpt lat="48.57182" lon="1.94034">
        <ele>127</ele>
        <time>2025-06-16T12:41:00.851Z</time>
      </trkpt>
      <trkpt lat="48.57181" lon="1.94048">
        <ele>127</ele>
        <time>2025-06-16T12:41:09.714Z</time>
      </trkpt>
      <trkpt lat="48.57179" lon="1.94054">
        <ele>126</ele>
        <time>2025-06-16T12:41:14.355Z</time>
      </trkpt>
      <trkpt lat="48.57181" lon="1.9406">
        <ele>127</ele>
        <time>2025-06-16T12:41:18.710Z</time>
      </trkpt>
      <trkpt lat="48.57189" lon="1.9405">
        <ele>127</ele>
        <time>2025-06-16T12:41:55.637Z</time>
      </trkpt>
      <trkpt lat="48.57182" lon="1.94035">
        <ele>127</ele>
        <time>2025-06-16T12:42:00.102Z</time>
      </trkpt>
      <trkpt lat="48.57177" lon="1.94024">
        <ele>127</ele>
        <time>2025-06-16T12:42:04.175Z</time>
      </trkpt>
      <trkpt lat="48.57176" lon="1.94015">
        <ele>127</ele>
        <time>2025-06-16T12:42:08.413Z</time>
      </trkpt>
      <trkpt lat="48.57175" lon="1.94008">
        <ele>128</ele>
        <time>2025-06-16T12:42:12.658Z</time>
      </trkpt>
      <trkpt lat="48.57169" lon="1.93999">
        <ele>128</ele>
        <time>2025-06-16T12:42:39.718Z</time>
      </trkpt>
      <trkpt lat="48.57166" lon="1.94001">
        <ele>128</ele>
        <time>2025-06-16T12:42:44.600Z</time>
      </trkpt>
      <trkpt lat="48.57165" lon="1.94004">
        <ele>128</ele>
        <time>2025-06-16T12:42:53.550Z</time>
      </trkpt>
      <trkpt lat="48.57166" lon="1.94008">
        <ele>128</ele>
        <time>2025-06-16T12:42:57.716Z</time>
      </trkpt>
      <trkpt lat="48.57164" lon="1.94012">
        <ele>128</ele>
        <time>2025-06-16T12:43:01.718Z</time>
      </trkpt>
      <trkpt lat="48.57166" lon="1.94013">
        <ele>128</ele>
        <time>2025-06-16T12:44:08.712Z</time>
      </trkpt>
      <trkpt lat="48.57166" lon="1.94012">
        <ele>128</ele>
        <time>2025-06-16T12:44:13.416Z</time>
      </trkpt>
      <trkpt lat="48.57163" lon="1.94002">
        <ele>128</ele>
        <time>2025-06-16T12:44:17.710Z</time>
      </trkpt>
      <trkpt lat="48.57161" lon="1.94002">
        <ele>128</ele>
        <time>2025-06-16T12:44:22.193Z</time>
      </trkpt>
      <trkpt lat="48.57162" lon="1.94001">
        <ele>128</ele>
        <time>2025-06-16T12:44:26.713Z</time>
      </trkpt>
      <trkpt lat="48.57159" lon="1.93992">
        <ele>128</ele>
        <time>2025-06-16T12:45:20.706Z</time>
      </trkpt>
      <trkpt lat="48.57159" lon="1.93992">
        <ele>128</ele>
        <time>2025-06-16T12:45:25.710Z</time>
      </trkpt>
      <trkpt lat="48.57159" lon="1.93985">
        <ele>127</ele>
        <time>2025-06-16T12:45:30.710Z</time>
      </trkpt>
      <trkpt lat="48.5716" lon="1.93977">
        <ele>127</ele>
        <time>2025-06-16T12:45:35.437Z</time>
      </trkpt>
      <trkpt lat="48.5716" lon="1.93969">
        <ele>127</ele>
        <time>2025-06-16T12:45:39.710Z</time>
      </trkpt>
      <trkpt lat="48.57159" lon="1.93961">
        <ele>127</ele>
        <time>2025-06-16T12:45:44.314Z</time>
      </trkpt>
      <trkpt lat="48.57158" lon="1.93954">
        <ele>127</ele>
        <time>2025-06-16T12:45:48.713Z</time>
      </trkpt>
      <trkpt lat="48.5716" lon="1.93946">
        <ele>127</ele>
        <time>2025-06-16T12:45:53.552Z</time>
      </trkpt>
      <trkpt lat="48.57163" lon="1.93941">
        <ele>127</ele>
        <time>2025-06-16T12:45:57.717Z</time>
      </trkpt>
      <trkpt lat="48.57163" lon="1.93939">
        <ele>127</ele>
        <time>2025-06-16T12:46:02.710Z</time>
      </trkpt>
      <trkpt lat="48.57161" lon="1.93934">
        <ele>127</ele>
        <time>2025-06-16T12:46:07.708Z</time>
      </trkpt>
      <trkpt lat="48.5716" lon="1.93934">
        <ele>127</ele>
        <time>2025-06-16T12:46:12.108Z</time>
      </trkpt>
      <trkpt lat="48.5716" lon="1.93932">
        <ele>127</ele>
        <time>2025-06-16T12:46:16.718Z</time>
      </trkpt>
      <trkpt lat="48.57157" lon="1.93923">
        <ele>126</ele>
        <time>2025-06-16T12:46:21.713Z</time>
      </trkpt>
      <trkpt lat="48.57156" lon="1.93917">
        <ele>126</ele>
        <time>2025-06-16T12:46:26.094Z</time>
      </trkpt>
      <trkpt lat="48.57156" lon="1.9391">
        <ele>126</ele>
        <time>2025-06-16T12:46:30.432Z</time>
      </trkpt>
      <trkpt lat="48.57154" lon="1.93903">
        <ele>126</ele>
        <time>2025-06-16T12:46:34.709Z</time>
      </trkpt>
      <trkpt lat="48.57152" lon="1.93895">
        <ele>125</ele>
        <time>2025-06-16T12:46:39.711Z</time>
      </trkpt>
      <trkpt lat="48.57151" lon="1.93895">
        <ele>125</ele>
        <time>2025-06-16T12:46:45.718Z</time>
      </trkpt>
      <trkpt lat="48.57151" lon="1.93895">
        <ele>125</ele>
        <time>2025-06-16T12:46:50.711Z</time>
      </trkpt>
      <trkpt lat="48.57151" lon="1.93894">
        <ele>125</ele>
        <time>2025-06-16T12:46:55.223Z</time>
      </trkpt>
      <trkpt lat="48.5715" lon="1.93892">
        <ele>125</ele>
        <time>2025-06-16T12:46:59.714Z</time>
      </trkpt>
      <trkpt lat="48.57141" lon="1.93893">
        <ele>125</ele>
        <time>2025-06-16T12:47:03.912Z</time>
      </trkpt>
      <trkpt lat="48.57136" lon="1.93896">
        <ele>125</ele>
        <time>2025-06-16T12:47:08.111Z</time>
      </trkpt>
      <trkpt lat="48.57129" lon="1.93893">
        <ele>125</ele>
        <time>2025-06-16T12:47:12.715Z</time>
      </trkpt>
      <trkpt lat="48.57123" lon="1.93894">
        <ele>122</ele>
        <time>2025-06-16T12:47:16.814Z</time>
      </trkpt>
      <trkpt lat="48.57116" lon="1.93896">
        <ele>122</ele>
        <time>2025-06-16T12:47:21.252Z</time>
      </trkpt>
      <trkpt lat="48.5711" lon="1.939">
        <ele>122</ele>
        <time>2025-06-16T12:47:25.712Z</time>
      </trkpt>
      <trkpt lat="48.57105" lon="1.93904">
        <ele>122</ele>
        <time>2025-06-16T12:47:30.069Z</time>
      </trkpt>
      <trkpt lat="48.57099" lon="1.93908">
        <ele>122</ele>
        <time>2025-06-16T12:47:34.456Z</time>
      </trkpt>
      <trkpt lat="48.57095" lon="1.93909">
        <ele>119</ele>
        <time>2025-06-16T12:47:38.867Z</time>
      </trkpt>
      <trkpt lat="48.5709" lon="1.93905">
        <ele>119</ele>
        <time>2025-06-16T12:47:47.716Z</time>
      </trkpt>
      <trkpt lat="48.5709" lon="1.93906">
        <ele>119</ele>
        <time>2025-06-16T12:47:51.718Z</time>
      </trkpt>
      <trkpt lat="48.57089" lon="1.93907">
        <ele>119</ele>
        <time>2025-06-16T12:47:56.336Z</time>
      </trkpt>
      <trkpt lat="48.57083" lon="1.93908">
        <ele>119</ele>
        <time>2025-06-16T12:48:01.713Z</time>
      </trkpt>
      <trkpt lat="48.57076" lon="1.9391">
        <ele>119</ele>
        <time>2025-06-16T12:48:06.176Z</time>
      </trkpt>
      <trkpt lat="48.57067" lon="1.93914">
        <ele>115</ele>
        <time>2025-06-16T12:48:25.215Z</time>
      </trkpt>
      <trkpt lat="48.57066" lon="1.93918">
        <ele>115</ele>
        <time>2025-06-16T12:48:29.713Z</time>
      </trkpt>
      <trkpt lat="48.57061" lon="1.93925">
        <ele>115</ele>
        <time>2025-06-16T12:48:34.195Z</time>
      </trkpt>
      <trkpt lat="48.57058" lon="1.93936">
        <ele>116</ele>
        <time>2025-06-16T12:48:38.273Z</time>
      </trkpt>
      <trkpt lat="48.5706" lon="1.93946">
        <ele>116</ele>
        <time>2025-06-16T12:48:42.556Z</time>
      </trkpt>
      <trkpt lat="48.57061" lon="1.93957">
        <ele>116</ele>
        <time>2025-06-16T12:48:46.709Z</time>
      </trkpt>
      <trkpt lat="48.57063" lon="1.93967">
        <ele>116</ele>
        <time>2025-06-16T12:48:51.075Z</time>
      </trkpt>
      <trkpt lat="48.5706" lon="1.93976">
        <ele>116</ele>
        <time>2025-06-16T12:48:55.711Z</time>
      </trkpt>
      <trkpt lat="48.57059" lon="1.93984">
        <ele>116</ele>
        <time>2025-06-16T12:49:00.513Z</time>
      </trkpt>
      <trkpt lat="48.5706" lon="1.93991">
        <ele>115</ele>
        <time>2025-06-16T12:49:04.600Z</time>
      </trkpt>
      <trkpt lat="48.57064" lon="1.93999">
        <ele>115</ele>
        <time>2025-06-16T12:49:08.716Z</time>
      </trkpt>
      <trkpt lat="48.57066" lon="1.94006">
        <ele>115</ele>
        <time>2025-06-16T12:49:12.981Z</time>
      </trkpt>
      <trkpt lat="48.57068" lon="1.94012">
        <ele>115</ele>
        <time>2025-06-16T12:49:17.195Z</time>
      </trkpt>
      <trkpt lat="48.57064" lon="1.94021">
        <ele>115</ele>
        <time>2025-06-16T12:50:00.715Z</time>
      </trkpt>
      <trkpt lat="48.57059" lon="1.94026">
        <ele>115</ele>
        <time>2025-06-16T12:50:05.710Z</time>
      </trkpt>
      <trkpt lat="48.57054" lon="1.94028">
        <ele>115</ele>
        <time>2025-06-16T12:50:10.276Z</time>
      </trkpt>
      <trkpt lat="48.57048" lon="1.94031">
        <ele>115</ele>
        <time>2025-06-16T12:50:14.578Z</time>
      </trkpt>
      <trkpt lat="48.57041" lon="1.94035">
        <ele>114</ele>
        <time>2025-06-16T12:50:18.714Z</time>
      </trkpt>
      <trkpt lat="48.57035" lon="1.94038">
        <ele>114</ele>
        <time>2025-06-16T12:51:00.712Z</time>
      </trkpt>
      <trkpt lat="48.57035" lon="1.94039">
        <ele>114</ele>
        <time>2025-06-16T12:51:05.060Z</time>
      </trkpt>
      <trkpt lat="48.57036" lon="1.94049">
        <ele>114</ele>
        <time>2025-06-16T12:51:09.499Z</time>
      </trkpt>
      <trkpt lat="48.57039" lon="1.94057">
        <ele>114</ele>
        <time>2025-06-16T12:51:13.711Z</time>
      </trkpt>
      <trkpt lat="48.57042" lon="1.94062">
        <ele>114</ele>
        <time>2025-06-16T12:51:17.707Z</time>
      </trkpt>
      <trkpt lat="48.57045" lon="1.94069">
        <ele>114</ele>
        <time>2025-06-16T12:51:46.712Z</time>
      </trkpt>
      <trkpt lat="48.57045" lon="1.9407">
        <ele>115</ele>
        <time>2025-06-16T12:51:50.707Z</time>
      </trkpt>
      <trkpt lat="48.57047" lon="1.94072">
        <ele>115</ele>
        <time>2025-06-16T12:51:55.357Z</time>
      </trkpt>
      <trkpt lat="48.57048" lon="1.94078">
        <ele>115</ele>
        <time>2025-06-16T12:51:59.718Z</time>
      </trkpt>
      <trkpt lat="48.57051" lon="1.9408">
        <ele>115</ele>
        <time>2025-06-16T12:52:03.729Z</time>
      </trkpt>
      <trkpt lat="48.57056" lon="1.94077">
        <ele>115</ele>
        <time>2025-06-16T12:52:07.713Z</time>
      </trkpt>
      <trkpt lat="48.57063" lon="1.94072">
        <ele>115</ele>
        <time>2025-06-16T12:52:12.254Z</time>
      </trkpt>
      <trkpt lat="48.57069" lon="1.94068">
        <ele>114</ele>
        <time>2025-06-16T12:52:16.642Z</time>
      </trkpt>
      <trkpt lat="48.57074" lon="1.94065">
        <ele>116</ele>
        <time>2025-06-16T12:52:20.705Z</time>
      </trkpt>
      <trkpt lat="48.57078" lon="1.94063">
        <ele>116</ele>
        <time>2025-06-16T12:52:24.984Z</time>
      </trkpt>
      <trkpt lat="48.57079" lon="1.9407">
        <ele>116</ele>
        <time>2025-06-16T12:52:29.563Z</time>
      </trkpt>
      <trkpt lat="48.57079" lon="1.94077">
        <ele>116</ele>
        <time>2025-06-16T12:52:33.709Z</time>
      </trkpt>
      <trkpt lat="48.57082" lon="1.94084">
        <ele>116</ele>
        <time>2025-06-16T12:52:37.841Z</time>
      </trkpt>
      <trkpt lat="48.57082" lon="1.94092">
        <ele>116</ele>
        <time>2025-06-16T12:52:42.082Z</time>
      </trkpt>
      <trkpt lat="48.57082" lon="1.94099">
        <ele>117</ele>
        <time>2025-06-16T12:52:46.162Z</time>
      </trkpt>
      <trkpt lat="48.57084" lon="1.94105">
        <ele>117</ele>
        <time>2025-06-16T12:52:50.182Z</time>
      </trkpt>
      <trkpt lat="48.57087" lon="1.9411">
        <ele>117</ele>
        <time>2025-06-16T12:52:54.380Z</time>
      </trkpt>
      <trkpt lat="48.5709" lon="1.94112">
        <ele>117</ele>
        <time>2025-06-16T12:53:03.718Z</time>
      </trkpt>
      <trkpt lat="48.57091" lon="1.94112">
        <ele>117</ele>
        <time>2025-06-16T12:53:08.710Z</time>
      </trkpt>
      <trkpt lat="48.57091" lon="1.94117">
        <ele>117</ele>
        <time>2025-06-16T12:53:13.273Z</time>
      </trkpt>
      <trkpt lat="48.57086" lon="1.94124">
        <ele>117</ele>
        <time>2025-06-16T12:53:17.710Z</time>
      </trkpt>
      <trkpt lat="48.57079" lon="1.94125">
        <ele>116</ele>
        <time>2025-06-16T12:53:22.679Z</time>
      </trkpt>
      <trkpt lat="48.57072" lon="1.94131">
        <ele>116</ele>
        <time>2025-06-16T12:53:27.711Z</time>
      </trkpt>
      <trkpt lat="48.57066" lon="1.94134">
        <ele>115</ele>
        <time>2025-06-16T12:53:31.818Z</time>
      </trkpt>
      <trkpt lat="48.5706" lon="1.94137">
        <ele>115</ele>
        <time>2025-06-16T12:53:36.342Z</time>
      </trkpt>
      <trkpt lat="48.57053" lon="1.94139">
        <ele>115</ele>
        <time>2025-06-16T12:53:40.714Z</time>
      </trkpt>
      <trkpt lat="48.57049" lon="1.94141">
        <ele>115</ele>
        <time>2025-06-16T12:53:44.982Z</time>
      </trkpt>
      <trkpt lat="48.57043" lon="1.94145">
        <ele>115</ele>
        <time>2025-06-16T12:53:49.236Z</time>
      </trkpt>
      <trkpt lat="48.57036" lon="1.94147">
        <ele>114</ele>
        <time>2025-06-16T12:53:53.716Z</time>
      </trkpt>
      <trkpt lat="48.5703" lon="1.94152">
        <ele>114</ele>
        <time>2025-06-16T12:53:57.957Z</time>
      </trkpt>
      <trkpt lat="48.57025" lon="1.94154">
        <ele>114</ele>
        <time>2025-06-16T12:54:02.365Z</time>
      </trkpt>
      <trkpt lat="48.57018" lon="1.94152">
        <ele>114</ele>
        <time>2025-06-16T12:54:06.782Z</time>
      </trkpt>
      <trkpt lat="48.57013" lon="1.94149">
        <ele>114</ele>
        <time>2025-06-16T12:54:10.923Z</time>
      </trkpt>
      <trkpt lat="48.57008" lon="1.94148">
        <ele>114</ele>
        <time>2025-06-16T12:54:15.239Z</time>
      </trkpt>
      <trkpt lat="48.57002" lon="1.94148">
        <ele>114</ele>
        <time>2025-06-16T12:54:19.378Z</time>
      </trkpt>
      <trkpt lat="48.56996" lon="1.94146">
        <ele>114</ele>
        <time>2025-06-16T12:54:23.506Z</time>
      </trkpt>
      <trkpt lat="48.56989" lon="1.94147">
        <ele>114</ele>
        <time>2025-06-16T12:54:27.709Z</time>
      </trkpt>
      <trkpt lat="48.56983" lon="1.94149">
        <ele>114</ele>
        <time>2025-06-16T12:54:32.434Z</time>
      </trkpt>
      <trkpt lat="48.56978" lon="1.94149">
        <ele>114</ele>
        <time>2025-06-16T12:54:36.714Z</time>
      </trkpt>
      <trkpt lat="48.56973" lon="1.94152">
        <ele>114</ele>
        <time>2025-06-16T12:54:41.314Z</time>
      </trkpt>
      <trkpt lat="48.56967" lon="1.94153">
        <ele>114</ele>
        <time>2025-06-16T12:54:45.713Z</time>
      </trkpt>
      <trkpt lat="48.5696" lon="1.94154">
        <ele>114</ele>
        <time>2025-06-16T12:54:50.376Z</time>
      </trkpt>
      <trkpt lat="48.56954" lon="1.9415">
        <ele>116</ele>
        <time>2025-06-16T12:54:54.712Z</time>
      </trkpt>
      <trkpt lat="48.56949" lon="1.94152">
        <ele>116</ele>
        <time>2025-06-16T12:54:58.714Z</time>
      </trkpt>
      <trkpt lat="48.56944" lon="1.94156">
        <ele>116</ele>
        <time>2025-06-16T12:55:03.535Z</time>
      </trkpt>
      <trkpt lat="48.56942" lon="1.94156">
        <ele>116</ele>
        <time>2025-06-16T12:55:07.718Z</time>
      </trkpt>
      <trkpt lat="48.56944" lon="1.94156">
        <ele>116</ele>
        <time>2025-06-16T12:55:12.716Z</time>
      </trkpt>
      <trkpt lat="48.56939" lon="1.94158">
        <ele>116</ele>
        <time>2025-06-16T12:55:17.712Z</time>
      </trkpt>
      <trkpt lat="48.56934" lon="1.94158">
        <ele>116</ele>
        <time>2025-06-16T12:55:21.715Z</time>
      </trkpt>
      <trkpt lat="48.56929" lon="1.94156">
        <ele>120</ele>
        <time>2025-06-16T12:55:25.996Z</time>
      </trkpt>
      <trkpt lat="48.56923" lon="1.94158">
        <ele>120</ele>
        <time>2025-06-16T12:55:30.519Z</time>
      </trkpt>
      <trkpt lat="48.56918" lon="1.94161">
        <ele>120</ele>
        <time>2025-06-16T12:55:34.712Z</time>
      </trkpt>
      <trkpt lat="48.56914" lon="1.94163">
        <ele>120</ele>
        <time>2025-06-16T12:55:38.978Z</time>
      </trkpt>
      <trkpt lat="48.56908" lon="1.94168">
        <ele>120</ele>
        <time>2025-06-16T12:55:43.602Z</time>
      </trkpt>
      <trkpt lat="48.56903" lon="1.9417">
        <ele>120</ele>
        <time>2025-06-16T12:55:47.715Z</time>
      </trkpt>
      <trkpt lat="48.56897" lon="1.94174">
        <ele>125</ele>
        <time>2025-06-16T12:55:52.710Z</time>
      </trkpt>
      <trkpt lat="48.56891" lon="1.94175">
        <ele>125</ele>
        <time>2025-06-16T12:55:56.718Z</time>
      </trkpt>
      <trkpt lat="48.56887" lon="1.94179">
        <ele>125</ele>
        <time>2025-06-16T12:56:00.822Z</time>
      </trkpt>
      <trkpt lat="48.56883" lon="1.94185">
        <ele>125</ele>
        <time>2025-06-16T12:56:05.362Z</time>
      </trkpt>
      <trkpt lat="48.56874" lon="1.94185">
        <ele>129</ele>
        <time>2025-06-16T12:56:10.438Z</time>
      </trkpt>
      <trkpt lat="48.56867" lon="1.94188">
        <ele>129</ele>
        <time>2025-06-16T12:56:14.715Z</time>
      </trkpt>
      <trkpt lat="48.5686" lon="1.9419">
        <ele>129</ele>
        <time>2025-06-16T12:56:19.459Z</time>
      </trkpt>
      <trkpt lat="48.56855" lon="1.94194">
        <ele>129</ele>
        <time>2025-06-16T12:56:23.522Z</time>
      </trkpt>
      <trkpt lat="48.56849" lon="1.94196">
        <ele>129</ele>
        <time>2025-06-16T12:56:27.709Z</time>
      </trkpt>
      <trkpt lat="48.56843" lon="1.94199">
        <ele>132</ele>
        <time>2025-06-16T12:56:31.714Z</time>
      </trkpt>
      <trkpt lat="48.56837" lon="1.942">
        <ele>132</ele>
        <time>2025-06-16T12:56:35.818Z</time>
      </trkpt>
      <trkpt lat="48.5683" lon="1.94201">
        <ele>132</ele>
        <time>2025-06-16T12:56:40.562Z</time>
      </trkpt>
      <trkpt lat="48.56824" lon="1.94202">
        <ele>132</ele>
        <time>2025-06-16T12:56:44.712Z</time>
      </trkpt>
      <trkpt lat="48.56817" lon="1.94204">
        <ele>136</ele>
        <time>2025-06-16T12:56:49.715Z</time>
      </trkpt>
      <trkpt lat="48.56811" lon="1.94202">
        <ele>136</ele>
        <time>2025-06-16T12:56:54.708Z</time>
      </trkpt>
      <trkpt lat="48.56804" lon="1.94201">
        <ele>136</ele>
        <time>2025-06-16T12:56:59.395Z</time>
      </trkpt>
      <trkpt lat="48.56799" lon="1.94204">
        <ele>136</ele>
        <time>2025-06-16T12:57:03.678Z</time>
      </trkpt>
      <trkpt lat="48.56795" lon="1.94207">
        <ele>136</ele>
        <time>2025-06-16T12:57:07.712Z</time>
      </trkpt>
      <trkpt lat="48.5679" lon="1.94209">
        <ele>141</ele>
        <time>2025-06-16T12:57:12.014Z</time>
      </trkpt>
      <trkpt lat="48.56786" lon="1.94212">
        <ele>141</ele>
        <time>2025-06-16T12:57:16.256Z</time>
      </trkpt>
      <trkpt lat="48.56781" lon="1.94212">
        <ele>141</ele>
        <time>2025-06-16T12:57:20.395Z</time>
      </trkpt>
      <trkpt lat="48.56776" lon="1.94215">
        <ele>141</ele>
        <time>2025-06-16T12:57:24.678Z</time>
      </trkpt>
      <trkpt lat="48.56771" lon="1.94219">
        <ele>141</ele>
        <time>2025-06-16T12:57:28.994Z</time>
      </trkpt>
      <trkpt lat="48.56766" lon="1.94222">
        <ele>141</ele>
        <time>2025-06-16T12:57:33.459Z</time>
      </trkpt>
      <trkpt lat="48.56761" lon="1.94225">
        <ele>147</ele>
        <time>2025-06-16T12:57:37.710Z</time>
      </trkpt>
      <trkpt lat="48.56756" lon="1.94229">
        <ele>147</ele>
        <time>2025-06-16T12:57:42.538Z</time>
      </trkpt>
      <trkpt lat="48.56755" lon="1.94236">
        <ele>147</ele>
        <time>2025-06-16T12:57:46.574Z</time>
      </trkpt>
      <trkpt lat="48.56753" lon="1.94237">
        <ele>147</ele>
        <time>2025-06-16T12:57:50.705Z</time>
      </trkpt>
      <trkpt lat="48.5675" lon="1.94232">
        <ele>147</ele>
        <time>2025-06-16T12:57:55.039Z</time>
      </trkpt>
      <trkpt lat="48.56746" lon="1.94234">
        <ele>147</ele>
        <time>2025-06-16T12:57:59.222Z</time>
      </trkpt>
      <trkpt lat="48.56741" lon="1.94239">
        <ele>147</ele>
        <time>2025-06-16T12:58:03.538Z</time>
      </trkpt>
      <trkpt lat="48.56738" lon="1.94235">
        <ele>147</ele>
        <time>2025-06-16T12:58:07.714Z</time>
      </trkpt>
      <trkpt lat="48.56734" lon="1.94237">
        <ele>150</ele>
        <time>2025-06-16T12:58:12.327Z</time>
      </trkpt>
      <trkpt lat="48.5673" lon="1.94239">
        <ele>150</ele>
        <time>2025-06-16T12:58:16.712Z</time>
      </trkpt>
      <trkpt lat="48.56724" lon="1.9424">
        <ele>150</ele>
        <time>2025-06-16T12:58:21.323Z</time>
      </trkpt>
      <trkpt lat="48.56718" lon="1.94245">
        <ele>150</ele>
        <time>2025-06-16T12:58:25.638Z</time>
      </trkpt>
      <trkpt lat="48.56713" lon="1.94249">
        <ele>150</ele>
        <time>2025-06-16T12:58:29.717Z</time>
      </trkpt>
      <trkpt lat="48.56707" lon="1.94251">
        <ele>152</ele>
        <time>2025-06-16T12:58:34.614Z</time>
      </trkpt>
      <trkpt lat="48.56701" lon="1.94254">
        <ele>152</ele>
        <time>2025-06-16T12:58:38.709Z</time>
      </trkpt>
      <trkpt lat="48.56696" lon="1.94257">
        <ele>152</ele>
        <time>2025-06-16T12:58:42.712Z</time>
      </trkpt>
      <trkpt lat="48.5669" lon="1.94259">
        <ele>152</ele>
        <time>2025-06-16T12:58:47.039Z</time>
      </trkpt>
      <trkpt lat="48.56683" lon="1.94262">
        <ele>152</ele>
        <time>2025-06-16T12:58:51.716Z</time>
      </trkpt>
      <trkpt lat="48.56677" lon="1.94265">
        <ele>152</ele>
        <time>2025-06-16T12:58:55.718Z</time>
      </trkpt>
      <trkpt lat="48.5667" lon="1.94268">
        <ele>152</ele>
        <time>2025-06-16T12:59:00.397Z</time>
      </trkpt>
      <trkpt lat="48.56664" lon="1.9427">
        <ele>152</ele>
        <time>2025-06-16T12:59:04.714Z</time>
      </trkpt>
      <trkpt lat="48.56659" lon="1.94273">
        <ele>152</ele>
        <time>2025-06-16T12:59:09.339Z</time>
      </trkpt>
      <trkpt lat="48.56654" lon="1.94275">
        <ele>152</ele>
        <time>2025-06-16T12:59:13.435Z</time>
      </trkpt>
      <trkpt lat="48.56652" lon="1.94275">
        <ele>153</ele>
        <time>2025-06-16T12:59:17.710Z</time>
      </trkpt>
      <trkpt lat="48.56648" lon="1.94278">
        <ele>153</ele>
        <time>2025-06-16T12:59:22.711Z</time>
      </trkpt>
      <trkpt lat="48.56644" lon="1.94281">
        <ele>153</ele>
        <time>2025-06-16T12:59:27.096Z</time>
      </trkpt>
      <trkpt lat="48.56641" lon="1.94283">
        <ele>153</ele>
        <time>2025-06-16T12:59:31.321Z</time>
      </trkpt>
      <trkpt lat="48.56641" lon="1.94286">
        <ele>153</ele>
        <time>2025-06-16T12:59:49.711Z</time>
      </trkpt>
      <trkpt lat="48.56639" lon="1.94286">
        <ele>153</ele>
        <time>2025-06-16T12:59:54.554Z</time>
      </trkpt>
      <trkpt lat="48.56638" lon="1.94284">
        <ele>153</ele>
        <time>2025-06-16T12:59:58.582Z</time>
      </trkpt>
      <trkpt lat="48.56631" lon="1.94284">
        <ele>153</ele>
        <time>2025-06-16T13:00:03.062Z</time>
      </trkpt>
      <trkpt lat="48.56625" lon="1.94284">
        <ele>153</ele>
        <time>2025-06-16T13:00:07.217Z</time>
      </trkpt>
      <trkpt lat="48.5662" lon="1.94288">
        <ele>153</ele>
        <time>2025-06-16T13:00:11.714Z</time>
      </trkpt>
      <trkpt lat="48.56615" lon="1.94291">
        <ele>153</ele>
        <time>2025-06-16T13:00:16.116Z</time>
      </trkpt>
      <trkpt lat="48.56611" lon="1.94292">
        <ele>153</ele>
        <time>2025-06-16T13:00:20.709Z</time>
      </trkpt>
      <trkpt lat="48.56605" lon="1.94294">
        <ele>153</ele>
        <time>2025-06-16T13:00:25.714Z</time>
      </trkpt>
      <trkpt lat="48.56599" lon="1.94297">
        <ele>153</ele>
        <time>2025-06-16T13:00:30.519Z</time>
      </trkpt>
      <trkpt lat="48.56593" lon="1.94301">
        <ele>153</ele>
        <time>2025-06-16T13:00:34.712Z</time>
      </trkpt>
      <trkpt lat="48.56589" lon="1.94305">
        <ele>153</ele>
        <time>2025-06-16T13:00:39.715Z</time>
      </trkpt>
      <trkpt lat="48.56585" lon="1.94308">
        <ele>153</ele>
        <time>2025-06-16T13:00:44.181Z</time>
      </trkpt>
      <trkpt lat="48.56581" lon="1.94309">
        <ele>153</ele>
        <time>2025-06-16T13:00:48.709Z</time>
      </trkpt>
      <trkpt lat="48.56582" lon="1.94311">
        <ele>153</ele>
        <time>2025-06-16T13:00:53.707Z</time>
      </trkpt>
      <trkpt lat="48.56578" lon="1.94314">
        <ele>153</ele>
        <time>2025-06-16T13:00:58.215Z</time>
      </trkpt>
      <trkpt lat="48.56572" lon="1.94314">
        <ele>153</ele>
        <time>2025-06-16T13:01:02.456Z</time>
      </trkpt>
      <trkpt lat="48.56566" lon="1.94316">
        <ele>154</ele>
        <time>2025-06-16T13:01:06.709Z</time>
      </trkpt>
      <trkpt lat="48.5656" lon="1.94318">
        <ele>154</ele>
        <time>2025-06-16T13:01:11.176Z</time>
      </trkpt>
      <trkpt lat="48.56554" lon="1.9432">
        <ele>154</ele>
        <time>2025-06-16T13:01:15.358Z</time>
      </trkpt>
      <trkpt lat="48.56547" lon="1.94323">
        <ele>154</ele>
        <time>2025-06-16T13:01:19.762Z</time>
      </trkpt>
      <trkpt lat="48.5654" lon="1.94327">
        <ele>154</ele>
        <time>2025-06-16T13:01:24.684Z</time>
      </trkpt>
      <trkpt lat="48.56534" lon="1.94331">
        <ele>154</ele>
        <time>2025-06-16T13:01:29.506Z</time>
      </trkpt>
      <trkpt lat="48.56529" lon="1.94333">
        <ele>154</ele>
        <time>2025-06-16T13:01:33.670Z</time>
      </trkpt>
      <trkpt lat="48.56524" lon="1.94337">
        <ele>154</ele>
        <time>2025-06-16T13:01:37.709Z</time>
      </trkpt>
      <trkpt lat="48.56518" lon="1.94342">
        <ele>154</ele>
        <time>2025-06-16T13:01:42.185Z</time>
      </trkpt>
      <trkpt lat="48.56511" lon="1.94347">
        <ele>153</ele>
        <time>2025-06-16T13:01:46.711Z</time>
      </trkpt>
      <trkpt lat="48.56504" lon="1.94351">
        <ele>152</ele>
        <time>2025-06-16T13:01:51.707Z</time>
      </trkpt>
      <trkpt lat="48.56498" lon="1.94354">
        <ele>152</ele>
        <time>2025-06-16T13:01:56.486Z</time>
      </trkpt>
      <trkpt lat="48.56492" lon="1.94358">
        <ele>152</ele>
        <time>2025-06-16T13:02:00.713Z</time>
      </trkpt>
      <trkpt lat="48.56487" lon="1.94362">
        <ele>152</ele>
        <time>2025-06-16T13:02:05.283Z</time>
      </trkpt>
      <trkpt lat="48.56482" lon="1.94367">
        <ele>151</ele>
        <time>2025-06-16T13:02:09.686Z</time>
      </trkpt>
      <trkpt lat="48.56476" lon="1.94372">
        <ele>151</ele>
        <time>2025-06-16T13:02:14.328Z</time>
      </trkpt>
      <trkpt lat="48.5647" lon="1.94377">
        <ele>150</ele>
        <time>2025-06-16T13:02:18.664Z</time>
      </trkpt>
      <trkpt lat="48.56465" lon="1.94381">
        <ele>150</ele>
        <time>2025-06-16T13:02:22.709Z</time>
      </trkpt>
      <trkpt lat="48.5646" lon="1.94386">
        <ele>150</ele>
        <time>2025-06-16T13:02:26.966Z</time>
      </trkpt>
      <trkpt lat="48.56457" lon="1.94392">
        <ele>149</ele>
        <time>2025-06-16T13:02:31.312Z</time>
      </trkpt>
      <trkpt lat="48.56452" lon="1.94399">
        <ele>149</ele>
        <time>2025-06-16T13:02:35.710Z</time>
      </trkpt>
      <trkpt lat="48.56448" lon="1.94404">
        <ele>148</ele>
        <time>2025-06-16T13:02:39.710Z</time>
      </trkpt>
      <trkpt lat="48.56443" lon="1.94411">
        <ele>148</ele>
        <time>2025-06-16T13:02:44.067Z</time>
      </trkpt>
      <trkpt lat="48.56437" lon="1.94417">
        <ele>148</ele>
        <time>2025-06-16T13:02:48.709Z</time>
      </trkpt>
      <trkpt lat="48.56433" lon="1.94425">
        <ele>148</ele>
        <time>2025-06-16T13:02:53.710Z</time>
      </trkpt>
      <trkpt lat="48.56428" lon="1.94431">
        <ele>147</ele>
        <time>2025-06-16T13:02:58.249Z</time>
      </trkpt>
      <trkpt lat="48.56424" lon="1.94437">
        <ele>147</ele>
        <time>2025-06-16T13:03:02.506Z</time>
      </trkpt>
      <trkpt lat="48.56418" lon="1.94441">
        <ele>147</ele>
        <time>2025-06-16T13:03:06.718Z</time>
      </trkpt>
      <trkpt lat="48.56413" lon="1.94447">
        <ele>147</ele>
        <time>2025-06-16T13:03:11.425Z</time>
      </trkpt>
      <trkpt lat="48.56408" lon="1.94452">
        <ele>147</ele>
        <time>2025-06-16T13:03:15.709Z</time>
      </trkpt>
      <trkpt lat="48.56401" lon="1.94458">
        <ele>152</ele>
        <time>2025-06-16T13:03:20.715Z</time>
      </trkpt>
      <trkpt lat="48.56395" lon="1.94463">
        <ele>151</ele>
        <time>2025-06-16T13:03:25.711Z</time>
      </trkpt>
      <trkpt lat="48.56389" lon="1.94466">
        <ele>151</ele>
        <time>2025-06-16T13:03:30.411Z</time>
      </trkpt>
      <trkpt lat="48.56383" lon="1.94467">
        <ele>151</ele>
        <time>2025-06-16T13:03:35.712Z</time>
      </trkpt>
      <trkpt lat="48.56376" lon="1.94467">
        <ele>151</ele>
        <time>2025-06-16T13:03:40.248Z</time>
      </trkpt>
      <trkpt lat="48.5637" lon="1.9447">
        <ele>156</ele>
        <time>2025-06-16T13:03:44.506Z</time>
      </trkpt>
      <trkpt lat="48.56362" lon="1.94471">
        <ele>156</ele>
        <time>2025-06-16T13:03:48.672Z</time>
      </trkpt>
      <trkpt lat="48.56354" lon="1.94469">
        <ele>156</ele>
        <time>2025-06-16T13:03:52.713Z</time>
      </trkpt>
      <trkpt lat="48.56347" lon="1.94468">
        <ele>156</ele>
        <time>2025-06-16T13:03:57.708Z</time>
      </trkpt>
      <trkpt lat="48.5634" lon="1.94468">
        <ele>156</ele>
        <time>2025-06-16T13:04:02.486Z</time>
      </trkpt>
      <trkpt lat="48.56334" lon="1.94467">
        <ele>156</ele>
        <time>2025-06-16T13:04:06.713Z</time>
      </trkpt>
      <trkpt lat="48.56327" lon="1.94468">
        <ele>156</ele>
        <time>2025-06-16T13:04:11.709Z</time>
      </trkpt>
      <trkpt lat="48.5632" lon="1.94468">
        <ele>156</ele>
        <time>2025-06-16T13:04:16.368Z</time>
      </trkpt>
      <trkpt lat="48.56313" lon="1.94468">
        <ele>155</ele>
        <time>2025-06-16T13:04:20.611Z</time>
      </trkpt>
      <trkpt lat="48.56307" lon="1.94469">
        <ele>155</ele>
        <time>2025-06-16T13:04:24.709Z</time>
      </trkpt>
      <trkpt lat="48.563" lon="1.94469">
        <ele>155</ele>
        <time>2025-06-16T13:04:29.709Z</time>
      </trkpt>
      <trkpt lat="48.56293" lon="1.9447">
        <ele>155</ele>
        <time>2025-06-16T13:04:34.272Z</time>
      </trkpt>
      <trkpt lat="48.56286" lon="1.94471">
        <ele>153</ele>
        <time>2025-06-16T13:04:38.529Z</time>
      </trkpt>
      <trkpt lat="48.5628" lon="1.94471">
        <ele>153</ele>
        <time>2025-06-16T13:04:42.713Z</time>
      </trkpt>
      <trkpt lat="48.56272" lon="1.94471">
        <ele>153</ele>
        <time>2025-06-16T13:04:47.709Z</time>
      </trkpt>
      <trkpt lat="48.56266" lon="1.94471">
        <ele>153</ele>
        <time>2025-06-16T13:04:52.371Z</time>
      </trkpt>
      <trkpt lat="48.56259" lon="1.94472">
        <ele>151</ele>
        <time>2025-06-16T13:04:56.655Z</time>
      </trkpt>
      <trkpt lat="48.56253" lon="1.94472">
        <ele>151</ele>
        <time>2025-06-16T13:05:01.108Z</time>
      </trkpt>
      <trkpt lat="48.56248" lon="1.94473">
        <ele>151</ele>
        <time>2025-06-16T13:05:05.392Z</time>
      </trkpt>
      <trkpt lat="48.56242" lon="1.94473">
        <ele>151</ele>
        <time>2025-06-16T13:05:09.606Z</time>
      </trkpt>
      <trkpt lat="48.56237" lon="1.94474">
        <ele>151</ele>
        <time>2025-06-16T13:05:14.085Z</time>
      </trkpt>
      <trkpt lat="48.56234" lon="1.94473">
        <ele>149</ele>
        <time>2025-06-16T13:05:18.714Z</time>
      </trkpt>
      <trkpt lat="48.56233" lon="1.94472">
        <ele>149</ele>
        <time>2025-06-16T13:05:23.413Z</time>
      </trkpt>
      <trkpt lat="48.56228" lon="1.9447">
        <ele>149</ele>
        <time>2025-06-16T13:05:27.707Z</time>
      </trkpt>
      <trkpt lat="48.56224" lon="1.94471">
        <ele>149</ele>
        <time>2025-06-16T13:05:32.713Z</time>
      </trkpt>
      <trkpt lat="48.56221" lon="1.94471">
        <ele>149</ele>
        <time>2025-06-16T13:05:37.040Z</time>
      </trkpt>
      <trkpt lat="48.56218" lon="1.9447">
        <ele>149</ele>
        <time>2025-06-16T13:05:41.093Z</time>
      </trkpt>
      <trkpt lat="48.56214" lon="1.94472">
        <ele>149</ele>
        <time>2025-06-16T13:05:45.707Z</time>
      </trkpt>
      <trkpt lat="48.56212" lon="1.94473">
        <ele>149</ele>
        <time>2025-06-16T13:05:50.708Z</time>
      </trkpt>
      <trkpt lat="48.56207" lon="1.94472">
        <ele>149</ele>
        <time>2025-06-16T13:05:55.295Z</time>
      </trkpt>
      <trkpt lat="48.56202" lon="1.94469">
        <ele>149</ele>
        <time>2025-06-16T13:05:59.567Z</time>
      </trkpt>
      <trkpt lat="48.56197" lon="1.9447">
        <ele>149</ele>
        <time>2025-06-16T13:06:03.710Z</time>
      </trkpt>
      <trkpt lat="48.56194" lon="1.94471">
        <ele>149</ele>
        <time>2025-06-16T13:06:08.711Z</time>
      </trkpt>
      <trkpt lat="48.56192" lon="1.94471">
        <ele>149</ele>
        <time>2025-06-16T13:06:13.392Z</time>
      </trkpt>
      <trkpt lat="48.56188" lon="1.94469">
        <ele>149</ele>
        <time>2025-06-16T13:06:17.712Z</time>
      </trkpt>
      <trkpt lat="48.56187" lon="1.9447">
        <ele>149</ele>
        <time>2025-06-16T13:06:22.710Z</time>
      </trkpt>
      <trkpt lat="48.56187" lon="1.94471">
        <ele>149</ele>
        <time>2025-06-16T13:06:27.652Z</time>
      </trkpt>
      <trkpt lat="48.56182" lon="1.94472">
        <ele>149</ele>
        <time>2025-06-16T13:06:31.708Z</time>
      </trkpt>
      <trkpt lat="48.56177" lon="1.94471">
        <ele>149</ele>
        <time>2025-06-16T13:06:35.714Z</time>
      </trkpt>
      <trkpt lat="48.56171" lon="1.94471">
        <ele>149</ele>
        <time>2025-06-16T13:06:40.710Z</time>
      </trkpt>
      <trkpt lat="48.56166" lon="1.9447">
        <ele>149</ele>
        <time>2025-06-16T13:06:45.212Z</time>
      </trkpt>
      <trkpt lat="48.56162" lon="1.94471">
        <ele>149</ele>
        <time>2025-06-16T13:06:49.211Z</time>
      </trkpt>
      <trkpt lat="48.56155" lon="1.9447">
        <ele>149</ele>
        <time>2025-06-16T13:06:53.555Z</time>
      </trkpt>
      <trkpt lat="48.5615" lon="1.94469">
        <ele>148</ele>
        <time>2025-06-16T13:06:57.667Z</time>
      </trkpt>
      <trkpt lat="48.56145" lon="1.94478">
        <ele>148</ele>
        <time>2025-06-16T13:07:02.634Z</time>
      </trkpt>
      <trkpt lat="48.56143" lon="1.94486">
        <ele>149</ele>
        <time>2025-06-16T13:07:06.718Z</time>
      </trkpt>
      <trkpt lat="48.5614" lon="1.9449">
        <ele>149</ele>
        <time>2025-06-16T13:07:10.945Z</time>
      </trkpt>
      <trkpt lat="48.56137" lon="1.94496">
        <ele>149</ele>
        <time>2025-06-16T13:07:15.492Z</time>
      </trkpt>
      <trkpt lat="48.56135" lon="1.94504">
        <ele>149</ele>
        <time>2025-06-16T13:07:20.348Z</time>
      </trkpt>
      <trkpt lat="48.56132" lon="1.94511">
        <ele>149</ele>
        <time>2025-06-16T13:07:24.666Z</time>
      </trkpt>
      <trkpt lat="48.56128" lon="1.94518">
        <ele>150</ele>
        <time>2025-06-16T13:07:28.710Z</time>
      </trkpt>
      <trkpt lat="48.56124" lon="1.94525">
        <ele>150</ele>
        <time>2025-06-16T13:07:33.202Z</time>
      </trkpt>
      <trkpt lat="48.56122" lon="1.94534">
        <ele>150</ele>
        <time>2025-06-16T13:07:37.591Z</time>
      </trkpt>
      <trkpt lat="48.56121" lon="1.94545">
        <ele>151</ele>
        <time>2025-06-16T13:07:41.708Z</time>
      </trkpt>
      <trkpt lat="48.5612" lon="1.94553">
        <ele>151</ele>
        <time>2025-06-16T13:07:45.707Z</time>
      </trkpt>
      <trkpt lat="48.56118" lon="1.94563">
        <ele>151</ele>
        <time>2025-06-16T13:07:50.374Z</time>
      </trkpt>
      <trkpt lat="48.56117" lon="1.94573">
        <ele>153</ele>
        <time>2025-06-16T13:07:54.709Z</time>
      </trkpt>
      <trkpt lat="48.56117" lon="1.94583">
        <ele>153</ele>
        <time>2025-06-16T13:07:59.691Z</time>
      </trkpt>
      <trkpt lat="48.56116" lon="1.94591">
        <ele>153</ele>
        <time>2025-06-16T13:08:03.710Z</time>
      </trkpt>
      <trkpt lat="48.56115" lon="1.946">
        <ele>156</ele>
        <time>2025-06-16T13:08:08.327Z</time>
      </trkpt>
      <trkpt lat="48.56113" lon="1.9461">
        <ele>156</ele>
        <time>2025-06-16T13:08:12.712Z</time>
      </trkpt>
      <trkpt lat="48.56111" lon="1.94618">
        <ele>156</ele>
        <time>2025-06-16T13:08:17.133Z</time>
      </trkpt>
      <trkpt lat="48.5611" lon="1.9463">
        <ele>158</ele>
        <time>2025-06-16T13:08:35.292Z</time>
      </trkpt>
      <trkpt lat="48.56102" lon="1.94636">
        <ele>158</ele>
        <time>2025-06-16T13:08:39.715Z</time>
      </trkpt>
      <trkpt lat="48.56097" lon="1.94643">
        <ele>155</ele>
        <time>2025-06-16T13:08:44.193Z</time>
      </trkpt>
      <trkpt lat="48.56091" lon="1.94645">
        <ele>155</ele>
        <time>2025-06-16T13:08:48.330Z</time>
      </trkpt>
      <trkpt lat="48.56087" lon="1.9465">
        <ele>155</ele>
        <time>2025-06-16T13:08:52.718Z</time>
      </trkpt>
      <trkpt lat="48.56084" lon="1.94658">
        <ele>156</ele>
        <time>2025-06-16T13:08:57.307Z</time>
      </trkpt>
      <trkpt lat="48.56084" lon="1.94667">
        <ele>156</ele>
        <time>2025-06-16T13:09:01.674Z</time>
      </trkpt>
      <trkpt lat="48.56079" lon="1.9467">
        <ele>156</ele>
        <time>2025-06-16T13:09:05.709Z</time>
      </trkpt>
      <trkpt lat="48.56074" lon="1.94671">
        <ele>156</ele>
        <time>2025-06-16T13:09:10.286Z</time>
      </trkpt>
      <trkpt lat="48.56069" lon="1.94676">
        <ele>154</ele>
        <time>2025-06-16T13:09:14.708Z</time>
      </trkpt>
      <trkpt lat="48.56066" lon="1.94681">
        <ele>156</ele>
        <time>2025-06-16T13:09:19.715Z</time>
      </trkpt>
      <trkpt lat="48.56061" lon="1.94686">
        <ele>156</ele>
        <time>2025-06-16T13:09:24.407Z</time>
      </trkpt>
      <trkpt lat="48.56055" lon="1.94689">
        <ele>156</ele>
        <time>2025-06-16T13:09:28.692Z</time>
      </trkpt>
      <trkpt lat="48.5605" lon="1.94687">
        <ele>156</ele>
        <time>2025-06-16T13:09:32.709Z</time>
      </trkpt>
      <trkpt lat="48.56044" lon="1.94687">
        <ele>156</ele>
        <time>2025-06-16T13:09:37.707Z</time>
      </trkpt>
      <trkpt lat="48.56042" lon="1.94691">
        <ele>156</ele>
        <time>2025-06-16T13:09:42.354Z</time>
      </trkpt>
      <trkpt lat="48.56043" lon="1.94696">
        <ele>156</ele>
        <time>2025-06-16T13:09:46.714Z</time>
      </trkpt>
      <trkpt lat="48.56043" lon="1.94702">
        <ele>156</ele>
        <time>2025-06-16T13:09:50.911Z</time>
      </trkpt>
      <trkpt lat="48.5604" lon="1.94707">
        <ele>156</ele>
        <time>2025-06-16T13:09:55.187Z</time>
      </trkpt>
      <trkpt lat="48.56036" lon="1.94715">
        <ele>158</ele>
        <time>2025-06-16T13:09:59.707Z</time>
      </trkpt>
      <trkpt lat="48.56033" lon="1.94722">
        <ele>158</ele>
        <time>2025-06-16T13:10:04.027Z</time>
      </trkpt>
      <trkpt lat="48.5603" lon="1.94728">
        <ele>158</ele>
        <time>2025-06-16T13:10:08.233Z</time>
      </trkpt>
      <trkpt lat="48.56028" lon="1.94734">
        <ele>158</ele>
        <time>2025-06-16T13:10:12.448Z</time>
      </trkpt>
      <trkpt lat="48.56026" lon="1.94739">
        <ele>159</ele>
        <time>2025-06-16T13:10:16.714Z</time>
      </trkpt>
      <trkpt lat="48.56027" lon="1.94739">
        <ele>159</ele>
        <time>2025-06-16T13:10:21.716Z</time>
      </trkpt>
      <trkpt lat="48.56027" lon="1.9474">
        <ele>159</ele>
        <time>2025-06-16T13:10:27.706Z</time>
      </trkpt>
      <trkpt lat="48.56024" lon="1.94746">
        <ele>159</ele>
        <time>2025-06-16T13:10:32.527Z</time>
      </trkpt>
      <trkpt lat="48.5602" lon="1.94754">
        <ele>159</ele>
        <time>2025-06-16T13:10:37.452Z</time>
      </trkpt>
      <trkpt lat="48.56018" lon="1.9476">
        <ele>159</ele>
        <time>2025-06-16T13:10:41.914Z</time>
      </trkpt>
      <trkpt lat="48.56016" lon="1.94768">
        <ele>160</ele>
        <time>2025-06-16T13:10:46.308Z</time>
      </trkpt>
      <trkpt lat="48.56015" lon="1.94776">
        <ele>160</ele>
        <time>2025-06-16T13:10:50.708Z</time>
      </trkpt>
      <trkpt lat="48.56012" lon="1.94784">
        <ele>158</ele>
        <time>2025-06-16T13:10:55.303Z</time>
      </trkpt>
      <trkpt lat="48.56008" lon="1.94792">
        <ele>158</ele>
        <time>2025-06-16T13:10:59.714Z</time>
      </trkpt>
      <trkpt lat="48.56004" lon="1.948">
        <ele>159</ele>
        <time>2025-06-16T13:11:04.616Z</time>
      </trkpt>
      <trkpt lat="48.55999" lon="1.94809">
        <ele>159</ele>
        <time>2025-06-16T13:11:08.705Z</time>
      </trkpt>
      <trkpt lat="48.55991" lon="1.94818">
        <ele>159</ele>
        <time>2025-06-16T13:11:13.707Z</time>
      </trkpt>
      <trkpt lat="48.55986" lon="1.94827">
        <ele>159</ele>
        <time>2025-06-16T13:11:18.707Z</time>
      </trkpt>
      <trkpt lat="48.55986" lon="1.94836">
        <ele>159</ele>
        <time>2025-06-16T13:11:23.548Z</time>
      </trkpt>
      <trkpt lat="48.55985" lon="1.94845">
        <ele>159</ele>
        <time>2025-06-16T13:11:27.711Z</time>
      </trkpt>
      <trkpt lat="48.55984" lon="1.94851">
        <ele>160</ele>
        <time>2025-06-16T13:11:32.208Z</time>
      </trkpt>
      <trkpt lat="48.55981" lon="1.94859">
        <ele>160</ele>
        <time>2025-06-16T13:11:36.527Z</time>
      </trkpt>
      <trkpt lat="48.55978" lon="1.94867">
        <ele>160</ele>
        <time>2025-06-16T13:11:40.572Z</time>
      </trkpt>
      <trkpt lat="48.55975" lon="1.94873">
        <ele>160</ele>
        <time>2025-06-16T13:11:44.709Z</time>
      </trkpt>
      <trkpt lat="48.55972" lon="1.94882">
        <ele>161</ele>
        <time>2025-06-16T13:11:49.353Z</time>
      </trkpt>
      <trkpt lat="48.55969" lon="1.94892">
        <ele>161</ele>
        <time>2025-06-16T13:11:53.535Z</time>
      </trkpt>
      <trkpt lat="48.55966" lon="1.949">
        <ele>161</ele>
        <time>2025-06-16T13:11:57.713Z</time>
      </trkpt>
      <trkpt lat="48.55962" lon="1.94909">
        <ele>162</ele>
        <time>2025-06-16T13:12:02.690Z</time>
      </trkpt>
      <trkpt lat="48.5596" lon="1.94916">
        <ele>162</ele>
        <time>2025-06-16T13:12:06.709Z</time>
      </trkpt>
      <trkpt lat="48.55958" lon="1.94925">
        <ele>164</ele>
        <time>2025-06-16T13:12:11.188Z</time>
      </trkpt>
      <trkpt lat="48.55955" lon="1.94932">
        <ele>163</ele>
        <time>2025-06-16T13:12:15.235Z</time>
      </trkpt>
      <trkpt lat="48.55953" lon="1.94942">
        <ele>163</ele>
        <time>2025-06-16T13:12:19.318Z</time>
      </trkpt>
      <trkpt lat="48.55951" lon="1.94951">
        <ele>163</ele>
        <time>2025-06-16T13:12:23.374Z</time>
      </trkpt>
      <trkpt lat="48.55948" lon="1.94959">
        <ele>163</ele>
        <time>2025-06-16T13:12:27.648Z</time>
      </trkpt>
      <trkpt lat="48.55944" lon="1.94967">
        <ele>163</ele>
        <time>2025-06-16T13:12:31.710Z</time>
      </trkpt>
      <trkpt lat="48.55939" lon="1.94976">
        <ele>163</ele>
        <time>2025-06-16T13:12:36.713Z</time>
      </trkpt>
      <trkpt lat="48.55934" lon="1.94985">
        <ele>163</ele>
        <time>2025-06-16T13:12:41.173Z</time>
      </trkpt>
      <trkpt lat="48.55931" lon="1.94992">
        <ele>164</ele>
        <time>2025-06-16T13:12:45.672Z</time>
      </trkpt>
      <trkpt lat="48.55928" lon="1.94999">
        <ele>164</ele>
        <time>2025-06-16T13:12:49.913Z</time>
      </trkpt>
      <trkpt lat="48.55926" lon="1.95006">
        <ele>164</ele>
        <time>2025-06-16T13:12:54.191Z</time>
      </trkpt>
      <trkpt lat="48.55923" lon="1.95006">
        <ele>164</ele>
        <time>2025-06-16T13:12:58.705Z</time>
      </trkpt>
      <trkpt lat="48.55918" lon="1.95005">
        <ele>164</ele>
        <time>2025-06-16T13:13:03.108Z</time>
      </trkpt>
      <trkpt lat="48.55912" lon="1.95004">
        <ele>164</ele>
        <time>2025-06-16T13:13:07.707Z</time>
      </trkpt>
      <trkpt lat="48.55908" lon="1.95007">
        <ele>164</ele>
        <time>2025-06-16T13:13:12.469Z</time>
      </trkpt>
      <trkpt lat="48.55906" lon="1.95002">
        <ele>164</ele>
        <time>2025-06-16T13:13:16.953Z</time>
      </trkpt>
      <trkpt lat="48.55905" lon="1.94995">
        <ele>164</ele>
        <time>2025-06-16T13:13:21.132Z</time>
      </trkpt>
      <trkpt lat="48.55902" lon="1.94987">
        <ele>166</ele>
        <time>2025-06-16T13:13:25.707Z</time>
      </trkpt>
      <trkpt lat="48.55896" lon="1.94986">
        <ele>166</ele>
        <time>2025-06-16T13:13:30.405Z</time>
      </trkpt>
      <trkpt lat="48.55891" lon="1.9499">
        <ele>166</ele>
        <time>2025-06-16T13:13:34.710Z</time>
      </trkpt>
      <trkpt lat="48.55889" lon="1.94994">
        <ele>166</ele>
        <time>2025-06-16T13:13:39.365Z</time>
      </trkpt>
      <trkpt lat="48.55884" lon="1.94998">
        <ele>166</ele>
        <time>2025-06-16T13:13:43.710Z</time>
      </trkpt>
      <trkpt lat="48.55881" lon="1.95003">
        <ele>166</ele>
        <time>2025-06-16T13:13:47.714Z</time>
      </trkpt>
      <trkpt lat="48.55875" lon="1.95009">
        <ele>170</ele>
        <time>2025-06-16T13:13:52.711Z</time>
      </trkpt>
      <trkpt lat="48.5587" lon="1.95012">
        <ele>170</ele>
        <time>2025-06-16T13:13:57.388Z</time>
      </trkpt>
      <trkpt lat="48.55864" lon="1.95016">
        <ele>170</ele>
        <time>2025-06-16T13:14:01.713Z</time>
      </trkpt>
      <trkpt lat="48.55858" lon="1.95021">
        <ele>170</ele>
        <time>2025-06-16T13:14:06.708Z</time>
      </trkpt>
      <trkpt lat="48.55854" lon="1.95026">
        <ele>170</ele>
        <time>2025-06-16T13:14:10.710Z</time>
      </trkpt>
      <trkpt lat="48.55848" lon="1.95032">
        <ele>170</ele>
        <time>2025-06-16T13:14:15.666Z</time>
      </trkpt>
      <trkpt lat="48.55843" lon="1.95035">
        <ele>174</ele>
        <time>2025-06-16T13:14:19.710Z</time>
      </trkpt>
      <trkpt lat="48.55836" lon="1.95037">
        <ele>174</ele>
        <time>2025-06-16T13:14:24.716Z</time>
      </trkpt>
      <trkpt lat="48.5583" lon="1.95041">
        <ele>174</ele>
        <time>2025-06-16T13:14:29.566Z</time>
      </trkpt>
      <trkpt lat="48.55826" lon="1.95048">
        <ele>174</ele>
        <time>2025-06-16T13:14:33.912Z</time>
      </trkpt>
      <trkpt lat="48.5582" lon="1.95051">
        <ele>174</ele>
        <time>2025-06-16T13:14:38.168Z</time>
      </trkpt>
      <trkpt lat="48.55815" lon="1.95055">
        <ele>175</ele>
        <time>2025-06-16T13:14:42.355Z</time>
      </trkpt>
      <trkpt lat="48.5581" lon="1.9506">
        <ele>175</ele>
        <time>2025-06-16T13:14:46.668Z</time>
      </trkpt>
      <trkpt lat="48.55803" lon="1.95064">
        <ele>175</ele>
        <time>2025-06-16T13:14:50.980Z</time>
      </trkpt>
      <trkpt lat="48.55799" lon="1.95069">
        <ele>175</ele>
        <time>2025-06-16T13:14:55.432Z</time>
      </trkpt>
      <trkpt lat="48.55793" lon="1.95075">
        <ele>175</ele>
        <time>2025-06-16T13:15:00.047Z</time>
      </trkpt>
      <trkpt lat="48.55787" lon="1.95078">
        <ele>174</ele>
        <time>2025-06-16T13:15:04.647Z</time>
      </trkpt>
      <trkpt lat="48.55782" lon="1.95082">
        <ele>174</ele>
        <time>2025-06-16T13:15:08.714Z</time>
      </trkpt>
      <trkpt lat="48.55777" lon="1.95087">
        <ele>174</ele>
        <time>2025-06-16T13:15:13.292Z</time>
      </trkpt>
      <trkpt lat="48.55772" lon="1.95093">
        <ele>174</ele>
        <time>2025-06-16T13:15:17.354Z</time>
      </trkpt>
      <trkpt lat="48.55766" lon="1.95096">
        <ele>174</ele>
        <time>2025-06-16T13:15:21.706Z</time>
      </trkpt>
      <trkpt lat="48.55759" lon="1.951">
        <ele>173</ele>
        <time>2025-06-16T13:15:26.629Z</time>
      </trkpt>
      <trkpt lat="48.55754" lon="1.95103">
        <ele>173</ele>
        <time>2025-06-16T13:15:30.710Z</time>
      </trkpt>
      <trkpt lat="48.55747" lon="1.95106">
        <ele>173</ele>
        <time>2025-06-16T13:15:35.332Z</time>
      </trkpt>
      <trkpt lat="48.55742" lon="1.95112">
        <ele>173</ele>
        <time>2025-06-16T13:15:39.696Z</time>
      </trkpt>
      <trkpt lat="48.55737" lon="1.95118">
        <ele>173</ele>
        <time>2025-06-16T13:15:43.707Z</time>
      </trkpt>
      <trkpt lat="48.55731" lon="1.95122">
        <ele>175</ele>
        <time>2025-06-16T13:15:48.090Z</time>
      </trkpt>
      <trkpt lat="48.55725" lon="1.95126">
        <ele>174</ele>
        <time>2025-06-16T13:15:52.709Z</time>
      </trkpt>
      <trkpt lat="48.55719" lon="1.95128">
        <ele>174</ele>
        <time>2025-06-16T13:15:57.532Z</time>
      </trkpt>
      <trkpt lat="48.55714" lon="1.95133">
        <ele>174</ele>
        <time>2025-06-16T13:16:01.848Z</time>
      </trkpt>
      <trkpt lat="48.55708" lon="1.95138">
        <ele>176</ele>
        <time>2025-06-16T13:16:06.132Z</time>
      </trkpt>
      <trkpt lat="48.55703" lon="1.95143">
        <ele>176</ele>
        <time>2025-06-16T13:16:10.392Z</time>
      </trkpt>
      <trkpt lat="48.557" lon="1.95151">
        <ele>176</ele>
        <time>2025-06-16T13:16:14.708Z</time>
      </trkpt>
      <trkpt lat="48.55696" lon="1.95158">
        <ele>176</ele>
        <time>2025-06-16T13:16:19.052Z</time>
      </trkpt>
      <trkpt lat="48.55691" lon="1.95163">
        <ele>176</ele>
        <time>2025-06-16T13:16:23.251Z</time>
      </trkpt>
      <trkpt lat="48.55685" lon="1.95167">
        <ele>176</ele>
        <time>2025-06-16T13:16:27.466Z</time>
      </trkpt>
      <trkpt lat="48.55679" lon="1.95171">
        <ele>176</ele>
        <time>2025-06-16T13:16:31.709Z</time>
      </trkpt>
      <trkpt lat="48.55673" lon="1.95175">
        <ele>176</ele>
        <time>2025-06-16T13:16:35.973Z</time>
      </trkpt>
      <trkpt lat="48.55667" lon="1.95178">
        <ele>176</ele>
        <time>2025-06-16T13:16:40.249Z</time>
      </trkpt>
      <trkpt lat="48.55662" lon="1.9518">
        <ele>176</ele>
        <time>2025-06-16T13:16:44.671Z</time>
      </trkpt>
      <trkpt lat="48.55657" lon="1.95185">
        <ele>177</ele>
        <time>2025-06-16T13:16:48.709Z</time>
      </trkpt>
      <trkpt lat="48.55651" lon="1.95189">
        <ele>176</ele>
        <time>2025-06-16T13:16:53.108Z</time>
      </trkpt>
      <trkpt lat="48.55646" lon="1.95194">
        <ele>176</ele>
        <time>2025-06-16T13:16:57.469Z</time>
      </trkpt>
      <trkpt lat="48.55641" lon="1.95198">
        <ele>176</ele>
        <time>2025-06-16T13:17:01.707Z</time>
      </trkpt>
      <trkpt lat="48.55635" lon="1.95201">
        <ele>176</ele>
        <time>2025-06-16T13:17:06.173Z</time>
      </trkpt>
      <trkpt lat="48.55629" lon="1.95205">
        <ele>176</ele>
        <time>2025-06-16T13:17:10.533Z</time>
      </trkpt>
      <trkpt lat="48.55624" lon="1.9521">
        <ele>176</ele>
        <time>2025-06-16T13:17:14.851Z</time>
      </trkpt>
      <trkpt lat="48.55618" lon="1.95214">
        <ele>176</ele>
        <time>2025-06-16T13:17:19.168Z</time>
      </trkpt>
      <trkpt lat="48.55613" lon="1.95218">
        <ele>176</ele>
        <time>2025-06-16T13:17:23.529Z</time>
      </trkpt>
      <trkpt lat="48.55608" lon="1.95222">
        <ele>176</ele>
        <time>2025-06-16T13:17:27.906Z</time>
      </trkpt>
      <trkpt lat="48.55603" lon="1.95226">
        <ele>176</ele>
        <time>2025-06-16T13:17:32.113Z</time>
      </trkpt>
      <trkpt lat="48.55598" lon="1.95231">
        <ele>176</ele>
        <time>2025-06-16T13:17:36.133Z</time>
      </trkpt>
      <trkpt lat="48.55599" lon="1.95227">
        <ele>176</ele>
        <time>2025-06-16T13:17:40.332Z</time>
      </trkpt>
      <trkpt lat="48.55593" lon="1.95235">
        <ele>174</ele>
        <time>2025-06-16T13:17:44.853Z</time>
      </trkpt>
      <trkpt lat="48.55586" lon="1.95243">
        <ele>174</ele>
        <time>2025-06-16T13:17:48.874Z</time>
      </trkpt>
      <trkpt lat="48.5558" lon="1.9525">
        <ele>174</ele>
        <time>2025-06-16T13:17:53.328Z</time>
      </trkpt>
      <trkpt lat="48.55573" lon="1.95255">
        <ele>174</ele>
        <time>2025-06-16T13:17:57.852Z</time>
      </trkpt>
      <trkpt lat="48.55567" lon="1.9526">
        <ele>174</ele>
        <time>2025-06-16T13:18:02.332Z</time>
      </trkpt>
      <trkpt lat="48.55562" lon="1.95263">
        <ele>174</ele>
        <time>2025-06-16T13:18:06.366Z</time>
      </trkpt>
      <trkpt lat="48.55557" lon="1.95268">
        <ele>173</ele>
        <time>2025-06-16T13:18:10.514Z</time>
      </trkpt>
      <trkpt lat="48.55552" lon="1.95275">
        <ele>173</ele>
        <time>2025-06-16T13:18:15.448Z</time>
      </trkpt>
      <trkpt lat="48.55547" lon="1.9528">
        <ele>173</ele>
        <time>2025-06-16T13:18:19.508Z</time>
      </trkpt>
      <trkpt lat="48.55541" lon="1.95283">
        <ele>173</ele>
        <time>2025-06-16T13:18:23.708Z</time>
      </trkpt>
      <trkpt lat="48.55536" lon="1.95284">
        <ele>173</ele>
        <time>2025-06-16T13:18:28.212Z</time>
      </trkpt>
      <trkpt lat="48.55538" lon="1.95285">
        <ele>173</ele>
        <time>2025-06-16T13:18:32.706Z</time>
      </trkpt>
      <trkpt lat="48.55537" lon="1.95287">
        <ele>173</ele>
        <time>2025-06-16T13:18:37.352Z</time>
      </trkpt>
      <trkpt lat="48.55533" lon="1.95291">
        <ele>173</ele>
        <time>2025-06-16T13:18:41.708Z</time>
      </trkpt>
      <trkpt lat="48.55526" lon="1.95301">
        <ele>173</ele>
        <time>2025-06-16T13:18:46.252Z</time>
      </trkpt>
      <trkpt lat="48.55519" lon="1.95306">
        <ele>173</ele>
        <time>2025-06-16T13:18:50.675Z</time>
      </trkpt>
      <trkpt lat="48.55512" lon="1.95308">
        <ele>172</ele>
        <time>2025-06-16T13:18:54.709Z</time>
      </trkpt>
      <trkpt lat="48.55511" lon="1.95312">
        <ele>172</ele>
        <time>2025-06-16T13:18:59.531Z</time>
      </trkpt>
      <trkpt lat="48.55502" lon="1.95319">
        <ele>172</ele>
        <time>2025-06-16T13:19:04.062Z</time>
      </trkpt>
      <trkpt lat="48.55496" lon="1.95325">
        <ele>172</ele>
        <time>2025-06-16T13:19:08.635Z</time>
      </trkpt>
      <trkpt lat="48.55495" lon="1.95334">
        <ele>172</ele>
        <time>2025-06-16T13:19:12.816Z</time>
      </trkpt>
      <trkpt lat="48.55489" lon="1.95337">
        <ele>172</ele>
        <time>2025-06-16T13:19:17.279Z</time>
      </trkpt>
      <trkpt lat="48.55484" lon="1.9534">
        <ele>172</ele>
        <time>2025-06-16T13:19:21.298Z</time>
      </trkpt>
      <trkpt lat="48.55477" lon="1.95343">
        <ele>172</ele>
        <time>2025-06-16T13:19:25.797Z</time>
      </trkpt>
      <trkpt lat="48.55471" lon="1.95345">
        <ele>172</ele>
        <time>2025-06-16T13:19:29.858Z</time>
      </trkpt>
      <trkpt lat="48.55465" lon="1.95347">
        <ele>172</ele>
        <time>2025-06-16T13:19:33.919Z</time>
      </trkpt>
      <trkpt lat="48.55459" lon="1.95352">
        <ele>173</ele>
        <time>2025-06-16T13:19:37.956Z</time>
      </trkpt>
      <trkpt lat="48.55453" lon="1.95356">
        <ele>174</ele>
        <time>2025-06-16T13:19:42.034Z</time>
      </trkpt>
      <trkpt lat="48.55447" lon="1.95359">
        <ele>174</ele>
        <time>2025-06-16T13:19:46.096Z</time>
      </trkpt>
      <trkpt lat="48.5544" lon="1.95365">
        <ele>174</ele>
        <time>2025-06-16T13:19:50.712Z</time>
      </trkpt>
      <trkpt lat="48.55433" lon="1.95369">
        <ele>174</ele>
        <time>2025-06-16T13:19:55.709Z</time>
      </trkpt>
      <trkpt lat="48.55427" lon="1.95374">
        <ele>174</ele>
        <time>2025-06-16T13:20:00.236Z</time>
      </trkpt>
      <trkpt lat="48.55421" lon="1.95378">
        <ele>175</ele>
        <time>2025-06-16T13:20:04.493Z</time>
      </trkpt>
      <trkpt lat="48.55416" lon="1.95383">
        <ele>175</ele>
        <time>2025-06-16T13:20:08.584Z</time>
      </trkpt>
      <trkpt lat="48.55411" lon="1.95388">
        <ele>175</ele>
        <time>2025-06-16T13:20:12.678Z</time>
      </trkpt>
      <trkpt lat="48.55405" lon="1.95392">
        <ele>175</ele>
        <time>2025-06-16T13:20:17.115Z</time>
      </trkpt>
      <trkpt lat="48.554" lon="1.95397">
        <ele>175</ele>
        <time>2025-06-16T13:20:21.458Z</time>
      </trkpt>
      <trkpt lat="48.55394" lon="1.954">
        <ele>175</ele>
        <time>2025-06-16T13:20:25.639Z</time>
      </trkpt>
      <trkpt lat="48.55388" lon="1.95405">
        <ele>175</ele>
        <time>2025-06-16T13:20:29.900Z</time>
      </trkpt>
      <trkpt lat="48.55383" lon="1.95409">
        <ele>175</ele>
        <time>2025-06-16T13:20:34.258Z</time>
      </trkpt>
      <trkpt lat="48.55377" lon="1.95414">
        <ele>175</ele>
        <time>2025-06-16T13:20:38.439Z</time>
      </trkpt>
      <trkpt lat="48.55371" lon="1.95418">
        <ele>175</ele>
        <time>2025-06-16T13:20:42.622Z</time>
      </trkpt>
      <trkpt lat="48.55366" lon="1.95422">
        <ele>175</ele>
        <time>2025-06-16T13:20:46.704Z</time>
      </trkpt>
      <trkpt lat="48.55361" lon="1.95428">
        <ele>175</ele>
        <time>2025-06-16T13:20:51.179Z</time>
      </trkpt>
      <trkpt lat="48.55356" lon="1.95434">
        <ele>175</ele>
        <time>2025-06-16T13:20:55.421Z</time>
      </trkpt>
      <trkpt lat="48.5535" lon="1.95439">
        <ele>175</ele>
        <time>2025-06-16T13:20:59.678Z</time>
      </trkpt>
      <trkpt lat="48.55345" lon="1.95443">
        <ele>175</ele>
        <time>2025-06-16T13:21:03.919Z</time>
      </trkpt>
      <trkpt lat="48.55339" lon="1.95446">
        <ele>175</ele>
        <time>2025-06-16T13:21:08.134Z</time>
      </trkpt>
      <trkpt lat="48.55334" lon="1.9545">
        <ele>175</ele>
        <time>2025-06-16T13:21:12.402Z</time>
      </trkpt>
      <trkpt lat="48.55328" lon="1.95454">
        <ele>175</ele>
        <time>2025-06-16T13:21:16.676Z</time>
      </trkpt>
      <trkpt lat="48.55323" lon="1.9546">
        <ele>175</ele>
        <time>2025-06-16T13:21:21.080Z</time>
      </trkpt>
      <trkpt lat="48.55318" lon="1.95465">
        <ele>173</ele>
        <time>2025-06-16T13:21:25.295Z</time>
      </trkpt>
      <trkpt lat="48.55314" lon="1.95469">
        <ele>173</ele>
        <time>2025-06-16T13:21:29.600Z</time>
      </trkpt>
      <trkpt lat="48.5531" lon="1.95473">
        <ele>173</ele>
        <time>2025-06-16T13:21:33.707Z</time>
      </trkpt>
      <trkpt lat="48.55306" lon="1.9548">
        <ele>173</ele>
        <time>2025-06-16T13:21:38.281Z</time>
      </trkpt>
      <trkpt lat="48.55302" lon="1.95485">
        <ele>173</ele>
        <time>2025-06-16T13:21:42.641Z</time>
      </trkpt>
      <trkpt lat="48.55297" lon="1.95487">
        <ele>173</ele>
        <time>2025-06-16T13:21:47.707Z</time>
      </trkpt>
      <trkpt lat="48.55293" lon="1.95489">
        <ele>173</ele>
        <time>2025-06-16T13:21:52.704Z</time>
      </trkpt>
      <trkpt lat="48.55292" lon="1.95486">
        <ele>173</ele>
        <time>2025-06-16T13:21:56.714Z</time>
      </trkpt>
      <trkpt lat="48.55289" lon="1.95488">
        <ele>171</ele>
        <time>2025-06-16T13:22:01.324Z</time>
      </trkpt>
      <trkpt lat="48.55286" lon="1.95491">
        <ele>171</ele>
        <time>2025-06-16T13:22:05.459Z</time>
      </trkpt>
      <trkpt lat="48.55284" lon="1.95492">
        <ele>171</ele>
        <time>2025-06-16T13:22:09.495Z</time>
      </trkpt>
      <trkpt lat="48.55281" lon="1.95496">
        <ele>171</ele>
        <time>2025-06-16T13:22:14.316Z</time>
      </trkpt>
      <trkpt lat="48.55277" lon="1.95502">
        <ele>171</ele>
        <time>2025-06-16T13:22:18.705Z</time>
      </trkpt>
      <trkpt lat="48.55272" lon="1.95506">
        <ele>171</ele>
        <time>2025-06-16T13:22:23.139Z</time>
      </trkpt>
      <trkpt lat="48.55267" lon="1.95509">
        <ele>171</ele>
        <time>2025-06-16T13:22:27.475Z</time>
      </trkpt>
      <trkpt lat="48.55261" lon="1.95513">
        <ele>168</ele>
        <time>2025-06-16T13:22:31.894Z</time>
      </trkpt>
      <trkpt lat="48.55258" lon="1.95519">
        <ele>168</ele>
        <time>2025-06-16T13:22:36.434Z</time>
      </trkpt>
      <trkpt lat="48.55253" lon="1.95523">
        <ele>168</ele>
        <time>2025-06-16T13:22:40.704Z</time>
      </trkpt>
      <trkpt lat="48.55246" lon="1.95526">
        <ele>168</ele>
        <time>2025-06-16T13:22:45.095Z</time>
      </trkpt>
      <trkpt lat="48.5524" lon="1.95528">
        <ele>168</ele>
        <time>2025-06-16T13:22:49.363Z</time>
      </trkpt>
      <trkpt lat="48.55234" lon="1.95532">
        <ele>165</ele>
        <time>2025-06-16T13:22:53.704Z</time>
      </trkpt>
      <trkpt lat="48.55229" lon="1.95538">
        <ele>165</ele>
        <time>2025-06-16T13:22:58.101Z</time>
      </trkpt>
      <trkpt lat="48.55224" lon="1.95543">
        <ele>167</ele>
        <time>2025-06-16T13:23:02.222Z</time>
      </trkpt>
      <trkpt lat="48.55219" lon="1.95549">
        <ele>167</ele>
        <time>2025-06-16T13:23:06.514Z</time>
      </trkpt>
      <trkpt lat="48.55217" lon="1.95557">
        <ele>167</ele>
        <time>2025-06-16T13:23:10.959Z</time>
      </trkpt>
      <trkpt lat="48.55213" lon="1.95562">
        <ele>167</ele>
        <time>2025-06-16T13:23:15.277Z</time>
      </trkpt>
      <trkpt lat="48.55208" lon="1.95567">
        <ele>166</ele>
        <time>2025-06-16T13:23:19.577Z</time>
      </trkpt>
      <trkpt lat="48.55202" lon="1.9557">
        <ele>168</ele>
        <time>2025-06-16T13:23:23.896Z</time>
      </trkpt>
      <trkpt lat="48.55195" lon="1.95573">
        <ele>168</ele>
        <time>2025-06-16T13:23:28.478Z</time>
      </trkpt>
      <trkpt lat="48.55189" lon="1.95576">
        <ele>168</ele>
        <time>2025-06-16T13:23:32.659Z</time>
      </trkpt>
      <trkpt lat="48.55183" lon="1.95578">
        <ele>168</ele>
        <time>2025-06-16T13:23:36.961Z</time>
      </trkpt>
      <trkpt lat="48.55177" lon="1.95581">
        <ele>167</ele>
        <time>2025-06-16T13:23:41.262Z</time>
      </trkpt>
      <trkpt lat="48.55171" lon="1.95585">
        <ele>167</ele>
        <time>2025-06-16T13:23:45.399Z</time>
      </trkpt>
      <trkpt lat="48.55166" lon="1.95589">
        <ele>167</ele>
        <time>2025-06-16T13:23:49.522Z</time>
      </trkpt>
      <trkpt lat="48.55161" lon="1.95594">
        <ele>167</ele>
        <time>2025-06-16T13:23:53.702Z</time>
      </trkpt>
      <trkpt lat="48.55156" lon="1.95599">
        <ele>169</ele>
        <time>2025-06-16T13:23:58.036Z</time>
      </trkpt>
      <trkpt lat="48.55151" lon="1.95604">
        <ele>167</ele>
        <time>2025-06-16T13:24:02.202Z</time>
      </trkpt>
      <trkpt lat="48.55146" lon="1.95609">
        <ele>167</ele>
        <time>2025-06-16T13:24:06.339Z</time>
      </trkpt>
      <trkpt lat="48.55141" lon="1.95613">
        <ele>167</ele>
        <time>2025-06-16T13:24:10.675Z</time>
      </trkpt>
      <trkpt lat="48.55136" lon="1.95618">
        <ele>167</ele>
        <time>2025-06-16T13:24:14.706Z</time>
      </trkpt>
      <trkpt lat="48.55131" lon="1.95623">
        <ele>167</ele>
        <time>2025-06-16T13:24:18.995Z</time>
      </trkpt>
      <trkpt lat="48.55127" lon="1.95628">
        <ele>169</ele>
        <time>2025-06-16T13:24:23.337Z</time>
      </trkpt>
      <trkpt lat="48.55121" lon="1.95632">
        <ele>167</ele>
        <time>2025-06-16T13:24:27.705Z</time>
      </trkpt>
      <trkpt lat="48.55115" lon="1.95636">
        <ele>167</ele>
        <time>2025-06-16T13:24:32.016Z</time>
      </trkpt>
      <trkpt lat="48.55111" lon="1.9564">
        <ele>167</ele>
        <time>2025-06-16T13:24:35.940Z</time>
      </trkpt>
      <trkpt lat="48.55104" lon="1.95644">
        <ele>167</ele>
        <time>2025-06-16T13:24:40.364Z</time>
      </trkpt>
      <trkpt lat="48.55098" lon="1.95648">
        <ele>167</ele>
        <time>2025-06-16T13:24:44.622Z</time>
      </trkpt>
      <trkpt lat="48.55092" lon="1.95652">
        <ele>165</ele>
        <time>2025-06-16T13:24:48.818Z</time>
      </trkpt>
      <trkpt lat="48.55086" lon="1.95657">
        <ele>167</ele>
        <time>2025-06-16T13:24:53.136Z</time>
      </trkpt>
      <trkpt lat="48.55082" lon="1.95663">
        <ele>167</ele>
        <time>2025-06-16T13:24:57.362Z</time>
      </trkpt>
      <trkpt lat="48.55076" lon="1.95667">
        <ele>167</ele>
        <time>2025-06-16T13:25:01.439Z</time>
      </trkpt>
      <trkpt lat="48.55071" lon="1.95671">
        <ele>167</ele>
        <time>2025-06-16T13:25:05.704Z</time>
      </trkpt>
      <trkpt lat="48.55065" lon="1.95675">
        <ele>165</ele>
        <time>2025-06-16T13:25:10.401Z</time>
      </trkpt>
      <trkpt lat="48.5506" lon="1.95679">
        <ele>165</ele>
        <time>2025-06-16T13:25:14.642Z</time>
      </trkpt>
      <trkpt lat="48.55054" lon="1.95685">
        <ele>166</ele>
        <time>2025-06-16T13:25:19.453Z</time>
      </trkpt>
      <trkpt lat="48.5505" lon="1.9569">
        <ele>166</ele>
        <time>2025-06-16T13:25:23.701Z</time>
      </trkpt>
      <trkpt lat="48.55045" lon="1.95695">
        <ele>166</ele>
        <time>2025-06-16T13:25:28.158Z</time>
      </trkpt>
      <trkpt lat="48.55039" lon="1.95699">
        <ele>165</ele>
        <time>2025-06-16T13:25:32.315Z</time>
      </trkpt>
      <trkpt lat="48.55033" lon="1.95702">
        <ele>165</ele>
        <time>2025-06-16T13:25:36.555Z</time>
      </trkpt>
      <trkpt lat="48.55028" lon="1.95706">
        <ele>165</ele>
        <time>2025-06-16T13:25:40.703Z</time>
      </trkpt>
      <trkpt lat="48.55022" lon="1.95711">
        <ele>166</ele>
        <time>2025-06-16T13:25:45.021Z</time>
      </trkpt>
      <trkpt lat="48.55016" lon="1.95716">
        <ele>166</ele>
        <time>2025-06-16T13:25:49.322Z</time>
      </trkpt>
      <trkpt lat="48.55011" lon="1.95721">
        <ele>165</ele>
        <time>2025-06-16T13:25:53.656Z</time>
      </trkpt>
      <trkpt lat="48.55006" lon="1.95726">
        <ele>165</ele>
        <time>2025-06-16T13:25:57.794Z</time>
      </trkpt>
      <trkpt lat="48.55" lon="1.9573">
        <ele>165</ele>
        <time>2025-06-16T13:26:02.019Z</time>
      </trkpt>
      <trkpt lat="48.54996" lon="1.95736">
        <ele>165</ele>
        <time>2025-06-16T13:26:06.261Z</time>
      </trkpt>
      <trkpt lat="48.5499" lon="1.95741">
        <ele>166</ele>
        <time>2025-06-16T13:26:10.502Z</time>
      </trkpt>
      <trkpt lat="48.54984" lon="1.95744">
        <ele>166</ele>
        <time>2025-06-16T13:26:14.705Z</time>
      </trkpt>
      <trkpt lat="48.54978" lon="1.95748">
        <ele>166</ele>
        <time>2025-06-16T13:26:18.941Z</time>
      </trkpt>
      <trkpt lat="48.54973" lon="1.95752">
        <ele>166</ele>
        <time>2025-06-16T13:26:23.182Z</time>
      </trkpt>
      <trkpt lat="48.54967" lon="1.95756">
        <ele>166</ele>
        <time>2025-06-16T13:26:27.397Z</time>
      </trkpt>
      <trkpt lat="48.54962" lon="1.95761">
        <ele>166</ele>
        <time>2025-06-16T13:26:31.682Z</time>
      </trkpt>
      <trkpt lat="48.54956" lon="1.95766">
        <ele>166</ele>
        <time>2025-06-16T13:26:36.008Z</time>
      </trkpt>
      <trkpt lat="48.54951" lon="1.9577">
        <ele>166</ele>
        <time>2025-06-16T13:26:40.382Z</time>
      </trkpt>
      <trkpt lat="48.54946" lon="1.95775">
        <ele>166</ele>
        <time>2025-06-16T13:26:44.704Z</time>
      </trkpt>
      <trkpt lat="48.54941" lon="1.95779">
        <ele>166</ele>
        <time>2025-06-16T13:26:48.962Z</time>
      </trkpt>
      <trkpt lat="48.54936" lon="1.95784">
        <ele>166</ele>
        <time>2025-06-16T13:26:53.322Z</time>
      </trkpt>
      <trkpt lat="48.54931" lon="1.95789">
        <ele>166</ele>
        <time>2025-06-16T13:26:57.494Z</time>
      </trkpt>
      <trkpt lat="48.54926" lon="1.95793">
        <ele>166</ele>
        <time>2025-06-16T13:27:01.707Z</time>
      </trkpt>
      <trkpt lat="48.5492" lon="1.95797">
        <ele>166</ele>
        <time>2025-06-16T13:27:05.959Z</time>
      </trkpt>
      <trkpt lat="48.54914" lon="1.95801">
        <ele>166</ele>
        <time>2025-06-16T13:27:10.354Z</time>
      </trkpt>
      <trkpt lat="48.54909" lon="1.95805">
        <ele>166</ele>
        <time>2025-06-16T13:27:14.697Z</time>
      </trkpt>
      <trkpt lat="48.54904" lon="1.95809">
        <ele>166</ele>
        <time>2025-06-16T13:27:18.881Z</time>
      </trkpt>
      <trkpt lat="48.54898" lon="1.95813">
        <ele>165</ele>
        <time>2025-06-16T13:27:23.180Z</time>
      </trkpt>
      <trkpt lat="48.54893" lon="1.95818">
        <ele>165</ele>
        <time>2025-06-16T13:27:27.394Z</time>
      </trkpt>
      <trkpt lat="48.54888" lon="1.95822">
        <ele>167</ele>
        <time>2025-06-16T13:27:31.576Z</time>
      </trkpt>
      <trkpt lat="48.54882" lon="1.95827">
        <ele>167</ele>
        <time>2025-06-16T13:27:35.919Z</time>
      </trkpt>
      <trkpt lat="48.54876" lon="1.95832">
        <ele>167</ele>
        <time>2025-06-16T13:27:40.162Z</time>
      </trkpt>
      <trkpt lat="48.54871" lon="1.95837">
        <ele>165</ele>
        <time>2025-06-16T13:27:44.583Z</time>
      </trkpt>
      <trkpt lat="48.54866" lon="1.95842">
        <ele>165</ele>
        <time>2025-06-16T13:27:48.706Z</time>
      </trkpt>
      <trkpt lat="48.54861" lon="1.95846">
        <ele>165</ele>
        <time>2025-06-16T13:27:52.814Z</time>
      </trkpt>
      <trkpt lat="48.54856" lon="1.95851">
        <ele>166</ele>
        <time>2025-06-16T13:27:57.235Z</time>
      </trkpt>
      <trkpt lat="48.5485" lon="1.95855">
        <ele>166</ele>
        <time>2025-06-16T13:28:01.519Z</time>
      </trkpt>
      <trkpt lat="48.54845" lon="1.9586">
        <ele>163</ele>
        <time>2025-06-16T13:28:05.582Z</time>
      </trkpt>
      <trkpt lat="48.5484" lon="1.95864">
        <ele>163</ele>
        <time>2025-06-16T13:28:09.703Z</time>
      </trkpt>
      <trkpt lat="48.54836" lon="1.95868">
        <ele>163</ele>
        <time>2025-06-16T13:28:13.707Z</time>
      </trkpt>
      <trkpt lat="48.5483" lon="1.95873">
        <ele>163</ele>
        <time>2025-06-16T13:28:18.501Z</time>
      </trkpt>
      <trkpt lat="48.54825" lon="1.95877">
        <ele>165</ele>
        <time>2025-06-16T13:28:22.835Z</time>
      </trkpt>
      <trkpt lat="48.54819" lon="1.95881">
        <ele>165</ele>
        <time>2025-06-16T13:28:27.162Z</time>
      </trkpt>
      <trkpt lat="48.54813" lon="1.95884">
        <ele>165</ele>
        <time>2025-06-16T13:28:31.538Z</time>
      </trkpt>
      <trkpt lat="48.54808" lon="1.95888">
        <ele>165</ele>
        <time>2025-06-16T13:28:35.703Z</time>
      </trkpt>
      <trkpt lat="48.54803" lon="1.95893">
        <ele>165</ele>
        <time>2025-06-16T13:28:40.602Z</time>
      </trkpt>
      <trkpt lat="48.54798" lon="1.95899">
        <ele>165</ele>
        <time>2025-06-16T13:28:44.919Z</time>
      </trkpt>
      <trkpt lat="48.54793" lon="1.95904">
        <ele>167</ele>
        <time>2025-06-16T13:28:49.117Z</time>
      </trkpt>
      <trkpt lat="48.54788" lon="1.95909">
        <ele>166</ele>
        <time>2025-06-16T13:28:53.707Z</time>
      </trkpt>
      <trkpt lat="48.54782" lon="1.95913">
        <ele>166</ele>
        <time>2025-06-16T13:28:58.222Z</time>
      </trkpt>
      <trkpt lat="48.54777" lon="1.95917">
        <ele>166</ele>
        <time>2025-06-16T13:29:02.377Z</time>
      </trkpt>
      <trkpt lat="48.54772" lon="1.95921">
        <ele>166</ele>
        <time>2025-06-16T13:29:06.482Z</time>
      </trkpt>
      <trkpt lat="48.54766" lon="1.95925">
        <ele>166</ele>
        <time>2025-06-16T13:29:11.003Z</time>
      </trkpt>
      <trkpt lat="48.54761" lon="1.95925">
        <ele>163</ele>
        <time>2025-06-16T13:29:15.222Z</time>
      </trkpt>
      <trkpt lat="48.54757" lon="1.95925">
        <ele>163</ele>
        <time>2025-06-16T13:29:19.282Z</time>
      </trkpt>
      <trkpt lat="48.54751" lon="1.95928">
        <ele>163</ele>
        <time>2025-06-16T13:29:23.701Z</time>
      </trkpt>
      <trkpt lat="48.54746" lon="1.95934">
        <ele>165</ele>
        <time>2025-06-16T13:29:27.782Z</time>
      </trkpt>
      <trkpt lat="48.54743" lon="1.95947">
        <ele>165</ele>
        <time>2025-06-16T13:29:32.702Z</time>
      </trkpt>
      <trkpt lat="48.54739" lon="1.95957">
        <ele>165</ele>
        <time>2025-06-16T13:29:37.041Z</time>
      </trkpt>
      <trkpt lat="48.54734" lon="1.95962">
        <ele>167</ele>
        <time>2025-06-16T13:29:41.282Z</time>
      </trkpt>
      <trkpt lat="48.54728" lon="1.95965">
        <ele>167</ele>
        <time>2025-06-16T13:29:45.317Z</time>
      </trkpt>
      <trkpt lat="48.54722" lon="1.95968">
        <ele>167</ele>
        <time>2025-06-16T13:29:49.481Z</time>
      </trkpt>
      <trkpt lat="48.54716" lon="1.95971">
        <ele>167</ele>
        <time>2025-06-16T13:29:53.702Z</time>
      </trkpt>
      <trkpt lat="48.54711" lon="1.95975">
        <ele>167</ele>
        <time>2025-06-16T13:29:57.938Z</time>
      </trkpt>
      <trkpt lat="48.54706" lon="1.9598">
        <ele>164</ele>
        <time>2025-06-16T13:30:02.076Z</time>
      </trkpt>
      <trkpt lat="48.54701" lon="1.95986">
        <ele>164</ele>
        <time>2025-06-16T13:30:06.215Z</time>
      </trkpt>
      <trkpt lat="48.54695" lon="1.95989">
        <ele>166</ele>
        <time>2025-06-16T13:30:10.363Z</time>
      </trkpt>
      <trkpt lat="48.5469" lon="1.95993">
        <ele>166</ele>
        <time>2025-06-16T13:30:14.562Z</time>
      </trkpt>
      <trkpt lat="48.54684" lon="1.95998">
        <ele>166</ele>
        <time>2025-06-16T13:30:18.802Z</time>
      </trkpt>
      <trkpt lat="48.54678" lon="1.96002">
        <ele>164</ele>
        <time>2025-06-16T13:30:23.010Z</time>
      </trkpt>
      <trkpt lat="48.54672" lon="1.96006">
        <ele>164</ele>
        <time>2025-06-16T13:30:27.182Z</time>
      </trkpt>
      <trkpt lat="48.54667" lon="1.9601">
        <ele>164</ele>
        <time>2025-06-16T13:30:31.379Z</time>
      </trkpt>
      <trkpt lat="48.54662" lon="1.96015">
        <ele>168</ele>
        <time>2025-06-16T13:30:35.637Z</time>
      </trkpt>
      <trkpt lat="48.54657" lon="1.96019">
        <ele>168</ele>
        <time>2025-06-16T13:30:39.703Z</time>
      </trkpt>
      <trkpt lat="48.54651" lon="1.96024">
        <ele>167</ele>
        <time>2025-06-16T13:30:44.120Z</time>
      </trkpt>
      <trkpt lat="48.54646" lon="1.96029">
        <ele>167</ele>
        <time>2025-06-16T13:30:48.274Z</time>
      </trkpt>
      <trkpt lat="48.5464" lon="1.96033">
        <ele>167</ele>
        <time>2025-06-16T13:30:52.362Z</time>
      </trkpt>
      <trkpt lat="48.54634" lon="1.96037">
        <ele>167</ele>
        <time>2025-06-16T13:30:56.562Z</time>
      </trkpt>
      <trkpt lat="48.54629" lon="1.96043">
        <ele>169</ele>
        <time>2025-06-16T13:31:00.709Z</time>
      </trkpt>
      <trkpt lat="48.54623" lon="1.96046">
        <ele>169</ele>
        <time>2025-06-16T13:31:05.017Z</time>
      </trkpt>
      <trkpt lat="48.54618" lon="1.9605">
        <ele>169</ele>
        <time>2025-06-16T13:31:09.302Z</time>
      </trkpt>
      <trkpt lat="48.54613" lon="1.96055">
        <ele>169</ele>
        <time>2025-06-16T13:31:13.381Z</time>
      </trkpt>
      <trkpt lat="48.54608" lon="1.96061">
        <ele>169</ele>
        <time>2025-06-16T13:31:17.622Z</time>
      </trkpt>
      <trkpt lat="48.54601" lon="1.96065">
        <ele>169</ele>
        <time>2025-06-16T13:31:21.862Z</time>
      </trkpt>
      <trkpt lat="48.54595" lon="1.96067">
        <ele>169</ele>
        <time>2025-06-16T13:31:26.136Z</time>
      </trkpt>
      <trkpt lat="48.54589" lon="1.9607">
        <ele>169</ele>
        <time>2025-06-16T13:31:30.182Z</time>
      </trkpt>
      <trkpt lat="48.54584" lon="1.96074">
        <ele>169</ele>
        <time>2025-06-16T13:31:34.363Z</time>
      </trkpt>
      <trkpt lat="48.54579" lon="1.96079">
        <ele>169</ele>
        <time>2025-06-16T13:31:38.502Z</time>
      </trkpt>
      <trkpt lat="48.54574" lon="1.96085">
        <ele>169</ele>
        <time>2025-06-16T13:31:42.682Z</time>
      </trkpt>
      <trkpt lat="48.54569" lon="1.9609">
        <ele>170</ele>
        <time>2025-06-16T13:31:46.999Z</time>
      </trkpt>
      <trkpt lat="48.54564" lon="1.96094">
        <ele>170</ele>
        <time>2025-06-16T13:31:51.599Z</time>
      </trkpt>
      <trkpt lat="48.5456" lon="1.96096">
        <ele>170</ele>
        <time>2025-06-16T13:31:55.706Z</time>
      </trkpt>
      <trkpt lat="48.54561" lon="1.96095">
        <ele>170</ele>
        <time>2025-06-16T13:32:00.709Z</time>
      </trkpt>
      <trkpt lat="48.54561" lon="1.96095">
        <ele>170</ele>
        <time>2025-06-16T13:32:07.705Z</time>
      </trkpt>
      <trkpt lat="48.54562" lon="1.96096">
        <ele>170</ele>
        <time>2025-06-16T13:32:13.255Z</time>
      </trkpt>
      <trkpt lat="48.54557" lon="1.96101">
        <ele>169</ele>
        <time>2025-06-16T13:32:17.705Z</time>
      </trkpt>
      <trkpt lat="48.54554" lon="1.96108">
        <ele>169</ele>
        <time>2025-06-16T13:32:22.462Z</time>
      </trkpt>
      <trkpt lat="48.54551" lon="1.96109">
        <ele>169</ele>
        <time>2025-06-16T13:32:26.705Z</time>
      </trkpt>
      <trkpt lat="48.54547" lon="1.9611">
        <ele>169</ele>
        <time>2025-06-16T13:32:31.398Z</time>
      </trkpt>
      <trkpt lat="48.54543" lon="1.96117">
        <ele>169</ele>
        <time>2025-06-16T13:32:35.705Z</time>
      </trkpt>
      <trkpt lat="48.5454" lon="1.96121">
        <ele>170</ele>
        <time>2025-06-16T13:32:40.239Z</time>
      </trkpt>
      <trkpt lat="48.54536" lon="1.96122">
        <ele>170</ele>
        <time>2025-06-16T13:32:44.703Z</time>
      </trkpt>
      <trkpt lat="48.54532" lon="1.96123">
        <ele>170</ele>
        <time>2025-06-16T13:32:49.078Z</time>
      </trkpt>
      <trkpt lat="48.54528" lon="1.96127">
        <ele>169</ele>
        <time>2025-06-16T13:32:53.709Z</time>
      </trkpt>
      <trkpt lat="48.54526" lon="1.96135">
        <ele>169</ele>
        <time>2025-06-16T13:32:58.053Z</time>
      </trkpt>
      <trkpt lat="48.54522" lon="1.96141">
        <ele>169</ele>
        <time>2025-06-16T13:33:02.339Z</time>
      </trkpt>
      <trkpt lat="48.54521" lon="1.96147">
        <ele>169</ele>
        <time>2025-06-16T13:33:06.703Z</time>
      </trkpt>
      <trkpt lat="48.54522" lon="1.96152">
        <ele>169</ele>
        <time>2025-06-16T13:33:11.493Z</time>
      </trkpt>
      <trkpt lat="48.54526" lon="1.96156">
        <ele>168</ele>
        <time>2025-06-16T13:33:15.703Z</time>
      </trkpt>
      <trkpt lat="48.54526" lon="1.96163">
        <ele>168</ele>
        <time>2025-06-16T13:33:20.139Z</time>
      </trkpt>
      <trkpt lat="48.54531" lon="1.96169">
        <ele>168</ele>
        <time>2025-06-16T13:33:24.702Z</time>
      </trkpt>
      <trkpt lat="48.54531" lon="1.96182">
        <ele>168</ele>
        <time>2025-06-16T13:33:28.877Z</time>
      </trkpt>
      <trkpt lat="48.54532" lon="1.96192">
        <ele>168</ele>
        <time>2025-06-16T13:33:33.135Z</time>
      </trkpt>
      <trkpt lat="48.54534" lon="1.96197">
        <ele>168</ele>
        <time>2025-06-16T13:33:37.704Z</time>
      </trkpt>
      <trkpt lat="48.54533" lon="1.96196">
        <ele>168</ele>
        <time>2025-06-16T13:33:41.711Z</time>
      </trkpt>
      <trkpt lat="48.54533" lon="1.9619">
        <ele>168</ele>
        <time>2025-06-16T13:33:46.218Z</time>
      </trkpt>
      <trkpt lat="48.54531" lon="1.96181">
        <ele>168</ele>
        <time>2025-06-16T13:33:50.459Z</time>
      </trkpt>
      <trkpt lat="48.54527" lon="1.96171">
        <ele>168</ele>
        <time>2025-06-16T13:33:54.922Z</time>
      </trkpt>
      <trkpt lat="48.54523" lon="1.96168">
        <ele>168</ele>
        <time>2025-06-16T13:33:58.958Z</time>
      </trkpt>
      <trkpt lat="48.54522" lon="1.96159">
        <ele>168</ele>
        <time>2025-06-16T13:34:03.131Z</time>
      </trkpt>
      <trkpt lat="48.5452" lon="1.96151">
        <ele>169</ele>
        <time>2025-06-16T13:34:07.644Z</time>
      </trkpt>
      <trkpt lat="48.54515" lon="1.9615">
        <ele>169</ele>
        <time>2025-06-16T13:34:11.665Z</time>
      </trkpt>
      <trkpt lat="48.54512" lon="1.96155">
        <ele>170</ele>
        <time>2025-06-16T13:34:15.964Z</time>
      </trkpt>
      <trkpt lat="48.54507" lon="1.96162">
        <ele>170</ele>
        <time>2025-06-16T13:34:20.592Z</time>
      </trkpt>
      <trkpt lat="48.54503" lon="1.9617">
        <ele>170</ele>
        <time>2025-06-16T13:34:25.403Z</time>
      </trkpt>
      <trkpt lat="48.54501" lon="1.96181">
        <ele>169</ele>
        <time>2025-06-16T13:34:29.701Z</time>
      </trkpt>
      <trkpt lat="48.545" lon="1.96189">
        <ele>169</ele>
        <time>2025-06-16T13:34:33.945Z</time>
      </trkpt>
      <trkpt lat="48.54498" lon="1.96197">
        <ele>169</ele>
        <time>2025-06-16T13:34:38.067Z</time>
      </trkpt>
      <trkpt lat="48.54497" lon="1.96206">
        <ele>169</ele>
        <time>2025-06-16T13:34:42.589Z</time>
      </trkpt>
      <trkpt lat="48.54496" lon="1.96213">
        <ele>169</ele>
        <time>2025-06-16T13:34:47.070Z</time>
      </trkpt>
      <trkpt lat="48.54494" lon="1.9622">
        <ele>169</ele>
        <time>2025-06-16T13:34:51.490Z</time>
      </trkpt>
      <trkpt lat="48.54489" lon="1.96223">
        <ele>169</ele>
        <time>2025-06-16T13:34:55.700Z</time>
      </trkpt>
      <trkpt lat="48.54487" lon="1.96231">
        <ele>169</ele>
        <time>2025-06-16T13:34:59.703Z</time>
      </trkpt>
      <trkpt lat="48.54485" lon="1.96238">
        <ele>168</ele>
        <time>2025-06-16T13:35:04.051Z</time>
      </trkpt>
      <trkpt lat="48.54482" lon="1.96247">
        <ele>168</ele>
        <time>2025-06-16T13:35:08.445Z</time>
      </trkpt>
      <trkpt lat="48.54481" lon="1.96255">
        <ele>168</ele>
        <time>2025-06-16T13:35:12.701Z</time>
      </trkpt>
      <trkpt lat="48.54478" lon="1.96263">
        <ele>168</ele>
        <time>2025-06-16T13:35:17.208Z</time>
      </trkpt>
      <trkpt lat="48.54474" lon="1.9627">
        <ele>168</ele>
        <time>2025-06-16T13:35:21.704Z</time>
      </trkpt>
      <trkpt lat="48.5447" lon="1.96278">
        <ele>168</ele>
        <time>2025-06-16T13:35:26.263Z</time>
      </trkpt>
      <trkpt lat="48.54467" lon="1.96286">
        <ele>168</ele>
        <time>2025-06-16T13:35:30.548Z</time>
      </trkpt>
      <trkpt lat="48.54465" lon="1.96294">
        <ele>167</ele>
        <time>2025-06-16T13:35:34.953Z</time>
      </trkpt>
      <trkpt lat="48.54462" lon="1.96303">
        <ele>167</ele>
        <time>2025-06-16T13:35:39.700Z</time>
      </trkpt>
      <trkpt lat="48.54459" lon="1.96312">
        <ele>167</ele>
        <time>2025-06-16T13:35:43.944Z</time>
      </trkpt>
      <trkpt lat="48.54455" lon="1.96319">
        <ele>168</ele>
        <time>2025-06-16T13:35:48.202Z</time>
      </trkpt>
      <trkpt lat="48.54452" lon="1.96327">
        <ele>167</ele>
        <time>2025-06-16T13:35:52.350Z</time>
      </trkpt>
      <trkpt lat="48.54449" lon="1.96335">
        <ele>167</ele>
        <time>2025-06-16T13:35:56.565Z</time>
      </trkpt>
      <trkpt lat="48.54446" lon="1.96342">
        <ele>167</ele>
        <time>2025-06-16T13:36:00.824Z</time>
      </trkpt>
      <trkpt lat="48.54443" lon="1.9635">
        <ele>166</ele>
        <time>2025-06-16T13:36:05.125Z</time>
      </trkpt>
      <trkpt lat="48.54441" lon="1.96358">
        <ele>166</ele>
        <time>2025-06-16T13:36:09.365Z</time>
      </trkpt>
      <trkpt lat="48.54439" lon="1.96366">
        <ele>166</ele>
        <time>2025-06-16T13:36:13.707Z</time>
      </trkpt>
      <trkpt lat="48.54436" lon="1.96374">
        <ele>166</ele>
        <time>2025-06-16T13:36:18.009Z</time>
      </trkpt>
      <trkpt lat="48.54434" lon="1.96382">
        <ele>166</ele>
        <time>2025-06-16T13:36:22.106Z</time>
      </trkpt>
      <trkpt lat="48.54431" lon="1.9639">
        <ele>166</ele>
        <time>2025-06-16T13:36:26.448Z</time>
      </trkpt>
      <trkpt lat="48.54429" lon="1.96398">
        <ele>165</ele>
        <time>2025-06-16T13:36:30.704Z</time>
      </trkpt>
      <trkpt lat="48.54426" lon="1.96407">
        <ele>165</ele>
        <time>2025-06-16T13:36:35.631Z</time>
      </trkpt>
      <trkpt lat="48.54424" lon="1.96415">
        <ele>165</ele>
        <time>2025-06-16T13:36:39.906Z</time>
      </trkpt>
      <trkpt lat="48.54421" lon="1.96423">
        <ele>165</ele>
        <time>2025-06-16T13:36:44.248Z</time>
      </trkpt>
      <trkpt lat="48.54419" lon="1.96432">
        <ele>165</ele>
        <time>2025-06-16T13:36:48.387Z</time>
      </trkpt>
      <trkpt lat="48.54416" lon="1.9644">
        <ele>165</ele>
        <time>2025-06-16T13:36:52.509Z</time>
      </trkpt>
      <trkpt lat="48.54413" lon="1.96449">
        <ele>165</ele>
        <time>2025-06-16T13:36:56.826Z</time>
      </trkpt>
      <trkpt lat="48.5441" lon="1.96456">
        <ele>165</ele>
        <time>2025-06-16T13:37:01.349Z</time>
      </trkpt>
      <trkpt lat="48.54407" lon="1.96464">
        <ele>165</ele>
        <time>2025-06-16T13:37:05.667Z</time>
      </trkpt>
      <trkpt lat="48.54405" lon="1.96473">
        <ele>165</ele>
        <time>2025-06-16T13:37:10.030Z</time>
      </trkpt>
      <trkpt lat="48.54402" lon="1.9648">
        <ele>165</ele>
        <time>2025-06-16T13:37:14.029Z</time>
      </trkpt>
      <trkpt lat="48.544" lon="1.96488">
        <ele>165</ele>
        <time>2025-06-16T13:37:18.392Z</time>
      </trkpt>
      <trkpt lat="48.54397" lon="1.96495">
        <ele>165</ele>
        <time>2025-06-16T13:37:22.665Z</time>
      </trkpt>
      <trkpt lat="48.54393" lon="1.96503">
        <ele>165</ele>
        <time>2025-06-16T13:37:26.888Z</time>
      </trkpt>
      <trkpt lat="48.5439" lon="1.96512">
        <ele>165</ele>
        <time>2025-06-16T13:37:31.403Z</time>
      </trkpt>
      <trkpt lat="48.54388" lon="1.9652">
        <ele>166</ele>
        <time>2025-06-16T13:37:35.707Z</time>
      </trkpt>
      <trkpt lat="48.54385" lon="1.96528">
        <ele>166</ele>
        <time>2025-06-16T13:37:40.064Z</time>
      </trkpt>
      <trkpt lat="48.54382" lon="1.96537">
        <ele>166</ele>
        <time>2025-06-16T13:37:44.603Z</time>
      </trkpt>
      <trkpt lat="48.54379" lon="1.96546">
        <ele>165</ele>
        <time>2025-06-16T13:37:49.025Z</time>
      </trkpt>
      <trkpt lat="48.54376" lon="1.96554">
        <ele>165</ele>
        <time>2025-06-16T13:37:53.086Z</time>
      </trkpt>
      <trkpt lat="48.54373" lon="1.96562">
        <ele>164</ele>
        <time>2025-06-16T13:37:57.164Z</time>
      </trkpt>
      <trkpt lat="48.5437" lon="1.9657">
        <ele>163</ele>
        <time>2025-06-16T13:38:01.405Z</time>
      </trkpt>
      <trkpt lat="48.54368" lon="1.96578">
        <ele>163</ele>
        <time>2025-06-16T13:38:05.701Z</time>
      </trkpt>
      <trkpt lat="48.54363" lon="1.96585">
        <ele>163</ele>
        <time>2025-06-16T13:38:10.700Z</time>
      </trkpt>
      <trkpt lat="48.54361" lon="1.96595">
        <ele>163</ele>
        <time>2025-06-16T13:38:14.949Z</time>
      </trkpt>
      <trkpt lat="48.5436" lon="1.96604">
        <ele>164</ele>
        <time>2025-06-16T13:38:19.086Z</time>
      </trkpt>
      <trkpt lat="48.54357" lon="1.96612">
        <ele>164</ele>
        <time>2025-06-16T13:38:23.192Z</time>
      </trkpt>
      <trkpt lat="48.54354" lon="1.9662">
        <ele>164</ele>
        <time>2025-06-16T13:38:27.271Z</time>
      </trkpt>
      <trkpt lat="48.54352" lon="1.96629">
        <ele>164</ele>
        <time>2025-06-16T13:38:31.392Z</time>
      </trkpt>
      <trkpt lat="48.54349" lon="1.96638">
        <ele>164</ele>
        <time>2025-06-16T13:38:35.546Z</time>
      </trkpt>
      <trkpt lat="48.54348" lon="1.96646">
        <ele>164</ele>
        <time>2025-06-16T13:38:39.705Z</time>
      </trkpt>
      <trkpt lat="48.54343" lon="1.96654">
        <ele>163</ele>
        <time>2025-06-16T13:38:44.004Z</time>
      </trkpt>
      <trkpt lat="48.54339" lon="1.96663">
        <ele>163</ele>
        <time>2025-06-16T13:38:48.091Z</time>
      </trkpt>
      <trkpt lat="48.54337" lon="1.96671">
        <ele>163</ele>
        <time>2025-06-16T13:38:52.111Z</time>
      </trkpt>
      <trkpt lat="48.54334" lon="1.96681">
        <ele>163</ele>
        <time>2025-06-16T13:38:56.591Z</time>
      </trkpt>
      <trkpt lat="48.54331" lon="1.9669">
        <ele>163</ele>
        <time>2025-06-16T13:39:01.129Z</time>
      </trkpt>
      <trkpt lat="48.54327" lon="1.967">
        <ele>163</ele>
        <time>2025-06-16T13:39:05.705Z</time>
      </trkpt>
      <trkpt lat="48.54327" lon="1.96706">
        <ele>163</ele>
        <time>2025-06-16T13:39:10.089Z</time>
      </trkpt>
      <trkpt lat="48.54325" lon="1.96713">
        <ele>163</ele>
        <time>2025-06-16T13:39:14.330Z</time>
      </trkpt>
      <trkpt lat="48.5432" lon="1.96722">
        <ele>163</ele>
        <time>2025-06-16T13:39:18.707Z</time>
      </trkpt>
      <trkpt lat="48.54317" lon="1.96732">
        <ele>162</ele>
        <time>2025-06-16T13:39:23.264Z</time>
      </trkpt>
      <trkpt lat="48.54313" lon="1.9674">
        <ele>163</ele>
        <time>2025-06-16T13:39:27.266Z</time>
      </trkpt>
      <trkpt lat="48.5431" lon="1.96748">
        <ele>163</ele>
        <time>2025-06-16T13:39:31.313Z</time>
      </trkpt>
      <trkpt lat="48.54308" lon="1.96757">
        <ele>163</ele>
        <time>2025-06-16T13:39:35.825Z</time>
      </trkpt>
      <trkpt lat="48.54305" lon="1.96766">
        <ele>163</ele>
        <time>2025-06-16T13:39:39.947Z</time>
      </trkpt>
      <trkpt lat="48.54303" lon="1.96775">
        <ele>163</ele>
        <time>2025-06-16T13:39:44.068Z</time>
      </trkpt>
      <trkpt lat="48.543" lon="1.96782">
        <ele>163</ele>
        <time>2025-06-16T13:39:48.104Z</time>
      </trkpt>
      <trkpt lat="48.54297" lon="1.96791">
        <ele>163</ele>
        <time>2025-06-16T13:39:52.252Z</time>
      </trkpt>
      <trkpt lat="48.54294" lon="1.96799">
        <ele>164</ele>
        <time>2025-06-16T13:39:56.452Z</time>
      </trkpt>
      <trkpt lat="48.5429" lon="1.96807">
        <ele>163</ele>
        <time>2025-06-16T13:40:00.632Z</time>
      </trkpt>
      <trkpt lat="48.54287" lon="1.96815">
        <ele>163</ele>
        <time>2025-06-16T13:40:04.702Z</time>
      </trkpt>
      <trkpt lat="48.54283" lon="1.96817">
        <ele>163</ele>
        <time>2025-06-16T13:40:08.907Z</time>
      </trkpt>
      <trkpt lat="48.54278" lon="1.9682">
        <ele>163</ele>
        <time>2025-06-16T13:40:13.183Z</time>
      </trkpt>
      <trkpt lat="48.54272" lon="1.96821">
        <ele>163</ele>
        <time>2025-06-16T13:40:17.346Z</time>
      </trkpt>
      <trkpt lat="48.54278" lon="1.96847">
        <ele>164</ele>
        <time>2025-06-16T13:40:21.409Z</time>
      </trkpt>
      <trkpt lat="48.54274" lon="1.96856">
        <ele>164</ele>
        <time>2025-06-16T13:40:25.564Z</time>
      </trkpt>
      <trkpt lat="48.54271" lon="1.96864">
        <ele>164</ele>
        <time>2025-06-16T13:40:29.745Z</time>
      </trkpt>
      <trkpt lat="48.54269" lon="1.96873">
        <ele>164</ele>
        <time>2025-06-16T13:40:33.987Z</time>
      </trkpt>
      <trkpt lat="48.54266" lon="1.96881">
        <ele>164</ele>
        <time>2025-06-16T13:40:38.228Z</time>
      </trkpt>
      <trkpt lat="48.54263" lon="1.96889">
        <ele>163</ele>
        <time>2025-06-16T13:40:42.547Z</time>
      </trkpt>
      <trkpt lat="48.5426" lon="1.96895">
        <ele>163</ele>
        <time>2025-06-16T13:40:46.607Z</time>
      </trkpt>
      <trkpt lat="48.54255" lon="1.96901">
        <ele>163</ele>
        <time>2025-06-16T13:40:51.044Z</time>
      </trkpt>
      <trkpt lat="48.5425" lon="1.96906">
        <ele>164</ele>
        <time>2025-06-16T13:40:55.388Z</time>
      </trkpt>
      <trkpt lat="48.54245" lon="1.9691">
        <ele>164</ele>
        <time>2025-06-16T13:40:59.543Z</time>
      </trkpt>
      <trkpt lat="48.54239" lon="1.9691">
        <ele>164</ele>
        <time>2025-06-16T13:41:03.632Z</time>
      </trkpt>
      <trkpt lat="48.54232" lon="1.9691">
        <ele>164</ele>
        <time>2025-06-16T13:41:07.701Z</time>
      </trkpt>
      <trkpt lat="48.54226" lon="1.9691">
        <ele>164</ele>
        <time>2025-06-16T13:41:11.804Z</time>
      </trkpt>
      <trkpt lat="48.54221" lon="1.96906">
        <ele>164</ele>
        <time>2025-06-16T13:41:16.446Z</time>
      </trkpt>
      <trkpt lat="48.54215" lon="1.96911">
        <ele>164</ele>
        <time>2025-06-16T13:41:20.552Z</time>
      </trkpt>
      <trkpt lat="48.54208" lon="1.96914">
        <ele>165</ele>
        <time>2025-06-16T13:41:24.664Z</time>
      </trkpt>
      <trkpt lat="48.54202" lon="1.96915">
        <ele>165</ele>
        <time>2025-06-16T13:41:28.828Z</time>
      </trkpt>
      <trkpt lat="48.54197" lon="1.96918">
        <ele>165</ele>
        <time>2025-06-16T13:41:32.951Z</time>
      </trkpt>
      <trkpt lat="48.5419" lon="1.96914">
        <ele>165</ele>
        <time>2025-06-16T13:41:37.207Z</time>
      </trkpt>
      <trkpt lat="48.54183" lon="1.96914">
        <ele>165</ele>
        <time>2025-06-16T13:41:41.707Z</time>
      </trkpt>
      <trkpt lat="48.54177" lon="1.96914">
        <ele>165</ele>
        <time>2025-06-16T13:41:46.228Z</time>
      </trkpt>
      <trkpt lat="48.54171" lon="1.96914">
        <ele>165</ele>
        <time>2025-06-16T13:41:50.349Z</time>
      </trkpt>
      <trkpt lat="48.54164" lon="1.96913">
        <ele>165</ele>
        <time>2025-06-16T13:41:54.547Z</time>
      </trkpt>
      <trkpt lat="48.54158" lon="1.96913">
        <ele>165</ele>
        <time>2025-06-16T13:41:58.651Z</time>
      </trkpt>
      <trkpt lat="48.54152" lon="1.96913">
        <ele>166</ele>
        <time>2025-06-16T13:42:02.988Z</time>
      </trkpt>
      <trkpt lat="48.54146" lon="1.96912">
        <ele>166</ele>
        <time>2025-06-16T13:42:07.108Z</time>
      </trkpt>
      <trkpt lat="48.5414" lon="1.96913">
        <ele>166</ele>
        <time>2025-06-16T13:42:11.351Z</time>
      </trkpt>
      <trkpt lat="48.54133" lon="1.96913">
        <ele>166</ele>
        <time>2025-06-16T13:42:15.688Z</time>
      </trkpt>
      <trkpt lat="48.54128" lon="1.96913">
        <ele>166</ele>
        <time>2025-06-16T13:42:19.705Z</time>
      </trkpt>
      <trkpt lat="48.54121" lon="1.96913">
        <ele>167</ele>
        <time>2025-06-16T13:42:24.626Z</time>
      </trkpt>
      <trkpt lat="48.54115" lon="1.96913">
        <ele>167</ele>
        <time>2025-06-16T13:42:28.807Z</time>
      </trkpt>
      <trkpt lat="48.54108" lon="1.96911">
        <ele>167</ele>
        <time>2025-06-16T13:42:33.097Z</time>
      </trkpt>
      <trkpt lat="48.54102" lon="1.96911">
        <ele>167</ele>
        <time>2025-06-16T13:42:37.246Z</time>
      </trkpt>
      <trkpt lat="48.54096" lon="1.96911">
        <ele>168</ele>
        <time>2025-06-16T13:42:41.704Z</time>
      </trkpt>
      <trkpt lat="48.5409" lon="1.96912">
        <ele>168</ele>
        <time>2025-06-16T13:42:46.385Z</time>
      </trkpt>
      <trkpt lat="48.54084" lon="1.96912">
        <ele>168</ele>
        <time>2025-06-16T13:42:50.432Z</time>
      </trkpt>
      <trkpt lat="48.54078" lon="1.96915">
        <ele>168</ele>
        <time>2025-06-16T13:42:54.921Z</time>
      </trkpt>
      <trkpt lat="48.54072" lon="1.96916">
        <ele>168</ele>
        <time>2025-06-16T13:42:59.108Z</time>
      </trkpt>
      <trkpt lat="48.54065" lon="1.96916">
        <ele>168</ele>
        <time>2025-06-16T13:43:03.288Z</time>
      </trkpt>
      <trkpt lat="48.54059" lon="1.96916">
        <ele>168</ele>
        <time>2025-06-16T13:43:07.563Z</time>
      </trkpt>
      <trkpt lat="48.54052" lon="1.96917">
        <ele>168</ele>
        <time>2025-06-16T13:43:12.385Z</time>
      </trkpt>
      <trkpt lat="48.54046" lon="1.96917">
        <ele>168</ele>
        <time>2025-06-16T13:43:16.430Z</time>
      </trkpt>
      <trkpt lat="48.5404" lon="1.96916">
        <ele>167</ele>
        <time>2025-06-16T13:43:20.584Z</time>
      </trkpt>
      <trkpt lat="48.54033" lon="1.96915">
        <ele>167</ele>
        <time>2025-06-16T13:43:24.702Z</time>
      </trkpt>
      <trkpt lat="48.5403" lon="1.96914">
        <ele>167</ele>
        <time>2025-06-16T13:43:28.813Z</time>
      </trkpt>
      <trkpt lat="48.54023" lon="1.96921">
        <ele>167</ele>
        <time>2025-06-16T13:43:33.708Z</time>
      </trkpt>
      <trkpt lat="48.54017" lon="1.96923">
        <ele>167</ele>
        <time>2025-06-16T13:43:38.443Z</time>
      </trkpt>
      <trkpt lat="48.54012" lon="1.96925">
        <ele>167</ele>
        <time>2025-06-16T13:43:42.652Z</time>
      </trkpt>
      <trkpt lat="48.54007" lon="1.96925">
        <ele>167</ele>
        <time>2025-06-16T13:43:47.369Z</time>
      </trkpt>
      <trkpt lat="48.54001" lon="1.96926">
        <ele>167</ele>
        <time>2025-06-16T13:43:51.702Z</time>
      </trkpt>
      <trkpt lat="48.53995" lon="1.96929">
        <ele>167</ele>
        <time>2025-06-16T13:43:56.009Z</time>
      </trkpt>
      <trkpt lat="48.53989" lon="1.96928">
        <ele>167</ele>
        <time>2025-06-16T13:44:00.704Z</time>
      </trkpt>
      <trkpt lat="48.53983" lon="1.96926">
        <ele>166</ele>
        <time>2025-06-16T13:44:05.407Z</time>
      </trkpt>
      <trkpt lat="48.5398" lon="1.96926">
        <ele>166</ele>
        <time>2025-06-16T13:44:09.699Z</time>
      </trkpt>
      <trkpt lat="48.53982" lon="1.96933">
        <ele>166</ele>
        <time>2025-06-16T13:44:13.703Z</time>
      </trkpt>
      <trkpt lat="48.53976" lon="1.96937">
        <ele>166</ele>
        <time>2025-06-16T13:44:17.926Z</time>
      </trkpt>
      <trkpt lat="48.53969" lon="1.96936">
        <ele>166</ele>
        <time>2025-06-16T13:44:22.166Z</time>
      </trkpt>
      <trkpt lat="48.53962" lon="1.96932">
        <ele>166</ele>
        <time>2025-06-16T13:44:26.707Z</time>
      </trkpt>
      <trkpt lat="48.53957" lon="1.96931">
        <ele>163</ele>
        <time>2025-06-16T13:44:31.703Z</time>
      </trkpt>
      <trkpt lat="48.53956" lon="1.96931">
        <ele>163</ele>
        <time>2025-06-16T13:44:35.931Z</time>
      </trkpt>
      <trkpt lat="48.53949" lon="1.96926">
        <ele>163</ele>
        <time>2025-06-16T13:44:40.188Z</time>
      </trkpt>
      <trkpt lat="48.53943" lon="1.96921">
        <ele>163</ele>
        <time>2025-06-16T13:44:44.549Z</time>
      </trkpt>
      <trkpt lat="48.53937" lon="1.96917">
        <ele>163</ele>
        <time>2025-06-16T13:44:48.715Z</time>
      </trkpt>
      <trkpt lat="48.53931" lon="1.96917">
        <ele>163</ele>
        <time>2025-06-16T13:44:52.870Z</time>
      </trkpt>
      <trkpt lat="48.53926" lon="1.96918">
        <ele>160</ele>
        <time>2025-06-16T13:44:56.948Z</time>
      </trkpt>
      <trkpt lat="48.5392" lon="1.96916">
        <ele>160</ele>
        <time>2025-06-16T13:45:01.325Z</time>
      </trkpt>
      <trkpt lat="48.53915" lon="1.96913">
        <ele>160</ele>
        <time>2025-06-16T13:45:05.703Z</time>
      </trkpt>
      <trkpt lat="48.53908" lon="1.96912">
        <ele>160</ele>
        <time>2025-06-16T13:45:10.208Z</time>
      </trkpt>
      <trkpt lat="48.53901" lon="1.96912">
        <ele>157</ele>
        <time>2025-06-16T13:45:14.271Z</time>
      </trkpt>
      <trkpt lat="48.53894" lon="1.96912">
        <ele>157</ele>
        <time>2025-06-16T13:45:18.364Z</time>
      </trkpt>
      <trkpt lat="48.53888" lon="1.96913">
        <ele>157</ele>
        <time>2025-06-16T13:45:22.828Z</time>
      </trkpt>
      <trkpt lat="48.53883" lon="1.96913">
        <ele>157</ele>
        <time>2025-06-16T13:45:26.985Z</time>
      </trkpt>
      <trkpt lat="48.53877" lon="1.96912">
        <ele>157</ele>
        <time>2025-06-16T13:45:31.251Z</time>
      </trkpt>
      <trkpt lat="48.53871" lon="1.96911">
        <ele>153</ele>
        <time>2025-06-16T13:45:35.432Z</time>
      </trkpt>
      <trkpt lat="48.53864" lon="1.96912">
        <ele>153</ele>
        <time>2025-06-16T13:45:39.574Z</time>
      </trkpt>
      <trkpt lat="48.53859" lon="1.96913">
        <ele>153</ele>
        <time>2025-06-16T13:45:43.710Z</time>
      </trkpt>
      <trkpt lat="48.53852" lon="1.96913">
        <ele>153</ele>
        <time>2025-06-16T13:45:48.367Z</time>
      </trkpt>
      <trkpt lat="48.53846" lon="1.96914">
        <ele>147</ele>
        <time>2025-06-16T13:45:52.565Z</time>
      </trkpt>
      <trkpt lat="48.5384" lon="1.96915">
        <ele>147</ele>
        <time>2025-06-16T13:45:57.045Z</time>
      </trkpt>
      <trkpt lat="48.53833" lon="1.96916">
        <ele>147</ele>
        <time>2025-06-16T13:46:01.702Z</time>
      </trkpt>
      <trkpt lat="48.53826" lon="1.96916">
        <ele>147</ele>
        <time>2025-06-16T13:46:06.227Z</time>
      </trkpt>
      <trkpt lat="48.53818" lon="1.96914">
        <ele>142</ele>
        <time>2025-06-16T13:46:10.689Z</time>
      </trkpt>
      <trkpt lat="48.5381" lon="1.96912">
        <ele>142</ele>
        <time>2025-06-16T13:46:15.126Z</time>
      </trkpt>
      <trkpt lat="48.53802" lon="1.9691">
        <ele>142</ele>
        <time>2025-06-16T13:46:19.589Z</time>
      </trkpt>
      <trkpt lat="48.53796" lon="1.96908">
        <ele>142</ele>
        <time>2025-06-16T13:46:23.700Z</time>
      </trkpt>
      <trkpt lat="48.53792" lon="1.96906">
        <ele>142</ele>
        <time>2025-06-16T13:46:28.703Z</time>
      </trkpt>
      <trkpt lat="48.53792" lon="1.96906">
        <ele>142</ele>
        <time>2025-06-16T13:46:33.668Z</time>
      </trkpt>
      <trkpt lat="48.53785" lon="1.96905">
        <ele>142</ele>
        <time>2025-06-16T13:46:37.807Z</time>
      </trkpt>
      <trkpt lat="48.53778" lon="1.96907">
        <ele>142</ele>
        <time>2025-06-16T13:46:42.568Z</time>
      </trkpt>
      <trkpt lat="48.53772" lon="1.9691">
        <ele>142</ele>
        <time>2025-06-16T13:46:46.869Z</time>
      </trkpt>
      <trkpt lat="48.53766" lon="1.96913">
        <ele>142</ele>
        <time>2025-06-16T13:46:51.665Z</time>
      </trkpt>
      <trkpt lat="48.5376" lon="1.96917">
        <ele>146</ele>
        <time>2025-06-16T13:46:56.067Z</time>
      </trkpt>
      <trkpt lat="48.53754" lon="1.96918">
        <ele>146</ele>
        <time>2025-06-16T13:47:00.308Z</time>
      </trkpt>
      <trkpt lat="48.5375" lon="1.96916">
        <ele>146</ele>
        <time>2025-06-16T13:47:04.626Z</time>
      </trkpt>
      <trkpt lat="48.53744" lon="1.96918">
        <ele>146</ele>
        <time>2025-06-16T13:47:08.866Z</time>
      </trkpt>
      <trkpt lat="48.53737" lon="1.96923">
        <ele>146</ele>
        <time>2025-06-16T13:47:13.033Z</time>
      </trkpt>
      <trkpt lat="48.53731" lon="1.96927">
        <ele>149</ele>
        <time>2025-06-16T13:47:17.306Z</time>
      </trkpt>
      <trkpt lat="48.53725" lon="1.96928">
        <ele>149</ele>
        <time>2025-06-16T13:47:21.528Z</time>
      </trkpt>
      <trkpt lat="48.53719" lon="1.96929">
        <ele>149</ele>
        <time>2025-06-16T13:47:25.847Z</time>
      </trkpt>
      <trkpt lat="48.53715" lon="1.96932">
        <ele>147</ele>
        <time>2025-06-16T13:47:30.072Z</time>
      </trkpt>
      <trkpt lat="48.53708" lon="1.96932">
        <ele>148</ele>
        <time>2025-06-16T13:47:34.328Z</time>
      </trkpt>
      <trkpt lat="48.53703" lon="1.9693">
        <ele>151</ele>
        <time>2025-06-16T13:47:38.467Z</time>
      </trkpt>
      <trkpt lat="48.53697" lon="1.96927">
        <ele>151</ele>
        <time>2025-06-16T13:47:42.664Z</time>
      </trkpt>
      <trkpt lat="48.53691" lon="1.96923">
        <ele>151</ele>
        <time>2025-06-16T13:47:46.830Z</time>
      </trkpt>
      <trkpt lat="48.53684" lon="1.96922">
        <ele>151</ele>
        <time>2025-06-16T13:47:51.104Z</time>
      </trkpt>
      <trkpt lat="48.53678" lon="1.96923">
        <ele>153</ele>
        <time>2025-06-16T13:47:55.372Z</time>
      </trkpt>
      <trkpt lat="48.53672" lon="1.96924">
        <ele>153</ele>
        <time>2025-06-16T13:47:59.628Z</time>
      </trkpt>
      <trkpt lat="48.53665" lon="1.96926">
        <ele>153</ele>
        <time>2025-06-16T13:48:04.048Z</time>
      </trkpt>
      <trkpt lat="48.53659" lon="1.96926">
        <ele>153</ele>
        <time>2025-06-16T13:48:08.486Z</time>
      </trkpt>
      <trkpt lat="48.53653" lon="1.96926">
        <ele>153</ele>
        <time>2025-06-16T13:48:12.965Z</time>
      </trkpt>
      <trkpt lat="48.53647" lon="1.96928">
        <ele>155</ele>
        <time>2025-06-16T13:48:17.368Z</time>
      </trkpt>
      <trkpt lat="48.53641" lon="1.96929">
        <ele>155</ele>
        <time>2025-06-16T13:48:21.907Z</time>
      </trkpt>
      <trkpt lat="48.53635" lon="1.9693">
        <ele>155</ele>
        <time>2025-06-16T13:48:26.327Z</time>
      </trkpt>
      <trkpt lat="48.53629" lon="1.96931">
        <ele>152</ele>
        <time>2025-06-16T13:48:30.708Z</time>
      </trkpt>
      <trkpt lat="48.53622" lon="1.96932">
        <ele>154</ele>
        <time>2025-06-16T13:48:35.230Z</time>
      </trkpt>
      <trkpt lat="48.53617" lon="1.96933">
        <ele>154</ele>
        <time>2025-06-16T13:48:39.290Z</time>
      </trkpt>
      <trkpt lat="48.53611" lon="1.96934">
        <ele>154</ele>
        <time>2025-06-16T13:48:43.368Z</time>
      </trkpt>
      <trkpt lat="48.53606" lon="1.96935">
        <ele>154</ele>
        <time>2025-06-16T13:48:47.403Z</time>
      </trkpt>
      <trkpt lat="48.536" lon="1.96936">
        <ele>154</ele>
        <time>2025-06-16T13:48:51.699Z</time>
      </trkpt>
      <trkpt lat="48.53593" lon="1.96936">
        <ele>158</ele>
        <time>2025-06-16T13:48:56.706Z</time>
      </trkpt>
      <trkpt lat="48.53588" lon="1.96937">
        <ele>158</ele>
        <time>2025-06-16T13:49:00.851Z</time>
      </trkpt>
      <trkpt lat="48.53582" lon="1.96937">
        <ele>158</ele>
        <time>2025-06-16T13:49:05.296Z</time>
      </trkpt>
      <trkpt lat="48.53576" lon="1.96938">
        <ele>158</ele>
        <time>2025-06-16T13:49:09.703Z</time>
      </trkpt>
      <trkpt lat="48.5357" lon="1.96938">
        <ele>158</ele>
        <time>2025-06-16T13:49:14.061Z</time>
      </trkpt>
      <trkpt lat="48.53564" lon="1.96939">
        <ele>158</ele>
        <time>2025-06-16T13:49:18.556Z</time>
      </trkpt>
      <trkpt lat="48.53558" lon="1.96939">
        <ele>158</ele>
        <time>2025-06-16T13:49:23.002Z</time>
      </trkpt>
      <trkpt lat="48.53552" lon="1.96939">
        <ele>158</ele>
        <time>2025-06-16T13:49:27.396Z</time>
      </trkpt>
      <trkpt lat="48.53546" lon="1.9694">
        <ele>158</ele>
        <time>2025-06-16T13:49:31.800Z</time>
      </trkpt>
      <trkpt lat="48.5354" lon="1.96942">
        <ele>156</ele>
        <time>2025-06-16T13:49:36.058Z</time>
      </trkpt>
      <trkpt lat="48.53534" lon="1.96943">
        <ele>156</ele>
        <time>2025-06-16T13:49:40.385Z</time>
      </trkpt>
      <trkpt lat="48.53527" lon="1.96944">
        <ele>156</ele>
        <time>2025-06-16T13:49:44.641Z</time>
      </trkpt>
      <trkpt lat="48.53522" lon="1.96945">
        <ele>156</ele>
        <time>2025-06-16T13:49:48.701Z</time>
      </trkpt>
      <trkpt lat="48.53516" lon="1.96946">
        <ele>156</ele>
        <time>2025-06-16T13:49:52.783Z</time>
      </trkpt>
      <trkpt lat="48.53511" lon="1.96947">
        <ele>156</ele>
        <time>2025-06-16T13:49:56.983Z</time>
      </trkpt>
      <trkpt lat="48.53505" lon="1.9695">
        <ele>156</ele>
        <time>2025-06-16T13:50:01.298Z</time>
      </trkpt>
      <trkpt lat="48.53499" lon="1.96952">
        <ele>156</ele>
        <time>2025-06-16T13:50:05.599Z</time>
      </trkpt>
      <trkpt lat="48.53493" lon="1.96956">
        <ele>156</ele>
        <time>2025-06-16T13:50:09.839Z</time>
      </trkpt>
      <trkpt lat="48.53488" lon="1.96958">
        <ele>154</ele>
        <time>2025-06-16T13:50:14.021Z</time>
      </trkpt>
      <trkpt lat="48.53481" lon="1.96961">
        <ele>154</ele>
        <time>2025-06-16T13:50:18.218Z</time>
      </trkpt>
      <trkpt lat="48.53475" lon="1.96963">
        <ele>154</ele>
        <time>2025-06-16T13:50:22.263Z</time>
      </trkpt>
      <trkpt lat="48.53469" lon="1.96966">
        <ele>154</ele>
        <time>2025-06-16T13:50:26.703Z</time>
      </trkpt>
      <trkpt lat="48.53463" lon="1.96969">
        <ele>154</ele>
        <time>2025-06-16T13:50:30.701Z</time>
      </trkpt>
      <trkpt lat="48.53458" lon="1.9697">
        <ele>156</ele>
        <time>2025-06-16T13:50:34.961Z</time>
      </trkpt>
      <trkpt lat="48.53452" lon="1.96969">
        <ele>156</ele>
        <time>2025-06-16T13:50:39.183Z</time>
      </trkpt>
      <trkpt lat="48.53446" lon="1.96966">
        <ele>156</ele>
        <time>2025-06-16T13:50:43.566Z</time>
      </trkpt>
      <trkpt lat="48.5344" lon="1.96962">
        <ele>156</ele>
        <time>2025-06-16T13:50:48.014Z</time>
      </trkpt>
      <trkpt lat="48.53434" lon="1.96964">
        <ele>156</ele>
        <time>2025-06-16T13:52:16.703Z</time>
      </trkpt>
      <trkpt lat="48.53434" lon="1.96964">
        <ele>156</ele>
        <time>2025-06-16T13:52:22.704Z</time>
      </trkpt>
      <trkpt lat="48.53432" lon="1.96963">
        <ele>156</ele>
        <time>2025-06-16T13:52:27.704Z</time>
      </trkpt>
      <trkpt lat="48.53428" lon="1.96962">
        <ele>156</ele>
        <time>2025-06-16T13:52:32.699Z</time>
      </trkpt>
      <trkpt lat="48.53424" lon="1.9696">
        <ele>156</ele>
        <time>2025-06-16T13:52:36.993Z</time>
      </trkpt>
      <trkpt lat="48.53418" lon="1.9696">
        <ele>156</ele>
        <time>2025-06-16T13:52:41.360Z</time>
      </trkpt>
      <trkpt lat="48.53414" lon="1.96963">
        <ele>156</ele>
        <time>2025-06-16T13:52:45.656Z</time>
      </trkpt>
      <trkpt lat="48.53409" lon="1.96957">
        <ele>159</ele>
        <time>2025-06-16T13:52:49.883Z</time>
      </trkpt>
      <trkpt lat="48.53403" lon="1.96952">
        <ele>159</ele>
        <time>2025-06-16T13:52:54.018Z</time>
      </trkpt>
      <trkpt lat="48.53402" lon="1.96953">
        <ele>157</ele>
        <time>2025-06-16T13:52:58.703Z</time>
      </trkpt>
      <trkpt lat="48.53396" lon="1.96953">
        <ele>157</ele>
        <time>2025-06-16T13:53:03.022Z</time>
      </trkpt>
      <trkpt lat="48.53388" lon="1.96947">
        <ele>157</ele>
        <time>2025-06-16T13:53:07.295Z</time>
      </trkpt>
      <trkpt lat="48.53383" lon="1.96943">
        <ele>157</ele>
        <time>2025-06-16T13:53:11.341Z</time>
      </trkpt>
      <trkpt lat="48.53377" lon="1.96939">
        <ele>157</ele>
        <time>2025-06-16T13:53:15.435Z</time>
      </trkpt>
      <trkpt lat="48.53371" lon="1.96933">
        <ele>155</ele>
        <time>2025-06-16T13:53:19.542Z</time>
      </trkpt>
      <trkpt lat="48.53365" lon="1.96929">
        <ele>157</ele>
        <time>2025-06-16T13:53:23.679Z</time>
      </trkpt>
      <trkpt lat="48.53357" lon="1.96925">
        <ele>157</ele>
        <time>2025-06-16T13:53:27.816Z</time>
      </trkpt>
      <trkpt lat="48.53351" lon="1.96923">
        <ele>157</ele>
        <time>2025-06-16T13:53:31.835Z</time>
      </trkpt>
      <trkpt lat="48.53344" lon="1.96922">
        <ele>156</ele>
        <time>2025-06-16T13:53:35.914Z</time>
      </trkpt>
      <trkpt lat="48.53337" lon="1.96919">
        <ele>156</ele>
        <time>2025-06-16T13:53:40.498Z</time>
      </trkpt>
      <trkpt lat="48.53331" lon="1.96919">
        <ele>156</ele>
        <time>2025-06-16T13:53:44.661Z</time>
      </trkpt>
      <trkpt lat="48.53324" lon="1.96917">
        <ele>156</ele>
        <time>2025-06-16T13:53:48.842Z</time>
      </trkpt>
      <trkpt lat="48.53318" lon="1.96915">
        <ele>154</ele>
        <time>2025-06-16T13:53:52.923Z</time>
      </trkpt>
      <trkpt lat="48.53311" lon="1.96913">
        <ele>154</ele>
        <time>2025-06-16T13:53:57.102Z</time>
      </trkpt>
      <trkpt lat="48.53305" lon="1.96912">
        <ele>154</ele>
        <time>2025-06-16T13:54:01.255Z</time>
      </trkpt>
      <trkpt lat="48.533" lon="1.96911">
        <ele>154</ele>
        <time>2025-06-16T13:54:05.317Z</time>
      </trkpt>
      <trkpt lat="48.53293" lon="1.96911">
        <ele>154</ele>
        <time>2025-06-16T13:54:09.396Z</time>
      </trkpt>
      <trkpt lat="48.53287" lon="1.96909">
        <ele>152</ele>
        <time>2025-06-16T13:54:13.475Z</time>
      </trkpt>
      <trkpt lat="48.53281" lon="1.96909">
        <ele>152</ele>
        <time>2025-06-16T13:54:17.597Z</time>
      </trkpt>
      <trkpt lat="48.53275" lon="1.96909">
        <ele>152</ele>
        <time>2025-06-16T13:54:21.695Z</time>
      </trkpt>
      <trkpt lat="48.53268" lon="1.9691">
        <ele>152</ele>
        <time>2025-06-16T13:54:26.359Z</time>
      </trkpt>
      <trkpt lat="48.53261" lon="1.96909">
        <ele>150</ele>
        <time>2025-06-16T13:54:30.709Z</time>
      </trkpt>
      <trkpt lat="48.5326" lon="1.96907">
        <ele>150</ele>
        <time>2025-06-16T13:54:35.319Z</time>
      </trkpt>
      <trkpt lat="48.53261" lon="1.96903">
        <ele>150</ele>
        <time>2025-06-16T13:54:39.630Z</time>
      </trkpt>
      <trkpt lat="48.53245" lon="1.96915">
        <ele>150</ele>
        <time>2025-06-16T13:54:43.919Z</time>
      </trkpt>
      <trkpt lat="48.53239" lon="1.96916">
        <ele>150</ele>
        <time>2025-06-16T13:54:48.161Z</time>
      </trkpt>
      <trkpt lat="48.53234" lon="1.96918">
        <ele>149</ele>
        <time>2025-06-16T13:54:52.298Z</time>
      </trkpt>
      <trkpt lat="48.53229" lon="1.96921">
        <ele>149</ele>
        <time>2025-06-16T13:54:56.514Z</time>
      </trkpt>
      <trkpt lat="48.53222" lon="1.96923">
        <ele>149</ele>
        <time>2025-06-16T13:55:00.635Z</time>
      </trkpt>
      <trkpt lat="48.53216" lon="1.96927">
        <ele>149</ele>
        <time>2025-06-16T13:55:04.756Z</time>
      </trkpt>
      <trkpt lat="48.5321" lon="1.9693">
        <ele>149</ele>
        <time>2025-06-16T13:55:08.817Z</time>
      </trkpt>
      <trkpt lat="48.53204" lon="1.96933">
        <ele>146</ele>
        <time>2025-06-16T13:55:12.913Z</time>
      </trkpt>
      <trkpt lat="48.53198" lon="1.96935">
        <ele>146</ele>
        <time>2025-06-16T13:55:17.598Z</time>
      </trkpt>
      <trkpt lat="48.53191" lon="1.96935">
        <ele>146</ele>
        <time>2025-06-16T13:55:21.720Z</time>
      </trkpt>
      <trkpt lat="48.53185" lon="1.96932">
        <ele>146</ele>
        <time>2025-06-16T13:55:25.960Z</time>
      </trkpt>
      <trkpt lat="48.53181" lon="1.96928">
        <ele>142</ele>
        <time>2025-06-16T13:55:30.097Z</time>
      </trkpt>
      <trkpt lat="48.53176" lon="1.96922">
        <ele>142</ele>
        <time>2025-06-16T13:55:34.577Z</time>
      </trkpt>
      <trkpt lat="48.5317" lon="1.96918">
        <ele>142</ele>
        <time>2025-06-16T13:55:39.074Z</time>
      </trkpt>
      <trkpt lat="48.53165" lon="1.96913">
        <ele>142</ele>
        <time>2025-06-16T13:55:43.119Z</time>
      </trkpt>
      <trkpt lat="48.5316" lon="1.96909">
        <ele>142</ele>
        <time>2025-06-16T13:55:47.701Z</time>
      </trkpt>
      <trkpt lat="48.53154" lon="1.96905">
        <ele>142</ele>
        <time>2025-06-16T13:55:52.274Z</time>
      </trkpt>
      <trkpt lat="48.53148" lon="1.969">
        <ele>138</ele>
        <time>2025-06-16T13:55:56.335Z</time>
      </trkpt>
      <trkpt lat="48.53144" lon="1.96896">
        <ele>138</ele>
        <time>2025-06-16T13:56:00.500Z</time>
      </trkpt>
      <trkpt lat="48.53138" lon="1.96891">
        <ele>138</ele>
        <time>2025-06-16T13:56:04.734Z</time>
      </trkpt>
      <trkpt lat="48.53132" lon="1.96887">
        <ele>138</ele>
        <time>2025-06-16T13:56:08.836Z</time>
      </trkpt>
      <trkpt lat="48.53127" lon="1.96883">
        <ele>138</ele>
        <time>2025-06-16T13:56:12.942Z</time>
      </trkpt>
      <trkpt lat="48.53122" lon="1.9688">
        <ele>132</ele>
        <time>2025-06-16T13:56:17.078Z</time>
      </trkpt>
      <trkpt lat="48.53116" lon="1.96878">
        <ele>132</ele>
        <time>2025-06-16T13:56:21.115Z</time>
      </trkpt>
      <trkpt lat="48.53111" lon="1.96875">
        <ele>131</ele>
        <time>2025-06-16T13:56:25.202Z</time>
      </trkpt>
      <trkpt lat="48.53106" lon="1.96871">
        <ele>131</ele>
        <time>2025-06-16T13:56:29.416Z</time>
      </trkpt>
      <trkpt lat="48.53101" lon="1.96866">
        <ele>131</ele>
        <time>2025-06-16T13:56:33.614Z</time>
      </trkpt>
      <trkpt lat="48.53095" lon="1.96862">
        <ele>125</ele>
        <time>2025-06-16T13:56:37.795Z</time>
      </trkpt>
      <trkpt lat="48.5309" lon="1.96857">
        <ele>125</ele>
        <time>2025-06-16T13:56:42.420Z</time>
      </trkpt>
      <trkpt lat="48.53091" lon="1.96851">
        <ele>125</ele>
        <time>2025-06-16T13:56:46.421Z</time>
      </trkpt>
      <trkpt lat="48.53086" lon="1.96848">
        <ele>125</ele>
        <time>2025-06-16T13:56:50.534Z</time>
      </trkpt>
      <trkpt lat="48.53082" lon="1.96851">
        <ele>125</ele>
        <time>2025-06-16T13:56:58.705Z</time>
      </trkpt>
      <trkpt lat="48.53082" lon="1.96851">
        <ele>125</ele>
        <time>2025-06-16T13:57:03.196Z</time>
      </trkpt>
      <trkpt lat="48.53081" lon="1.96851">
        <ele>125</ele>
        <time>2025-06-16T13:57:07.698Z</time>
      </trkpt>
      <trkpt lat="48.53077" lon="1.96851">
        <ele>125</ele>
        <time>2025-06-16T13:57:12.394Z</time>
      </trkpt>
      <trkpt lat="48.53072" lon="1.96856">
        <ele>125</ele>
        <time>2025-06-16T13:57:16.961Z</time>
      </trkpt>
      <trkpt lat="48.53067" lon="1.96861">
        <ele>121</ele>
        <time>2025-06-16T13:57:21.336Z</time>
      </trkpt>
      <trkpt lat="48.53063" lon="1.96868">
        <ele>121</ele>
        <time>2025-06-16T13:57:25.681Z</time>
      </trkpt>
      <trkpt lat="48.53061" lon="1.96877">
        <ele>124</ele>
        <time>2025-06-16T13:57:29.895Z</time>
      </trkpt>
      <trkpt lat="48.53057" lon="1.96886">
        <ele>124</ele>
        <time>2025-06-16T13:57:34.118Z</time>
      </trkpt>
      <trkpt lat="48.53053" lon="1.96894">
        <ele>124</ele>
        <time>2025-06-16T13:57:38.376Z</time>
      </trkpt>
      <trkpt lat="48.53051" lon="1.96902">
        <ele>124</ele>
        <time>2025-06-16T13:57:42.634Z</time>
      </trkpt>
      <trkpt lat="48.53048" lon="1.96911">
        <ele>126</ele>
        <time>2025-06-16T13:57:46.858Z</time>
      </trkpt>
      <trkpt lat="48.53046" lon="1.96919">
        <ele>126</ele>
        <time>2025-06-16T13:57:51.116Z</time>
      </trkpt>
      <trkpt lat="48.53043" lon="1.96928">
        <ele>126</ele>
        <time>2025-06-16T13:57:55.357Z</time>
      </trkpt>
      <trkpt lat="48.5304" lon="1.96936">
        <ele>122</ele>
        <time>2025-06-16T13:57:59.435Z</time>
      </trkpt>
      <trkpt lat="48.53038" lon="1.96945">
        <ele>122</ele>
        <time>2025-06-16T13:58:03.659Z</time>
      </trkpt>
      <trkpt lat="48.53036" lon="1.96953">
        <ele>122</ele>
        <time>2025-06-16T13:58:07.917Z</time>
      </trkpt>
      <trkpt lat="48.53034" lon="1.96962">
        <ele>123</ele>
        <time>2025-06-16T13:58:12.082Z</time>
      </trkpt>
      <trkpt lat="48.53034" lon="1.96971">
        <ele>123</ele>
        <time>2025-06-16T13:58:16.339Z</time>
      </trkpt>
      <trkpt lat="48.53034" lon="1.9698">
        <ele>123</ele>
        <time>2025-06-16T13:58:20.640Z</time>
      </trkpt>
      <trkpt lat="48.53033" lon="1.96989">
        <ele>124</ele>
        <time>2025-06-16T13:58:24.915Z</time>
      </trkpt>
      <trkpt lat="48.53032" lon="1.96998">
        <ele>124</ele>
        <time>2025-06-16T13:58:29.215Z</time>
      </trkpt>
      <trkpt lat="48.53032" lon="1.97007">
        <ele>124</ele>
        <time>2025-06-16T13:58:33.378Z</time>
      </trkpt>
      <trkpt lat="48.53031" lon="1.97016">
        <ele>124</ele>
        <time>2025-06-16T13:58:37.561Z</time>
      </trkpt>
      <trkpt lat="48.5303" lon="1.97026">
        <ele>124</ele>
        <time>2025-06-16T13:58:41.702Z</time>
      </trkpt>
      <trkpt lat="48.53029" lon="1.97034">
        <ele>124</ele>
        <time>2025-06-16T13:58:45.698Z</time>
      </trkpt>
      <trkpt lat="48.53028" lon="1.97044">
        <ele>123</ele>
        <time>2025-06-16T13:58:50.121Z</time>
      </trkpt>
      <trkpt lat="48.53026" lon="1.97052">
        <ele>123</ele>
        <time>2025-06-16T13:58:54.215Z</time>
      </trkpt>
      <trkpt lat="48.53025" lon="1.97061">
        <ele>123</ele>
        <time>2025-06-16T13:58:58.379Z</time>
      </trkpt>
      <trkpt lat="48.53025" lon="1.97069">
        <ele>122</ele>
        <time>2025-06-16T13:59:02.519Z</time>
      </trkpt>
      <trkpt lat="48.53023" lon="1.97076">
        <ele>122</ele>
        <time>2025-06-16T13:59:06.655Z</time>
      </trkpt>
      <trkpt lat="48.53026" lon="1.97085">
        <ele>122</ele>
        <time>2025-06-16T13:59:10.900Z</time>
      </trkpt>
      <trkpt lat="48.53027" lon="1.97094">
        <ele>122</ele>
        <time>2025-06-16T13:59:15.122Z</time>
      </trkpt>
      <trkpt lat="48.53028" lon="1.97102">
        <ele>121</ele>
        <time>2025-06-16T13:59:19.361Z</time>
      </trkpt>
      <trkpt lat="48.53033" lon="1.97107">
        <ele>121</ele>
        <time>2025-06-16T13:59:23.474Z</time>
      </trkpt>
      <trkpt lat="48.53035" lon="1.97118">
        <ele>121</ele>
        <time>2025-06-16T13:59:27.655Z</time>
      </trkpt>
      <trkpt lat="48.53039" lon="1.97127">
        <ele>120</ele>
        <time>2025-06-16T13:59:31.861Z</time>
      </trkpt>
      <trkpt lat="48.53042" lon="1.97134">
        <ele>126</ele>
        <time>2025-06-16T13:59:36.077Z</time>
      </trkpt>
      <trkpt lat="48.53045" lon="1.97142">
        <ele>126</ele>
        <time>2025-06-16T13:59:40.394Z</time>
      </trkpt>
      <trkpt lat="48.53049" lon="1.97149">
        <ele>126</ele>
        <time>2025-06-16T13:59:44.618Z</time>
      </trkpt>
      <trkpt lat="48.53052" lon="1.97157">
        <ele>123</ele>
        <time>2025-06-16T13:59:48.699Z</time>
      </trkpt>
      <trkpt lat="48.53055" lon="1.97165">
        <ele>123</ele>
        <time>2025-06-16T13:59:52.994Z</time>
      </trkpt>
      <trkpt lat="48.53058" lon="1.97173">
        <ele>123</ele>
        <time>2025-06-16T13:59:57.315Z</time>
      </trkpt>
      <trkpt lat="48.53062" lon="1.9718">
        <ele>123</ele>
        <time>2025-06-16T14:00:01.556Z</time>
      </trkpt>
      <trkpt lat="48.53065" lon="1.97187">
        <ele>122</ele>
        <time>2025-06-16T14:00:06.002Z</time>
      </trkpt>
      <trkpt lat="48.53067" lon="1.97193">
        <ele>122</ele>
        <time>2025-06-16T14:00:10.276Z</time>
      </trkpt>
      <trkpt lat="48.53069" lon="1.97197">
        <ele>122</ele>
        <time>2025-06-16T14:00:14.701Z</time>
      </trkpt>
      <trkpt lat="48.53071" lon="1.972">
        <ele>125</ele>
        <time>2025-06-16T14:00:19.397Z</time>
      </trkpt>
      <trkpt lat="48.53069" lon="1.9721">
        <ele>120</ele>
        <time>2025-06-16T14:00:23.682Z</time>
      </trkpt>
      <trkpt lat="48.53068" lon="1.97219">
        <ele>120</ele>
        <time>2025-06-16T14:00:27.795Z</time>
      </trkpt>
      <trkpt lat="48.53066" lon="1.97227">
        <ele>120</ele>
        <time>2025-06-16T14:00:32.641Z</time>
      </trkpt>
      <trkpt lat="48.53065" lon="1.97237">
        <ele>119</ele>
        <time>2025-06-16T14:00:37.181Z</time>
      </trkpt>
      <trkpt lat="48.53065" lon="1.97246">
        <ele>119</ele>
        <time>2025-06-16T14:00:41.422Z</time>
      </trkpt>
      <trkpt lat="48.53065" lon="1.97255">
        <ele>119</ele>
        <time>2025-06-16T14:00:45.635Z</time>
      </trkpt>
      <trkpt lat="48.53065" lon="1.97265">
        <ele>118</ele>
        <time>2025-06-16T14:00:49.994Z</time>
      </trkpt>
      <trkpt lat="48.53064" lon="1.97275">
        <ele>118</ele>
        <time>2025-06-16T14:00:54.475Z</time>
      </trkpt>
      <trkpt lat="48.53063" lon="1.97285">
        <ele>118</ele>
        <time>2025-06-16T14:00:58.616Z</time>
      </trkpt>
      <trkpt lat="48.53062" lon="1.97294">
        <ele>116</ele>
        <time>2025-06-16T14:01:02.734Z</time>
      </trkpt>
      <trkpt lat="48.53061" lon="1.97303">
        <ele>116</ele>
        <time>2025-06-16T14:01:06.781Z</time>
      </trkpt>
      <trkpt lat="48.5306" lon="1.97312">
        <ele>116</ele>
        <time>2025-06-16T14:01:10.841Z</time>
      </trkpt>
      <trkpt lat="48.5306" lon="1.9732">
        <ele>114</ele>
        <time>2025-06-16T14:01:14.997Z</time>
      </trkpt>
      <trkpt lat="48.53059" lon="1.97329">
        <ele>114</ele>
        <time>2025-06-16T14:01:19.177Z</time>
      </trkpt>
      <trkpt lat="48.53059" lon="1.97338">
        <ele>114</ele>
        <time>2025-06-16T14:01:23.275Z</time>
      </trkpt>
      <trkpt lat="48.53058" lon="1.97347">
        <ele>114</ele>
        <time>2025-06-16T14:01:27.544Z</time>
      </trkpt>
      <trkpt lat="48.53056" lon="1.9735">
        <ele>112</ele>
        <time>2025-06-16T14:01:31.613Z</time>
      </trkpt>
      <trkpt lat="48.53054" lon="1.97349">
        <ele>112</ele>
        <time>2025-06-16T14:01:35.777Z</time>
      </trkpt>
      <trkpt lat="48.53059" lon="1.97371">
        <ele>112</ele>
        <time>2025-06-16T14:01:40.121Z</time>
      </trkpt>
      <trkpt lat="48.53058" lon="1.97381">
        <ele>113</ele>
        <time>2025-06-16T14:01:44.201Z</time>
      </trkpt>
      <trkpt lat="48.53057" lon="1.9739">
        <ele>113</ele>
        <time>2025-06-16T14:01:48.398Z</time>
      </trkpt>
      <trkpt lat="48.53056" lon="1.974">
        <ele>113</ele>
        <time>2025-06-16T14:01:52.520Z</time>
      </trkpt>
      <trkpt lat="48.53055" lon="1.97409">
        <ele>113</ele>
        <time>2025-06-16T14:01:56.660Z</time>
      </trkpt>
      <trkpt lat="48.53055" lon="1.97418">
        <ele>113</ele>
        <time>2025-06-16T14:02:00.778Z</time>
      </trkpt>
      <trkpt lat="48.53054" lon="1.97427">
        <ele>113</ele>
        <time>2025-06-16T14:02:04.875Z</time>
      </trkpt>
      <trkpt lat="48.53054" lon="1.97436">
        <ele>113</ele>
        <time>2025-06-16T14:02:08.996Z</time>
      </trkpt>
      <trkpt lat="48.53054" lon="1.97446">
        <ele>113</ele>
        <time>2025-06-16T14:02:13.622Z</time>
      </trkpt>
      <trkpt lat="48.53053" lon="1.97455">
        <ele>113</ele>
        <time>2025-06-16T14:02:17.675Z</time>
      </trkpt>
      <trkpt lat="48.53052" lon="1.97465">
        <ele>112</ele>
        <time>2025-06-16T14:02:22.403Z</time>
      </trkpt>
      <trkpt lat="48.53047" lon="1.97482">
        <ele>112</ele>
        <time>2025-06-16T14:03:28.704Z</time>
      </trkpt>
      <trkpt lat="48.53052" lon="1.97485">
        <ele>112</ele>
        <time>2025-06-16T14:03:33.703Z</time>
      </trkpt>
      <trkpt lat="48.53054" lon="1.97489">
        <ele>111</ele>
        <time>2025-06-16T14:03:37.700Z</time>
      </trkpt>
      <trkpt lat="48.53056" lon="1.97495">
        <ele>111</ele>
        <time>2025-06-16T14:03:42.252Z</time>
      </trkpt>
      <trkpt lat="48.53055" lon="1.97507">
        <ele>111</ele>
        <time>2025-06-16T14:03:46.703Z</time>
      </trkpt>
      <trkpt lat="48.5305" lon="1.97519">
        <ele>110</ele>
        <time>2025-06-16T14:03:51.578Z</time>
      </trkpt>
      <trkpt lat="48.53048" lon="1.9753">
        <ele>110</ele>
        <time>2025-06-16T14:03:55.700Z</time>
      </trkpt>
      <trkpt lat="48.53047" lon="1.97541">
        <ele>110</ele>
        <time>2025-06-16T14:04:00.002Z</time>
      </trkpt>
      <trkpt lat="48.53048" lon="1.97551">
        <ele>110</ele>
        <time>2025-06-16T14:04:04.257Z</time>
      </trkpt>
      <trkpt lat="48.5305" lon="1.97561">
        <ele>110</ele>
        <time>2025-06-16T14:04:08.707Z</time>
      </trkpt>
      <trkpt lat="48.53051" lon="1.97574">
        <ele>111</ele>
        <time>2025-06-16T14:04:13.704Z</time>
      </trkpt>
      <trkpt lat="48.5305" lon="1.97587">
        <ele>111</ele>
        <time>2025-06-16T14:04:18.322Z</time>
      </trkpt>
      <trkpt lat="48.53047" lon="1.97598">
        <ele>111</ele>
        <time>2025-06-16T14:04:22.434Z</time>
      </trkpt>
      <trkpt lat="48.53048" lon="1.97608">
        <ele>111</ele>
        <time>2025-06-16T14:04:26.710Z</time>
      </trkpt>
      <trkpt lat="48.53051" lon="1.9762">
        <ele>111</ele>
        <time>2025-06-16T14:04:31.702Z</time>
      </trkpt>
      <trkpt lat="48.53054" lon="1.97631">
        <ele>110</ele>
        <time>2025-06-16T14:04:36.418Z</time>
      </trkpt>
      <trkpt lat="48.53056" lon="1.97641">
        <ele>110</ele>
        <time>2025-06-16T14:04:40.515Z</time>
      </trkpt>
      <trkpt lat="48.53059" lon="1.97651">
        <ele>110</ele>
        <time>2025-06-16T14:04:44.700Z</time>
      </trkpt>
      <trkpt lat="48.53063" lon="1.97659">
        <ele>110</ele>
        <time>2025-06-16T14:04:49.038Z</time>
      </trkpt>
      <trkpt lat="48.53068" lon="1.97669">
        <ele>110</ele>
        <time>2025-06-16T14:04:53.700Z</time>
      </trkpt>
      <trkpt lat="48.53073" lon="1.9768">
        <ele>112</ele>
        <time>2025-06-16T14:04:58.703Z</time>
      </trkpt>
      <trkpt lat="48.53076" lon="1.97692">
        <ele>112</ele>
        <time>2025-06-16T14:05:02.869Z</time>
      </trkpt>
      <trkpt lat="48.53081" lon="1.97701">
        <ele>112</ele>
        <time>2025-06-16T14:05:07.246Z</time>
      </trkpt>
      <trkpt lat="48.53086" lon="1.97712">
        <ele>112</ele>
        <time>2025-06-16T14:05:11.701Z</time>
      </trkpt>
      <trkpt lat="48.53089" lon="1.97723">
        <ele>112</ele>
        <time>2025-06-16T14:05:15.994Z</time>
      </trkpt>
      <trkpt lat="48.53091" lon="1.97731">
        <ele>112</ele>
        <time>2025-06-16T14:05:20.003Z</time>
      </trkpt>
      <trkpt lat="48.53091" lon="1.9774">
        <ele>111</ele>
        <time>2025-06-16T14:05:24.211Z</time>
      </trkpt>
      <trkpt lat="48.53088" lon="1.9775">
        <ele>111</ele>
        <time>2025-06-16T14:05:28.702Z</time>
      </trkpt>
      <trkpt lat="48.53083" lon="1.97758">
        <ele>111</ele>
        <time>2025-06-16T14:05:33.466Z</time>
      </trkpt>
      <trkpt lat="48.5308" lon="1.97768">
        <ele>112</ele>
        <time>2025-06-16T14:05:38.245Z</time>
      </trkpt>
      <trkpt lat="48.53075" lon="1.97775">
        <ele>112</ele>
        <time>2025-06-16T14:05:42.710Z</time>
      </trkpt>
      <trkpt lat="48.53068" lon="1.97779">
        <ele>111</ele>
        <time>2025-06-16T14:05:47.250Z</time>
      </trkpt>
      <trkpt lat="48.5306" lon="1.97782">
        <ele>111</ele>
        <time>2025-06-16T14:05:51.702Z</time>
      </trkpt>
      <trkpt lat="48.53054" lon="1.97785">
        <ele>111</ele>
        <time>2025-06-16T14:05:55.950Z</time>
      </trkpt>
      <trkpt lat="48.53047" lon="1.97789">
        <ele>111</ele>
        <time>2025-06-16T14:06:00.369Z</time>
      </trkpt>
      <trkpt lat="48.53042" lon="1.97796">
        <ele>113</ele>
        <time>2025-06-16T14:06:04.421Z</time>
      </trkpt>
      <trkpt lat="48.53038" lon="1.97803">
        <ele>112</ele>
        <time>2025-06-16T14:06:08.568Z</time>
      </trkpt>
      <trkpt lat="48.53034" lon="1.9781">
        <ele>112</ele>
        <time>2025-06-16T14:06:12.699Z</time>
      </trkpt>
      <trkpt lat="48.5303" lon="1.97817">
        <ele>112</ele>
        <time>2025-06-16T14:06:16.947Z</time>
      </trkpt>
      <trkpt lat="48.53026" lon="1.97824">
        <ele>114</ele>
        <time>2025-06-16T14:06:21.282Z</time>
      </trkpt>
      <trkpt lat="48.53023" lon="1.97831">
        <ele>114</ele>
        <time>2025-06-16T14:06:25.370Z</time>
      </trkpt>
      <trkpt lat="48.53019" lon="1.97838">
        <ele>114</ele>
        <time>2025-06-16T14:06:29.464Z</time>
      </trkpt>
      <trkpt lat="48.53015" lon="1.97845">
        <ele>114</ele>
        <time>2025-06-16T14:06:33.647Z</time>
      </trkpt>
      <trkpt lat="48.5301" lon="1.97853">
        <ele>112</ele>
        <time>2025-06-16T14:06:37.886Z</time>
      </trkpt>
      <trkpt lat="48.53006" lon="1.97861">
        <ele>112</ele>
        <time>2025-06-16T14:06:42.128Z</time>
      </trkpt>
      <trkpt lat="48.53004" lon="1.97868">
        <ele>112</ele>
        <time>2025-06-16T14:06:46.384Z</time>
      </trkpt>
      <trkpt lat="48.53002" lon="1.97877">
        <ele>112</ele>
        <time>2025-06-16T14:06:50.684Z</time>
      </trkpt>
      <trkpt lat="48.53001" lon="1.97886">
        <ele>112</ele>
        <time>2025-06-16T14:06:55.001Z</time>
      </trkpt>
      <trkpt lat="48.52999" lon="1.97895">
        <ele>112</ele>
        <time>2025-06-16T14:06:59.422Z</time>
      </trkpt>
      <trkpt lat="48.52996" lon="1.979">
        <ele>112</ele>
        <time>2025-06-16T14:07:03.645Z</time>
      </trkpt>
      <trkpt lat="48.52996" lon="1.97911">
        <ele>112</ele>
        <time>2025-06-16T14:07:08.083Z</time>
      </trkpt>
      <trkpt lat="48.52996" lon="1.97919">
        <ele>112</ele>
        <time>2025-06-16T14:07:12.170Z</time>
      </trkpt>
      <trkpt lat="48.52997" lon="1.97926">
        <ele>112</ele>
        <time>2025-06-16T14:07:16.307Z</time>
      </trkpt>
      <trkpt lat="48.52996" lon="1.97934">
        <ele>111</ele>
        <time>2025-06-16T14:07:20.505Z</time>
      </trkpt>
      <trkpt lat="48.52996" lon="1.97942">
        <ele>111</ele>
        <time>2025-06-16T14:07:24.700Z</time>
      </trkpt>
      <trkpt lat="48.52999" lon="1.97949">
        <ele>111</ele>
        <time>2025-06-16T14:07:29.166Z</time>
      </trkpt>
      <trkpt lat="48.53001" lon="1.97957">
        <ele>111</ele>
        <time>2025-06-16T14:07:33.448Z</time>
      </trkpt>
      <trkpt lat="48.52999" lon="1.97969">
        <ele>111</ele>
        <time>2025-06-16T14:07:37.701Z</time>
      </trkpt>
      <trkpt lat="48.52997" lon="1.97979">
        <ele>111</ele>
        <time>2025-06-16T14:07:42.348Z</time>
      </trkpt>
      <trkpt lat="48.52997" lon="1.97987">
        <ele>110</ele>
        <time>2025-06-16T14:07:46.703Z</time>
      </trkpt>
      <trkpt lat="48.52998" lon="1.97996">
        <ele>110</ele>
        <time>2025-06-16T14:07:50.762Z</time>
      </trkpt>
      <trkpt lat="48.52999" lon="1.98005">
        <ele>110</ele>
        <time>2025-06-16T14:07:55.698Z</time>
      </trkpt>
      <trkpt lat="48.52998" lon="1.98012">
        <ele>110</ele>
        <time>2025-06-16T14:08:00.703Z</time>
      </trkpt>
      <trkpt lat="48.52995" lon="1.98018">
        <ele>109</ele>
        <time>2025-06-16T14:08:05.642Z</time>
      </trkpt>
      <trkpt lat="48.52993" lon="1.98021">
        <ele>109</ele>
        <time>2025-06-16T14:08:10.708Z</time>
      </trkpt>
      <trkpt lat="48.52995" lon="1.98023">
        <ele>109</ele>
        <time>2025-06-16T14:08:48.700Z</time>
      </trkpt>
      <trkpt lat="48.52995" lon="1.98025">
        <ele>109</ele>
        <time>2025-06-16T14:08:52.699Z</time>
      </trkpt>
      <trkpt lat="48.52995" lon="1.98028">
        <ele>109</ele>
        <time>2025-06-16T14:08:57.698Z</time>
      </trkpt>
      <trkpt lat="48.52994" lon="1.98032">
        <ele>109</ele>
        <time>2025-06-16T14:09:01.701Z</time>
      </trkpt>
      <trkpt lat="48.52995" lon="1.98039">
        <ele>109</ele>
        <time>2025-06-16T14:09:05.701Z</time>
      </trkpt>
      <trkpt lat="48.52996" lon="1.98045">
        <ele>109</ele>
        <time>2025-06-16T14:09:09.709Z</time>
      </trkpt>
      <trkpt lat="48.52996" lon="1.98051">
        <ele>109</ele>
        <time>2025-06-16T14:09:14.506Z</time>
      </trkpt>
      <trkpt lat="48.52996" lon="1.98056">
        <ele>109</ele>
        <time>2025-06-16T14:09:18.526Z</time>
      </trkpt>
      <trkpt lat="48.52994" lon="1.98061">
        <ele>109</ele>
        <time>2025-06-16T14:09:22.707Z</time>
      </trkpt>
      <trkpt lat="48.52993" lon="1.98067">
        <ele>109</ele>
        <time>2025-06-16T14:09:26.712Z</time>
      </trkpt>
      <trkpt lat="48.52988" lon="1.98068">
        <ele>109</ele>
        <time>2025-06-16T14:09:31.204Z</time>
      </trkpt>
      <trkpt lat="48.52987" lon="1.98074">
        <ele>109</ele>
        <time>2025-06-16T14:09:35.547Z</time>
      </trkpt>
      <trkpt lat="48.52985" lon="1.98081">
        <ele>106</ele>
        <time>2025-06-16T14:09:40.027Z</time>
      </trkpt>
      <trkpt lat="48.52983" lon="1.98087">
        <ele>106</ele>
        <time>2025-06-16T14:09:44.165Z</time>
      </trkpt>
      <trkpt lat="48.5298" lon="1.98093">
        <ele>106</ele>
        <time>2025-06-16T14:09:48.330Z</time>
      </trkpt>
      <trkpt lat="48.52977" lon="1.98098">
        <ele>105</ele>
        <time>2025-06-16T14:09:52.571Z</time>
      </trkpt>
      <trkpt lat="48.52973" lon="1.98103">
        <ele>105</ele>
        <time>2025-06-16T14:09:56.622Z</time>
      </trkpt>
      <trkpt lat="48.52969" lon="1.9811">
        <ele>105</ele>
        <time>2025-06-16T14:10:00.785Z</time>
      </trkpt>
      <trkpt lat="48.52966" lon="1.98119">
        <ele>105</ele>
        <time>2025-06-16T14:10:05.697Z</time>
      </trkpt>
      <trkpt lat="48.52963" lon="1.98127">
        <ele>104</ele>
        <time>2025-06-16T14:10:09.847Z</time>
      </trkpt>
      <trkpt lat="48.52956" lon="1.98132">
        <ele>105</ele>
        <time>2025-06-16T14:10:14.548Z</time>
      </trkpt>
      <trkpt lat="48.5295" lon="1.98132">
        <ele>105</ele>
        <time>2025-06-16T14:10:18.699Z</time>
      </trkpt>
      <trkpt lat="48.52944" lon="1.98127">
        <ele>105</ele>
        <time>2025-06-16T14:10:23.423Z</time>
      </trkpt>
      <trkpt lat="48.5294" lon="1.98136">
        <ele>105</ele>
        <time>2025-06-16T14:10:27.701Z</time>
      </trkpt>
      <trkpt lat="48.52939" lon="1.98145">
        <ele>105</ele>
        <time>2025-06-16T14:10:31.828Z</time>
      </trkpt>
      <trkpt lat="48.5294" lon="1.98155">
        <ele>104</ele>
        <time>2025-06-16T14:10:36.366Z</time>
      </trkpt>
      <trkpt lat="48.52943" lon="1.98164">
        <ele>104</ele>
        <time>2025-06-16T14:10:41.349Z</time>
      </trkpt>
      <trkpt lat="48.52943" lon="1.98169">
        <ele>104</ele>
        <time>2025-06-16T14:10:44.881Z</time>
      </trkpt>
      <trkpt lat="48.52948" lon="1.98181">
        <ele>103</ele>
        <time>2025-06-16T14:10:53.695Z</time>
      </trkpt>
      <trkpt lat="48.5295" lon="1.98186">
        <ele>103</ele>
        <time>2025-06-16T14:10:58.470Z</time>
      </trkpt>
      <trkpt lat="48.52952" lon="1.98193">
        <ele>103</ele>
        <time>2025-06-16T14:11:02.700Z</time>
      </trkpt>
      <trkpt lat="48.52953" lon="1.98197">
        <ele>103</ele>
        <time>2025-06-16T14:11:07.707Z</time>
      </trkpt>
      <trkpt lat="48.52954" lon="1.98199">
        <ele>103</ele>
        <time>2025-06-16T14:11:12.696Z</time>
      </trkpt>
      <trkpt lat="48.52954" lon="1.98199">
        <ele>103</ele>
        <time>2025-06-16T14:14:30.701Z</time>
      </trkpt>
      <trkpt lat="48.52954" lon="1.982">
        <ele>103</ele>
        <time>2025-06-16T14:14:34.700Z</time>
      </trkpt>
      <trkpt lat="48.52955" lon="1.98202">
        <ele>103</ele>
        <time>2025-06-16T14:14:39.429Z</time>
      </trkpt>
      <trkpt lat="48.52957" lon="1.9821">
        <ele>103</ele>
        <time>2025-06-16T14:14:43.701Z</time>
      </trkpt>
      <trkpt lat="48.52959" lon="1.9822">
        <ele>104</ele>
        <time>2025-06-16T14:14:48.323Z</time>
      </trkpt>
      <trkpt lat="48.52959" lon="1.98229">
        <ele>104</ele>
        <time>2025-06-16T14:14:52.710Z</time>
      </trkpt>
      <trkpt lat="48.5296" lon="1.98237">
        <ele>103</ele>
        <time>2025-06-16T14:14:57.086Z</time>
      </trkpt>
      <trkpt lat="48.52957" lon="1.98244">
        <ele>102</ele>
        <time>2025-06-16T14:15:01.424Z</time>
      </trkpt>
      <trkpt lat="48.52959" lon="1.98256">
        <ele>103</ele>
        <time>2025-06-16T14:15:06.348Z</time>
      </trkpt>
      <trkpt lat="48.52959" lon="1.98264">
        <ele>104</ele>
        <time>2025-06-16T14:15:10.697Z</time>
      </trkpt>
      <trkpt lat="48.52959" lon="1.98271">
        <ele>104</ele>
        <time>2025-06-16T14:15:14.940Z</time>
      </trkpt>
      <trkpt lat="48.5296" lon="1.98272">
        <ele>104</ele>
        <time>2025-06-16T14:15:19.703Z</time>
      </trkpt>
      <trkpt lat="48.52958" lon="1.98274">
        <ele>103</ele>
        <time>2025-06-16T14:15:23.961Z</time>
      </trkpt>
      <trkpt lat="48.5296" lon="1.98287">
        <ele>104</ele>
        <time>2025-06-16T14:15:28.144Z</time>
      </trkpt>
      <trkpt lat="48.52958" lon="1.98297">
        <ele>103</ele>
        <time>2025-06-16T14:15:32.588Z</time>
      </trkpt>
      <trkpt lat="48.52956" lon="1.98305">
        <ele>103</ele>
        <time>2025-06-16T14:15:36.907Z</time>
      </trkpt>
      <trkpt lat="48.52954" lon="1.98314">
        <ele>103</ele>
        <time>2025-06-16T14:15:41.268Z</time>
      </trkpt>
      <trkpt lat="48.52953" lon="1.98322">
        <ele>103</ele>
        <time>2025-06-16T14:15:45.697Z</time>
      </trkpt>
      <trkpt lat="48.5295" lon="1.98329">
        <ele>103</ele>
        <time>2025-06-16T14:15:50.347Z</time>
      </trkpt>
      <trkpt lat="48.52947" lon="1.98335">
        <ele>103</ele>
        <time>2025-06-16T14:15:54.366Z</time>
      </trkpt>
      <trkpt lat="48.52946" lon="1.98337">
        <ele>103</ele>
        <time>2025-06-16T14:15:56.692Z</time>
      </trkpt>
      <trkpt lat="48.52944" lon="1.98339">
        <ele>103</ele>
        <time>2025-06-16T14:16:08.698Z</time>
      </trkpt>
      <trkpt lat="48.52943" lon="1.98345">
        <ele>103</ele>
        <time>2025-06-16T14:16:13.694Z</time>
      </trkpt>
      <trkpt lat="48.52941" lon="1.98355">
        <ele>103</ele>
        <time>2025-06-16T14:16:18.133Z</time>
      </trkpt>
      <trkpt lat="48.52943" lon="1.98368">
        <ele>103</ele>
        <time>2025-06-16T14:16:22.704Z</time>
      </trkpt>
      <trkpt lat="48.52945" lon="1.98377">
        <ele>103</ele>
        <time>2025-06-16T14:16:26.691Z</time>
      </trkpt>
      <trkpt lat="48.52948" lon="1.98388">
        <ele>103</ele>
        <time>2025-06-16T14:16:31.266Z</time>
      </trkpt>
      <trkpt lat="48.52951" lon="1.98397">
        <ele>103</ele>
        <time>2025-06-16T14:16:35.695Z</time>
      </trkpt>
      <trkpt lat="48.52954" lon="1.98407">
        <ele>103</ele>
        <time>2025-06-16T14:16:40.701Z</time>
      </trkpt>
      <trkpt lat="48.52956" lon="1.98416">
        <ele>103</ele>
        <time>2025-06-16T14:16:45.696Z</time>
      </trkpt>
      <trkpt lat="48.52958" lon="1.98424">
        <ele>103</ele>
        <time>2025-06-16T14:16:50.694Z</time>
      </trkpt>
      <trkpt lat="48.5296" lon="1.98431">
        <ele>103</ele>
        <time>2025-06-16T14:16:54.940Z</time>
      </trkpt>
      <trkpt lat="48.52963" lon="1.98438">
        <ele>103</ele>
        <time>2025-06-16T14:16:59.387Z</time>
      </trkpt>
      <trkpt lat="48.52963" lon="1.98438">
        <ele>103</ele>
        <time>2025-06-16T14:16:59.847Z</time>
      </trkpt>
      <trkpt lat="48.52968" lon="1.98454">
        <ele>103</ele>
        <time>2025-06-16T14:17:09.699Z</time>
      </trkpt>
      <trkpt lat="48.5297" lon="1.9846">
        <ele>102</ele>
        <time>2025-06-16T14:17:14.254Z</time>
      </trkpt>
      <trkpt lat="48.52971" lon="1.9847">
        <ele>102</ele>
        <time>2025-06-16T14:17:18.677Z</time>
      </trkpt>
      <trkpt lat="48.5297" lon="1.98477">
        <ele>102</ele>
        <time>2025-06-16T14:17:22.694Z</time>
      </trkpt>
      <trkpt lat="48.5297" lon="1.98482">
        <ele>102</ele>
        <time>2025-06-16T14:17:26.703Z</time>
      </trkpt>
      <trkpt lat="48.52965" lon="1.98482">
        <ele>102</ele>
        <time>2025-06-16T14:17:47.696Z</time>
      </trkpt>
      <trkpt lat="48.52965" lon="1.98481">
        <ele>102</ele>
        <time>2025-06-16T14:17:51.699Z</time>
      </trkpt>
      <trkpt lat="48.52965" lon="1.98481">
        <ele>102</ele>
        <time>2025-06-16T14:17:56.695Z</time>
      </trkpt>
      <trkpt lat="48.52961" lon="1.9848">
        <ele>102</ele>
        <time>2025-06-16T14:18:00.702Z</time>
      </trkpt>
      <trkpt lat="48.5296" lon="1.98476">
        <ele>102</ele>
        <time>2025-06-16T14:18:05.388Z</time>
      </trkpt>
      <trkpt lat="48.52953" lon="1.98477">
        <ele>104</ele>
        <time>2025-06-16T14:18:09.568Z</time>
      </trkpt>
      <trkpt lat="48.52949" lon="1.98489">
        <ele>103</ele>
        <time>2025-06-16T14:18:13.606Z</time>
      </trkpt>
      <trkpt lat="48.52948" lon="1.985">
        <ele>103</ele>
        <time>2025-06-16T14:18:18.044Z</time>
      </trkpt>
      <trkpt lat="48.52948" lon="1.9851">
        <ele>103</ele>
        <time>2025-06-16T14:18:22.542Z</time>
      </trkpt>
      <trkpt lat="48.52948" lon="1.98517">
        <ele>103</ele>
        <time>2025-06-16T14:18:26.695Z</time>
      </trkpt>
      <trkpt lat="48.52947" lon="1.98527">
        <ele>103</ele>
        <time>2025-06-16T14:18:31.694Z</time>
      </trkpt>
      <trkpt lat="48.52947" lon="1.98546">
        <ele>103</ele>
        <time>2025-06-16T14:18:40.694Z</time>
      </trkpt>
      <trkpt lat="48.52945" lon="1.98556">
        <ele>103</ele>
        <time>2025-06-16T14:18:44.764Z</time>
      </trkpt>
      <trkpt lat="48.52941" lon="1.98565">
        <ele>103</ele>
        <time>2025-06-16T14:18:49.332Z</time>
      </trkpt>
      <trkpt lat="48.52944" lon="1.98569">
        <ele>103</ele>
        <time>2025-06-16T14:18:53.706Z</time>
      </trkpt>
      <trkpt lat="48.52941" lon="1.98578">
        <ele>103</ele>
        <time>2025-06-16T14:18:58.003Z</time>
      </trkpt>
      <trkpt lat="48.52943" lon="1.98588">
        <ele>103</ele>
        <time>2025-06-16T14:19:02.363Z</time>
      </trkpt>
      <trkpt lat="48.52943" lon="1.98598">
        <ele>104</ele>
        <time>2025-06-16T14:19:06.698Z</time>
      </trkpt>
      <trkpt lat="48.52945" lon="1.98607">
        <ele>104</ele>
        <time>2025-06-16T14:19:11.052Z</time>
      </trkpt>
      <trkpt lat="48.52948" lon="1.98614">
        <ele>104</ele>
        <time>2025-06-16T14:19:15.553Z</time>
      </trkpt>
      <trkpt lat="48.52951" lon="1.98622">
        <ele>104</ele>
        <time>2025-06-16T14:19:20.009Z</time>
      </trkpt>
      <trkpt lat="48.52957" lon="1.98628">
        <ele>105</ele>
        <time>2025-06-16T14:19:24.549Z</time>
      </trkpt>
      <trkpt lat="48.52962" lon="1.9863">
        <ele>104</ele>
        <time>2025-06-16T14:19:28.696Z</time>
      </trkpt>
      <trkpt lat="48.52967" lon="1.98627">
        <ele>104</ele>
        <time>2025-06-16T14:19:32.827Z</time>
      </trkpt>
      <trkpt lat="48.52973" lon="1.98625">
        <ele>104</ele>
        <time>2025-06-16T14:19:37.172Z</time>
      </trkpt>
      <trkpt lat="48.5298" lon="1.98623">
        <ele>104</ele>
        <time>2025-06-16T14:19:41.700Z</time>
      </trkpt>
      <trkpt lat="48.52986" lon="1.98623">
        <ele>104</ele>
        <time>2025-06-16T14:19:46.593Z</time>
      </trkpt>
      <trkpt lat="48.52992" lon="1.98621">
        <ele>103</ele>
        <time>2025-06-16T14:19:50.697Z</time>
      </trkpt>
      <trkpt lat="48.52997" lon="1.98621">
        <ele>103</ele>
        <time>2025-06-16T14:19:54.829Z</time>
      </trkpt>
      <trkpt lat="48.53004" lon="1.98616">
        <ele>103</ele>
        <time>2025-06-16T14:19:59.012Z</time>
      </trkpt>
      <trkpt lat="48.5301" lon="1.98614">
        <ele>103</ele>
        <time>2025-06-16T14:20:03.253Z</time>
      </trkpt>
      <trkpt lat="48.53016" lon="1.98614">
        <ele>104</ele>
        <time>2025-06-16T14:20:07.467Z</time>
      </trkpt>
      <trkpt lat="48.53022" lon="1.98613">
        <ele>104</ele>
        <time>2025-06-16T14:20:11.695Z</time>
      </trkpt>
      <trkpt lat="48.53028" lon="1.98613">
        <ele>104</ele>
        <time>2025-06-16T14:20:15.865Z</time>
      </trkpt>
      <trkpt lat="48.53034" lon="1.98615">
        <ele>104</ele>
        <time>2025-06-16T14:20:20.047Z</time>
      </trkpt>
      <trkpt lat="48.53039" lon="1.98619">
        <ele>104</ele>
        <time>2025-06-16T14:20:24.228Z</time>
      </trkpt>
      <trkpt lat="48.53045" lon="1.98623">
        <ele>104</ele>
        <time>2025-06-16T14:20:28.696Z</time>
      </trkpt>
      <trkpt lat="48.5305" lon="1.98616">
        <ele>104</ele>
        <time>2025-06-16T14:20:33.697Z</time>
      </trkpt>
      <trkpt lat="48.53056" lon="1.9861">
        <ele>104</ele>
        <time>2025-06-16T14:20:38.072Z</time>
      </trkpt>
      <trkpt lat="48.53061" lon="1.98605">
        <ele>104</ele>
        <time>2025-06-16T14:20:42.291Z</time>
      </trkpt>
      <trkpt lat="48.53069" lon="1.98607">
        <ele>104</ele>
        <time>2025-06-16T14:20:46.696Z</time>
      </trkpt>
      <trkpt lat="48.5307" lon="1.98609">
        <ele>106</ele>
        <time>2025-06-16T14:20:52.700Z</time>
      </trkpt>
      <trkpt lat="48.53073" lon="1.9861">
        <ele>106</ele>
        <time>2025-06-16T14:20:56.696Z</time>
      </trkpt>
      <trkpt lat="48.53079" lon="1.98609">
        <ele>106</ele>
        <time>2025-06-16T14:21:01.696Z</time>
      </trkpt>
      <trkpt lat="48.53088" lon="1.9861">
        <ele>106</ele>
        <time>2025-06-16T14:21:06.699Z</time>
      </trkpt>
      <trkpt lat="48.53094" lon="1.98609">
        <ele>106</ele>
        <time>2025-06-16T14:21:11.701Z</time>
      </trkpt>
      <trkpt lat="48.53095" lon="1.98609">
        <ele>106</ele>
        <time>2025-06-16T14:21:15.952Z</time>
      </trkpt>
      <trkpt lat="48.53102" lon="1.9861">
        <ele>107</ele>
        <time>2025-06-16T14:21:20.701Z</time>
      </trkpt>
      <trkpt lat="48.53104" lon="1.98609">
        <ele>107</ele>
        <time>2025-06-16T14:21:25.553Z</time>
      </trkpt>
      <trkpt lat="48.53108" lon="1.98613">
        <ele>107</ele>
        <time>2025-06-16T14:21:29.675Z</time>
      </trkpt>
      <trkpt lat="48.53111" lon="1.98622">
        <ele>107</ele>
        <time>2025-06-16T14:21:33.695Z</time>
      </trkpt>
      <trkpt lat="48.53112" lon="1.98623">
        <ele>107</ele>
        <time>2025-06-16T14:21:34.490Z</time>
      </trkpt>
      <trkpt lat="48.53114" lon="1.98628">
        <ele>106</ele>
        <time>2025-06-16T14:21:41.852Z</time>
      </trkpt>
      <trkpt lat="48.53117" lon="1.98628">
        <ele>106</ele>
        <time>2025-06-16T14:21:46.691Z</time>
      </trkpt>
      <trkpt lat="48.53118" lon="1.98638">
        <ele>106</ele>
        <time>2025-06-16T14:21:50.693Z</time>
      </trkpt>
      <trkpt lat="48.53118" lon="1.98657">
        <ele>106</ele>
        <time>2025-06-16T14:21:54.699Z</time>
      </trkpt>
      <trkpt lat="48.53119" lon="1.98666">
        <ele>106</ele>
        <time>2025-06-16T14:21:58.953Z</time>
      </trkpt>
      <trkpt lat="48.5312" lon="1.98674">
        <ele>106</ele>
        <time>2025-06-16T14:22:03.108Z</time>
      </trkpt>
      <trkpt lat="48.53121" lon="1.98683">
        <ele>106</ele>
        <time>2025-06-16T14:22:07.698Z</time>
      </trkpt>
      <trkpt lat="48.53122" lon="1.98692">
        <ele>106</ele>
        <time>2025-06-16T14:22:11.873Z</time>
      </trkpt>
      <trkpt lat="48.53124" lon="1.98701">
        <ele>106</ele>
        <time>2025-06-16T14:22:16.045Z</time>
      </trkpt>
      <trkpt lat="48.53125" lon="1.9871">
        <ele>108</ele>
        <time>2025-06-16T14:22:20.167Z</time>
      </trkpt>
      <trkpt lat="48.53126" lon="1.9872">
        <ele>109</ele>
        <time>2025-06-16T14:22:24.273Z</time>
      </trkpt>
      <trkpt lat="48.53128" lon="1.98728">
        <ele>109</ele>
        <time>2025-06-16T14:22:28.455Z</time>
      </trkpt>
      <trkpt lat="48.53129" lon="1.98737">
        <ele>110</ele>
        <time>2025-06-16T14:22:32.864Z</time>
      </trkpt>
      <trkpt lat="48.5313" lon="1.98746">
        <ele>110</ele>
        <time>2025-06-16T14:22:37.267Z</time>
      </trkpt>
      <trkpt lat="48.53131" lon="1.98755">
        <ele>110</ele>
        <time>2025-06-16T14:22:41.703Z</time>
      </trkpt>
      <trkpt lat="48.53131" lon="1.98763">
        <ele>110</ele>
        <time>2025-06-16T14:22:46.003Z</time>
      </trkpt>
      <trkpt lat="48.53131" lon="1.98771">
        <ele>110</ele>
        <time>2025-06-16T14:22:50.327Z</time>
      </trkpt>
      <trkpt lat="48.53131" lon="1.98781">
        <ele>110</ele>
        <time>2025-06-16T14:22:54.625Z</time>
      </trkpt>
      <trkpt lat="48.53132" lon="1.9879">
        <ele>110</ele>
        <time>2025-06-16T14:22:58.926Z</time>
      </trkpt>
      <trkpt lat="48.53133" lon="1.98798">
        <ele>111</ele>
        <time>2025-06-16T14:23:03.168Z</time>
      </trkpt>
      <trkpt lat="48.53132" lon="1.98807">
        <ele>111</ele>
        <time>2025-06-16T14:23:07.511Z</time>
      </trkpt>
      <trkpt lat="48.53133" lon="1.98818">
        <ele>111</ele>
        <time>2025-06-16T14:23:11.829Z</time>
      </trkpt>
      <trkpt lat="48.53134" lon="1.98827">
        <ele>111</ele>
        <time>2025-06-16T14:23:16.087Z</time>
      </trkpt>
      <trkpt lat="48.53135" lon="1.98836">
        <ele>111</ele>
        <time>2025-06-16T14:23:20.697Z</time>
      </trkpt>
      <trkpt lat="48.53135" lon="1.98845">
        <ele>111</ele>
        <time>2025-06-16T14:23:25.152Z</time>
      </trkpt>
      <trkpt lat="48.53135" lon="1.98854">
        <ele>110</ele>
        <time>2025-06-16T14:23:29.425Z</time>
      </trkpt>
      <trkpt lat="48.53135" lon="1.98863">
        <ele>110</ele>
        <time>2025-06-16T14:23:33.607Z</time>
      </trkpt>
      <trkpt lat="48.53136" lon="1.98872">
        <ele>110</ele>
        <time>2025-06-16T14:23:37.695Z</time>
      </trkpt>
      <trkpt lat="48.53136" lon="1.98882">
        <ele>110</ele>
        <time>2025-06-16T14:23:42.046Z</time>
      </trkpt>
      <trkpt lat="48.53137" lon="1.98891">
        <ele>110</ele>
        <time>2025-06-16T14:23:46.331Z</time>
      </trkpt>
      <trkpt lat="48.53138" lon="1.98899">
        <ele>110</ele>
        <time>2025-06-16T14:23:50.648Z</time>
      </trkpt>
      <trkpt lat="48.53139" lon="1.98907">
        <ele>108</ele>
        <time>2025-06-16T14:23:54.932Z</time>
      </trkpt>
      <trkpt lat="48.53139" lon="1.98916">
        <ele>108</ele>
        <time>2025-06-16T14:23:59.352Z</time>
      </trkpt>
      <trkpt lat="48.53139" lon="1.98924">
        <ele>108</ele>
        <time>2025-06-16T14:24:03.698Z</time>
      </trkpt>
      <trkpt lat="48.53139" lon="1.98933">
        <ele>106</ele>
        <time>2025-06-16T14:24:08.031Z</time>
      </trkpt>
      <trkpt lat="48.5314" lon="1.98943">
        <ele>106</ele>
        <time>2025-06-16T14:24:12.707Z</time>
      </trkpt>
      <trkpt lat="48.53139" lon="1.98953">
        <ele>106</ele>
        <time>2025-06-16T14:24:17.696Z</time>
      </trkpt>
      <trkpt lat="48.5314" lon="1.98963">
        <ele>105</ele>
        <time>2025-06-16T14:24:22.246Z</time>
      </trkpt>
      <trkpt lat="48.53139" lon="1.98971">
        <ele>105</ele>
        <time>2025-06-16T14:24:26.292Z</time>
      </trkpt>
      <trkpt lat="48.53139" lon="1.9898">
        <ele>105</ele>
        <time>2025-06-16T14:24:30.489Z</time>
      </trkpt>
      <trkpt lat="48.53141" lon="1.98989">
        <ele>105</ele>
        <time>2025-06-16T14:24:34.701Z</time>
      </trkpt>
      <trkpt lat="48.53141" lon="1.98998">
        <ele>105</ele>
        <time>2025-06-16T14:24:39.365Z</time>
      </trkpt>
      <trkpt lat="48.53142" lon="1.99007">
        <ele>105</ele>
        <time>2025-06-16T14:24:43.700Z</time>
      </trkpt>
      <trkpt lat="48.53142" lon="1.99015">
        <ele>106</ele>
        <time>2025-06-16T14:24:48.102Z</time>
      </trkpt>
      <trkpt lat="48.53143" lon="1.99025">
        <ele>106</ele>
        <time>2025-06-16T14:24:52.533Z</time>
      </trkpt>
      <trkpt lat="48.53142" lon="1.99036">
        <ele>106</ele>
        <time>2025-06-16T14:24:57.696Z</time>
      </trkpt>
      <trkpt lat="48.53141" lon="1.99046">
        <ele>105</ele>
        <time>2025-06-16T14:25:01.926Z</time>
      </trkpt>
      <trkpt lat="48.53141" lon="1.99055">
        <ele>105</ele>
        <time>2025-06-16T14:25:06.047Z</time>
      </trkpt>
      <trkpt lat="48.53142" lon="1.99065">
        <ele>105</ele>
        <time>2025-06-16T14:25:10.306Z</time>
      </trkpt>
      <trkpt lat="48.53143" lon="1.99075">
        <ele>104</ele>
        <time>2025-06-16T14:25:14.572Z</time>
      </trkpt>
      <trkpt lat="48.53144" lon="1.99085">
        <ele>104</ele>
        <time>2025-06-16T14:25:18.829Z</time>
      </trkpt>
      <trkpt lat="48.53145" lon="1.99094">
        <ele>104</ele>
        <time>2025-06-16T14:25:23.130Z</time>
      </trkpt>
      <trkpt lat="48.53145" lon="1.99103">
        <ele>103</ele>
        <time>2025-06-16T14:25:27.405Z</time>
      </trkpt>
      <trkpt lat="48.53146" lon="1.99112">
        <ele>103</ele>
        <time>2025-06-16T14:25:31.672Z</time>
      </trkpt>
      <trkpt lat="48.53146" lon="1.99122">
        <ele>103</ele>
        <time>2025-06-16T14:25:35.975Z</time>
      </trkpt>
      <trkpt lat="48.53147" lon="1.9913">
        <ele>102</ele>
        <time>2025-06-16T14:25:40.229Z</time>
      </trkpt>
      <trkpt lat="48.53149" lon="1.99139">
        <ele>102</ele>
        <time>2025-06-16T14:25:44.428Z</time>
      </trkpt>
      <trkpt lat="48.5315" lon="1.99148">
        <ele>102</ele>
        <time>2025-06-16T14:25:48.685Z</time>
      </trkpt>
      <trkpt lat="48.53152" lon="1.99156">
        <ele>100</ele>
        <time>2025-06-16T14:25:52.867Z</time>
      </trkpt>
      <trkpt lat="48.53156" lon="1.99163">
        <ele>99</ele>
        <time>2025-06-16T14:25:57.151Z</time>
      </trkpt>
      <trkpt lat="48.53157" lon="1.99172">
        <ele>99</ele>
        <time>2025-06-16T14:26:01.572Z</time>
      </trkpt>
      <trkpt lat="48.53157" lon="1.99181">
        <ele>98</ele>
        <time>2025-06-16T14:26:05.698Z</time>
      </trkpt>
      <trkpt lat="48.53158" lon="1.99189">
        <ele>98</ele>
        <time>2025-06-16T14:26:10.068Z</time>
      </trkpt>
      <trkpt lat="48.5316" lon="1.99198">
        <ele>98</ele>
        <time>2025-06-16T14:26:14.309Z</time>
      </trkpt>
      <trkpt lat="48.53161" lon="1.99207">
        <ele>98</ele>
        <time>2025-06-16T14:26:18.566Z</time>
      </trkpt>
      <trkpt lat="48.53162" lon="1.99215">
        <ele>98</ele>
        <time>2025-06-16T14:26:22.912Z</time>
      </trkpt>
      <trkpt lat="48.53164" lon="1.99225">
        <ele>98</ele>
        <time>2025-06-16T14:26:27.699Z</time>
      </trkpt>
      <trkpt lat="48.53165" lon="1.99233">
        <ele>98</ele>
        <time>2025-06-16T14:26:31.928Z</time>
      </trkpt>
      <trkpt lat="48.53167" lon="1.99242">
        <ele>98</ele>
        <time>2025-06-16T14:26:36.067Z</time>
      </trkpt>
      <trkpt lat="48.53169" lon="1.99251">
        <ele>98</ele>
        <time>2025-06-16T14:26:40.325Z</time>
      </trkpt>
      <trkpt lat="48.5317" lon="1.9926">
        <ele>98</ele>
        <time>2025-06-16T14:26:44.446Z</time>
      </trkpt>
      <trkpt lat="48.53172" lon="1.99269">
        <ele>98</ele>
        <time>2025-06-16T14:26:48.567Z</time>
      </trkpt>
      <trkpt lat="48.53172" lon="1.99278">
        <ele>98</ele>
        <time>2025-06-16T14:26:52.852Z</time>
      </trkpt>
      <trkpt lat="48.53173" lon="1.99286">
        <ele>98</ele>
        <time>2025-06-16T14:26:57.065Z</time>
      </trkpt>
      <trkpt lat="48.53175" lon="1.99295">
        <ele>97</ele>
        <time>2025-06-16T14:27:01.366Z</time>
      </trkpt>
      <trkpt lat="48.53176" lon="1.99304">
        <ele>97</ele>
        <time>2025-06-16T14:27:05.632Z</time>
      </trkpt>
      <trkpt lat="48.53178" lon="1.99312">
        <ele>97</ele>
        <time>2025-06-16T14:27:10.129Z</time>
      </trkpt>
      <trkpt lat="48.5318" lon="1.9932">
        <ele>98</ele>
        <time>2025-06-16T14:27:14.327Z</time>
      </trkpt>
      <trkpt lat="48.53182" lon="1.99328">
        <ele>100</ele>
        <time>2025-06-16T14:27:18.697Z</time>
      </trkpt>
      <trkpt lat="48.53183" lon="1.99336">
        <ele>100</ele>
        <time>2025-06-16T14:27:22.852Z</time>
      </trkpt>
      <trkpt lat="48.53185" lon="1.99345">
        <ele>100</ele>
        <time>2025-06-16T14:27:26.912Z</time>
      </trkpt>
      <trkpt lat="48.53187" lon="1.99353">
        <ele>101</ele>
        <time>2025-06-16T14:27:30.934Z</time>
      </trkpt>
      <trkpt lat="48.5319" lon="1.99361">
        <ele>101</ele>
        <time>2025-06-16T14:27:35.009Z</time>
      </trkpt>
      <trkpt lat="48.53192" lon="1.99369">
        <ele>101</ele>
        <time>2025-06-16T14:27:39.045Z</time>
      </trkpt>
      <trkpt lat="48.53195" lon="1.99377">
        <ele>101</ele>
        <time>2025-06-16T14:27:43.551Z</time>
      </trkpt>
      <trkpt lat="48.53197" lon="1.99385">
        <ele>101</ele>
        <time>2025-06-16T14:27:47.552Z</time>
      </trkpt>
      <trkpt lat="48.53198" lon="1.99393">
        <ele>101</ele>
        <time>2025-06-16T14:27:51.605Z</time>
      </trkpt>
      <trkpt lat="48.53199" lon="1.99402">
        <ele>101</ele>
        <time>2025-06-16T14:27:55.649Z</time>
      </trkpt>
      <trkpt lat="48.53201" lon="1.99411">
        <ele>101</ele>
        <time>2025-06-16T14:28:00.068Z</time>
      </trkpt>
      <trkpt lat="48.53202" lon="1.9942">
        <ele>101</ele>
        <time>2025-06-16T14:28:04.088Z</time>
      </trkpt>
      <trkpt lat="48.53203" lon="1.99429">
        <ele>101</ele>
        <time>2025-06-16T14:28:08.192Z</time>
      </trkpt>
      <trkpt lat="48.53205" lon="1.99438">
        <ele>102</ele>
        <time>2025-06-16T14:28:12.449Z</time>
      </trkpt>
      <trkpt lat="48.53207" lon="1.99446">
        <ele>102</ele>
        <time>2025-06-16T14:28:16.588Z</time>
      </trkpt>
      <trkpt lat="48.53209" lon="1.99454">
        <ele>103</ele>
        <time>2025-06-16T14:28:20.648Z</time>
      </trkpt>
      <trkpt lat="48.53211" lon="1.99464">
        <ele>104</ele>
        <time>2025-06-16T14:28:25.001Z</time>
      </trkpt>
      <trkpt lat="48.53212" lon="1.99472">
        <ele>104</ele>
        <time>2025-06-16T14:28:29.190Z</time>
      </trkpt>
      <trkpt lat="48.53213" lon="1.9948">
        <ele>104</ele>
        <time>2025-06-16T14:28:33.695Z</time>
      </trkpt>
      <trkpt lat="48.53217" lon="1.99486">
        <ele>103</ele>
        <time>2025-06-16T14:28:38.253Z</time>
      </trkpt>
      <trkpt lat="48.53221" lon="1.99494">
        <ele>103</ele>
        <time>2025-06-16T14:28:42.491Z</time>
      </trkpt>
      <trkpt lat="48.53223" lon="1.99501">
        <ele>103</ele>
        <time>2025-06-16T14:28:46.695Z</time>
      </trkpt>
      <trkpt lat="48.53226" lon="1.99507">
        <ele>103</ele>
        <time>2025-06-16T14:28:51.092Z</time>
      </trkpt>
      <trkpt lat="48.53229" lon="1.99516">
        <ele>103</ele>
        <time>2025-06-16T14:28:55.367Z</time>
      </trkpt>
      <trkpt lat="48.53231" lon="1.99527">
        <ele>103</ele>
        <time>2025-06-16T14:28:59.699Z</time>
      </trkpt>
      <trkpt lat="48.53233" lon="1.99536">
        <ele>103</ele>
        <time>2025-06-16T14:29:04.088Z</time>
      </trkpt>
      <trkpt lat="48.53236" lon="1.99544">
        <ele>103</ele>
        <time>2025-06-16T14:29:08.405Z</time>
      </trkpt>
      <trkpt lat="48.5324" lon="1.99551">
        <ele>104</ele>
        <time>2025-06-16T14:29:12.746Z</time>
      </trkpt>
      <trkpt lat="48.53244" lon="1.99558">
        <ele>104</ele>
        <time>2025-06-16T14:29:17.109Z</time>
      </trkpt>
      <trkpt lat="48.53248" lon="1.99564">
        <ele>104</ele>
        <time>2025-06-16T14:29:21.483Z</time>
      </trkpt>
      <trkpt lat="48.53252" lon="1.99571">
        <ele>105</ele>
        <time>2025-06-16T14:29:25.905Z</time>
      </trkpt>
      <trkpt lat="48.53256" lon="1.99578">
        <ele>105</ele>
        <time>2025-06-16T14:29:30.308Z</time>
      </trkpt>
      <trkpt lat="48.53259" lon="1.99586">
        <ele>105</ele>
        <time>2025-06-16T14:29:34.651Z</time>
      </trkpt>
      <trkpt lat="48.53262" lon="1.99593">
        <ele>105</ele>
        <time>2025-06-16T14:29:38.983Z</time>
      </trkpt>
      <trkpt lat="48.53265" lon="1.996">
        <ele>108</ele>
        <time>2025-06-16T14:29:43.372Z</time>
      </trkpt>
      <trkpt lat="48.53268" lon="1.99607">
        <ele>108</ele>
        <time>2025-06-16T14:29:47.700Z</time>
      </trkpt>
      <trkpt lat="48.53271" lon="1.99615">
        <ele>108</ele>
        <time>2025-06-16T14:29:52.124Z</time>
      </trkpt>
      <trkpt lat="48.53274" lon="1.99623">
        <ele>108</ele>
        <time>2025-06-16T14:29:56.467Z</time>
      </trkpt>
      <trkpt lat="48.53276" lon="1.99631">
        <ele>108</ele>
        <time>2025-06-16T14:30:00.903Z</time>
      </trkpt>
      <trkpt lat="48.53279" lon="1.99639">
        <ele>108</ele>
        <time>2025-06-16T14:30:05.233Z</time>
      </trkpt>
      <trkpt lat="48.5328" lon="1.99647">
        <ele>108</ele>
        <time>2025-06-16T14:30:09.591Z</time>
      </trkpt>
      <trkpt lat="48.53282" lon="1.99656">
        <ele>108</ele>
        <time>2025-06-16T14:30:14.011Z</time>
      </trkpt>
      <trkpt lat="48.53283" lon="1.99664">
        <ele>108</ele>
        <time>2025-06-16T14:30:18.344Z</time>
      </trkpt>
      <trkpt lat="48.53285" lon="1.99672">
        <ele>108</ele>
        <time>2025-06-16T14:30:22.697Z</time>
      </trkpt>
      <trkpt lat="48.53286" lon="1.99681">
        <ele>107</ele>
        <time>2025-06-16T14:30:27.225Z</time>
      </trkpt>
      <trkpt lat="48.53288" lon="1.99689">
        <ele>107</ele>
        <time>2025-06-16T14:30:31.348Z</time>
      </trkpt>
      <trkpt lat="48.53289" lon="1.99697">
        <ele>107</ele>
        <time>2025-06-16T14:30:35.845Z</time>
      </trkpt>
      <trkpt lat="48.5329" lon="1.99706">
        <ele>107</ele>
        <time>2025-06-16T14:30:40.171Z</time>
      </trkpt>
      <trkpt lat="48.53292" lon="1.99715">
        <ele>105</ele>
        <time>2025-06-16T14:30:44.446Z</time>
      </trkpt>
      <trkpt lat="48.53293" lon="1.99723">
        <ele>105</ele>
        <time>2025-06-16T14:30:48.832Z</time>
      </trkpt>
      <trkpt lat="48.53294" lon="1.99732">
        <ele>105</ele>
        <time>2025-06-16T14:30:53.192Z</time>
      </trkpt>
      <trkpt lat="48.53295" lon="1.99741">
        <ele>105</ele>
        <time>2025-06-16T14:30:57.449Z</time>
      </trkpt>
      <trkpt lat="48.53295" lon="1.9975">
        <ele>105</ele>
        <time>2025-06-16T14:31:01.696Z</time>
      </trkpt>
      <trkpt lat="48.53296" lon="1.99757">
        <ele>105</ele>
        <time>2025-06-16T14:31:05.946Z</time>
      </trkpt>
      <trkpt lat="48.53298" lon="1.99766">
        <ele>104</ele>
        <time>2025-06-16T14:31:10.112Z</time>
      </trkpt>
      <trkpt lat="48.53299" lon="1.99775">
        <ele>104</ele>
        <time>2025-06-16T14:31:14.232Z</time>
      </trkpt>
      <trkpt lat="48.53299" lon="1.99784">
        <ele>104</ele>
        <time>2025-06-16T14:31:18.372Z</time>
      </trkpt>
      <trkpt lat="48.53299" lon="1.99793">
        <ele>104</ele>
        <time>2025-06-16T14:31:22.627Z</time>
      </trkpt>
      <trkpt lat="48.53299" lon="1.99802">
        <ele>104</ele>
        <time>2025-06-16T14:31:26.825Z</time>
      </trkpt>
      <trkpt lat="48.533" lon="1.9981">
        <ele>104</ele>
        <time>2025-06-16T14:31:31.108Z</time>
      </trkpt>
      <trkpt lat="48.53299" lon="1.99819">
        <ele>104</ele>
        <time>2025-06-16T14:31:35.393Z</time>
      </trkpt>
      <trkpt lat="48.533" lon="1.99828">
        <ele>104</ele>
        <time>2025-06-16T14:31:39.691Z</time>
      </trkpt>
      <trkpt lat="48.53301" lon="1.99836">
        <ele>104</ele>
        <time>2025-06-16T14:31:43.868Z</time>
      </trkpt>
      <trkpt lat="48.53302" lon="1.99845">
        <ele>104</ele>
        <time>2025-06-16T14:31:48.062Z</time>
      </trkpt>
      <trkpt lat="48.53303" lon="1.99855">
        <ele>104</ele>
        <time>2025-06-16T14:31:52.699Z</time>
      </trkpt>
      <trkpt lat="48.53303" lon="1.99864">
        <ele>104</ele>
        <time>2025-06-16T14:31:56.929Z</time>
      </trkpt>
      <trkpt lat="48.53303" lon="1.99873">
        <ele>104</ele>
        <time>2025-06-16T14:32:01.109Z</time>
      </trkpt>
      <trkpt lat="48.53303" lon="1.99881">
        <ele>104</ele>
        <time>2025-06-16T14:32:05.292Z</time>
      </trkpt>
      <trkpt lat="48.53303" lon="1.99891">
        <ele>104</ele>
        <time>2025-06-16T14:32:09.608Z</time>
      </trkpt>
      <trkpt lat="48.53303" lon="1.99899">
        <ele>104</ele>
        <time>2025-06-16T14:32:13.984Z</time>
      </trkpt>
      <trkpt lat="48.53303" lon="1.99905">
        <ele>103</ele>
        <time>2025-06-16T14:32:18.373Z</time>
      </trkpt>
      <trkpt lat="48.53304" lon="1.99913">
        <ele>103</ele>
        <time>2025-06-16T14:32:22.688Z</time>
      </trkpt>
      <trkpt lat="48.53304" lon="1.99919">
        <ele>103</ele>
        <time>2025-06-16T14:32:26.703Z</time>
      </trkpt>
      <trkpt lat="48.53305" lon="1.99927">
        <ele>103</ele>
        <time>2025-06-16T14:32:30.752Z</time>
      </trkpt>
      <trkpt lat="48.53305" lon="1.99936">
        <ele>103</ele>
        <time>2025-06-16T14:32:35.624Z</time>
      </trkpt>
      <trkpt lat="48.53305" lon="1.99945">
        <ele>103</ele>
        <time>2025-06-16T14:32:39.864Z</time>
      </trkpt>
      <trkpt lat="48.53305" lon="1.99953">
        <ele>103</ele>
        <time>2025-06-16T14:32:44.165Z</time>
      </trkpt>
      <trkpt lat="48.53305" lon="1.99962">
        <ele>103</ele>
        <time>2025-06-16T14:32:48.414Z</time>
      </trkpt>
      <trkpt lat="48.53306" lon="1.9997">
        <ele>103</ele>
        <time>2025-06-16T14:32:52.920Z</time>
      </trkpt>
      <trkpt lat="48.53307" lon="1.9998">
        <ele>103</ele>
        <time>2025-06-16T14:32:57.553Z</time>
      </trkpt>
      <trkpt lat="48.53308" lon="1.99989">
        <ele>102</ele>
        <time>2025-06-16T14:33:01.692Z</time>
      </trkpt>
      <trkpt lat="48.53309" lon="1.99997">
        <ele>102</ele>
        <time>2025-06-16T14:33:06.094Z</time>
      </trkpt>
      <trkpt lat="48.53308" lon="2.00007">
        <ele>102</ele>
        <time>2025-06-16T14:33:10.691Z</time>
      </trkpt>
      <trkpt lat="48.53307" lon="2.00017">
        <ele>102</ele>
        <time>2025-06-16T14:33:15.438Z</time>
      </trkpt>
      <trkpt lat="48.53307" lon="2.00026">
        <ele>102</ele>
        <time>2025-06-16T14:33:19.594Z</time>
      </trkpt>
      <trkpt lat="48.53308" lon="2.00034">
        <ele>102</ele>
        <time>2025-06-16T14:33:23.694Z</time>
      </trkpt>
      <trkpt lat="48.53308" lon="2.00045">
        <ele>102</ele>
        <time>2025-06-16T14:33:28.534Z</time>
      </trkpt>
      <trkpt lat="48.53309" lon="2.00053">
        <ele>102</ele>
        <time>2025-06-16T14:33:32.693Z</time>
      </trkpt>
      <trkpt lat="48.53309" lon="2.00063">
        <ele>102</ele>
        <time>2025-06-16T14:33:37.478Z</time>
      </trkpt>
      <trkpt lat="48.5331" lon="2.00072">
        <ele>102</ele>
        <time>2025-06-16T14:33:41.696Z</time>
      </trkpt>
      <trkpt lat="48.53309" lon="2.00081">
        <ele>102</ele>
        <time>2025-06-16T14:33:46.099Z</time>
      </trkpt>
      <trkpt lat="48.53309" lon="2.0009">
        <ele>102</ele>
        <time>2025-06-16T14:33:50.457Z</time>
      </trkpt>
      <trkpt lat="48.53309" lon="2.00099">
        <ele>101</ele>
        <time>2025-06-16T14:33:54.595Z</time>
      </trkpt>
      <trkpt lat="48.53309" lon="2.00107">
        <ele>101</ele>
        <time>2025-06-16T14:33:58.639Z</time>
      </trkpt>
      <trkpt lat="48.53309" lon="2.00115">
        <ele>101</ele>
        <time>2025-06-16T14:34:02.693Z</time>
      </trkpt>
      <trkpt lat="48.53309" lon="2.00123">
        <ele>101</ele>
        <time>2025-06-16T14:34:06.883Z</time>
      </trkpt>
      <trkpt lat="48.53308" lon="2.00131">
        <ele>100</ele>
        <time>2025-06-16T14:34:11.182Z</time>
      </trkpt>
      <trkpt lat="48.53308" lon="2.00137">
        <ele>100</ele>
        <time>2025-06-16T14:34:15.695Z</time>
      </trkpt>
      <trkpt lat="48.53308" lon="2.00138">
        <ele>100</ele>
        <time>2025-06-16T14:34:20.701Z</time>
      </trkpt>
      <trkpt lat="48.53307" lon="2.00139">
        <ele>100</ele>
        <time>2025-06-16T14:34:25.703Z</time>
      </trkpt>
      <trkpt lat="48.53305" lon="2.00146">
        <ele>100</ele>
        <time>2025-06-16T14:34:29.697Z</time>
      </trkpt>
      <trkpt lat="48.53309" lon="2.00158">
        <ele>100</ele>
        <time>2025-06-16T14:34:34.700Z</time>
      </trkpt>
      <trkpt lat="48.53311" lon="2.00165">
        <ele>100</ele>
        <time>2025-06-16T14:34:39.145Z</time>
      </trkpt>
      <trkpt lat="48.5331" lon="2.00173">
        <ele>100</ele>
        <time>2025-06-16T14:34:43.241Z</time>
      </trkpt>
      <trkpt lat="48.53307" lon="2.0018">
        <ele>100</ele>
        <time>2025-06-16T14:34:47.708Z</time>
      </trkpt>
      <trkpt lat="48.53305" lon="2.00186">
        <ele>100</ele>
        <time>2025-06-16T14:34:51.866Z</time>
      </trkpt>
      <trkpt lat="48.53304" lon="2.00194">
        <ele>100</ele>
        <time>2025-06-16T14:34:56.286Z</time>
      </trkpt>
      <trkpt lat="48.53304" lon="2.00204">
        <ele>100</ele>
        <time>2025-06-16T14:35:00.401Z</time>
      </trkpt>
      <trkpt lat="48.53305" lon="2.00213">
        <ele>100</ele>
        <time>2025-06-16T14:35:04.461Z</time>
      </trkpt>
      <trkpt lat="48.53306" lon="2.00221">
        <ele>100</ele>
        <time>2025-06-16T14:35:08.541Z</time>
      </trkpt>
      <trkpt lat="48.53306" lon="2.00231">
        <ele>100</ele>
        <time>2025-06-16T14:35:12.697Z</time>
      </trkpt>
      <trkpt lat="48.53305" lon="2.00241">
        <ele>100</ele>
        <time>2025-06-16T14:35:17.244Z</time>
      </trkpt>
      <trkpt lat="48.53304" lon="2.00249">
        <ele>100</ele>
        <time>2025-06-16T14:35:21.339Z</time>
      </trkpt>
      <trkpt lat="48.53304" lon="2.00259">
        <ele>100</ele>
        <time>2025-06-16T14:35:25.503Z</time>
      </trkpt>
      <trkpt lat="48.53303" lon="2.00267">
        <ele>100</ele>
        <time>2025-06-16T14:35:29.706Z</time>
      </trkpt>
      <trkpt lat="48.53302" lon="2.00275">
        <ele>100</ele>
        <time>2025-06-16T14:35:33.699Z</time>
      </trkpt>
      <trkpt lat="48.53302" lon="2.00283">
        <ele>100</ele>
        <time>2025-06-16T14:35:38.167Z</time>
      </trkpt>
      <trkpt lat="48.53302" lon="2.00293">
        <ele>100</ele>
        <time>2025-06-16T14:35:42.698Z</time>
      </trkpt>
      <trkpt lat="48.53301" lon="2.003">
        <ele>100</ele>
        <time>2025-06-16T14:35:46.716Z</time>
      </trkpt>
      <trkpt lat="48.53299" lon="2.0031">
        <ele>100</ele>
        <time>2025-06-16T14:35:51.444Z</time>
      </trkpt>
      <trkpt lat="48.53298" lon="2.00318">
        <ele>100</ele>
        <time>2025-06-16T14:35:55.541Z</time>
      </trkpt>
      <trkpt lat="48.53298" lon="2.00327">
        <ele>100</ele>
        <time>2025-06-16T14:35:59.693Z</time>
      </trkpt>
      <trkpt lat="48.53298" lon="2.00335">
        <ele>100</ele>
        <time>2025-06-16T14:36:03.697Z</time>
      </trkpt>
      <trkpt lat="48.53297" lon="2.00346">
        <ele>100</ele>
        <time>2025-06-16T14:36:08.338Z</time>
      </trkpt>
      <trkpt lat="48.53295" lon="2.00354">
        <ele>101</ele>
        <time>2025-06-16T14:36:12.403Z</time>
      </trkpt>
      <trkpt lat="48.53294" lon="2.00363">
        <ele>101</ele>
        <time>2025-06-16T14:36:16.565Z</time>
      </trkpt>
      <trkpt lat="48.53294" lon="2.00373">
        <ele>101</ele>
        <time>2025-06-16T14:36:21.283Z</time>
      </trkpt>
      <trkpt lat="48.53295" lon="2.00382">
        <ele>102</ele>
        <time>2025-06-16T14:36:25.543Z</time>
      </trkpt>
      <trkpt lat="48.53294" lon="2.00391">
        <ele>102</ele>
        <time>2025-06-16T14:36:29.696Z</time>
      </trkpt>
      <trkpt lat="48.53292" lon="2.00401">
        <ele>102</ele>
        <time>2025-06-16T14:36:34.693Z</time>
      </trkpt>
      <trkpt lat="48.5329" lon="2.0041">
        <ele>100</ele>
        <time>2025-06-16T14:36:39.222Z</time>
      </trkpt>
      <trkpt lat="48.53289" lon="2.00419">
        <ele>100</ele>
        <time>2025-06-16T14:36:43.523Z</time>
      </trkpt>
      <trkpt lat="48.53289" lon="2.00428">
        <ele>100</ele>
        <time>2025-06-16T14:36:47.822Z</time>
      </trkpt>
      <trkpt lat="48.53288" lon="2.00437">
        <ele>101</ele>
        <time>2025-06-16T14:36:52.303Z</time>
      </trkpt>
      <trkpt lat="48.53287" lon="2.00446">
        <ele>101</ele>
        <time>2025-06-16T14:36:56.603Z</time>
      </trkpt>
      <trkpt lat="48.53287" lon="2.00454">
        <ele>101</ele>
        <time>2025-06-16T14:37:01.004Z</time>
      </trkpt>
      <trkpt lat="48.53287" lon="2.00462">
        <ele>101</ele>
        <time>2025-06-16T14:37:05.282Z</time>
      </trkpt>
      <trkpt lat="48.53286" lon="2.00471">
        <ele>101</ele>
        <time>2025-06-16T14:37:09.699Z</time>
      </trkpt>
      <trkpt lat="48.53286" lon="2.00479">
        <ele>101</ele>
        <time>2025-06-16T14:37:14.438Z</time>
      </trkpt>
      <trkpt lat="48.53287" lon="2.00489">
        <ele>101</ele>
        <time>2025-06-16T14:37:18.459Z</time>
      </trkpt>
      <trkpt lat="48.53287" lon="2.00498">
        <ele>101</ele>
        <time>2025-06-16T14:37:22.664Z</time>
      </trkpt>
      <trkpt lat="48.53285" lon="2.00507">
        <ele>101</ele>
        <time>2025-06-16T14:37:26.693Z</time>
      </trkpt>
      <trkpt lat="48.53284" lon="2.00515">
        <ele>102</ele>
        <time>2025-06-16T14:37:30.698Z</time>
      </trkpt>
      <trkpt lat="48.53283" lon="2.00524">
        <ele>102</ele>
        <time>2025-06-16T14:37:35.285Z</time>
      </trkpt>
      <trkpt lat="48.53282" lon="2.00534">
        <ele>102</ele>
        <time>2025-06-16T14:37:39.662Z</time>
      </trkpt>
      <trkpt lat="48.53282" lon="2.00543">
        <ele>103</ele>
        <time>2025-06-16T14:37:44.142Z</time>
      </trkpt>
      <trkpt lat="48.53281" lon="2.00552">
        <ele>103</ele>
        <time>2025-06-16T14:37:48.640Z</time>
      </trkpt>
      <trkpt lat="48.53279" lon="2.0056">
        <ele>103</ele>
        <time>2025-06-16T14:37:52.983Z</time>
      </trkpt>
      <trkpt lat="48.53277" lon="2.00568">
        <ele>103</ele>
        <time>2025-06-16T14:37:57.302Z</time>
      </trkpt>
      <trkpt lat="48.53277" lon="2.00576">
        <ele>103</ele>
        <time>2025-06-16T14:38:01.525Z</time>
      </trkpt>
      <trkpt lat="48.53275" lon="2.00585">
        <ele>103</ele>
        <time>2025-06-16T14:38:05.682Z</time>
      </trkpt>
      <trkpt lat="48.53273" lon="2.00593">
        <ele>103</ele>
        <time>2025-06-16T14:38:09.700Z</time>
      </trkpt>
      <trkpt lat="48.53272" lon="2.00601">
        <ele>104</ele>
        <time>2025-06-16T14:38:14.103Z</time>
      </trkpt>
      <trkpt lat="48.53268" lon="2.00609">
        <ele>104</ele>
        <time>2025-06-16T14:38:18.437Z</time>
      </trkpt>
      <trkpt lat="48.53265" lon="2.00617">
        <ele>104</ele>
        <time>2025-06-16T14:38:22.702Z</time>
      </trkpt>
      <trkpt lat="48.53264" lon="2.00625">
        <ele>100</ele>
        <time>2025-06-16T14:38:27.099Z</time>
      </trkpt>
      <trkpt lat="48.5326" lon="2.00633">
        <ele>101</ele>
        <time>2025-06-16T14:38:31.296Z</time>
      </trkpt>
      <trkpt lat="48.53255" lon="2.00639">
        <ele>101</ele>
        <time>2025-06-16T14:38:35.623Z</time>
      </trkpt>
      <trkpt lat="48.53253" lon="2.00647">
        <ele>101</ele>
        <time>2025-06-16T14:38:39.866Z</time>
      </trkpt>
      <trkpt lat="48.53251" lon="2.00656">
        <ele>103</ele>
        <time>2025-06-16T14:38:44.698Z</time>
      </trkpt>
      <trkpt lat="48.5325" lon="2.00663">
        <ele>103</ele>
        <time>2025-06-16T14:38:49.286Z</time>
      </trkpt>
      <trkpt lat="48.53245" lon="2.0067">
        <ele>103</ele>
        <time>2025-06-16T14:38:53.518Z</time>
      </trkpt>
      <trkpt lat="48.5324" lon="2.00677">
        <ele>103</ele>
        <time>2025-06-16T14:38:57.665Z</time>
      </trkpt>
      <trkpt lat="48.53234" lon="2.00682">
        <ele>101</ele>
        <time>2025-06-16T14:39:01.942Z</time>
      </trkpt>
      <trkpt lat="48.53229" lon="2.00688">
        <ele>101</ele>
        <time>2025-06-16T14:39:06.257Z</time>
      </trkpt>
      <trkpt lat="48.53224" lon="2.00693">
        <ele>101</ele>
        <time>2025-06-16T14:39:10.586Z</time>
      </trkpt>
      <trkpt lat="48.5322" lon="2.00699">
        <ele>101</ele>
        <time>2025-06-16T14:39:14.902Z</time>
      </trkpt>
      <trkpt lat="48.53216" lon="2.00706">
        <ele>101</ele>
        <time>2025-06-16T14:39:19.279Z</time>
      </trkpt>
      <trkpt lat="48.53212" lon="2.00712">
        <ele>102</ele>
        <time>2025-06-16T14:39:23.581Z</time>
      </trkpt>
      <trkpt lat="48.53207" lon="2.00718">
        <ele>100</ele>
        <time>2025-06-16T14:39:27.862Z</time>
      </trkpt>
      <trkpt lat="48.53203" lon="2.00725">
        <ele>100</ele>
        <time>2025-06-16T14:39:32.285Z</time>
      </trkpt>
      <trkpt lat="48.53203" lon="2.00734">
        <ele>100</ele>
        <time>2025-06-16T14:39:36.405Z</time>
      </trkpt>
      <trkpt lat="48.53206" lon="2.0074">
        <ele>103</ele>
        <time>2025-06-16T14:39:40.697Z</time>
      </trkpt>
      <trkpt lat="48.53211" lon="2.00745">
        <ele>105</ele>
        <time>2025-06-16T14:39:45.263Z</time>
      </trkpt>
      <trkpt lat="48.53215" lon="2.0075">
        <ele>105</ele>
        <time>2025-06-16T14:39:49.691Z</time>
      </trkpt>
      <trkpt lat="48.53219" lon="2.00756">
        <ele>105</ele>
        <time>2025-06-16T14:39:54.240Z</time>
      </trkpt>
      <trkpt lat="48.53222" lon="2.00761">
        <ele>105</ele>
        <time>2025-06-16T14:39:58.258Z</time>
      </trkpt>
      <trkpt lat="48.53226" lon="2.00767">
        <ele>109</ele>
        <time>2025-06-16T14:40:02.692Z</time>
      </trkpt>
      <trkpt lat="48.53229" lon="2.00774">
        <ele>109</ele>
        <time>2025-06-16T14:40:06.802Z</time>
      </trkpt>
      <trkpt lat="48.53233" lon="2.00781">
        <ele>109</ele>
        <time>2025-06-16T14:40:11.204Z</time>
      </trkpt>
      <trkpt lat="48.53236" lon="2.00787">
        <ele>109</ele>
        <time>2025-06-16T14:40:15.537Z</time>
      </trkpt>
      <trkpt lat="48.53239" lon="2.00793">
        <ele>116</ele>
        <time>2025-06-16T14:40:19.557Z</time>
      </trkpt>
      <trkpt lat="48.53243" lon="2.00798">
        <ele>116</ele>
        <time>2025-06-16T14:40:23.883Z</time>
      </trkpt>
      <trkpt lat="48.53248" lon="2.00804">
        <ele>116</ele>
        <time>2025-06-16T14:40:28.398Z</time>
      </trkpt>
      <trkpt lat="48.53252" lon="2.0081">
        <ele>116</ele>
        <time>2025-06-16T14:40:32.693Z</time>
      </trkpt>
      <trkpt lat="48.53256" lon="2.00818">
        <ele>116</ele>
        <time>2025-06-16T14:40:37.282Z</time>
      </trkpt>
      <trkpt lat="48.5326" lon="2.00825">
        <ele>118</ele>
        <time>2025-06-16T14:40:41.694Z</time>
      </trkpt>
      <trkpt lat="48.53264" lon="2.0083">
        <ele>118</ele>
        <time>2025-06-16T14:40:46.198Z</time>
      </trkpt>
      <trkpt lat="48.53268" lon="2.00836">
        <ele>119</ele>
        <time>2025-06-16T14:40:50.696Z</time>
      </trkpt>
      <trkpt lat="48.53271" lon="2.0084">
        <ele>119</ele>
        <time>2025-06-16T14:40:54.944Z</time>
      </trkpt>
      <trkpt lat="48.53268" lon="2.00847">
        <ele>119</ele>
        <time>2025-06-16T14:40:59.518Z</time>
      </trkpt>
      <trkpt lat="48.53265" lon="2.00851">
        <ele>118</ele>
        <time>2025-06-16T14:41:03.700Z</time>
      </trkpt>
      <trkpt lat="48.53265" lon="2.00858">
        <ele>118</ele>
        <time>2025-06-16T14:41:08.222Z</time>
      </trkpt>
      <trkpt lat="48.53263" lon="2.00866">
        <ele>118</ele>
        <time>2025-06-16T14:41:12.694Z</time>
      </trkpt>
      <trkpt lat="48.53259" lon="2.00871">
        <ele>118</ele>
        <time>2025-06-16T14:41:16.697Z</time>
      </trkpt>
      <trkpt lat="48.53253" lon="2.00873">
        <ele>118</ele>
        <time>2025-06-16T14:41:20.919Z</time>
      </trkpt>
      <trkpt lat="48.53249" lon="2.00878">
        <ele>117</ele>
        <time>2025-06-16T14:41:25.203Z</time>
      </trkpt>
      <trkpt lat="48.53244" lon="2.00883">
        <ele>117</ele>
        <time>2025-06-16T14:41:29.597Z</time>
      </trkpt>
      <trkpt lat="48.5324" lon="2.00889">
        <ele>117</ele>
        <time>2025-06-16T14:41:34.010Z</time>
      </trkpt>
      <trkpt lat="48.53236" lon="2.00895">
        <ele>117</ele>
        <time>2025-06-16T14:41:38.303Z</time>
      </trkpt>
      <trkpt lat="48.53233" lon="2.00902">
        <ele>117</ele>
        <time>2025-06-16T14:41:42.702Z</time>
      </trkpt>
      <trkpt lat="48.5323" lon="2.00911">
        <ele>116</ele>
        <time>2025-06-16T14:41:47.141Z</time>
      </trkpt>
      <trkpt lat="48.53229" lon="2.00919">
        <ele>116</ele>
        <time>2025-06-16T14:41:51.562Z</time>
      </trkpt>
      <trkpt lat="48.53228" lon="2.00927">
        <ele>116</ele>
        <time>2025-06-16T14:41:55.695Z</time>
      </trkpt>
      <trkpt lat="48.53231" lon="2.00935">
        <ele>116</ele>
        <time>2025-06-16T14:42:00.137Z</time>
      </trkpt>
      <trkpt lat="48.53236" lon="2.00939">
        <ele>116</ele>
        <time>2025-06-16T14:42:04.541Z</time>
      </trkpt>
      <trkpt lat="48.53238" lon="2.00944">
        <ele>116</ele>
        <time>2025-06-16T14:42:08.825Z</time>
      </trkpt>
      <trkpt lat="48.53244" lon="2.00945">
        <ele>116</ele>
        <time>2025-06-16T14:42:12.924Z</time>
      </trkpt>
      <trkpt lat="48.5325" lon="2.00946">
        <ele>116</ele>
        <time>2025-06-16T14:42:17.697Z</time>
      </trkpt>
      <trkpt lat="48.53256" lon="2.00943">
        <ele>116</ele>
        <time>2025-06-16T14:42:21.923Z</time>
      </trkpt>
      <trkpt lat="48.53262" lon="2.00941">
        <ele>116</ele>
        <time>2025-06-16T14:42:26.363Z</time>
      </trkpt>
      <trkpt lat="48.5327" lon="2.00943">
        <ele>117</ele>
        <time>2025-06-16T14:42:30.699Z</time>
      </trkpt>
      <trkpt lat="48.53276" lon="2.00945">
        <ele>117</ele>
        <time>2025-06-16T14:42:35.245Z</time>
      </trkpt>
      <trkpt lat="48.53281" lon="2.00947">
        <ele>117</ele>
        <time>2025-06-16T14:42:39.262Z</time>
      </trkpt>
      <trkpt lat="48.53285" lon="2.00949">
        <ele>117</ele>
        <time>2025-06-16T14:42:43.342Z</time>
      </trkpt>
      <trkpt lat="48.53291" lon="2.00952">
        <ele>117</ele>
        <time>2025-06-16T14:42:47.924Z</time>
      </trkpt>
      <trkpt lat="48.53296" lon="2.00954">
        <ele>118</ele>
        <time>2025-06-16T14:42:52.464Z</time>
      </trkpt>
      <trkpt lat="48.53303" lon="2.00955">
        <ele>118</ele>
        <time>2025-06-16T14:42:56.919Z</time>
      </trkpt>
      <trkpt lat="48.5331" lon="2.00956">
        <ele>118</ele>
        <time>2025-06-16T14:43:01.262Z</time>
      </trkpt>
      <trkpt lat="48.53315" lon="2.00959">
        <ele>117</ele>
        <time>2025-06-16T14:43:05.665Z</time>
      </trkpt>
      <trkpt lat="48.53321" lon="2.00961">
        <ele>117</ele>
        <time>2025-06-16T14:43:10.084Z</time>
      </trkpt>
      <trkpt lat="48.53326" lon="2.00964">
        <ele>117</ele>
        <time>2025-06-16T14:43:14.599Z</time>
      </trkpt>
      <trkpt lat="48.5333" lon="2.0097">
        <ele>117</ele>
        <time>2025-06-16T14:43:19.122Z</time>
      </trkpt>
      <trkpt lat="48.53334" lon="2.00975">
        <ele>117</ele>
        <time>2025-06-16T14:43:23.277Z</time>
      </trkpt>
      <trkpt lat="48.53337" lon="2.0098">
        <ele>117</ele>
        <time>2025-06-16T14:43:27.503Z</time>
      </trkpt>
      <trkpt lat="48.5334" lon="2.00983">
        <ele>117</ele>
        <time>2025-06-16T14:43:31.598Z</time>
      </trkpt>
      <trkpt lat="48.53343" lon="2.00987">
        <ele>117</ele>
        <time>2025-06-16T14:43:35.691Z</time>
      </trkpt>
      <trkpt lat="48.53343" lon="2.00987">
        <ele>117</ele>
        <time>2025-06-16T14:43:41.698Z</time>
      </trkpt>
      <trkpt lat="48.53347" lon="2.00982">
        <ele>117</ele>
        <time>2025-06-16T14:43:46.360Z</time>
      </trkpt>
      <trkpt lat="48.5335" lon="2.00974">
        <ele>116</ele>
        <time>2025-06-16T14:43:50.661Z</time>
      </trkpt>
      <trkpt lat="48.53354" lon="2.00975">
        <ele>116</ele>
        <time>2025-06-16T14:43:55.688Z</time>
      </trkpt>
    </trkseg>
  </trk>
</gpx>